<?xml version="1.0" encoding="UTF-8" standalone="no" ?>
<gpx xmlns="http://www.topografix.com/GPX/1/1" xmlns:xsi="http://www.w3.org/2001/XMLSchema-instance" xsi:schemaLocation="http://www.topografix.com/GPX/1/1 http://www.topografix.com/GPX/1/1/gpx.xsd" version="1.1" creator="VisuGPX - https://www.visugpx.com">
  <metadata>
    <name>St Pierre d'alvey - Arbignieu </name>
    <desc><![CDATA[Depart de la maison
Arrivée au centre équestre ]]></desc>
  </metadata>
  <trk>
    <name><![CDATA[St Pierre d'alvey - Arbignieu _1]]></name>
    <trkseg>
      <trkpt lat="45.6257" lon="5.72616">
        <ele>679</ele>
        <time>2017-04-23T10:23:13Z</time>
      </trkpt>
      <trkpt lat="45.6257" lon="5.72616">
        <ele>679</ele>
        <time>2017-04-23T10:23:13Z</time>
      </trkpt>
      <trkpt lat="45.6257" lon="5.72615">
        <ele>679</ele>
        <time>2017-04-23T10:23:13Z</time>
      </trkpt>
      <trkpt lat="45.62572" lon="5.72613">
        <ele>679</ele>
        <time>2017-04-23T10:23:13Z</time>
      </trkpt>
      <trkpt lat="45.62575" lon="5.72609">
        <ele>679</ele>
        <time>2017-04-23T10:23:13Z</time>
      </trkpt>
      <trkpt lat="45.62578" lon="5.72606">
        <ele>679</ele>
        <time>2017-04-23T10:23:29Z</time>
      </trkpt>
      <trkpt lat="45.62582" lon="5.72604">
        <ele>679</ele>
        <time>2017-04-23T10:23:29Z</time>
      </trkpt>
      <trkpt lat="45.62584" lon="5.726">
        <ele>679</ele>
        <time>2017-04-23T10:23:29Z</time>
      </trkpt>
      <trkpt lat="45.62587" lon="5.72598">
        <ele>679</ele>
        <time>2017-04-23T10:23:29Z</time>
      </trkpt>
      <trkpt lat="45.6259" lon="5.72596">
        <ele>679</ele>
        <time>2017-04-23T10:23:45Z</time>
      </trkpt>
      <trkpt lat="45.62595" lon="5.72592">
        <ele>679</ele>
        <time>2017-04-23T10:23:45Z</time>
      </trkpt>
      <trkpt lat="45.626" lon="5.72588">
        <ele>679</ele>
        <time>2017-04-23T10:23:45Z</time>
      </trkpt>
      <trkpt lat="45.62603" lon="5.72584">
        <ele>679</ele>
        <time>2017-04-23T10:23:45Z</time>
      </trkpt>
      <trkpt lat="45.62608" lon="5.72579">
        <ele>679</ele>
        <time>2017-04-23T10:24:01Z</time>
      </trkpt>
      <trkpt lat="45.62613" lon="5.72577">
        <ele>679</ele>
        <time>2017-04-23T10:24:01Z</time>
      </trkpt>
      <trkpt lat="45.62618" lon="5.72573">
        <ele>679</ele>
        <time>2017-04-23T10:24:01Z</time>
      </trkpt>
      <trkpt lat="45.62623" lon="5.7257">
        <ele>679</ele>
        <time>2017-04-23T10:24:01Z</time>
      </trkpt>
      <trkpt lat="45.62629" lon="5.72565">
        <ele>669</ele>
        <time>2017-04-23T10:24:17Z</time>
      </trkpt>
      <trkpt lat="45.62632" lon="5.7256">
        <ele>669</ele>
        <time>2017-04-23T10:24:17Z</time>
      </trkpt>
      <trkpt lat="45.62636" lon="5.72555">
        <ele>669</ele>
        <time>2017-04-23T10:24:17Z</time>
      </trkpt>
      <trkpt lat="45.62641" lon="5.72552">
        <ele>669</ele>
        <time>2017-04-23T10:24:17Z</time>
      </trkpt>
      <trkpt lat="45.62645" lon="5.72548">
        <ele>669</ele>
        <time>2017-04-23T10:24:33Z</time>
      </trkpt>
      <trkpt lat="45.62649" lon="5.72545">
        <ele>669</ele>
        <time>2017-04-23T10:24:33Z</time>
      </trkpt>
      <trkpt lat="45.62654" lon="5.7254">
        <ele>686</ele>
        <time>2017-04-23T10:24:33Z</time>
      </trkpt>
      <trkpt lat="45.6266" lon="5.72536">
        <ele>686</ele>
        <time>2017-04-23T10:24:33Z</time>
      </trkpt>
      <trkpt lat="45.62666" lon="5.72533">
        <ele>686</ele>
        <time>2017-04-23T10:24:49Z</time>
      </trkpt>
      <trkpt lat="45.6267" lon="5.72529">
        <ele>686</ele>
        <time>2017-04-23T10:24:49Z</time>
      </trkpt>
      <trkpt lat="45.62675" lon="5.72525">
        <ele>686</ele>
        <time>2017-04-23T10:24:49Z</time>
      </trkpt>
      <trkpt lat="45.62679" lon="5.72521">
        <ele>686</ele>
        <time>2017-04-23T10:24:49Z</time>
      </trkpt>
      <trkpt lat="45.62683" lon="5.72516">
        <ele>686</ele>
        <time>2017-04-23T10:25:05Z</time>
      </trkpt>
      <trkpt lat="45.62687" lon="5.72509">
        <ele>686</ele>
        <time>2017-04-23T10:25:05Z</time>
      </trkpt>
      <trkpt lat="45.62692" lon="5.72503">
        <ele>686</ele>
        <time>2017-04-23T10:25:05Z</time>
      </trkpt>
      <trkpt lat="45.62697" lon="5.72498">
        <ele>686</ele>
        <time>2017-04-23T10:25:05Z</time>
      </trkpt>
      <trkpt lat="45.627" lon="5.72495">
        <ele>686</ele>
        <time>2017-04-23T10:25:21Z</time>
      </trkpt>
      <trkpt lat="45.62703" lon="5.72491">
        <ele>686</ele>
        <time>2017-04-23T10:25:21Z</time>
      </trkpt>
      <trkpt lat="45.62706" lon="5.72487">
        <ele>686</ele>
        <time>2017-04-23T10:25:21Z</time>
      </trkpt>
      <trkpt lat="45.6271" lon="5.72485">
        <ele>675</ele>
        <time>2017-04-23T10:25:21Z</time>
      </trkpt>
      <trkpt lat="45.62716" lon="5.72482">
        <ele>675</ele>
        <time>2017-04-23T10:25:37Z</time>
      </trkpt>
      <trkpt lat="45.62721" lon="5.72479">
        <ele>675</ele>
        <time>2017-04-23T10:25:37Z</time>
      </trkpt>
      <trkpt lat="45.62725" lon="5.72476">
        <ele>675</ele>
        <time>2017-04-23T10:25:37Z</time>
      </trkpt>
      <trkpt lat="45.6273" lon="5.72473">
        <ele>675</ele>
        <time>2017-04-23T10:25:37Z</time>
      </trkpt>
      <trkpt lat="45.62732" lon="5.72471">
        <ele>675</ele>
        <time>2017-04-23T10:25:53Z</time>
      </trkpt>
      <trkpt lat="45.62737" lon="5.72468">
        <ele>675</ele>
        <time>2017-04-23T10:25:53Z</time>
      </trkpt>
      <trkpt lat="45.62743" lon="5.72466">
        <ele>675</ele>
        <time>2017-04-23T10:25:53Z</time>
      </trkpt>
      <trkpt lat="45.62748" lon="5.72463">
        <ele>675</ele>
        <time>2017-04-23T10:25:53Z</time>
      </trkpt>
      <trkpt lat="45.62755" lon="5.72462">
        <ele>675</ele>
        <time>2017-04-23T10:26:09Z</time>
      </trkpt>
      <trkpt lat="45.62759" lon="5.7246">
        <ele>675</ele>
        <time>2017-04-23T10:26:09Z</time>
      </trkpt>
      <trkpt lat="45.62763" lon="5.72459">
        <ele>675</ele>
        <time>2017-04-23T10:26:09Z</time>
      </trkpt>
      <trkpt lat="45.62769" lon="5.72458">
        <ele>689</ele>
        <time>2017-04-23T10:26:09Z</time>
      </trkpt>
      <trkpt lat="45.62775" lon="5.72454">
        <ele>689</ele>
        <time>2017-04-23T10:26:25Z</time>
      </trkpt>
      <trkpt lat="45.62781" lon="5.7245">
        <ele>689</ele>
        <time>2017-04-23T10:26:25Z</time>
      </trkpt>
      <trkpt lat="45.62786" lon="5.72446">
        <ele>689</ele>
        <time>2017-04-23T10:26:25Z</time>
      </trkpt>
      <trkpt lat="45.62792" lon="5.72442">
        <ele>677</ele>
        <time>2017-04-23T10:26:25Z</time>
      </trkpt>
      <trkpt lat="45.62799" lon="5.72438">
        <ele>677</ele>
        <time>2017-04-23T10:26:41Z</time>
      </trkpt>
      <trkpt lat="45.62806" lon="5.72433">
        <ele>677</ele>
        <time>2017-04-23T10:26:41Z</time>
      </trkpt>
      <trkpt lat="45.62811" lon="5.7243">
        <ele>677</ele>
        <time>2017-04-23T10:26:41Z</time>
      </trkpt>
      <trkpt lat="45.62816" lon="5.72426">
        <ele>677</ele>
        <time>2017-04-23T10:26:41Z</time>
      </trkpt>
      <trkpt lat="45.62819" lon="5.72421">
        <ele>677</ele>
        <time>2017-04-23T10:26:57Z</time>
      </trkpt>
      <trkpt lat="45.62826" lon="5.72412">
        <ele>677</ele>
        <time>2017-04-23T10:26:57Z</time>
      </trkpt>
      <trkpt lat="45.62835" lon="5.72396">
        <ele>677</ele>
        <time>2017-04-23T10:26:57Z</time>
      </trkpt>
      <trkpt lat="45.62839" lon="5.7239">
        <ele>677</ele>
        <time>2017-04-23T10:26:57Z</time>
      </trkpt>
      <trkpt lat="45.62842" lon="5.72381">
        <ele>677</ele>
        <time>2017-04-23T10:27:13Z</time>
      </trkpt>
      <trkpt lat="45.62848" lon="5.72373">
        <ele>691</ele>
        <time>2017-04-23T10:27:13Z</time>
      </trkpt>
      <trkpt lat="45.62855" lon="5.72367">
        <ele>691</ele>
        <time>2017-04-23T10:27:13Z</time>
      </trkpt>
      <trkpt lat="45.62862" lon="5.72359">
        <ele>691</ele>
        <time>2017-04-23T10:27:13Z</time>
      </trkpt>
      <trkpt lat="45.62868" lon="5.72351">
        <ele>691</ele>
        <time>2017-04-23T10:27:29Z</time>
      </trkpt>
      <trkpt lat="45.62873" lon="5.72344">
        <ele>691</ele>
        <time>2017-04-23T10:27:29Z</time>
      </trkpt>
      <trkpt lat="45.62877" lon="5.7234">
        <ele>680</ele>
        <time>2017-04-23T10:27:29Z</time>
      </trkpt>
      <trkpt lat="45.6288" lon="5.72334">
        <ele>680</ele>
        <time>2017-04-23T10:27:29Z</time>
      </trkpt>
      <trkpt lat="45.62883" lon="5.72329">
        <ele>680</ele>
        <time>2017-04-23T10:27:45Z</time>
      </trkpt>
      <trkpt lat="45.62887" lon="5.72324">
        <ele>680</ele>
        <time>2017-04-23T10:27:45Z</time>
      </trkpt>
      <trkpt lat="45.6289" lon="5.72319">
        <ele>680</ele>
        <time>2017-04-23T10:27:45Z</time>
      </trkpt>
      <trkpt lat="45.62894" lon="5.72313">
        <ele>680</ele>
        <time>2017-04-23T10:27:45Z</time>
      </trkpt>
      <trkpt lat="45.62898" lon="5.72308">
        <ele>680</ele>
        <time>2017-04-23T10:28:01Z</time>
      </trkpt>
      <trkpt lat="45.62903" lon="5.723">
        <ele>680</ele>
        <time>2017-04-23T10:28:01Z</time>
      </trkpt>
      <trkpt lat="45.62908" lon="5.72292">
        <ele>680</ele>
        <time>2017-04-23T10:28:01Z</time>
      </trkpt>
      <trkpt lat="45.62913" lon="5.72286">
        <ele>694</ele>
        <time>2017-04-23T10:28:01Z</time>
      </trkpt>
      <trkpt lat="45.62916" lon="5.7228">
        <ele>694</ele>
        <time>2017-04-23T10:28:17Z</time>
      </trkpt>
      <trkpt lat="45.62918" lon="5.72273">
        <ele>694</ele>
        <time>2017-04-23T10:28:17Z</time>
      </trkpt>
      <trkpt lat="45.6292" lon="5.72267">
        <ele>694</ele>
        <time>2017-04-23T10:28:17Z</time>
      </trkpt>
      <trkpt lat="45.62921" lon="5.72259">
        <ele>694</ele>
        <time>2017-04-23T10:28:17Z</time>
      </trkpt>
      <trkpt lat="45.62922" lon="5.72251">
        <ele>694</ele>
        <time>2017-04-23T10:28:33Z</time>
      </trkpt>
      <trkpt lat="45.62924" lon="5.72243">
        <ele>694</ele>
        <time>2017-04-23T10:28:33Z</time>
      </trkpt>
      <trkpt lat="45.62926" lon="5.72231">
        <ele>694</ele>
        <time>2017-04-23T10:28:33Z</time>
      </trkpt>
      <trkpt lat="45.62928" lon="5.72223">
        <ele>694</ele>
        <time>2017-04-23T10:28:33Z</time>
      </trkpt>
      <trkpt lat="45.62931" lon="5.72216">
        <ele>694</ele>
        <time>2017-04-23T10:28:49Z</time>
      </trkpt>
      <trkpt lat="45.62934" lon="5.72209">
        <ele>694</ele>
        <time>2017-04-23T10:28:49Z</time>
      </trkpt>
      <trkpt lat="45.62938" lon="5.72203">
        <ele>711</ele>
        <time>2017-04-23T10:28:49Z</time>
      </trkpt>
      <trkpt lat="45.62942" lon="5.72196">
        <ele>711</ele>
        <time>2017-04-23T10:28:49Z</time>
      </trkpt>
      <trkpt lat="45.62945" lon="5.72189">
        <ele>711</ele>
        <time>2017-04-23T10:29:05Z</time>
      </trkpt>
      <trkpt lat="45.62947" lon="5.72184">
        <ele>711</ele>
        <time>2017-04-23T10:29:05Z</time>
      </trkpt>
      <trkpt lat="45.62951" lon="5.72178">
        <ele>711</ele>
        <time>2017-04-23T10:29:05Z</time>
      </trkpt>
      <trkpt lat="45.62954" lon="5.72172">
        <ele>711</ele>
        <time>2017-04-23T10:29:05Z</time>
      </trkpt>
      <trkpt lat="45.62958" lon="5.72166">
        <ele>711</ele>
        <time>2017-04-23T10:29:21Z</time>
      </trkpt>
      <trkpt lat="45.62961" lon="5.7216">
        <ele>701</ele>
        <time>2017-04-23T10:29:21Z</time>
      </trkpt>
      <trkpt lat="45.62964" lon="5.72155">
        <ele>701</ele>
        <time>2017-04-23T10:29:21Z</time>
      </trkpt>
      <trkpt lat="45.62967" lon="5.72148">
        <ele>701</ele>
        <time>2017-04-23T10:29:21Z</time>
      </trkpt>
      <trkpt lat="45.62974" lon="5.72133">
        <ele>701</ele>
        <time>2017-04-23T10:29:37Z</time>
      </trkpt>
      <trkpt lat="45.62985" lon="5.72125">
        <ele>721</ele>
        <time>2017-04-23T10:29:37Z</time>
      </trkpt>
      <trkpt lat="45.62987" lon="5.7212">
        <ele>721</ele>
        <time>2017-04-23T10:29:37Z</time>
      </trkpt>
      <trkpt lat="45.62987" lon="5.72113">
        <ele>721</ele>
        <time>2017-04-23T10:29:37Z</time>
      </trkpt>
      <trkpt lat="45.62985" lon="5.72106">
        <ele>721</ele>
        <time>2017-04-23T10:29:53Z</time>
      </trkpt>
      <trkpt lat="45.62981" lon="5.72103">
        <ele>721</ele>
        <time>2017-04-23T10:29:53Z</time>
      </trkpt>
      <trkpt lat="45.62977" lon="5.72101">
        <ele>721</ele>
        <time>2017-04-23T10:29:53Z</time>
      </trkpt>
      <trkpt lat="45.62972" lon="5.721">
        <ele>721</ele>
        <time>2017-04-23T10:29:53Z</time>
      </trkpt>
      <trkpt lat="45.62968" lon="5.72104">
        <ele>721</ele>
        <time>2017-04-23T10:30:29Z</time>
      </trkpt>
      <trkpt lat="45.62968" lon="5.72104">
        <ele>721</ele>
        <time>2017-04-23T10:30:29Z</time>
      </trkpt>
      <trkpt lat="45.62967" lon="5.72103">
        <ele>721</ele>
        <time>2017-04-23T10:30:29Z</time>
      </trkpt>
      <trkpt lat="45.62963" lon="5.72101">
        <ele>721</ele>
        <time>2017-04-23T10:30:29Z</time>
      </trkpt>
      <trkpt lat="45.62958" lon="5.721">
        <ele>729</ele>
        <time>2017-04-23T10:30:29Z</time>
      </trkpt>
      <trkpt lat="45.62952" lon="5.721">
        <ele>729</ele>
        <time>2017-04-23T10:30:45Z</time>
      </trkpt>
      <trkpt lat="45.62947" lon="5.72099">
        <ele>729</ele>
        <time>2017-04-23T10:30:45Z</time>
      </trkpt>
      <trkpt lat="45.62941" lon="5.721">
        <ele>729</ele>
        <time>2017-04-23T10:30:45Z</time>
      </trkpt>
      <trkpt lat="45.62936" lon="5.721">
        <ele>729</ele>
        <time>2017-04-23T10:30:45Z</time>
      </trkpt>
      <trkpt lat="45.62931" lon="5.72101">
        <ele>729</ele>
        <time>2017-04-23T10:31:01Z</time>
      </trkpt>
      <trkpt lat="45.62926" lon="5.72101">
        <ele>729</ele>
        <time>2017-04-23T10:31:01Z</time>
      </trkpt>
      <trkpt lat="45.62922" lon="5.72101">
        <ele>729</ele>
        <time>2017-04-23T10:31:01Z</time>
      </trkpt>
      <trkpt lat="45.62917" lon="5.72099">
        <ele>729</ele>
        <time>2017-04-23T10:31:01Z</time>
      </trkpt>
      <trkpt lat="45.62912" lon="5.72099">
        <ele>729</ele>
        <time>2017-04-23T10:31:21Z</time>
      </trkpt>
      <trkpt lat="45.6291" lon="5.721">
        <ele>729</ele>
        <time>2017-04-23T10:31:21Z</time>
      </trkpt>
      <trkpt lat="45.62908" lon="5.72101">
        <ele>729</ele>
        <time>2017-04-23T10:31:21Z</time>
      </trkpt>
      <trkpt lat="45.62906" lon="5.72103">
        <ele>729</ele>
        <time>2017-04-23T10:31:21Z</time>
      </trkpt>
      <trkpt lat="45.62904" lon="5.72104">
        <ele>729</ele>
        <time>2017-04-23T10:31:21Z</time>
      </trkpt>
      <trkpt lat="45.629" lon="5.72105">
        <ele>729</ele>
        <time>2017-04-23T10:31:37Z</time>
      </trkpt>
      <trkpt lat="45.62894" lon="5.72105">
        <ele>729</ele>
        <time>2017-04-23T10:31:37Z</time>
      </trkpt>
      <trkpt lat="45.62887" lon="5.72105">
        <ele>729</ele>
        <time>2017-04-23T10:31:37Z</time>
      </trkpt>
      <trkpt lat="45.62881" lon="5.72104">
        <ele>729</ele>
        <time>2017-04-23T10:31:37Z</time>
      </trkpt>
      <trkpt lat="45.6288" lon="5.721">
        <ele>729</ele>
        <time>2017-04-23T10:31:53Z</time>
      </trkpt>
      <trkpt lat="45.62881" lon="5.72096">
        <ele>729</ele>
        <time>2017-04-23T10:31:53Z</time>
      </trkpt>
      <trkpt lat="45.62882" lon="5.72091">
        <ele>729</ele>
        <time>2017-04-23T10:31:53Z</time>
      </trkpt>
      <trkpt lat="45.62883" lon="5.72088">
        <ele>729</ele>
        <time>2017-04-23T10:31:53Z</time>
      </trkpt>
      <trkpt lat="45.62886" lon="5.72084">
        <ele>729</ele>
        <time>2017-04-23T10:32:09Z</time>
      </trkpt>
      <trkpt lat="45.62886" lon="5.72078">
        <ele>729</ele>
        <time>2017-04-23T10:32:09Z</time>
      </trkpt>
      <trkpt lat="45.62882" lon="5.72077">
        <ele>729</ele>
        <time>2017-04-23T10:32:09Z</time>
      </trkpt>
      <trkpt lat="45.62878" lon="5.72074">
        <ele>729</ele>
        <time>2017-04-23T10:32:09Z</time>
      </trkpt>
      <trkpt lat="45.62874" lon="5.72072">
        <ele>736</ele>
        <time>2017-04-23T10:32:25Z</time>
      </trkpt>
      <trkpt lat="45.6287" lon="5.72069">
        <ele>736</ele>
        <time>2017-04-23T10:32:25Z</time>
      </trkpt>
      <trkpt lat="45.62865" lon="5.72068">
        <ele>736</ele>
        <time>2017-04-23T10:32:25Z</time>
      </trkpt>
      <trkpt lat="45.6286" lon="5.72066">
        <ele>736</ele>
        <time>2017-04-23T10:32:25Z</time>
      </trkpt>
      <trkpt lat="45.62855" lon="5.72065">
        <ele>736</ele>
        <time>2017-04-23T10:32:41Z</time>
      </trkpt>
      <trkpt lat="45.62851" lon="5.72062">
        <ele>736</ele>
        <time>2017-04-23T10:32:41Z</time>
      </trkpt>
      <trkpt lat="45.62848" lon="5.72057">
        <ele>736</ele>
        <time>2017-04-23T10:32:41Z</time>
      </trkpt>
      <trkpt lat="45.62843" lon="5.72057">
        <ele>736</ele>
        <time>2017-04-23T10:32:41Z</time>
      </trkpt>
      <trkpt lat="45.62838" lon="5.72053">
        <ele>736</ele>
        <time>2017-04-23T10:32:57Z</time>
      </trkpt>
      <trkpt lat="45.62835" lon="5.72049">
        <ele>736</ele>
        <time>2017-04-23T10:32:57Z</time>
      </trkpt>
      <trkpt lat="45.62831" lon="5.72047">
        <ele>736</ele>
        <time>2017-04-23T10:32:57Z</time>
      </trkpt>
      <trkpt lat="45.62827" lon="5.72043">
        <ele>736</ele>
        <time>2017-04-23T10:32:57Z</time>
      </trkpt>
      <trkpt lat="45.62822" lon="5.72042">
        <ele>736</ele>
        <time>2017-04-23T10:33:13Z</time>
      </trkpt>
      <trkpt lat="45.62817" lon="5.7204">
        <ele>747</ele>
        <time>2017-04-23T10:33:13Z</time>
      </trkpt>
      <trkpt lat="45.62813" lon="5.72039">
        <ele>747</ele>
        <time>2017-04-23T10:33:13Z</time>
      </trkpt>
      <trkpt lat="45.62808" lon="5.72038">
        <ele>747</ele>
        <time>2017-04-23T10:33:13Z</time>
      </trkpt>
      <trkpt lat="45.62802" lon="5.7203">
        <ele>747</ele>
        <time>2017-04-23T10:33:29Z</time>
      </trkpt>
      <trkpt lat="45.62797" lon="5.72023">
        <ele>747</ele>
        <time>2017-04-23T10:33:29Z</time>
      </trkpt>
      <trkpt lat="45.62793" lon="5.72017">
        <ele>747</ele>
        <time>2017-04-23T10:33:29Z</time>
      </trkpt>
      <trkpt lat="45.62795" lon="5.7201">
        <ele>747</ele>
        <time>2017-04-23T10:33:29Z</time>
      </trkpt>
      <trkpt lat="45.62798" lon="5.72005">
        <ele>747</ele>
        <time>2017-04-23T10:33:45Z</time>
      </trkpt>
      <trkpt lat="45.62801" lon="5.72001">
        <ele>747</ele>
        <time>2017-04-23T10:33:45Z</time>
      </trkpt>
      <trkpt lat="45.62805" lon="5.71998">
        <ele>747</ele>
        <time>2017-04-23T10:33:45Z</time>
      </trkpt>
      <trkpt lat="45.62809" lon="5.71992">
        <ele>747</ele>
        <time>2017-04-23T10:33:45Z</time>
      </trkpt>
      <trkpt lat="45.62813" lon="5.71986">
        <ele>747</ele>
        <time>2017-04-23T10:34:01Z</time>
      </trkpt>
      <trkpt lat="45.62816" lon="5.7198">
        <ele>747</ele>
        <time>2017-04-23T10:34:01Z</time>
      </trkpt>
      <trkpt lat="45.62819" lon="5.71976">
        <ele>747</ele>
        <time>2017-04-23T10:34:01Z</time>
      </trkpt>
      <trkpt lat="45.62823" lon="5.71971">
        <ele>747</ele>
        <time>2017-04-23T10:34:01Z</time>
      </trkpt>
      <trkpt lat="45.62826" lon="5.71968">
        <ele>747</ele>
        <time>2017-04-23T10:34:17Z</time>
      </trkpt>
      <trkpt lat="45.62831" lon="5.71962">
        <ele>747</ele>
        <time>2017-04-23T10:34:17Z</time>
      </trkpt>
      <trkpt lat="45.6284" lon="5.71955">
        <ele>757</ele>
        <time>2017-04-23T10:34:17Z</time>
      </trkpt>
      <trkpt lat="45.6285" lon="5.71947">
        <ele>757</ele>
        <time>2017-04-23T10:34:17Z</time>
      </trkpt>
      <trkpt lat="45.62861" lon="5.71935">
        <ele>757</ele>
        <time>2017-04-23T10:34:33Z</time>
      </trkpt>
      <trkpt lat="45.62871" lon="5.71922">
        <ele>757</ele>
        <time>2017-04-23T10:34:33Z</time>
      </trkpt>
      <trkpt lat="45.6288" lon="5.71915">
        <ele>762</ele>
        <time>2017-04-23T10:34:33Z</time>
      </trkpt>
      <trkpt lat="45.62887" lon="5.7191">
        <ele>762</ele>
        <time>2017-04-23T10:34:33Z</time>
      </trkpt>
      <trkpt lat="45.62894" lon="5.71905">
        <ele>762</ele>
        <time>2017-04-23T10:34:49Z</time>
      </trkpt>
      <trkpt lat="45.62901" lon="5.71902">
        <ele>762</ele>
        <time>2017-04-23T10:34:49Z</time>
      </trkpt>
      <trkpt lat="45.62907" lon="5.71899">
        <ele>762</ele>
        <time>2017-04-23T10:34:49Z</time>
      </trkpt>
      <trkpt lat="45.62912" lon="5.71895">
        <ele>762</ele>
        <time>2017-04-23T10:34:49Z</time>
      </trkpt>
      <trkpt lat="45.62917" lon="5.7189">
        <ele>762</ele>
        <time>2017-04-23T10:35:05Z</time>
      </trkpt>
      <trkpt lat="45.6292" lon="5.71886">
        <ele>762</ele>
        <time>2017-04-23T10:35:05Z</time>
      </trkpt>
      <trkpt lat="45.62924" lon="5.71884">
        <ele>762</ele>
        <time>2017-04-23T10:35:05Z</time>
      </trkpt>
      <trkpt lat="45.62929" lon="5.71881">
        <ele>762</ele>
        <time>2017-04-23T10:35:05Z</time>
      </trkpt>
      <trkpt lat="45.62933" lon="5.71878">
        <ele>762</ele>
        <time>2017-04-23T10:35:21Z</time>
      </trkpt>
      <trkpt lat="45.62938" lon="5.71875">
        <ele>772</ele>
        <time>2017-04-23T10:35:21Z</time>
      </trkpt>
      <trkpt lat="45.62942" lon="5.7187">
        <ele>772</ele>
        <time>2017-04-23T10:35:21Z</time>
      </trkpt>
      <trkpt lat="45.62946" lon="5.71866">
        <ele>772</ele>
        <time>2017-04-23T10:35:21Z</time>
      </trkpt>
      <trkpt lat="45.62951" lon="5.71861">
        <ele>772</ele>
        <time>2017-04-23T10:35:37Z</time>
      </trkpt>
      <trkpt lat="45.62956" lon="5.71858">
        <ele>772</ele>
        <time>2017-04-23T10:35:37Z</time>
      </trkpt>
      <trkpt lat="45.62961" lon="5.71854">
        <ele>771</ele>
        <time>2017-04-23T10:35:37Z</time>
      </trkpt>
      <trkpt lat="45.62965" lon="5.71849">
        <ele>771</ele>
        <time>2017-04-23T10:35:37Z</time>
      </trkpt>
      <trkpt lat="45.62969" lon="5.71844">
        <ele>771</ele>
        <time>2017-04-23T10:35:53Z</time>
      </trkpt>
      <trkpt lat="45.62975" lon="5.71841">
        <ele>771</ele>
        <time>2017-04-23T10:35:53Z</time>
      </trkpt>
      <trkpt lat="45.6298" lon="5.71836">
        <ele>771</ele>
        <time>2017-04-23T10:35:53Z</time>
      </trkpt>
      <trkpt lat="45.62982" lon="5.71833">
        <ele>771</ele>
        <time>2017-04-23T10:35:53Z</time>
      </trkpt>
      <trkpt lat="45.62985" lon="5.71831">
        <ele>771</ele>
        <time>2017-04-23T10:36:09Z</time>
      </trkpt>
      <trkpt lat="45.6299" lon="5.71826">
        <ele>771</ele>
        <time>2017-04-23T10:36:09Z</time>
      </trkpt>
      <trkpt lat="45.62994" lon="5.71821">
        <ele>771</ele>
        <time>2017-04-23T10:36:09Z</time>
      </trkpt>
      <trkpt lat="45.62997" lon="5.71817">
        <ele>771</ele>
        <time>2017-04-23T10:36:09Z</time>
      </trkpt>
      <trkpt lat="45.63002" lon="5.71814">
        <ele>771</ele>
        <time>2017-04-23T10:36:25Z</time>
      </trkpt>
      <trkpt lat="45.63007" lon="5.7181">
        <ele>771</ele>
        <time>2017-04-23T10:36:25Z</time>
      </trkpt>
      <trkpt lat="45.6301" lon="5.71805">
        <ele>771</ele>
        <time>2017-04-23T10:36:25Z</time>
      </trkpt>
      <trkpt lat="45.63015" lon="5.71803">
        <ele>771</ele>
        <time>2017-04-23T10:36:25Z</time>
      </trkpt>
      <trkpt lat="45.63019" lon="5.718">
        <ele>771</ele>
        <time>2017-04-23T10:36:41Z</time>
      </trkpt>
      <trkpt lat="45.63025" lon="5.71799">
        <ele>771</ele>
        <time>2017-04-23T10:36:41Z</time>
      </trkpt>
      <trkpt lat="45.6303" lon="5.71797">
        <ele>771</ele>
        <time>2017-04-23T10:36:41Z</time>
      </trkpt>
      <trkpt lat="45.63034" lon="5.71794">
        <ele>771</ele>
        <time>2017-04-23T10:36:41Z</time>
      </trkpt>
      <trkpt lat="45.63038" lon="5.71789">
        <ele>784</ele>
        <time>2017-04-23T10:36:57Z</time>
      </trkpt>
      <trkpt lat="45.63041" lon="5.71784">
        <ele>784</ele>
        <time>2017-04-23T10:36:57Z</time>
      </trkpt>
      <trkpt lat="45.63045" lon="5.71778">
        <ele>784</ele>
        <time>2017-04-23T10:36:57Z</time>
      </trkpt>
      <trkpt lat="45.6305" lon="5.71771">
        <ele>784</ele>
        <time>2017-04-23T10:36:57Z</time>
      </trkpt>
      <trkpt lat="45.63056" lon="5.71762">
        <ele>784</ele>
        <time>2017-04-23T10:37:13Z</time>
      </trkpt>
      <trkpt lat="45.6306" lon="5.71753">
        <ele>784</ele>
        <time>2017-04-23T10:37:13Z</time>
      </trkpt>
      <trkpt lat="45.63064" lon="5.71744">
        <ele>784</ele>
        <time>2017-04-23T10:37:13Z</time>
      </trkpt>
      <trkpt lat="45.63064" lon="5.71736">
        <ele>784</ele>
        <time>2017-04-23T10:37:13Z</time>
      </trkpt>
      <trkpt lat="45.63063" lon="5.71729">
        <ele>784</ele>
        <time>2017-04-23T10:37:29Z</time>
      </trkpt>
      <trkpt lat="45.6306" lon="5.71726">
        <ele>784</ele>
        <time>2017-04-23T10:37:29Z</time>
      </trkpt>
      <trkpt lat="45.63057" lon="5.71722">
        <ele>784</ele>
        <time>2017-04-23T10:37:29Z</time>
      </trkpt>
      <trkpt lat="45.63054" lon="5.71718">
        <ele>784</ele>
        <time>2017-04-23T10:37:29Z</time>
      </trkpt>
      <trkpt lat="45.63052" lon="5.71714">
        <ele>784</ele>
        <time>2017-04-23T10:37:45Z</time>
      </trkpt>
      <trkpt lat="45.6305" lon="5.71707">
        <ele>798</ele>
        <time>2017-04-23T10:37:45Z</time>
      </trkpt>
      <trkpt lat="45.63048" lon="5.71701">
        <ele>798</ele>
        <time>2017-04-23T10:37:45Z</time>
      </trkpt>
      <trkpt lat="45.63047" lon="5.71694">
        <ele>798</ele>
        <time>2017-04-23T10:37:45Z</time>
      </trkpt>
      <trkpt lat="45.63048" lon="5.71688">
        <ele>798</ele>
        <time>2017-04-23T10:38:01Z</time>
      </trkpt>
      <trkpt lat="45.63048" lon="5.71682">
        <ele>798</ele>
        <time>2017-04-23T10:38:01Z</time>
      </trkpt>
      <trkpt lat="45.63047" lon="5.71679">
        <ele>798</ele>
        <time>2017-04-23T10:38:01Z</time>
      </trkpt>
      <trkpt lat="45.63045" lon="5.71674">
        <ele>798</ele>
        <time>2017-04-23T10:38:01Z</time>
      </trkpt>
      <trkpt lat="45.63043" lon="5.71669">
        <ele>798</ele>
        <time>2017-04-23T10:38:17Z</time>
      </trkpt>
      <trkpt lat="45.63041" lon="5.71663">
        <ele>796</ele>
        <time>2017-04-23T10:38:17Z</time>
      </trkpt>
      <trkpt lat="45.63039" lon="5.71657">
        <ele>796</ele>
        <time>2017-04-23T10:38:17Z</time>
      </trkpt>
      <trkpt lat="45.63032" lon="5.71645">
        <ele>796</ele>
        <time>2017-04-23T10:38:17Z</time>
      </trkpt>
      <trkpt lat="45.63017" lon="5.7163">
        <ele>796</ele>
        <time>2017-04-23T10:38:33Z</time>
      </trkpt>
      <trkpt lat="45.63004" lon="5.71616">
        <ele>808</ele>
        <time>2017-04-23T10:38:33Z</time>
      </trkpt>
      <trkpt lat="45.6298" lon="5.71595">
        <ele>808</ele>
        <time>2017-04-23T10:38:33Z</time>
      </trkpt>
      <trkpt lat="45.62966" lon="5.71588">
        <ele>808</ele>
        <time>2017-04-23T10:38:33Z</time>
      </trkpt>
      <trkpt lat="45.62949" lon="5.71581">
        <ele>797</ele>
        <time>2017-04-23T10:38:49Z</time>
      </trkpt>
      <trkpt lat="45.62943" lon="5.71575">
        <ele>797</ele>
        <time>2017-04-23T10:38:49Z</time>
      </trkpt>
      <trkpt lat="45.6294" lon="5.71568">
        <ele>797</ele>
        <time>2017-04-23T10:38:49Z</time>
      </trkpt>
      <trkpt lat="45.62937" lon="5.71563">
        <ele>797</ele>
        <time>2017-04-23T10:38:49Z</time>
      </trkpt>
      <trkpt lat="45.62935" lon="5.71558">
        <ele>797</ele>
        <time>2017-04-23T10:39:05Z</time>
      </trkpt>
      <trkpt lat="45.62936" lon="5.71551">
        <ele>797</ele>
        <time>2017-04-23T10:39:05Z</time>
      </trkpt>
      <trkpt lat="45.62936" lon="5.71544">
        <ele>797</ele>
        <time>2017-04-23T10:39:05Z</time>
      </trkpt>
      <trkpt lat="45.62936" lon="5.71537">
        <ele>804</ele>
        <time>2017-04-23T10:39:05Z</time>
      </trkpt>
      <trkpt lat="45.62937" lon="5.7153">
        <ele>804</ele>
        <time>2017-04-23T10:39:21Z</time>
      </trkpt>
      <trkpt lat="45.62935" lon="5.71522">
        <ele>804</ele>
        <time>2017-04-23T10:39:21Z</time>
      </trkpt>
      <trkpt lat="45.62933" lon="5.71514">
        <ele>804</ele>
        <time>2017-04-23T10:39:21Z</time>
      </trkpt>
      <trkpt lat="45.62931" lon="5.71506">
        <ele>804</ele>
        <time>2017-04-23T10:39:21Z</time>
      </trkpt>
      <trkpt lat="45.62929" lon="5.71497">
        <ele>804</ele>
        <time>2017-04-23T10:39:37Z</time>
      </trkpt>
      <trkpt lat="45.62929" lon="5.71489">
        <ele>804</ele>
        <time>2017-04-23T10:39:37Z</time>
      </trkpt>
      <trkpt lat="45.62927" lon="5.71481">
        <ele>804</ele>
        <time>2017-04-23T10:39:37Z</time>
      </trkpt>
      <trkpt lat="45.62926" lon="5.71473">
        <ele>804</ele>
        <time>2017-04-23T10:39:37Z</time>
      </trkpt>
      <trkpt lat="45.62926" lon="5.71466">
        <ele>804</ele>
        <time>2017-04-23T10:39:53Z</time>
      </trkpt>
      <trkpt lat="45.62923" lon="5.71459">
        <ele>804</ele>
        <time>2017-04-23T10:39:53Z</time>
      </trkpt>
      <trkpt lat="45.62918" lon="5.71455">
        <ele>816</ele>
        <time>2017-04-23T10:39:53Z</time>
      </trkpt>
      <trkpt lat="45.62913" lon="5.71453">
        <ele>816</ele>
        <time>2017-04-23T10:39:53Z</time>
      </trkpt>
      <trkpt lat="45.62905" lon="5.71457">
        <ele>816</ele>
        <time>2017-04-23T10:40:21Z</time>
      </trkpt>
      <trkpt lat="45.62905" lon="5.71459">
        <ele>804</ele>
        <time>2017-04-23T10:40:21Z</time>
      </trkpt>
      <trkpt lat="45.62904" lon="5.7146">
        <ele>804</ele>
        <time>2017-04-23T10:40:21Z</time>
      </trkpt>
      <trkpt lat="45.62902" lon="5.71461">
        <ele>804</ele>
        <time>2017-04-23T10:40:21Z</time>
      </trkpt>
      <trkpt lat="45.62901" lon="5.7146">
        <ele>804</ele>
        <time>2017-04-23T10:40:21Z</time>
      </trkpt>
      <trkpt lat="45.62899" lon="5.7146">
        <ele>804</ele>
        <time>2017-04-23T10:40:37Z</time>
      </trkpt>
      <trkpt lat="45.62891" lon="5.71453">
        <ele>816</ele>
        <time>2017-04-23T10:40:37Z</time>
      </trkpt>
      <trkpt lat="45.62884" lon="5.71449">
        <ele>816</ele>
        <time>2017-04-23T10:40:37Z</time>
      </trkpt>
      <trkpt lat="45.62878" lon="5.71449">
        <ele>816</ele>
        <time>2017-04-23T10:40:37Z</time>
      </trkpt>
      <trkpt lat="45.62872" lon="5.71444">
        <ele>822</ele>
        <time>2017-04-23T10:40:53Z</time>
      </trkpt>
      <trkpt lat="45.62864" lon="5.71441">
        <ele>822</ele>
        <time>2017-04-23T10:40:53Z</time>
      </trkpt>
      <trkpt lat="45.62857" lon="5.7144">
        <ele>822</ele>
        <time>2017-04-23T10:40:53Z</time>
      </trkpt>
      <trkpt lat="45.62853" lon="5.7144">
        <ele>822</ele>
        <time>2017-04-23T10:40:53Z</time>
      </trkpt>
      <trkpt lat="45.62849" lon="5.71439">
        <ele>822</ele>
        <time>2017-04-23T10:41:09Z</time>
      </trkpt>
      <trkpt lat="45.62846" lon="5.71439">
        <ele>822</ele>
        <time>2017-04-23T10:41:09Z</time>
      </trkpt>
      <trkpt lat="45.62842" lon="5.71439">
        <ele>822</ele>
        <time>2017-04-23T10:41:09Z</time>
      </trkpt>
      <trkpt lat="45.62837" lon="5.71439">
        <ele>822</ele>
        <time>2017-04-23T10:41:09Z</time>
      </trkpt>
      <trkpt lat="45.62825" lon="5.71439">
        <ele>822</ele>
        <time>2017-04-23T10:41:37Z</time>
      </trkpt>
      <trkpt lat="45.62824" lon="5.71441">
        <ele>822</ele>
        <time>2017-04-23T10:41:37Z</time>
      </trkpt>
      <trkpt lat="45.62824" lon="5.71441">
        <ele>822</ele>
        <time>2017-04-23T10:41:37Z</time>
      </trkpt>
      <trkpt lat="45.62823" lon="5.71442">
        <ele>822</ele>
        <time>2017-04-23T10:41:37Z</time>
      </trkpt>
      <trkpt lat="45.62822" lon="5.71445">
        <ele>822</ele>
        <time>2017-04-23T10:41:37Z</time>
      </trkpt>
      <trkpt lat="45.62819" lon="5.71449">
        <ele>822</ele>
        <time>2017-04-23T10:42:01Z</time>
      </trkpt>
      <trkpt lat="45.62818" lon="5.7145">
        <ele>822</ele>
        <time>2017-04-23T10:42:01Z</time>
      </trkpt>
      <trkpt lat="45.62817" lon="5.71451">
        <ele>822</ele>
        <time>2017-04-23T10:42:01Z</time>
      </trkpt>
      <trkpt lat="45.62814" lon="5.71453">
        <ele>822</ele>
        <time>2017-04-23T10:42:01Z</time>
      </trkpt>
      <trkpt lat="45.62808" lon="5.71455">
        <ele>822</ele>
        <time>2017-04-23T10:42:01Z</time>
      </trkpt>
      <trkpt lat="45.62804" lon="5.71457">
        <ele>822</ele>
        <time>2017-04-23T10:42:17Z</time>
      </trkpt>
      <trkpt lat="45.62798" lon="5.71458">
        <ele>822</ele>
        <time>2017-04-23T10:42:17Z</time>
      </trkpt>
      <trkpt lat="45.62792" lon="5.71461">
        <ele>828</ele>
        <time>2017-04-23T10:42:17Z</time>
      </trkpt>
      <trkpt lat="45.62786" lon="5.71464">
        <ele>828</ele>
        <time>2017-04-23T10:42:17Z</time>
      </trkpt>
      <trkpt lat="45.62781" lon="5.71467">
        <ele>828</ele>
        <time>2017-04-23T10:42:33Z</time>
      </trkpt>
      <trkpt lat="45.62775" lon="5.7147">
        <ele>828</ele>
        <time>2017-04-23T10:42:33Z</time>
      </trkpt>
      <trkpt lat="45.62768" lon="5.71477">
        <ele>828</ele>
        <time>2017-04-23T10:42:33Z</time>
      </trkpt>
      <trkpt lat="45.62765" lon="5.71479">
        <ele>828</ele>
        <time>2017-04-23T10:42:33Z</time>
      </trkpt>
      <trkpt lat="45.6276" lon="5.71482">
        <ele>828</ele>
        <time>2017-04-23T10:42:49Z</time>
      </trkpt>
      <trkpt lat="45.62756" lon="5.71482">
        <ele>828</ele>
        <time>2017-04-23T10:42:49Z</time>
      </trkpt>
      <trkpt lat="45.62751" lon="5.71482">
        <ele>828</ele>
        <time>2017-04-23T10:42:49Z</time>
      </trkpt>
      <trkpt lat="45.62748" lon="5.71483">
        <ele>828</ele>
        <time>2017-04-23T10:42:49Z</time>
      </trkpt>
      <trkpt lat="45.62744" lon="5.71484">
        <ele>828</ele>
        <time>2017-04-23T10:43:05Z</time>
      </trkpt>
      <trkpt lat="45.6274" lon="5.71487">
        <ele>828</ele>
        <time>2017-04-23T10:43:05Z</time>
      </trkpt>
      <trkpt lat="45.62734" lon="5.71492">
        <ele>828</ele>
        <time>2017-04-23T10:43:05Z</time>
      </trkpt>
      <trkpt lat="45.62727" lon="5.71494">
        <ele>828</ele>
        <time>2017-04-23T10:43:05Z</time>
      </trkpt>
      <trkpt lat="45.6272" lon="5.71495">
        <ele>828</ele>
        <time>2017-04-23T10:43:21Z</time>
      </trkpt>
      <trkpt lat="45.62714" lon="5.71495">
        <ele>828</ele>
        <time>2017-04-23T10:43:21Z</time>
      </trkpt>
      <trkpt lat="45.62706" lon="5.71495">
        <ele>838</ele>
        <time>2017-04-23T10:43:21Z</time>
      </trkpt>
      <trkpt lat="45.627" lon="5.71494">
        <ele>838</ele>
        <time>2017-04-23T10:43:21Z</time>
      </trkpt>
      <trkpt lat="45.62694" lon="5.71494">
        <ele>838</ele>
        <time>2017-04-23T10:43:37Z</time>
      </trkpt>
      <trkpt lat="45.6269" lon="5.71492">
        <ele>838</ele>
        <time>2017-04-23T10:43:37Z</time>
      </trkpt>
      <trkpt lat="45.62686" lon="5.71491">
        <ele>838</ele>
        <time>2017-04-23T10:43:37Z</time>
      </trkpt>
      <trkpt lat="45.6268" lon="5.71489">
        <ele>838</ele>
        <time>2017-04-23T10:43:37Z</time>
      </trkpt>
      <trkpt lat="45.62674" lon="5.71488">
        <ele>838</ele>
        <time>2017-04-23T10:43:53Z</time>
      </trkpt>
      <trkpt lat="45.62668" lon="5.71487">
        <ele>838</ele>
        <time>2017-04-23T10:43:53Z</time>
      </trkpt>
      <trkpt lat="45.62663" lon="5.71484">
        <ele>838</ele>
        <time>2017-04-23T10:43:53Z</time>
      </trkpt>
      <trkpt lat="45.62657" lon="5.71482">
        <ele>838</ele>
        <time>2017-04-23T10:43:53Z</time>
      </trkpt>
      <trkpt lat="45.62653" lon="5.71478">
        <ele>838</ele>
        <time>2017-04-23T10:44:09Z</time>
      </trkpt>
      <trkpt lat="45.62649" lon="5.71476">
        <ele>838</ele>
        <time>2017-04-23T10:44:09Z</time>
      </trkpt>
      <trkpt lat="45.62644" lon="5.71474">
        <ele>838</ele>
        <time>2017-04-23T10:44:09Z</time>
      </trkpt>
      <trkpt lat="45.6264" lon="5.71471">
        <ele>838</ele>
        <time>2017-04-23T10:44:09Z</time>
      </trkpt>
      <trkpt lat="45.62637" lon="5.71469">
        <ele>838</ele>
        <time>2017-04-23T10:44:25Z</time>
      </trkpt>
      <trkpt lat="45.62632" lon="5.71466">
        <ele>838</ele>
        <time>2017-04-23T10:44:25Z</time>
      </trkpt>
      <trkpt lat="45.62628" lon="5.71461">
        <ele>838</ele>
        <time>2017-04-23T10:44:25Z</time>
      </trkpt>
      <trkpt lat="45.62625" lon="5.71457">
        <ele>842</ele>
        <time>2017-04-23T10:44:25Z</time>
      </trkpt>
      <trkpt lat="45.6262" lon="5.71453">
        <ele>842</ele>
        <time>2017-04-23T10:44:41Z</time>
      </trkpt>
      <trkpt lat="45.62615" lon="5.71448">
        <ele>842</ele>
        <time>2017-04-23T10:44:41Z</time>
      </trkpt>
      <trkpt lat="45.6261" lon="5.71443">
        <ele>842</ele>
        <time>2017-04-23T10:44:41Z</time>
      </trkpt>
      <trkpt lat="45.62606" lon="5.71437">
        <ele>842</ele>
        <time>2017-04-23T10:44:41Z</time>
      </trkpt>
      <trkpt lat="45.62602" lon="5.71433">
        <ele>842</ele>
        <time>2017-04-23T10:44:57Z</time>
      </trkpt>
      <trkpt lat="45.62598" lon="5.71428">
        <ele>842</ele>
        <time>2017-04-23T10:44:57Z</time>
      </trkpt>
      <trkpt lat="45.62594" lon="5.71425">
        <ele>842</ele>
        <time>2017-04-23T10:44:57Z</time>
      </trkpt>
      <trkpt lat="45.6259" lon="5.71423">
        <ele>842</ele>
        <time>2017-04-23T10:44:57Z</time>
      </trkpt>
      <trkpt lat="45.62588" lon="5.71416">
        <ele>842</ele>
        <time>2017-04-23T10:45:13Z</time>
      </trkpt>
      <trkpt lat="45.6259" lon="5.71411">
        <ele>842</ele>
        <time>2017-04-23T10:45:13Z</time>
      </trkpt>
      <trkpt lat="45.62594" lon="5.71408">
        <ele>842</ele>
        <time>2017-04-23T10:45:13Z</time>
      </trkpt>
      <trkpt lat="45.626" lon="5.71402">
        <ele>842</ele>
        <time>2017-04-23T10:45:13Z</time>
      </trkpt>
      <trkpt lat="45.62606" lon="5.71396">
        <ele>842</ele>
        <time>2017-04-23T10:45:29Z</time>
      </trkpt>
      <trkpt lat="45.62608" lon="5.71389">
        <ele>842</ele>
        <time>2017-04-23T10:45:29Z</time>
      </trkpt>
      <trkpt lat="45.6261" lon="5.7138">
        <ele>842</ele>
        <time>2017-04-23T10:45:29Z</time>
      </trkpt>
      <trkpt lat="45.62615" lon="5.71374">
        <ele>847</ele>
        <time>2017-04-23T10:45:29Z</time>
      </trkpt>
      <trkpt lat="45.62623" lon="5.71366">
        <ele>847</ele>
        <time>2017-04-23T10:45:57Z</time>
      </trkpt>
      <trkpt lat="45.62624" lon="5.71368">
        <ele>847</ele>
        <time>2017-04-23T10:45:57Z</time>
      </trkpt>
      <trkpt lat="45.6263" lon="5.71369">
        <ele>858</ele>
        <time>2017-04-23T10:45:57Z</time>
      </trkpt>
      <trkpt lat="45.62638" lon="5.7137">
        <ele>858</ele>
        <time>2017-04-23T10:45:57Z</time>
      </trkpt>
      <trkpt lat="45.62645" lon="5.71372">
        <ele>858</ele>
        <time>2017-04-23T10:45:57Z</time>
      </trkpt>
      <trkpt lat="45.62652" lon="5.7137">
        <ele>858</ele>
        <time>2017-04-23T10:46:13Z</time>
      </trkpt>
      <trkpt lat="45.62658" lon="5.71364">
        <ele>858</ele>
        <time>2017-04-23T10:46:13Z</time>
      </trkpt>
      <trkpt lat="45.62659" lon="5.71358">
        <ele>858</ele>
        <time>2017-04-23T10:46:13Z</time>
      </trkpt>
      <trkpt lat="45.62659" lon="5.71355">
        <ele>858</ele>
        <time>2017-04-23T10:46:13Z</time>
      </trkpt>
      <trkpt lat="45.62658" lon="5.71351">
        <ele>858</ele>
        <time>2017-04-23T10:46:29Z</time>
      </trkpt>
      <trkpt lat="45.62661" lon="5.71342">
        <ele>858</ele>
        <time>2017-04-23T10:46:29Z</time>
      </trkpt>
      <trkpt lat="45.62665" lon="5.71334">
        <ele>858</ele>
        <time>2017-04-23T10:46:29Z</time>
      </trkpt>
      <trkpt lat="45.62667" lon="5.71327">
        <ele>858</ele>
        <time>2017-04-23T10:46:29Z</time>
      </trkpt>
      <trkpt lat="45.6267" lon="5.7132">
        <ele>858</ele>
        <time>2017-04-23T10:46:45Z</time>
      </trkpt>
      <trkpt lat="45.62674" lon="5.71314">
        <ele>858</ele>
        <time>2017-04-23T10:46:45Z</time>
      </trkpt>
      <trkpt lat="45.62678" lon="5.71308">
        <ele>858</ele>
        <time>2017-04-23T10:46:45Z</time>
      </trkpt>
      <trkpt lat="45.62682" lon="5.713">
        <ele>858</ele>
        <time>2017-04-23T10:46:45Z</time>
      </trkpt>
      <trkpt lat="45.62687" lon="5.71295">
        <ele>858</ele>
        <time>2017-04-23T10:47:01Z</time>
      </trkpt>
      <trkpt lat="45.62691" lon="5.71288">
        <ele>858</ele>
        <time>2017-04-23T10:47:01Z</time>
      </trkpt>
      <trkpt lat="45.62697" lon="5.71281">
        <ele>858</ele>
        <time>2017-04-23T10:47:01Z</time>
      </trkpt>
      <trkpt lat="45.62703" lon="5.71275">
        <ele>858</ele>
        <time>2017-04-23T10:47:01Z</time>
      </trkpt>
      <trkpt lat="45.6271" lon="5.71271">
        <ele>853</ele>
        <time>2017-04-23T10:47:17Z</time>
      </trkpt>
      <trkpt lat="45.62716" lon="5.71266">
        <ele>853</ele>
        <time>2017-04-23T10:47:17Z</time>
      </trkpt>
      <trkpt lat="45.6272" lon="5.71261">
        <ele>853</ele>
        <time>2017-04-23T10:47:17Z</time>
      </trkpt>
      <trkpt lat="45.62724" lon="5.71257">
        <ele>853</ele>
        <time>2017-04-23T10:47:17Z</time>
      </trkpt>
      <trkpt lat="45.62729" lon="5.71255">
        <ele>853</ele>
        <time>2017-04-23T10:47:33Z</time>
      </trkpt>
      <trkpt lat="45.62734" lon="5.71253">
        <ele>853</ele>
        <time>2017-04-23T10:47:33Z</time>
      </trkpt>
      <trkpt lat="45.62738" lon="5.71249">
        <ele>853</ele>
        <time>2017-04-23T10:47:33Z</time>
      </trkpt>
      <trkpt lat="45.62743" lon="5.71247">
        <ele>853</ele>
        <time>2017-04-23T10:47:33Z</time>
      </trkpt>
      <trkpt lat="45.62749" lon="5.71244">
        <ele>853</ele>
        <time>2017-04-23T10:47:49Z</time>
      </trkpt>
      <trkpt lat="45.62755" lon="5.71243">
        <ele>853</ele>
        <time>2017-04-23T10:47:49Z</time>
      </trkpt>
      <trkpt lat="45.62761" lon="5.7124">
        <ele>853</ele>
        <time>2017-04-23T10:47:49Z</time>
      </trkpt>
      <trkpt lat="45.62767" lon="5.71237">
        <ele>853</ele>
        <time>2017-04-23T10:47:49Z</time>
      </trkpt>
      <trkpt lat="45.6277" lon="5.71234">
        <ele>853</ele>
        <time>2017-04-23T10:48:05Z</time>
      </trkpt>
      <trkpt lat="45.62776" lon="5.71231">
        <ele>853</ele>
        <time>2017-04-23T10:48:05Z</time>
      </trkpt>
      <trkpt lat="45.62782" lon="5.71228">
        <ele>853</ele>
        <time>2017-04-23T10:48:05Z</time>
      </trkpt>
      <trkpt lat="45.62787" lon="5.71225">
        <ele>853</ele>
        <time>2017-04-23T10:48:05Z</time>
      </trkpt>
      <trkpt lat="45.62791" lon="5.71221">
        <ele>853</ele>
        <time>2017-04-23T10:48:21Z</time>
      </trkpt>
      <trkpt lat="45.62795" lon="5.71218">
        <ele>839</ele>
        <time>2017-04-23T10:48:21Z</time>
      </trkpt>
      <trkpt lat="45.62801" lon="5.71216">
        <ele>839</ele>
        <time>2017-04-23T10:48:21Z</time>
      </trkpt>
      <trkpt lat="45.62806" lon="5.71213">
        <ele>839</ele>
        <time>2017-04-23T10:48:21Z</time>
      </trkpt>
      <trkpt lat="45.62811" lon="5.71208">
        <ele>840</ele>
        <time>2017-04-23T10:48:37Z</time>
      </trkpt>
      <trkpt lat="45.62815" lon="5.71202">
        <ele>840</ele>
        <time>2017-04-23T10:48:37Z</time>
      </trkpt>
      <trkpt lat="45.6282" lon="5.71195">
        <ele>840</ele>
        <time>2017-04-23T10:48:37Z</time>
      </trkpt>
      <trkpt lat="45.62824" lon="5.71189">
        <ele>840</ele>
        <time>2017-04-23T10:48:37Z</time>
      </trkpt>
      <trkpt lat="45.62828" lon="5.71182">
        <ele>840</ele>
        <time>2017-04-23T10:48:53Z</time>
      </trkpt>
      <trkpt lat="45.62832" lon="5.71176">
        <ele>840</ele>
        <time>2017-04-23T10:48:53Z</time>
      </trkpt>
      <trkpt lat="45.62836" lon="5.7117">
        <ele>840</ele>
        <time>2017-04-23T10:48:53Z</time>
      </trkpt>
      <trkpt lat="45.62841" lon="5.71164">
        <ele>840</ele>
        <time>2017-04-23T10:48:53Z</time>
      </trkpt>
      <trkpt lat="45.62845" lon="5.71157">
        <ele>840</ele>
        <time>2017-04-23T10:49:09Z</time>
      </trkpt>
      <trkpt lat="45.62848" lon="5.71152">
        <ele>840</ele>
        <time>2017-04-23T10:49:09Z</time>
      </trkpt>
      <trkpt lat="45.6285" lon="5.71146">
        <ele>840</ele>
        <time>2017-04-23T10:49:09Z</time>
      </trkpt>
      <trkpt lat="45.62853" lon="5.71141">
        <ele>840</ele>
        <time>2017-04-23T10:49:09Z</time>
      </trkpt>
      <trkpt lat="45.62858" lon="5.71137">
        <ele>840</ele>
        <time>2017-04-23T10:49:25Z</time>
      </trkpt>
      <trkpt lat="45.62862" lon="5.71132">
        <ele>840</ele>
        <time>2017-04-23T10:49:25Z</time>
      </trkpt>
      <trkpt lat="45.62867" lon="5.71128">
        <ele>840</ele>
        <time>2017-04-23T10:49:25Z</time>
      </trkpt>
      <trkpt lat="45.62871" lon="5.71125">
        <ele>840</ele>
        <time>2017-04-23T10:49:25Z</time>
      </trkpt>
      <trkpt lat="45.62874" lon="5.71121">
        <ele>838</ele>
        <time>2017-04-23T10:49:45Z</time>
      </trkpt>
      <trkpt lat="45.62874" lon="5.71117">
        <ele>838</ele>
        <time>2017-04-23T10:49:45Z</time>
      </trkpt>
      <trkpt lat="45.62874" lon="5.71113">
        <ele>838</ele>
        <time>2017-04-23T10:49:45Z</time>
      </trkpt>
      <trkpt lat="45.62875" lon="5.7111">
        <ele>838</ele>
        <time>2017-04-23T10:49:45Z</time>
      </trkpt>
      <trkpt lat="45.62874" lon="5.71104">
        <ele>838</ele>
        <time>2017-04-23T10:49:45Z</time>
      </trkpt>
      <trkpt lat="45.62873" lon="5.71097">
        <ele>838</ele>
        <time>2017-04-23T10:50:01Z</time>
      </trkpt>
      <trkpt lat="45.62873" lon="5.71091">
        <ele>838</ele>
        <time>2017-04-23T10:50:01Z</time>
      </trkpt>
      <trkpt lat="45.62872" lon="5.71085">
        <ele>838</ele>
        <time>2017-04-23T10:50:01Z</time>
      </trkpt>
      <trkpt lat="45.6287" lon="5.71082">
        <ele>838</ele>
        <time>2017-04-23T10:50:01Z</time>
      </trkpt>
      <trkpt lat="45.62869" lon="5.7108">
        <ele>838</ele>
        <time>2017-04-23T10:50:25Z</time>
      </trkpt>
      <trkpt lat="45.62868" lon="5.7108">
        <ele>838</ele>
        <time>2017-04-23T10:50:25Z</time>
      </trkpt>
      <trkpt lat="45.62868" lon="5.71079">
        <ele>838</ele>
        <time>2017-04-23T10:50:25Z</time>
      </trkpt>
      <trkpt lat="45.62867" lon="5.71072">
        <ele>838</ele>
        <time>2017-04-23T10:50:25Z</time>
      </trkpt>
      <trkpt lat="45.62864" lon="5.71063">
        <ele>838</ele>
        <time>2017-04-23T10:50:25Z</time>
      </trkpt>
      <trkpt lat="45.6286" lon="5.71051">
        <ele>838</ele>
        <time>2017-04-23T10:50:41Z</time>
      </trkpt>
      <trkpt lat="45.62856" lon="5.71039">
        <ele>828</ele>
        <time>2017-04-23T10:50:41Z</time>
      </trkpt>
      <trkpt lat="45.62854" lon="5.71027">
        <ele>828</ele>
        <time>2017-04-23T10:50:41Z</time>
      </trkpt>
      <trkpt lat="45.62852" lon="5.71016">
        <ele>828</ele>
        <time>2017-04-23T10:50:41Z</time>
      </trkpt>
      <trkpt lat="45.6285" lon="5.71003">
        <ele>828</ele>
        <time>2017-04-23T10:50:57Z</time>
      </trkpt>
      <trkpt lat="45.62849" lon="5.70995">
        <ele>828</ele>
        <time>2017-04-23T10:50:57Z</time>
      </trkpt>
      <trkpt lat="45.62847" lon="5.70986">
        <ele>828</ele>
        <time>2017-04-23T10:50:57Z</time>
      </trkpt>
      <trkpt lat="45.62843" lon="5.70974">
        <ele>828</ele>
        <time>2017-04-23T10:50:57Z</time>
      </trkpt>
      <trkpt lat="45.62838" lon="5.70964">
        <ele>828</ele>
        <time>2017-04-23T10:51:13Z</time>
      </trkpt>
      <trkpt lat="45.62835" lon="5.70953">
        <ele>820</ele>
        <time>2017-04-23T10:51:13Z</time>
      </trkpt>
      <trkpt lat="45.62835" lon="5.70948">
        <ele>820</ele>
        <time>2017-04-23T10:51:13Z</time>
      </trkpt>
      <trkpt lat="45.62833" lon="5.70942">
        <ele>820</ele>
        <time>2017-04-23T10:51:13Z</time>
      </trkpt>
      <trkpt lat="45.62836" lon="5.70938">
        <ele>820</ele>
        <time>2017-04-23T10:51:29Z</time>
      </trkpt>
      <trkpt lat="45.62836" lon="5.70926">
        <ele>820</ele>
        <time>2017-04-23T10:51:29Z</time>
      </trkpt>
      <trkpt lat="45.62831" lon="5.70913">
        <ele>820</ele>
        <time>2017-04-23T10:51:29Z</time>
      </trkpt>
      <trkpt lat="45.62828" lon="5.70906">
        <ele>820</ele>
        <time>2017-04-23T10:51:29Z</time>
      </trkpt>
      <trkpt lat="45.62826" lon="5.709">
        <ele>820</ele>
        <time>2017-04-23T10:51:45Z</time>
      </trkpt>
      <trkpt lat="45.62825" lon="5.70891">
        <ele>820</ele>
        <time>2017-04-23T10:51:45Z</time>
      </trkpt>
      <trkpt lat="45.62825" lon="5.70885">
        <ele>820</ele>
        <time>2017-04-23T10:51:45Z</time>
      </trkpt>
      <trkpt lat="45.62824" lon="5.70879">
        <ele>820</ele>
        <time>2017-04-23T10:51:45Z</time>
      </trkpt>
      <trkpt lat="45.62821" lon="5.70875">
        <ele>820</ele>
        <time>2017-04-23T10:52:01Z</time>
      </trkpt>
      <trkpt lat="45.62819" lon="5.70869">
        <ele>820</ele>
        <time>2017-04-23T10:52:01Z</time>
      </trkpt>
      <trkpt lat="45.62815" lon="5.70864">
        <ele>820</ele>
        <time>2017-04-23T10:52:01Z</time>
      </trkpt>
      <trkpt lat="45.62813" lon="5.70861">
        <ele>820</ele>
        <time>2017-04-23T10:52:01Z</time>
      </trkpt>
      <trkpt lat="45.6281" lon="5.70856">
        <ele>820</ele>
        <time>2017-04-23T10:52:17Z</time>
      </trkpt>
      <trkpt lat="45.62807" lon="5.7085">
        <ele>820</ele>
        <time>2017-04-23T10:52:17Z</time>
      </trkpt>
      <trkpt lat="45.62803" lon="5.70847">
        <ele>820</ele>
        <time>2017-04-23T10:52:17Z</time>
      </trkpt>
      <trkpt lat="45.62799" lon="5.70843">
        <ele>820</ele>
        <time>2017-04-23T10:52:17Z</time>
      </trkpt>
      <trkpt lat="45.62793" lon="5.70841">
        <ele>820</ele>
        <time>2017-04-23T10:52:33Z</time>
      </trkpt>
      <trkpt lat="45.62788" lon="5.70837">
        <ele>820</ele>
        <time>2017-04-23T10:52:33Z</time>
      </trkpt>
      <trkpt lat="45.62783" lon="5.70834">
        <ele>820</ele>
        <time>2017-04-23T10:52:33Z</time>
      </trkpt>
      <trkpt lat="45.6278" lon="5.70833">
        <ele>820</ele>
        <time>2017-04-23T10:52:33Z</time>
      </trkpt>
      <trkpt lat="45.62776" lon="5.70835">
        <ele>820</ele>
        <time>2017-04-23T10:52:49Z</time>
      </trkpt>
      <trkpt lat="45.62771" lon="5.70834">
        <ele>820</ele>
        <time>2017-04-23T10:52:49Z</time>
      </trkpt>
      <trkpt lat="45.62769" lon="5.70836">
        <ele>820</ele>
        <time>2017-04-23T10:52:49Z</time>
      </trkpt>
      <trkpt lat="45.62766" lon="5.70837">
        <ele>820</ele>
        <time>2017-04-23T10:52:49Z</time>
      </trkpt>
      <trkpt lat="45.62761" lon="5.70837">
        <ele>820</ele>
        <time>2017-04-23T10:53:05Z</time>
      </trkpt>
      <trkpt lat="45.62755" lon="5.70839">
        <ele>820</ele>
        <time>2017-04-23T10:53:05Z</time>
      </trkpt>
      <trkpt lat="45.62749" lon="5.7084">
        <ele>820</ele>
        <time>2017-04-23T10:53:05Z</time>
      </trkpt>
      <trkpt lat="45.62744" lon="5.70843">
        <ele>820</ele>
        <time>2017-04-23T10:53:05Z</time>
      </trkpt>
      <trkpt lat="45.62738" lon="5.70842">
        <ele>820</ele>
        <time>2017-04-23T10:53:21Z</time>
      </trkpt>
      <trkpt lat="45.62733" lon="5.70843">
        <ele>820</ele>
        <time>2017-04-23T10:53:21Z</time>
      </trkpt>
      <trkpt lat="45.62727" lon="5.70844">
        <ele>820</ele>
        <time>2017-04-23T10:53:21Z</time>
      </trkpt>
      <trkpt lat="45.62722" lon="5.70845">
        <ele>820</ele>
        <time>2017-04-23T10:53:21Z</time>
      </trkpt>
      <trkpt lat="45.62715" lon="5.70848">
        <ele>820</ele>
        <time>2017-04-23T10:53:37Z</time>
      </trkpt>
      <trkpt lat="45.62712" lon="5.70848">
        <ele>820</ele>
        <time>2017-04-23T10:53:37Z</time>
      </trkpt>
      <trkpt lat="45.62707" lon="5.70849">
        <ele>820</ele>
        <time>2017-04-23T10:53:37Z</time>
      </trkpt>
      <trkpt lat="45.62703" lon="5.7085">
        <ele>820</ele>
        <time>2017-04-23T10:53:37Z</time>
      </trkpt>
      <trkpt lat="45.62697" lon="5.70851">
        <ele>820</ele>
        <time>2017-04-23T10:53:53Z</time>
      </trkpt>
      <trkpt lat="45.62692" lon="5.70852">
        <ele>820</ele>
        <time>2017-04-23T10:53:53Z</time>
      </trkpt>
      <trkpt lat="45.62685" lon="5.70852">
        <ele>820</ele>
        <time>2017-04-23T10:53:53Z</time>
      </trkpt>
      <trkpt lat="45.62679" lon="5.70852">
        <ele>820</ele>
        <time>2017-04-23T10:53:53Z</time>
      </trkpt>
      <trkpt lat="45.62671" lon="5.7085">
        <ele>820</ele>
        <time>2017-04-23T10:54:09Z</time>
      </trkpt>
      <trkpt lat="45.62666" lon="5.70847">
        <ele>820</ele>
        <time>2017-04-23T10:54:09Z</time>
      </trkpt>
      <trkpt lat="45.62661" lon="5.70846">
        <ele>820</ele>
        <time>2017-04-23T10:54:09Z</time>
      </trkpt>
      <trkpt lat="45.62656" lon="5.70844">
        <ele>820</ele>
        <time>2017-04-23T10:54:09Z</time>
      </trkpt>
      <trkpt lat="45.62652" lon="5.70842">
        <ele>820</ele>
        <time>2017-04-23T10:54:25Z</time>
      </trkpt>
      <trkpt lat="45.62648" lon="5.70837">
        <ele>820</ele>
        <time>2017-04-23T10:54:25Z</time>
      </trkpt>
      <trkpt lat="45.62645" lon="5.70833">
        <ele>820</ele>
        <time>2017-04-23T10:54:25Z</time>
      </trkpt>
      <trkpt lat="45.62642" lon="5.70828">
        <ele>820</ele>
        <time>2017-04-23T10:54:25Z</time>
      </trkpt>
      <trkpt lat="45.62639" lon="5.70825">
        <ele>820</ele>
        <time>2017-04-23T10:54:41Z</time>
      </trkpt>
      <trkpt lat="45.62637" lon="5.70818">
        <ele>820</ele>
        <time>2017-04-23T10:54:41Z</time>
      </trkpt>
      <trkpt lat="45.62633" lon="5.70812">
        <ele>820</ele>
        <time>2017-04-23T10:54:41Z</time>
      </trkpt>
      <trkpt lat="45.62629" lon="5.70805">
        <ele>820</ele>
        <time>2017-04-23T10:54:41Z</time>
      </trkpt>
      <trkpt lat="45.62626" lon="5.70796">
        <ele>820</ele>
        <time>2017-04-23T10:54:57Z</time>
      </trkpt>
      <trkpt lat="45.62622" lon="5.70786">
        <ele>812</ele>
        <time>2017-04-23T10:54:57Z</time>
      </trkpt>
      <trkpt lat="45.62618" lon="5.70776">
        <ele>812</ele>
        <time>2017-04-23T10:54:57Z</time>
      </trkpt>
      <trkpt lat="45.62615" lon="5.70766">
        <ele>812</ele>
        <time>2017-04-23T10:54:57Z</time>
      </trkpt>
      <trkpt lat="45.62612" lon="5.70756">
        <ele>812</ele>
        <time>2017-04-23T10:55:13Z</time>
      </trkpt>
      <trkpt lat="45.62607" lon="5.7075">
        <ele>812</ele>
        <time>2017-04-23T10:55:13Z</time>
      </trkpt>
      <trkpt lat="45.62604" lon="5.70744">
        <ele>812</ele>
        <time>2017-04-23T10:55:13Z</time>
      </trkpt>
      <trkpt lat="45.62599" lon="5.70739">
        <ele>812</ele>
        <time>2017-04-23T10:55:13Z</time>
      </trkpt>
      <trkpt lat="45.62594" lon="5.70735">
        <ele>812</ele>
        <time>2017-04-23T10:55:29Z</time>
      </trkpt>
      <trkpt lat="45.62589" lon="5.7073">
        <ele>812</ele>
        <time>2017-04-23T10:55:29Z</time>
      </trkpt>
      <trkpt lat="45.62584" lon="5.70725">
        <ele>812</ele>
        <time>2017-04-23T10:55:29Z</time>
      </trkpt>
      <trkpt lat="45.6258" lon="5.7072">
        <ele>812</ele>
        <time>2017-04-23T10:55:29Z</time>
      </trkpt>
      <trkpt lat="45.62576" lon="5.70716">
        <ele>812</ele>
        <time>2017-04-23T10:55:45Z</time>
      </trkpt>
      <trkpt lat="45.62572" lon="5.70714">
        <ele>812</ele>
        <time>2017-04-23T10:55:45Z</time>
      </trkpt>
      <trkpt lat="45.62567" lon="5.70712">
        <ele>812</ele>
        <time>2017-04-23T10:55:45Z</time>
      </trkpt>
      <trkpt lat="45.62562" lon="5.70709">
        <ele>812</ele>
        <time>2017-04-23T10:55:45Z</time>
      </trkpt>
      <trkpt lat="45.62558" lon="5.70704">
        <ele>804</ele>
        <time>2017-04-23T10:56:01Z</time>
      </trkpt>
      <trkpt lat="45.62553" lon="5.707">
        <ele>804</ele>
        <time>2017-04-23T10:56:01Z</time>
      </trkpt>
      <trkpt lat="45.62549" lon="5.70694">
        <ele>804</ele>
        <time>2017-04-23T10:56:01Z</time>
      </trkpt>
      <trkpt lat="45.62544" lon="5.70688">
        <ele>804</ele>
        <time>2017-04-23T10:56:01Z</time>
      </trkpt>
      <trkpt lat="45.6254" lon="5.70679">
        <ele>800</ele>
        <time>2017-04-23T10:56:17Z</time>
      </trkpt>
      <trkpt lat="45.62537" lon="5.70671">
        <ele>800</ele>
        <time>2017-04-23T10:56:17Z</time>
      </trkpt>
      <trkpt lat="45.62534" lon="5.70662">
        <ele>800</ele>
        <time>2017-04-23T10:56:17Z</time>
      </trkpt>
      <trkpt lat="45.62531" lon="5.70653">
        <ele>800</ele>
        <time>2017-04-23T10:56:17Z</time>
      </trkpt>
      <trkpt lat="45.6253" lon="5.70649">
        <ele>800</ele>
        <time>2017-04-23T10:56:33Z</time>
      </trkpt>
      <trkpt lat="45.62527" lon="5.70644">
        <ele>800</ele>
        <time>2017-04-23T10:56:33Z</time>
      </trkpt>
      <trkpt lat="45.62524" lon="5.7064">
        <ele>800</ele>
        <time>2017-04-23T10:56:33Z</time>
      </trkpt>
      <trkpt lat="45.6252" lon="5.70636">
        <ele>800</ele>
        <time>2017-04-23T10:56:33Z</time>
      </trkpt>
      <trkpt lat="45.62517" lon="5.70631">
        <ele>800</ele>
        <time>2017-04-23T10:56:49Z</time>
      </trkpt>
      <trkpt lat="45.62515" lon="5.70627">
        <ele>800</ele>
        <time>2017-04-23T10:56:49Z</time>
      </trkpt>
      <trkpt lat="45.62512" lon="5.70624">
        <ele>782</ele>
        <time>2017-04-23T10:56:49Z</time>
      </trkpt>
      <trkpt lat="45.62509" lon="5.70621">
        <ele>782</ele>
        <time>2017-04-23T10:56:49Z</time>
      </trkpt>
      <trkpt lat="45.62504" lon="5.70617">
        <ele>782</ele>
        <time>2017-04-23T10:57:05Z</time>
      </trkpt>
      <trkpt lat="45.62499" lon="5.70615">
        <ele>782</ele>
        <time>2017-04-23T10:57:05Z</time>
      </trkpt>
      <trkpt lat="45.62494" lon="5.70612">
        <ele>782</ele>
        <time>2017-04-23T10:57:05Z</time>
      </trkpt>
      <trkpt lat="45.62488" lon="5.7061">
        <ele>782</ele>
        <time>2017-04-23T10:57:05Z</time>
      </trkpt>
      <trkpt lat="45.62481" lon="5.70607">
        <ele>782</ele>
        <time>2017-04-23T10:57:21Z</time>
      </trkpt>
      <trkpt lat="45.62475" lon="5.70605">
        <ele>782</ele>
        <time>2017-04-23T10:57:21Z</time>
      </trkpt>
      <trkpt lat="45.62471" lon="5.70604">
        <ele>782</ele>
        <time>2017-04-23T10:57:21Z</time>
      </trkpt>
      <trkpt lat="45.62468" lon="5.70603">
        <ele>782</ele>
        <time>2017-04-23T10:57:21Z</time>
      </trkpt>
      <trkpt lat="45.62463" lon="5.70601">
        <ele>782</ele>
        <time>2017-04-23T10:57:37Z</time>
      </trkpt>
      <trkpt lat="45.62458" lon="5.70597">
        <ele>777</ele>
        <time>2017-04-23T10:57:37Z</time>
      </trkpt>
      <trkpt lat="45.62453" lon="5.70594">
        <ele>777</ele>
        <time>2017-04-23T10:57:37Z</time>
      </trkpt>
      <trkpt lat="45.62449" lon="5.70594">
        <ele>777</ele>
        <time>2017-04-23T10:57:37Z</time>
      </trkpt>
      <trkpt lat="45.62445" lon="5.70593">
        <ele>777</ele>
        <time>2017-04-23T10:57:53Z</time>
      </trkpt>
      <trkpt lat="45.62441" lon="5.70589">
        <ele>777</ele>
        <time>2017-04-23T10:57:53Z</time>
      </trkpt>
      <trkpt lat="45.62437" lon="5.70585">
        <ele>777</ele>
        <time>2017-04-23T10:57:53Z</time>
      </trkpt>
      <trkpt lat="45.62433" lon="5.70581">
        <ele>777</ele>
        <time>2017-04-23T10:57:53Z</time>
      </trkpt>
      <trkpt lat="45.62427" lon="5.70579">
        <ele>777</ele>
        <time>2017-04-23T10:58:17Z</time>
      </trkpt>
      <trkpt lat="45.62424" lon="5.70576">
        <ele>777</ele>
        <time>2017-04-23T10:58:17Z</time>
      </trkpt>
      <trkpt lat="45.62426" lon="5.70573">
        <ele>777</ele>
        <time>2017-04-23T10:58:17Z</time>
      </trkpt>
      <trkpt lat="45.62428" lon="5.70569">
        <ele>777</ele>
        <time>2017-04-23T10:58:17Z</time>
      </trkpt>
      <trkpt lat="45.6243" lon="5.70564">
        <ele>777</ele>
        <time>2017-04-23T10:58:17Z</time>
      </trkpt>
      <trkpt lat="45.62432" lon="5.7056">
        <ele>777</ele>
        <time>2017-04-23T10:58:33Z</time>
      </trkpt>
      <trkpt lat="45.62436" lon="5.70558">
        <ele>777</ele>
        <time>2017-04-23T10:58:33Z</time>
      </trkpt>
      <trkpt lat="45.62441" lon="5.70557">
        <ele>777</ele>
        <time>2017-04-23T10:58:33Z</time>
      </trkpt>
      <trkpt lat="45.62446" lon="5.70555">
        <ele>777</ele>
        <time>2017-04-23T10:58:33Z</time>
      </trkpt>
      <trkpt lat="45.62449" lon="5.70556">
        <ele>777</ele>
        <time>2017-04-23T10:58:49Z</time>
      </trkpt>
      <trkpt lat="45.62452" lon="5.70556">
        <ele>777</ele>
        <time>2017-04-23T10:58:49Z</time>
      </trkpt>
      <trkpt lat="45.62457" lon="5.7056">
        <ele>777</ele>
        <time>2017-04-23T10:58:49Z</time>
      </trkpt>
      <trkpt lat="45.62463" lon="5.70565">
        <ele>782</ele>
        <time>2017-04-23T10:58:49Z</time>
      </trkpt>
      <trkpt lat="45.62468" lon="5.70567">
        <ele>782</ele>
        <time>2017-04-23T10:59:05Z</time>
      </trkpt>
      <trkpt lat="45.62471" lon="5.70569">
        <ele>782</ele>
        <time>2017-04-23T10:59:05Z</time>
      </trkpt>
      <trkpt lat="45.62476" lon="5.7057">
        <ele>782</ele>
        <time>2017-04-23T10:59:05Z</time>
      </trkpt>
      <trkpt lat="45.62481" lon="5.70569">
        <ele>782</ele>
        <time>2017-04-23T10:59:05Z</time>
      </trkpt>
      <trkpt lat="45.62488" lon="5.70569">
        <ele>782</ele>
        <time>2017-04-23T10:59:21Z</time>
      </trkpt>
      <trkpt lat="45.62494" lon="5.70574">
        <ele>782</ele>
        <time>2017-04-23T10:59:21Z</time>
      </trkpt>
      <trkpt lat="45.62498" lon="5.7058">
        <ele>782</ele>
        <time>2017-04-23T10:59:21Z</time>
      </trkpt>
      <trkpt lat="45.62502" lon="5.70586">
        <ele>782</ele>
        <time>2017-04-23T10:59:21Z</time>
      </trkpt>
      <trkpt lat="45.62505" lon="5.70592">
        <ele>782</ele>
        <time>2017-04-23T10:59:37Z</time>
      </trkpt>
      <trkpt lat="45.62509" lon="5.70598">
        <ele>782</ele>
        <time>2017-04-23T10:59:37Z</time>
      </trkpt>
      <trkpt lat="45.62514" lon="5.70603">
        <ele>782</ele>
        <time>2017-04-23T10:59:37Z</time>
      </trkpt>
      <trkpt lat="45.62519" lon="5.70608">
        <ele>782</ele>
        <time>2017-04-23T10:59:37Z</time>
      </trkpt>
      <trkpt lat="45.62522" lon="5.70614">
        <ele>782</ele>
        <time>2017-04-23T10:59:53Z</time>
      </trkpt>
      <trkpt lat="45.62524" lon="5.70618">
        <ele>782</ele>
        <time>2017-04-23T10:59:53Z</time>
      </trkpt>
      <trkpt lat="45.6253" lon="5.70623">
        <ele>782</ele>
        <time>2017-04-23T10:59:53Z</time>
      </trkpt>
      <trkpt lat="45.62536" lon="5.70628">
        <ele>800</ele>
        <time>2017-04-23T10:59:53Z</time>
      </trkpt>
      <trkpt lat="45.62543" lon="5.70631">
        <ele>804</ele>
        <time>2017-04-23T11:00:09Z</time>
      </trkpt>
      <trkpt lat="45.62549" lon="5.7063">
        <ele>804</ele>
        <time>2017-04-23T11:00:09Z</time>
      </trkpt>
      <trkpt lat="45.62556" lon="5.70626">
        <ele>804</ele>
        <time>2017-04-23T11:00:09Z</time>
      </trkpt>
      <trkpt lat="45.62561" lon="5.70621">
        <ele>792</ele>
        <time>2017-04-23T11:00:09Z</time>
      </trkpt>
      <trkpt lat="45.62567" lon="5.70617">
        <ele>792</ele>
        <time>2017-04-23T11:00:25Z</time>
      </trkpt>
      <trkpt lat="45.62572" lon="5.70611">
        <ele>792</ele>
        <time>2017-04-23T11:00:25Z</time>
      </trkpt>
      <trkpt lat="45.62578" lon="5.7061">
        <ele>792</ele>
        <time>2017-04-23T11:00:25Z</time>
      </trkpt>
      <trkpt lat="45.62584" lon="5.70609">
        <ele>792</ele>
        <time>2017-04-23T11:00:25Z</time>
      </trkpt>
      <trkpt lat="45.6259" lon="5.70607">
        <ele>792</ele>
        <time>2017-04-23T11:00:41Z</time>
      </trkpt>
      <trkpt lat="45.62594" lon="5.70605">
        <ele>792</ele>
        <time>2017-04-23T11:00:41Z</time>
      </trkpt>
      <trkpt lat="45.62601" lon="5.70605">
        <ele>792</ele>
        <time>2017-04-23T11:00:41Z</time>
      </trkpt>
      <trkpt lat="45.62607" lon="5.70599">
        <ele>792</ele>
        <time>2017-04-23T11:00:41Z</time>
      </trkpt>
      <trkpt lat="45.62612" lon="5.70594">
        <ele>792</ele>
        <time>2017-04-23T11:00:57Z</time>
      </trkpt>
      <trkpt lat="45.62616" lon="5.70589">
        <ele>792</ele>
        <time>2017-04-23T11:00:57Z</time>
      </trkpt>
      <trkpt lat="45.62619" lon="5.70584">
        <ele>792</ele>
        <time>2017-04-23T11:00:57Z</time>
      </trkpt>
      <trkpt lat="45.62623" lon="5.70579">
        <ele>792</ele>
        <time>2017-04-23T11:00:57Z</time>
      </trkpt>
      <trkpt lat="45.62626" lon="5.70575">
        <ele>797</ele>
        <time>2017-04-23T11:01:13Z</time>
      </trkpt>
      <trkpt lat="45.6263" lon="5.70573">
        <ele>797</ele>
        <time>2017-04-23T11:01:13Z</time>
      </trkpt>
      <trkpt lat="45.62634" lon="5.70575">
        <ele>797</ele>
        <time>2017-04-23T11:01:13Z</time>
      </trkpt>
      <trkpt lat="45.62639" lon="5.70575">
        <ele>797</ele>
        <time>2017-04-23T11:01:13Z</time>
      </trkpt>
      <trkpt lat="45.62644" lon="5.70576">
        <ele>797</ele>
        <time>2017-04-23T11:01:29Z</time>
      </trkpt>
      <trkpt lat="45.6265" lon="5.70573">
        <ele>797</ele>
        <time>2017-04-23T11:01:29Z</time>
      </trkpt>
      <trkpt lat="45.62654" lon="5.7057">
        <ele>797</ele>
        <time>2017-04-23T11:01:29Z</time>
      </trkpt>
      <trkpt lat="45.62658" lon="5.70564">
        <ele>797</ele>
        <time>2017-04-23T11:01:29Z</time>
      </trkpt>
      <trkpt lat="45.62662" lon="5.7056">
        <ele>797</ele>
        <time>2017-04-23T11:01:45Z</time>
      </trkpt>
      <trkpt lat="45.62668" lon="5.70557">
        <ele>797</ele>
        <time>2017-04-23T11:01:45Z</time>
      </trkpt>
      <trkpt lat="45.62672" lon="5.70551">
        <ele>797</ele>
        <time>2017-04-23T11:01:45Z</time>
      </trkpt>
      <trkpt lat="45.62678" lon="5.70544">
        <ele>797</ele>
        <time>2017-04-23T11:01:45Z</time>
      </trkpt>
      <trkpt lat="45.62684" lon="5.7054">
        <ele>773</ele>
        <time>2017-04-23T11:02:01Z</time>
      </trkpt>
      <trkpt lat="45.6269" lon="5.70535">
        <ele>773</ele>
        <time>2017-04-23T11:02:01Z</time>
      </trkpt>
      <trkpt lat="45.62695" lon="5.7053">
        <ele>773</ele>
        <time>2017-04-23T11:02:01Z</time>
      </trkpt>
      <trkpt lat="45.627" lon="5.70526">
        <ele>773</ele>
        <time>2017-04-23T11:02:01Z</time>
      </trkpt>
      <trkpt lat="45.62705" lon="5.70523">
        <ele>773</ele>
        <time>2017-04-23T11:02:17Z</time>
      </trkpt>
      <trkpt lat="45.6271" lon="5.70525">
        <ele>778</ele>
        <time>2017-04-23T11:02:17Z</time>
      </trkpt>
      <trkpt lat="45.62716" lon="5.70525">
        <ele>778</ele>
        <time>2017-04-23T11:02:17Z</time>
      </trkpt>
      <trkpt lat="45.62721" lon="5.70526">
        <ele>778</ele>
        <time>2017-04-23T11:02:17Z</time>
      </trkpt>
      <trkpt lat="45.62731" lon="5.70521">
        <ele>778</ele>
        <time>2017-04-23T11:03:25Z</time>
      </trkpt>
      <trkpt lat="45.62732" lon="5.70521">
        <ele>778</ele>
        <time>2017-04-23T11:03:25Z</time>
      </trkpt>
      <trkpt lat="45.62732" lon="5.70521">
        <ele>778</ele>
        <time>2017-04-23T11:03:25Z</time>
      </trkpt>
      <trkpt lat="45.62732" lon="5.70521">
        <ele>778</ele>
        <time>2017-04-23T11:03:25Z</time>
      </trkpt>
      <trkpt lat="45.62734" lon="5.70519">
        <ele>778</ele>
        <time>2017-04-23T11:03:25Z</time>
      </trkpt>
      <trkpt lat="45.62735" lon="5.70521">
        <ele>778</ele>
        <time>2017-04-23T11:03:49Z</time>
      </trkpt>
      <trkpt lat="45.62738" lon="5.70524">
        <ele>778</ele>
        <time>2017-04-23T11:03:49Z</time>
      </trkpt>
      <trkpt lat="45.62739" lon="5.70526">
        <ele>778</ele>
        <time>2017-04-23T11:03:49Z</time>
      </trkpt>
      <trkpt lat="45.62739" lon="5.70529">
        <ele>778</ele>
        <time>2017-04-23T11:03:49Z</time>
      </trkpt>
      <trkpt lat="45.6274" lon="5.70532">
        <ele>778</ele>
        <time>2017-04-23T11:03:49Z</time>
      </trkpt>
      <trkpt lat="45.62744" lon="5.70533">
        <ele>778</ele>
        <time>2017-04-23T11:04:05Z</time>
      </trkpt>
      <trkpt lat="45.62749" lon="5.70531">
        <ele>778</ele>
        <time>2017-04-23T11:04:05Z</time>
      </trkpt>
      <trkpt lat="45.62755" lon="5.7053">
        <ele>778</ele>
        <time>2017-04-23T11:04:05Z</time>
      </trkpt>
      <trkpt lat="45.6276" lon="5.7053">
        <ele>778</ele>
        <time>2017-04-23T11:04:05Z</time>
      </trkpt>
      <trkpt lat="45.62765" lon="5.70528">
        <ele>778</ele>
        <time>2017-04-23T11:04:21Z</time>
      </trkpt>
      <trkpt lat="45.62769" lon="5.70526">
        <ele>778</ele>
        <time>2017-04-23T11:04:21Z</time>
      </trkpt>
      <trkpt lat="45.62774" lon="5.70525">
        <ele>778</ele>
        <time>2017-04-23T11:04:21Z</time>
      </trkpt>
      <trkpt lat="45.62777" lon="5.70521">
        <ele>778</ele>
        <time>2017-04-23T11:04:21Z</time>
      </trkpt>
      <trkpt lat="45.62783" lon="5.70521">
        <ele>778</ele>
        <time>2017-04-23T11:04:37Z</time>
      </trkpt>
      <trkpt lat="45.62789" lon="5.70519">
        <ele>778</ele>
        <time>2017-04-23T11:04:37Z</time>
      </trkpt>
      <trkpt lat="45.62795" lon="5.70516">
        <ele>787</ele>
        <time>2017-04-23T11:04:37Z</time>
      </trkpt>
      <trkpt lat="45.62802" lon="5.70514">
        <ele>787</ele>
        <time>2017-04-23T11:04:37Z</time>
      </trkpt>
      <trkpt lat="45.62808" lon="5.70508">
        <ele>787</ele>
        <time>2017-04-23T11:04:53Z</time>
      </trkpt>
      <trkpt lat="45.62816" lon="5.70505">
        <ele>787</ele>
        <time>2017-04-23T11:04:53Z</time>
      </trkpt>
      <trkpt lat="45.62826" lon="5.705">
        <ele>787</ele>
        <time>2017-04-23T11:04:53Z</time>
      </trkpt>
      <trkpt lat="45.6284" lon="5.70494">
        <ele>787</ele>
        <time>2017-04-23T11:04:53Z</time>
      </trkpt>
      <trkpt lat="45.62849" lon="5.70493">
        <ele>787</ele>
        <time>2017-04-23T11:05:09Z</time>
      </trkpt>
      <trkpt lat="45.62859" lon="5.70494">
        <ele>787</ele>
        <time>2017-04-23T11:05:09Z</time>
      </trkpt>
      <trkpt lat="45.62867" lon="5.70494">
        <ele>787</ele>
        <time>2017-04-23T11:05:09Z</time>
      </trkpt>
      <trkpt lat="45.62875" lon="5.70494">
        <ele>787</ele>
        <time>2017-04-23T11:05:09Z</time>
      </trkpt>
      <trkpt lat="45.62882" lon="5.70495">
        <ele>793</ele>
        <time>2017-04-23T11:05:25Z</time>
      </trkpt>
      <trkpt lat="45.62891" lon="5.70492">
        <ele>793</ele>
        <time>2017-04-23T11:05:25Z</time>
      </trkpt>
      <trkpt lat="45.62899" lon="5.70493">
        <ele>793</ele>
        <time>2017-04-23T11:05:25Z</time>
      </trkpt>
      <trkpt lat="45.62905" lon="5.70494">
        <ele>793</ele>
        <time>2017-04-23T11:05:25Z</time>
      </trkpt>
      <trkpt lat="45.62911" lon="5.70494">
        <ele>793</ele>
        <time>2017-04-23T11:05:41Z</time>
      </trkpt>
      <trkpt lat="45.62919" lon="5.70492">
        <ele>793</ele>
        <time>2017-04-23T11:05:41Z</time>
      </trkpt>
      <trkpt lat="45.62927" lon="5.70485">
        <ele>793</ele>
        <time>2017-04-23T11:05:41Z</time>
      </trkpt>
      <trkpt lat="45.62934" lon="5.70483">
        <ele>793</ele>
        <time>2017-04-23T11:05:41Z</time>
      </trkpt>
      <trkpt lat="45.6294" lon="5.70481">
        <ele>793</ele>
        <time>2017-04-23T11:05:57Z</time>
      </trkpt>
      <trkpt lat="45.62943" lon="5.7048">
        <ele>793</ele>
        <time>2017-04-23T11:05:57Z</time>
      </trkpt>
      <trkpt lat="45.62947" lon="5.70476">
        <ele>793</ele>
        <time>2017-04-23T11:05:57Z</time>
      </trkpt>
      <trkpt lat="45.62952" lon="5.70473">
        <ele>793</ele>
        <time>2017-04-23T11:05:57Z</time>
      </trkpt>
      <trkpt lat="45.62959" lon="5.70473">
        <ele>792</ele>
        <time>2017-04-23T11:06:13Z</time>
      </trkpt>
      <trkpt lat="45.62965" lon="5.70472">
        <ele>792</ele>
        <time>2017-04-23T11:06:13Z</time>
      </trkpt>
      <trkpt lat="45.62971" lon="5.70466">
        <ele>792</ele>
        <time>2017-04-23T11:06:13Z</time>
      </trkpt>
      <trkpt lat="45.62978" lon="5.7046">
        <ele>792</ele>
        <time>2017-04-23T11:06:13Z</time>
      </trkpt>
      <trkpt lat="45.62983" lon="5.70457">
        <ele>769</ele>
        <time>2017-04-23T11:06:29Z</time>
      </trkpt>
      <trkpt lat="45.6299" lon="5.70454">
        <ele>769</ele>
        <time>2017-04-23T11:06:29Z</time>
      </trkpt>
      <trkpt lat="45.62996" lon="5.70451">
        <ele>769</ele>
        <time>2017-04-23T11:06:29Z</time>
      </trkpt>
      <trkpt lat="45.63002" lon="5.70446">
        <ele>769</ele>
        <time>2017-04-23T11:06:29Z</time>
      </trkpt>
      <trkpt lat="45.63006" lon="5.7044">
        <ele>769</ele>
        <time>2017-04-23T11:06:45Z</time>
      </trkpt>
      <trkpt lat="45.6301" lon="5.70436">
        <ele>769</ele>
        <time>2017-04-23T11:06:45Z</time>
      </trkpt>
      <trkpt lat="45.63015" lon="5.70433">
        <ele>769</ele>
        <time>2017-04-23T11:06:45Z</time>
      </trkpt>
      <trkpt lat="45.6302" lon="5.70429">
        <ele>769</ele>
        <time>2017-04-23T11:06:45Z</time>
      </trkpt>
      <trkpt lat="45.63027" lon="5.70425">
        <ele>769</ele>
        <time>2017-04-23T11:07:25Z</time>
      </trkpt>
      <trkpt lat="45.63027" lon="5.70425">
        <ele>769</ele>
        <time>2017-04-23T11:07:25Z</time>
      </trkpt>
      <trkpt lat="45.63029" lon="5.70425">
        <ele>769</ele>
        <time>2017-04-23T11:07:25Z</time>
      </trkpt>
      <trkpt lat="45.6303" lon="5.70426">
        <ele>769</ele>
        <time>2017-04-23T11:07:25Z</time>
      </trkpt>
      <trkpt lat="45.6303" lon="5.70426">
        <ele>769</ele>
        <time>2017-04-23T11:07:25Z</time>
      </trkpt>
      <trkpt lat="45.63034" lon="5.70431">
        <ele>769</ele>
        <time>2017-04-23T11:08:25Z</time>
      </trkpt>
      <trkpt lat="45.63036" lon="5.70431">
        <ele>769</ele>
        <time>2017-04-23T11:08:25Z</time>
      </trkpt>
      <trkpt lat="45.63037" lon="5.70432">
        <ele>769</ele>
        <time>2017-04-23T11:08:25Z</time>
      </trkpt>
      <trkpt lat="45.63038" lon="5.70433">
        <ele>769</ele>
        <time>2017-04-23T11:08:25Z</time>
      </trkpt>
      <trkpt lat="45.63038" lon="5.70435">
        <ele>769</ele>
        <time>2017-04-23T11:08:25Z</time>
      </trkpt>
      <trkpt lat="45.63038" lon="5.70432">
        <ele>769</ele>
        <time>2017-04-23T11:12:45Z</time>
      </trkpt>
      <trkpt lat="45.63042" lon="5.70434">
        <ele>769</ele>
        <time>2017-04-23T11:12:45Z</time>
      </trkpt>
      <trkpt lat="45.63046" lon="5.70436">
        <ele>773</ele>
        <time>2017-04-23T11:12:45Z</time>
      </trkpt>
      <trkpt lat="45.63051" lon="5.70436">
        <ele>773</ele>
        <time>2017-04-23T11:12:45Z</time>
      </trkpt>
      <trkpt lat="45.63055" lon="5.70434">
        <ele>773</ele>
        <time>2017-04-23T11:12:45Z</time>
      </trkpt>
      <trkpt lat="45.6306" lon="5.70433">
        <ele>773</ele>
        <time>2017-04-23T11:13:01Z</time>
      </trkpt>
      <trkpt lat="45.63065" lon="5.70428">
        <ele>773</ele>
        <time>2017-04-23T11:13:01Z</time>
      </trkpt>
      <trkpt lat="45.63068" lon="5.70425">
        <ele>773</ele>
        <time>2017-04-23T11:13:01Z</time>
      </trkpt>
      <trkpt lat="45.63073" lon="5.70423">
        <ele>773</ele>
        <time>2017-04-23T11:13:01Z</time>
      </trkpt>
      <trkpt lat="45.63077" lon="5.70422">
        <ele>773</ele>
        <time>2017-04-23T11:13:17Z</time>
      </trkpt>
      <trkpt lat="45.6308" lon="5.70423">
        <ele>773</ele>
        <time>2017-04-23T11:13:17Z</time>
      </trkpt>
      <trkpt lat="45.63083" lon="5.70424">
        <ele>773</ele>
        <time>2017-04-23T11:13:17Z</time>
      </trkpt>
      <trkpt lat="45.63089" lon="5.70424">
        <ele>773</ele>
        <time>2017-04-23T11:13:17Z</time>
      </trkpt>
      <trkpt lat="45.63094" lon="5.70424">
        <ele>773</ele>
        <time>2017-04-23T11:13:33Z</time>
      </trkpt>
      <trkpt lat="45.63098" lon="5.70421">
        <ele>773</ele>
        <time>2017-04-23T11:13:33Z</time>
      </trkpt>
      <trkpt lat="45.63102" lon="5.70418">
        <ele>773</ele>
        <time>2017-04-23T11:13:33Z</time>
      </trkpt>
      <trkpt lat="45.63104" lon="5.70416">
        <ele>773</ele>
        <time>2017-04-23T11:13:33Z</time>
      </trkpt>
      <trkpt lat="45.63108" lon="5.70416">
        <ele>773</ele>
        <time>2017-04-23T11:13:49Z</time>
      </trkpt>
      <trkpt lat="45.63113" lon="5.70414">
        <ele>773</ele>
        <time>2017-04-23T11:13:49Z</time>
      </trkpt>
      <trkpt lat="45.63119" lon="5.70411">
        <ele>773</ele>
        <time>2017-04-23T11:13:49Z</time>
      </trkpt>
      <trkpt lat="45.63122" lon="5.70408">
        <ele>773</ele>
        <time>2017-04-23T11:13:49Z</time>
      </trkpt>
      <trkpt lat="45.63127" lon="5.70406">
        <ele>776</ele>
        <time>2017-04-23T11:14:05Z</time>
      </trkpt>
      <trkpt lat="45.63131" lon="5.70403">
        <ele>776</ele>
        <time>2017-04-23T11:14:05Z</time>
      </trkpt>
      <trkpt lat="45.63135" lon="5.70405">
        <ele>776</ele>
        <time>2017-04-23T11:14:05Z</time>
      </trkpt>
      <trkpt lat="45.63139" lon="5.70408">
        <ele>776</ele>
        <time>2017-04-23T11:14:05Z</time>
      </trkpt>
      <trkpt lat="45.63143" lon="5.70405">
        <ele>776</ele>
        <time>2017-04-23T11:14:21Z</time>
      </trkpt>
      <trkpt lat="45.63145" lon="5.70398">
        <ele>776</ele>
        <time>2017-04-23T11:14:21Z</time>
      </trkpt>
      <trkpt lat="45.63143" lon="5.70394">
        <ele>776</ele>
        <time>2017-04-23T11:14:21Z</time>
      </trkpt>
      <trkpt lat="45.63139" lon="5.7039">
        <ele>776</ele>
        <time>2017-04-23T11:14:21Z</time>
      </trkpt>
      <trkpt lat="45.63136" lon="5.70385">
        <ele>776</ele>
        <time>2017-04-23T11:14:37Z</time>
      </trkpt>
      <trkpt lat="45.63133" lon="5.7038">
        <ele>776</ele>
        <time>2017-04-23T11:14:37Z</time>
      </trkpt>
      <trkpt lat="45.63129" lon="5.70374">
        <ele>758</ele>
        <time>2017-04-23T11:14:37Z</time>
      </trkpt>
      <trkpt lat="45.63124" lon="5.70368">
        <ele>756</ele>
        <time>2017-04-23T11:14:37Z</time>
      </trkpt>
      <trkpt lat="45.63118" lon="5.70362">
        <ele>756</ele>
        <time>2017-04-23T11:14:53Z</time>
      </trkpt>
      <trkpt lat="45.63112" lon="5.70359">
        <ele>756</ele>
        <time>2017-04-23T11:14:53Z</time>
      </trkpt>
      <trkpt lat="45.63107" lon="5.70355">
        <ele>756</ele>
        <time>2017-04-23T11:14:53Z</time>
      </trkpt>
      <trkpt lat="45.63103" lon="5.70349">
        <ele>756</ele>
        <time>2017-04-23T11:14:53Z</time>
      </trkpt>
      <trkpt lat="45.63093" lon="5.70343">
        <ele>756</ele>
        <time>2017-04-23T11:15:33Z</time>
      </trkpt>
      <trkpt lat="45.63093" lon="5.70343">
        <ele>756</ele>
        <time>2017-04-23T11:15:33Z</time>
      </trkpt>
      <trkpt lat="45.63093" lon="5.70343">
        <ele>756</ele>
        <time>2017-04-23T11:15:33Z</time>
      </trkpt>
      <trkpt lat="45.63091" lon="5.70343">
        <ele>756</ele>
        <time>2017-04-23T11:15:33Z</time>
      </trkpt>
      <trkpt lat="45.63088" lon="5.70342">
        <ele>756</ele>
        <time>2017-04-23T11:15:33Z</time>
      </trkpt>
      <trkpt lat="45.63085" lon="5.7034">
        <ele>756</ele>
        <time>2017-04-23T11:15:49Z</time>
      </trkpt>
      <trkpt lat="45.63081" lon="5.70338">
        <ele>756</ele>
        <time>2017-04-23T11:15:49Z</time>
      </trkpt>
      <trkpt lat="45.63077" lon="5.70336">
        <ele>756</ele>
        <time>2017-04-23T11:15:49Z</time>
      </trkpt>
      <trkpt lat="45.63072" lon="5.70333">
        <ele>756</ele>
        <time>2017-04-23T11:15:49Z</time>
      </trkpt>
      <trkpt lat="45.63065" lon="5.7033">
        <ele>756</ele>
        <time>2017-04-23T11:16:41Z</time>
      </trkpt>
      <trkpt lat="45.63064" lon="5.70327">
        <ele>756</ele>
        <time>2017-04-23T11:16:41Z</time>
      </trkpt>
      <trkpt lat="45.63062" lon="5.70322">
        <ele>756</ele>
        <time>2017-04-23T11:16:41Z</time>
      </trkpt>
      <trkpt lat="45.63059" lon="5.70315">
        <ele>756</ele>
        <time>2017-04-23T11:16:41Z</time>
      </trkpt>
      <trkpt lat="45.63057" lon="5.70306">
        <ele>756</ele>
        <time>2017-04-23T11:16:41Z</time>
      </trkpt>
      <trkpt lat="45.63056" lon="5.70296">
        <ele>756</ele>
        <time>2017-04-23T11:16:57Z</time>
      </trkpt>
      <trkpt lat="45.63055" lon="5.70287">
        <ele>750</ele>
        <time>2017-04-23T11:16:57Z</time>
      </trkpt>
      <trkpt lat="45.63055" lon="5.70278">
        <ele>750</ele>
        <time>2017-04-23T11:16:57Z</time>
      </trkpt>
      <trkpt lat="45.63057" lon="5.70269">
        <ele>750</ele>
        <time>2017-04-23T11:16:57Z</time>
      </trkpt>
      <trkpt lat="45.63062" lon="5.70263">
        <ele>750</ele>
        <time>2017-04-23T11:17:13Z</time>
      </trkpt>
      <trkpt lat="45.63073" lon="5.70263">
        <ele>750</ele>
        <time>2017-04-23T11:17:13Z</time>
      </trkpt>
      <trkpt lat="45.63082" lon="5.70266">
        <ele>750</ele>
        <time>2017-04-23T11:17:13Z</time>
      </trkpt>
      <trkpt lat="45.63089" lon="5.70267">
        <ele>750</ele>
        <time>2017-04-23T11:17:13Z</time>
      </trkpt>
      <trkpt lat="45.63095" lon="5.70267">
        <ele>750</ele>
        <time>2017-04-23T11:17:29Z</time>
      </trkpt>
      <trkpt lat="45.63102" lon="5.70266">
        <ele>750</ele>
        <time>2017-04-23T11:17:29Z</time>
      </trkpt>
      <trkpt lat="45.63108" lon="5.70267">
        <ele>750</ele>
        <time>2017-04-23T11:17:29Z</time>
      </trkpt>
      <trkpt lat="45.63114" lon="5.70271">
        <ele>750</ele>
        <time>2017-04-23T11:17:29Z</time>
      </trkpt>
      <trkpt lat="45.63119" lon="5.70276">
        <ele>750</ele>
        <time>2017-04-23T11:17:45Z</time>
      </trkpt>
      <trkpt lat="45.63124" lon="5.7028">
        <ele>750</ele>
        <time>2017-04-23T11:17:45Z</time>
      </trkpt>
      <trkpt lat="45.6313" lon="5.70285">
        <ele>755</ele>
        <time>2017-04-23T11:17:45Z</time>
      </trkpt>
      <trkpt lat="45.63135" lon="5.70292">
        <ele>758</ele>
        <time>2017-04-23T11:17:45Z</time>
      </trkpt>
      <trkpt lat="45.6314" lon="5.70298">
        <ele>758</ele>
        <time>2017-04-23T11:18:01Z</time>
      </trkpt>
      <trkpt lat="45.63145" lon="5.70306">
        <ele>758</ele>
        <time>2017-04-23T11:18:01Z</time>
      </trkpt>
      <trkpt lat="45.6315" lon="5.70312">
        <ele>758</ele>
        <time>2017-04-23T11:18:01Z</time>
      </trkpt>
      <trkpt lat="45.63154" lon="5.70319">
        <ele>758</ele>
        <time>2017-04-23T11:18:01Z</time>
      </trkpt>
      <trkpt lat="45.63157" lon="5.70324">
        <ele>758</ele>
        <time>2017-04-23T11:18:17Z</time>
      </trkpt>
      <trkpt lat="45.63161" lon="5.7033">
        <ele>758</ele>
        <time>2017-04-23T11:18:17Z</time>
      </trkpt>
      <trkpt lat="45.63166" lon="5.70336">
        <ele>758</ele>
        <time>2017-04-23T11:18:17Z</time>
      </trkpt>
      <trkpt lat="45.6317" lon="5.70336">
        <ele>758</ele>
        <time>2017-04-23T11:18:17Z</time>
      </trkpt>
      <trkpt lat="45.63178" lon="5.70337">
        <ele>758</ele>
        <time>2017-04-23T11:18:33Z</time>
      </trkpt>
      <trkpt lat="45.63183" lon="5.70336">
        <ele>758</ele>
        <time>2017-04-23T11:18:33Z</time>
      </trkpt>
      <trkpt lat="45.63189" lon="5.70337">
        <ele>758</ele>
        <time>2017-04-23T11:18:33Z</time>
      </trkpt>
      <trkpt lat="45.63194" lon="5.70338">
        <ele>758</ele>
        <time>2017-04-23T11:18:33Z</time>
      </trkpt>
      <trkpt lat="45.63199" lon="5.70338">
        <ele>758</ele>
        <time>2017-04-23T11:18:49Z</time>
      </trkpt>
      <trkpt lat="45.63205" lon="5.70337">
        <ele>758</ele>
        <time>2017-04-23T11:18:49Z</time>
      </trkpt>
      <trkpt lat="45.63211" lon="5.70337">
        <ele>768</ele>
        <time>2017-04-23T11:18:49Z</time>
      </trkpt>
      <trkpt lat="45.63217" lon="5.70339">
        <ele>768</ele>
        <time>2017-04-23T11:18:49Z</time>
      </trkpt>
      <trkpt lat="45.63222" lon="5.70344">
        <ele>768</ele>
        <time>2017-04-23T11:19:05Z</time>
      </trkpt>
      <trkpt lat="45.63228" lon="5.70343">
        <ele>768</ele>
        <time>2017-04-23T11:19:05Z</time>
      </trkpt>
      <trkpt lat="45.63235" lon="5.70341">
        <ele>768</ele>
        <time>2017-04-23T11:19:05Z</time>
      </trkpt>
      <trkpt lat="45.63244" lon="5.70341">
        <ele>768</ele>
        <time>2017-04-23T11:19:05Z</time>
      </trkpt>
      <trkpt lat="45.6325" lon="5.70343">
        <ele>768</ele>
        <time>2017-04-23T11:19:21Z</time>
      </trkpt>
      <trkpt lat="45.63256" lon="5.70344">
        <ele>768</ele>
        <time>2017-04-23T11:19:21Z</time>
      </trkpt>
      <trkpt lat="45.63261" lon="5.70342">
        <ele>768</ele>
        <time>2017-04-23T11:19:21Z</time>
      </trkpt>
      <trkpt lat="45.63266" lon="5.70341">
        <ele>768</ele>
        <time>2017-04-23T11:19:21Z</time>
      </trkpt>
      <trkpt lat="45.63272" lon="5.70343">
        <ele>768</ele>
        <time>2017-04-23T11:19:37Z</time>
      </trkpt>
      <trkpt lat="45.63278" lon="5.70343">
        <ele>768</ele>
        <time>2017-04-23T11:19:37Z</time>
      </trkpt>
      <trkpt lat="45.63282" lon="5.70345">
        <ele>768</ele>
        <time>2017-04-23T11:19:37Z</time>
      </trkpt>
      <trkpt lat="45.63288" lon="5.70345">
        <ele>768</ele>
        <time>2017-04-23T11:19:37Z</time>
      </trkpt>
      <trkpt lat="45.63292" lon="5.70345">
        <ele>776</ele>
        <time>2017-04-23T11:19:53Z</time>
      </trkpt>
      <trkpt lat="45.63299" lon="5.70343">
        <ele>776</ele>
        <time>2017-04-23T11:19:53Z</time>
      </trkpt>
      <trkpt lat="45.63304" lon="5.70345">
        <ele>776</ele>
        <time>2017-04-23T11:19:53Z</time>
      </trkpt>
      <trkpt lat="45.63308" lon="5.70347">
        <ele>776</ele>
        <time>2017-04-23T11:19:53Z</time>
      </trkpt>
      <trkpt lat="45.63321" lon="5.70341">
        <ele>776</ele>
        <time>2017-04-23T11:20:25Z</time>
      </trkpt>
      <trkpt lat="45.63322" lon="5.70342">
        <ele>776</ele>
        <time>2017-04-23T11:20:25Z</time>
      </trkpt>
      <trkpt lat="45.63322" lon="5.70341">
        <ele>776</ele>
        <time>2017-04-23T11:20:25Z</time>
      </trkpt>
      <trkpt lat="45.63322" lon="5.70341">
        <ele>776</ele>
        <time>2017-04-23T11:20:25Z</time>
      </trkpt>
      <trkpt lat="45.63322" lon="5.70341">
        <ele>776</ele>
        <time>2017-04-23T11:20:25Z</time>
      </trkpt>
      <trkpt lat="45.63322" lon="5.70341">
        <ele>776</ele>
        <time>2017-04-23T11:20:49Z</time>
      </trkpt>
      <trkpt lat="45.63324" lon="5.70341">
        <ele>776</ele>
        <time>2017-04-23T11:20:49Z</time>
      </trkpt>
      <trkpt lat="45.63326" lon="5.70337">
        <ele>776</ele>
        <time>2017-04-23T11:20:49Z</time>
      </trkpt>
      <trkpt lat="45.63329" lon="5.70332">
        <ele>776</ele>
        <time>2017-04-23T11:20:49Z</time>
      </trkpt>
      <trkpt lat="45.63334" lon="5.70329">
        <ele>776</ele>
        <time>2017-04-23T11:20:49Z</time>
      </trkpt>
      <trkpt lat="45.6334" lon="5.70325">
        <ele>776</ele>
        <time>2017-04-23T11:21:05Z</time>
      </trkpt>
      <trkpt lat="45.63346" lon="5.70321">
        <ele>776</ele>
        <time>2017-04-23T11:21:05Z</time>
      </trkpt>
      <trkpt lat="45.63354" lon="5.70319">
        <ele>776</ele>
        <time>2017-04-23T11:21:05Z</time>
      </trkpt>
      <trkpt lat="45.63359" lon="5.70315">
        <ele>776</ele>
        <time>2017-04-23T11:21:05Z</time>
      </trkpt>
      <trkpt lat="45.63364" lon="5.70313">
        <ele>776</ele>
        <time>2017-04-23T11:21:21Z</time>
      </trkpt>
      <trkpt lat="45.63368" lon="5.70311">
        <ele>776</ele>
        <time>2017-04-23T11:21:21Z</time>
      </trkpt>
      <trkpt lat="45.63373" lon="5.70303">
        <ele>776</ele>
        <time>2017-04-23T11:21:21Z</time>
      </trkpt>
      <trkpt lat="45.63377" lon="5.70296">
        <ele>776</ele>
        <time>2017-04-23T11:21:21Z</time>
      </trkpt>
      <trkpt lat="45.63382" lon="5.7029">
        <ele>771</ele>
        <time>2017-04-23T11:21:37Z</time>
      </trkpt>
      <trkpt lat="45.63386" lon="5.70289">
        <ele>771</ele>
        <time>2017-04-23T11:21:37Z</time>
      </trkpt>
      <trkpt lat="45.63391" lon="5.70283">
        <ele>771</ele>
        <time>2017-04-23T11:21:37Z</time>
      </trkpt>
      <trkpt lat="45.63396" lon="5.7028">
        <ele>771</ele>
        <time>2017-04-23T11:21:37Z</time>
      </trkpt>
      <trkpt lat="45.63402" lon="5.70276">
        <ele>771</ele>
        <time>2017-04-23T11:21:53Z</time>
      </trkpt>
      <trkpt lat="45.63408" lon="5.70269">
        <ele>771</ele>
        <time>2017-04-23T11:21:53Z</time>
      </trkpt>
      <trkpt lat="45.63413" lon="5.70264">
        <ele>771</ele>
        <time>2017-04-23T11:21:53Z</time>
      </trkpt>
      <trkpt lat="45.63419" lon="5.70259">
        <ele>771</ele>
        <time>2017-04-23T11:21:53Z</time>
      </trkpt>
      <trkpt lat="45.63424" lon="5.70256">
        <ele>771</ele>
        <time>2017-04-23T11:22:09Z</time>
      </trkpt>
      <trkpt lat="45.63429" lon="5.70253">
        <ele>771</ele>
        <time>2017-04-23T11:22:09Z</time>
      </trkpt>
      <trkpt lat="45.63435" lon="5.70248">
        <ele>771</ele>
        <time>2017-04-23T11:22:09Z</time>
      </trkpt>
      <trkpt lat="45.63443" lon="5.70246">
        <ele>771</ele>
        <time>2017-04-23T11:22:09Z</time>
      </trkpt>
      <trkpt lat="45.6345" lon="5.70243">
        <ele>771</ele>
        <time>2017-04-23T11:22:25Z</time>
      </trkpt>
      <trkpt lat="45.63457" lon="5.70244">
        <ele>771</ele>
        <time>2017-04-23T11:22:25Z</time>
      </trkpt>
      <trkpt lat="45.63464" lon="5.70248">
        <ele>780</ele>
        <time>2017-04-23T11:22:25Z</time>
      </trkpt>
      <trkpt lat="45.63471" lon="5.7025">
        <ele>780</ele>
        <time>2017-04-23T11:22:25Z</time>
      </trkpt>
      <trkpt lat="45.63476" lon="5.70252">
        <ele>780</ele>
        <time>2017-04-23T11:22:41Z</time>
      </trkpt>
      <trkpt lat="45.63481" lon="5.70257">
        <ele>780</ele>
        <time>2017-04-23T11:22:41Z</time>
      </trkpt>
      <trkpt lat="45.63485" lon="5.70266">
        <ele>780</ele>
        <time>2017-04-23T11:22:41Z</time>
      </trkpt>
      <trkpt lat="45.63489" lon="5.70274">
        <ele>780</ele>
        <time>2017-04-23T11:22:41Z</time>
      </trkpt>
      <trkpt lat="45.63493" lon="5.70281">
        <ele>780</ele>
        <time>2017-04-23T11:22:57Z</time>
      </trkpt>
      <trkpt lat="45.63496" lon="5.70288">
        <ele>780</ele>
        <time>2017-04-23T11:22:57Z</time>
      </trkpt>
      <trkpt lat="45.635" lon="5.70292">
        <ele>780</ele>
        <time>2017-04-23T11:22:57Z</time>
      </trkpt>
      <trkpt lat="45.63505" lon="5.70297">
        <ele>780</ele>
        <time>2017-04-23T11:22:57Z</time>
      </trkpt>
      <trkpt lat="45.6351" lon="5.703">
        <ele>780</ele>
        <time>2017-04-23T11:23:13Z</time>
      </trkpt>
      <trkpt lat="45.63515" lon="5.703">
        <ele>780</ele>
        <time>2017-04-23T11:23:13Z</time>
      </trkpt>
      <trkpt lat="45.63516" lon="5.703">
        <ele>780</ele>
        <time>2017-04-23T11:23:13Z</time>
      </trkpt>
      <trkpt lat="45.6352" lon="5.70301">
        <ele>780</ele>
        <time>2017-04-23T11:23:13Z</time>
      </trkpt>
      <trkpt lat="45.63526" lon="5.70299">
        <ele>780</ele>
        <time>2017-04-23T11:23:33Z</time>
      </trkpt>
      <trkpt lat="45.63528" lon="5.70297">
        <ele>780</ele>
        <time>2017-04-23T11:23:33Z</time>
      </trkpt>
      <trkpt lat="45.63528" lon="5.70294">
        <ele>780</ele>
        <time>2017-04-23T11:23:33Z</time>
      </trkpt>
      <trkpt lat="45.63527" lon="5.7029">
        <ele>780</ele>
        <time>2017-04-23T11:23:33Z</time>
      </trkpt>
      <trkpt lat="45.63524" lon="5.70286">
        <ele>780</ele>
        <time>2017-04-23T11:23:33Z</time>
      </trkpt>
      <trkpt lat="45.63524" lon="5.70281">
        <ele>780</ele>
        <time>2017-04-23T11:23:53Z</time>
      </trkpt>
      <trkpt lat="45.63522" lon="5.70281">
        <ele>780</ele>
        <time>2017-04-23T11:23:53Z</time>
      </trkpt>
      <trkpt lat="45.6352" lon="5.70277">
        <ele>780</ele>
        <time>2017-04-23T11:23:53Z</time>
      </trkpt>
      <trkpt lat="45.63518" lon="5.70272">
        <ele>780</ele>
        <time>2017-04-23T11:23:53Z</time>
      </trkpt>
      <trkpt lat="45.63515" lon="5.70266">
        <ele>780</ele>
        <time>2017-04-23T11:23:53Z</time>
      </trkpt>
      <trkpt lat="45.63511" lon="5.70257">
        <ele>780</ele>
        <time>2017-04-23T11:24:09Z</time>
      </trkpt>
      <trkpt lat="45.63511" lon="5.70248">
        <ele>780</ele>
        <time>2017-04-23T11:24:09Z</time>
      </trkpt>
      <trkpt lat="45.63509" lon="5.7024">
        <ele>780</ele>
        <time>2017-04-23T11:24:09Z</time>
      </trkpt>
      <trkpt lat="45.63506" lon="5.70233">
        <ele>780</ele>
        <time>2017-04-23T11:24:09Z</time>
      </trkpt>
      <trkpt lat="45.63502" lon="5.70229">
        <ele>780</ele>
        <time>2017-04-23T11:24:25Z</time>
      </trkpt>
      <trkpt lat="45.63504" lon="5.7022">
        <ele>780</ele>
        <time>2017-04-23T11:24:25Z</time>
      </trkpt>
      <trkpt lat="45.63505" lon="5.70215">
        <ele>780</ele>
        <time>2017-04-23T11:24:25Z</time>
      </trkpt>
      <trkpt lat="45.63507" lon="5.7021">
        <ele>780</ele>
        <time>2017-04-23T11:24:25Z</time>
      </trkpt>
      <trkpt lat="45.63508" lon="5.70205">
        <ele>772</ele>
        <time>2017-04-23T11:24:41Z</time>
      </trkpt>
      <trkpt lat="45.63507" lon="5.70199">
        <ele>772</ele>
        <time>2017-04-23T11:24:41Z</time>
      </trkpt>
      <trkpt lat="45.63507" lon="5.70193">
        <ele>772</ele>
        <time>2017-04-23T11:24:41Z</time>
      </trkpt>
      <trkpt lat="45.63507" lon="5.70187">
        <ele>772</ele>
        <time>2017-04-23T11:24:41Z</time>
      </trkpt>
      <trkpt lat="45.63508" lon="5.7018">
        <ele>772</ele>
        <time>2017-04-23T11:24:57Z</time>
      </trkpt>
      <trkpt lat="45.6351" lon="5.70165">
        <ele>772</ele>
        <time>2017-04-23T11:24:57Z</time>
      </trkpt>
      <trkpt lat="45.63511" lon="5.70154">
        <ele>772</ele>
        <time>2017-04-23T11:24:57Z</time>
      </trkpt>
      <trkpt lat="45.63509" lon="5.70145">
        <ele>772</ele>
        <time>2017-04-23T11:24:57Z</time>
      </trkpt>
      <trkpt lat="45.63507" lon="5.70138">
        <ele>772</ele>
        <time>2017-04-23T11:25:13Z</time>
      </trkpt>
      <trkpt lat="45.63505" lon="5.70133">
        <ele>772</ele>
        <time>2017-04-23T11:25:13Z</time>
      </trkpt>
      <trkpt lat="45.63504" lon="5.70126">
        <ele>772</ele>
        <time>2017-04-23T11:25:13Z</time>
      </trkpt>
      <trkpt lat="45.63507" lon="5.70119">
        <ele>755</ele>
        <time>2017-04-23T11:25:13Z</time>
      </trkpt>
      <trkpt lat="45.63508" lon="5.70114">
        <ele>755</ele>
        <time>2017-04-23T11:25:29Z</time>
      </trkpt>
      <trkpt lat="45.63509" lon="5.70107">
        <ele>755</ele>
        <time>2017-04-23T11:25:29Z</time>
      </trkpt>
      <trkpt lat="45.63511" lon="5.70101">
        <ele>755</ele>
        <time>2017-04-23T11:25:29Z</time>
      </trkpt>
      <trkpt lat="45.63512" lon="5.70096">
        <ele>755</ele>
        <time>2017-04-23T11:25:29Z</time>
      </trkpt>
      <trkpt lat="45.63512" lon="5.7009">
        <ele>755</ele>
        <time>2017-04-23T11:25:49Z</time>
      </trkpt>
      <trkpt lat="45.63511" lon="5.7009">
        <ele>755</ele>
        <time>2017-04-23T11:25:49Z</time>
      </trkpt>
      <trkpt lat="45.63509" lon="5.70089">
        <ele>755</ele>
        <time>2017-04-23T11:25:49Z</time>
      </trkpt>
      <trkpt lat="45.63505" lon="5.70084">
        <ele>755</ele>
        <time>2017-04-23T11:25:49Z</time>
      </trkpt>
      <trkpt lat="45.63502" lon="5.70081">
        <ele>755</ele>
        <time>2017-04-23T11:25:49Z</time>
      </trkpt>
      <trkpt lat="45.63499" lon="5.70077">
        <ele>755</ele>
        <time>2017-04-23T11:26:05Z</time>
      </trkpt>
      <trkpt lat="45.63498" lon="5.70071">
        <ele>755</ele>
        <time>2017-04-23T11:26:05Z</time>
      </trkpt>
      <trkpt lat="45.63494" lon="5.70065">
        <ele>755</ele>
        <time>2017-04-23T11:26:05Z</time>
      </trkpt>
      <trkpt lat="45.63489" lon="5.70061">
        <ele>755</ele>
        <time>2017-04-23T11:26:05Z</time>
      </trkpt>
      <trkpt lat="45.63485" lon="5.70055">
        <ele>755</ele>
        <time>2017-04-23T11:26:21Z</time>
      </trkpt>
      <trkpt lat="45.63481" lon="5.7005">
        <ele>755</ele>
        <time>2017-04-23T11:26:21Z</time>
      </trkpt>
      <trkpt lat="45.63479" lon="5.70043">
        <ele>755</ele>
        <time>2017-04-23T11:26:21Z</time>
      </trkpt>
      <trkpt lat="45.63476" lon="5.70038">
        <ele>741</ele>
        <time>2017-04-23T11:26:21Z</time>
      </trkpt>
      <trkpt lat="45.63471" lon="5.70033">
        <ele>741</ele>
        <time>2017-04-23T11:26:37Z</time>
      </trkpt>
      <trkpt lat="45.63467" lon="5.70024">
        <ele>741</ele>
        <time>2017-04-23T11:26:37Z</time>
      </trkpt>
      <trkpt lat="45.63467" lon="5.70014">
        <ele>741</ele>
        <time>2017-04-23T11:26:37Z</time>
      </trkpt>
      <trkpt lat="45.63467" lon="5.70005">
        <ele>741</ele>
        <time>2017-04-23T11:26:37Z</time>
      </trkpt>
      <trkpt lat="45.63468" lon="5.69996">
        <ele>741</ele>
        <time>2017-04-23T11:26:53Z</time>
      </trkpt>
      <trkpt lat="45.6347" lon="5.69987">
        <ele>741</ele>
        <time>2017-04-23T11:26:53Z</time>
      </trkpt>
      <trkpt lat="45.63474" lon="5.69979">
        <ele>741</ele>
        <time>2017-04-23T11:26:53Z</time>
      </trkpt>
      <trkpt lat="45.63477" lon="5.69969">
        <ele>741</ele>
        <time>2017-04-23T11:26:53Z</time>
      </trkpt>
      <trkpt lat="45.6348" lon="5.69962">
        <ele>741</ele>
        <time>2017-04-23T11:27:09Z</time>
      </trkpt>
      <trkpt lat="45.63483" lon="5.69955">
        <ele>740</ele>
        <time>2017-04-23T11:27:09Z</time>
      </trkpt>
      <trkpt lat="45.63484" lon="5.69949">
        <ele>740</ele>
        <time>2017-04-23T11:27:09Z</time>
      </trkpt>
      <trkpt lat="45.63486" lon="5.69945">
        <ele>740</ele>
        <time>2017-04-23T11:27:09Z</time>
      </trkpt>
      <trkpt lat="45.63489" lon="5.69939">
        <ele>740</ele>
        <time>2017-04-23T11:27:25Z</time>
      </trkpt>
      <trkpt lat="45.63492" lon="5.69932">
        <ele>740</ele>
        <time>2017-04-23T11:27:25Z</time>
      </trkpt>
      <trkpt lat="45.63493" lon="5.69925">
        <ele>740</ele>
        <time>2017-04-23T11:27:25Z</time>
      </trkpt>
      <trkpt lat="45.63494" lon="5.69914">
        <ele>740</ele>
        <time>2017-04-23T11:27:25Z</time>
      </trkpt>
      <trkpt lat="45.63497" lon="5.69901">
        <ele>740</ele>
        <time>2017-04-23T11:27:41Z</time>
      </trkpt>
      <trkpt lat="45.635" lon="5.69889">
        <ele>740</ele>
        <time>2017-04-23T11:27:41Z</time>
      </trkpt>
      <trkpt lat="45.63503" lon="5.69879">
        <ele>740</ele>
        <time>2017-04-23T11:27:41Z</time>
      </trkpt>
      <trkpt lat="45.63508" lon="5.69872">
        <ele>740</ele>
        <time>2017-04-23T11:27:41Z</time>
      </trkpt>
      <trkpt lat="45.63513" lon="5.69866">
        <ele>740</ele>
        <time>2017-04-23T11:27:57Z</time>
      </trkpt>
      <trkpt lat="45.63517" lon="5.69859">
        <ele>740</ele>
        <time>2017-04-23T11:27:57Z</time>
      </trkpt>
      <trkpt lat="45.63521" lon="5.69855">
        <ele>740</ele>
        <time>2017-04-23T11:27:57Z</time>
      </trkpt>
      <trkpt lat="45.63523" lon="5.69848">
        <ele>740</ele>
        <time>2017-04-23T11:27:57Z</time>
      </trkpt>
      <trkpt lat="45.63524" lon="5.6984">
        <ele>740</ele>
        <time>2017-04-23T11:28:13Z</time>
      </trkpt>
      <trkpt lat="45.63522" lon="5.69835">
        <ele>740</ele>
        <time>2017-04-23T11:28:13Z</time>
      </trkpt>
      <trkpt lat="45.63518" lon="5.69832">
        <ele>740</ele>
        <time>2017-04-23T11:28:13Z</time>
      </trkpt>
      <trkpt lat="45.63512" lon="5.69833">
        <ele>740</ele>
        <time>2017-04-23T11:28:13Z</time>
      </trkpt>
      <trkpt lat="45.63507" lon="5.69829">
        <ele>740</ele>
        <time>2017-04-23T11:28:29Z</time>
      </trkpt>
      <trkpt lat="45.635" lon="5.69826">
        <ele>740</ele>
        <time>2017-04-23T11:28:29Z</time>
      </trkpt>
      <trkpt lat="45.63495" lon="5.69816">
        <ele>740</ele>
        <time>2017-04-23T11:28:29Z</time>
      </trkpt>
      <trkpt lat="45.63493" lon="5.69802">
        <ele>740</ele>
        <time>2017-04-23T11:28:29Z</time>
      </trkpt>
      <trkpt lat="45.63491" lon="5.69791">
        <ele>741</ele>
        <time>2017-04-23T11:28:45Z</time>
      </trkpt>
      <trkpt lat="45.63491" lon="5.69779">
        <ele>741</ele>
        <time>2017-04-23T11:28:45Z</time>
      </trkpt>
      <trkpt lat="45.63492" lon="5.69769">
        <ele>741</ele>
        <time>2017-04-23T11:28:45Z</time>
      </trkpt>
      <trkpt lat="45.63494" lon="5.69759">
        <ele>741</ele>
        <time>2017-04-23T11:28:45Z</time>
      </trkpt>
      <trkpt lat="45.63494" lon="5.69752">
        <ele>741</ele>
        <time>2017-04-23T11:29:01Z</time>
      </trkpt>
      <trkpt lat="45.63491" lon="5.69745">
        <ele>741</ele>
        <time>2017-04-23T11:29:01Z</time>
      </trkpt>
      <trkpt lat="45.63486" lon="5.6974">
        <ele>741</ele>
        <time>2017-04-23T11:29:01Z</time>
      </trkpt>
      <trkpt lat="45.6348" lon="5.69736">
        <ele>741</ele>
        <time>2017-04-23T11:29:01Z</time>
      </trkpt>
      <trkpt lat="45.63474" lon="5.69736">
        <ele>741</ele>
        <time>2017-04-23T11:29:17Z</time>
      </trkpt>
      <trkpt lat="45.63467" lon="5.69734">
        <ele>741</ele>
        <time>2017-04-23T11:29:17Z</time>
      </trkpt>
      <trkpt lat="45.63461" lon="5.69731">
        <ele>741</ele>
        <time>2017-04-23T11:29:17Z</time>
      </trkpt>
      <trkpt lat="45.63456" lon="5.69728">
        <ele>740</ele>
        <time>2017-04-23T11:29:17Z</time>
      </trkpt>
      <trkpt lat="45.6345" lon="5.69726">
        <ele>740</ele>
        <time>2017-04-23T11:29:33Z</time>
      </trkpt>
      <trkpt lat="45.63444" lon="5.69723">
        <ele>740</ele>
        <time>2017-04-23T11:29:33Z</time>
      </trkpt>
      <trkpt lat="45.63439" lon="5.69718">
        <ele>740</ele>
        <time>2017-04-23T11:29:33Z</time>
      </trkpt>
      <trkpt lat="45.63434" lon="5.69714">
        <ele>740</ele>
        <time>2017-04-23T11:29:33Z</time>
      </trkpt>
      <trkpt lat="45.63428" lon="5.69711">
        <ele>740</ele>
        <time>2017-04-23T11:29:49Z</time>
      </trkpt>
      <trkpt lat="45.63423" lon="5.69708">
        <ele>748</ele>
        <time>2017-04-23T11:29:49Z</time>
      </trkpt>
      <trkpt lat="45.63419" lon="5.69703">
        <ele>748</ele>
        <time>2017-04-23T11:29:49Z</time>
      </trkpt>
      <trkpt lat="45.63416" lon="5.69697">
        <ele>748</ele>
        <time>2017-04-23T11:29:49Z</time>
      </trkpt>
      <trkpt lat="45.63411" lon="5.69692">
        <ele>748</ele>
        <time>2017-04-23T11:30:05Z</time>
      </trkpt>
      <trkpt lat="45.63406" lon="5.69687">
        <ele>748</ele>
        <time>2017-04-23T11:30:05Z</time>
      </trkpt>
      <trkpt lat="45.63401" lon="5.69683">
        <ele>748</ele>
        <time>2017-04-23T11:30:05Z</time>
      </trkpt>
      <trkpt lat="45.63396" lon="5.6968">
        <ele>748</ele>
        <time>2017-04-23T11:30:05Z</time>
      </trkpt>
      <trkpt lat="45.63391" lon="5.69676">
        <ele>748</ele>
        <time>2017-04-23T11:30:21Z</time>
      </trkpt>
      <trkpt lat="45.63385" lon="5.69673">
        <ele>748</ele>
        <time>2017-04-23T11:30:21Z</time>
      </trkpt>
      <trkpt lat="45.6338" lon="5.69669">
        <ele>748</ele>
        <time>2017-04-23T11:30:21Z</time>
      </trkpt>
      <trkpt lat="45.63374" lon="5.69666">
        <ele>735</ele>
        <time>2017-04-23T11:30:21Z</time>
      </trkpt>
      <trkpt lat="45.63368" lon="5.69663">
        <ele>735</ele>
        <time>2017-04-23T11:30:37Z</time>
      </trkpt>
      <trkpt lat="45.63363" lon="5.6966">
        <ele>735</ele>
        <time>2017-04-23T11:30:37Z</time>
      </trkpt>
      <trkpt lat="45.63357" lon="5.69658">
        <ele>735</ele>
        <time>2017-04-23T11:30:37Z</time>
      </trkpt>
      <trkpt lat="45.63351" lon="5.69654">
        <ele>735</ele>
        <time>2017-04-23T11:30:37Z</time>
      </trkpt>
      <trkpt lat="45.63346" lon="5.6965">
        <ele>735</ele>
        <time>2017-04-23T11:30:53Z</time>
      </trkpt>
      <trkpt lat="45.63343" lon="5.69643">
        <ele>735</ele>
        <time>2017-04-23T11:30:53Z</time>
      </trkpt>
      <trkpt lat="45.63338" lon="5.69637">
        <ele>735</ele>
        <time>2017-04-23T11:30:53Z</time>
      </trkpt>
      <trkpt lat="45.63334" lon="5.69631">
        <ele>735</ele>
        <time>2017-04-23T11:30:53Z</time>
      </trkpt>
      <trkpt lat="45.63328" lon="5.69626">
        <ele>735</ele>
        <time>2017-04-23T11:31:09Z</time>
      </trkpt>
      <trkpt lat="45.63322" lon="5.69622">
        <ele>735</ele>
        <time>2017-04-23T11:31:09Z</time>
      </trkpt>
      <trkpt lat="45.63317" lon="5.69618">
        <ele>735</ele>
        <time>2017-04-23T11:31:09Z</time>
      </trkpt>
      <trkpt lat="45.63314" lon="5.69611">
        <ele>735</ele>
        <time>2017-04-23T11:31:09Z</time>
      </trkpt>
      <trkpt lat="45.63314" lon="5.69601">
        <ele>735</ele>
        <time>2017-04-23T11:31:25Z</time>
      </trkpt>
      <trkpt lat="45.63316" lon="5.69591">
        <ele>735</ele>
        <time>2017-04-23T11:31:25Z</time>
      </trkpt>
      <trkpt lat="45.63317" lon="5.69582">
        <ele>735</ele>
        <time>2017-04-23T11:31:25Z</time>
      </trkpt>
      <trkpt lat="45.63317" lon="5.69573">
        <ele>735</ele>
        <time>2017-04-23T11:31:25Z</time>
      </trkpt>
      <trkpt lat="45.63316" lon="5.69565">
        <ele>735</ele>
        <time>2017-04-23T11:31:41Z</time>
      </trkpt>
      <trkpt lat="45.63313" lon="5.69557">
        <ele>735</ele>
        <time>2017-04-23T11:31:41Z</time>
      </trkpt>
      <trkpt lat="45.63311" lon="5.6955">
        <ele>735</ele>
        <time>2017-04-23T11:31:41Z</time>
      </trkpt>
      <trkpt lat="45.63309" lon="5.69542">
        <ele>735</ele>
        <time>2017-04-23T11:31:41Z</time>
      </trkpt>
      <trkpt lat="45.63309" lon="5.69535">
        <ele>736</ele>
        <time>2017-04-23T11:31:57Z</time>
      </trkpt>
      <trkpt lat="45.63311" lon="5.69528">
        <ele>736</ele>
        <time>2017-04-23T11:31:57Z</time>
      </trkpt>
      <trkpt lat="45.63314" lon="5.6952">
        <ele>736</ele>
        <time>2017-04-23T11:31:57Z</time>
      </trkpt>
      <trkpt lat="45.6332" lon="5.69511">
        <ele>736</ele>
        <time>2017-04-23T11:31:57Z</time>
      </trkpt>
      <trkpt lat="45.6333" lon="5.69502">
        <ele>736</ele>
        <time>2017-04-23T11:32:13Z</time>
      </trkpt>
      <trkpt lat="45.6334" lon="5.69494">
        <ele>736</ele>
        <time>2017-04-23T11:32:13Z</time>
      </trkpt>
      <trkpt lat="45.63349" lon="5.69487">
        <ele>736</ele>
        <time>2017-04-23T11:32:13Z</time>
      </trkpt>
      <trkpt lat="45.63355" lon="5.6948">
        <ele>736</ele>
        <time>2017-04-23T11:32:13Z</time>
      </trkpt>
      <trkpt lat="45.63361" lon="5.69474">
        <ele>736</ele>
        <time>2017-04-23T11:32:29Z</time>
      </trkpt>
      <trkpt lat="45.63368" lon="5.69468">
        <ele>736</ele>
        <time>2017-04-23T11:32:29Z</time>
      </trkpt>
      <trkpt lat="45.63372" lon="5.69464">
        <ele>736</ele>
        <time>2017-04-23T11:32:29Z</time>
      </trkpt>
      <trkpt lat="45.63377" lon="5.69461">
        <ele>747</ele>
        <time>2017-04-23T11:32:29Z</time>
      </trkpt>
      <trkpt lat="45.63381" lon="5.69455">
        <ele>741</ele>
        <time>2017-04-23T11:32:45Z</time>
      </trkpt>
      <trkpt lat="45.63384" lon="5.69448">
        <ele>741</ele>
        <time>2017-04-23T11:32:45Z</time>
      </trkpt>
      <trkpt lat="45.63384" lon="5.69441">
        <ele>741</ele>
        <time>2017-04-23T11:32:45Z</time>
      </trkpt>
      <trkpt lat="45.63382" lon="5.69435">
        <ele>741</ele>
        <time>2017-04-23T11:32:45Z</time>
      </trkpt>
      <trkpt lat="45.6338" lon="5.69429">
        <ele>741</ele>
        <time>2017-04-23T11:33:01Z</time>
      </trkpt>
      <trkpt lat="45.63379" lon="5.69424">
        <ele>741</ele>
        <time>2017-04-23T11:33:01Z</time>
      </trkpt>
      <trkpt lat="45.63377" lon="5.69418">
        <ele>741</ele>
        <time>2017-04-23T11:33:01Z</time>
      </trkpt>
      <trkpt lat="45.63373" lon="5.69413">
        <ele>737</ele>
        <time>2017-04-23T11:33:01Z</time>
      </trkpt>
      <trkpt lat="45.6337" lon="5.69407">
        <ele>737</ele>
        <time>2017-04-23T11:33:17Z</time>
      </trkpt>
      <trkpt lat="45.63368" lon="5.69401">
        <ele>737</ele>
        <time>2017-04-23T11:33:17Z</time>
      </trkpt>
      <trkpt lat="45.63365" lon="5.69396">
        <ele>737</ele>
        <time>2017-04-23T11:33:17Z</time>
      </trkpt>
      <trkpt lat="45.63363" lon="5.69389">
        <ele>737</ele>
        <time>2017-04-23T11:33:17Z</time>
      </trkpt>
      <trkpt lat="45.63362" lon="5.69377">
        <ele>737</ele>
        <time>2017-04-23T11:33:33Z</time>
      </trkpt>
      <trkpt lat="45.63361" lon="5.69366">
        <ele>737</ele>
        <time>2017-04-23T11:33:33Z</time>
      </trkpt>
      <trkpt lat="45.6336" lon="5.69356">
        <ele>737</ele>
        <time>2017-04-23T11:33:33Z</time>
      </trkpt>
      <trkpt lat="45.63356" lon="5.69342">
        <ele>737</ele>
        <time>2017-04-23T11:33:33Z</time>
      </trkpt>
      <trkpt lat="45.63357" lon="5.69333">
        <ele>737</ele>
        <time>2017-04-23T11:33:49Z</time>
      </trkpt>
      <trkpt lat="45.63355" lon="5.69327">
        <ele>737</ele>
        <time>2017-04-23T11:33:49Z</time>
      </trkpt>
      <trkpt lat="45.63351" lon="5.69322">
        <ele>737</ele>
        <time>2017-04-23T11:33:49Z</time>
      </trkpt>
      <trkpt lat="45.63347" lon="5.69319">
        <ele>737</ele>
        <time>2017-04-23T11:33:49Z</time>
      </trkpt>
      <trkpt lat="45.63346" lon="5.69314">
        <ele>737</ele>
        <time>2017-04-23T11:34:05Z</time>
      </trkpt>
      <trkpt lat="45.63345" lon="5.69307">
        <ele>737</ele>
        <time>2017-04-23T11:34:05Z</time>
      </trkpt>
      <trkpt lat="45.63339" lon="5.69304">
        <ele>737</ele>
        <time>2017-04-23T11:34:05Z</time>
      </trkpt>
      <trkpt lat="45.63334" lon="5.69302">
        <ele>737</ele>
        <time>2017-04-23T11:34:05Z</time>
      </trkpt>
      <trkpt lat="45.63329" lon="5.69299">
        <ele>737</ele>
        <time>2017-04-23T11:34:21Z</time>
      </trkpt>
      <trkpt lat="45.63322" lon="5.69296">
        <ele>737</ele>
        <time>2017-04-23T11:34:21Z</time>
      </trkpt>
      <trkpt lat="45.63315" lon="5.69298">
        <ele>737</ele>
        <time>2017-04-23T11:34:21Z</time>
      </trkpt>
      <trkpt lat="45.63309" lon="5.69304">
        <ele>737</ele>
        <time>2017-04-23T11:34:21Z</time>
      </trkpt>
      <trkpt lat="45.63302" lon="5.69309">
        <ele>737</ele>
        <time>2017-04-23T11:34:37Z</time>
      </trkpt>
      <trkpt lat="45.63296" lon="5.69311">
        <ele>737</ele>
        <time>2017-04-23T11:34:37Z</time>
      </trkpt>
      <trkpt lat="45.63293" lon="5.69311">
        <ele>737</ele>
        <time>2017-04-23T11:34:37Z</time>
      </trkpt>
      <trkpt lat="45.63288" lon="5.69314">
        <ele>731</ele>
        <time>2017-04-23T11:34:37Z</time>
      </trkpt>
      <trkpt lat="45.63284" lon="5.69315">
        <ele>731</ele>
        <time>2017-04-23T11:34:53Z</time>
      </trkpt>
      <trkpt lat="45.63278" lon="5.69317">
        <ele>731</ele>
        <time>2017-04-23T11:34:53Z</time>
      </trkpt>
      <trkpt lat="45.63273" lon="5.69318">
        <ele>731</ele>
        <time>2017-04-23T11:34:53Z</time>
      </trkpt>
      <trkpt lat="45.63269" lon="5.6932">
        <ele>731</ele>
        <time>2017-04-23T11:34:53Z</time>
      </trkpt>
      <trkpt lat="45.63264" lon="5.69321">
        <ele>731</ele>
        <time>2017-04-23T11:35:09Z</time>
      </trkpt>
      <trkpt lat="45.6326" lon="5.69321">
        <ele>731</ele>
        <time>2017-04-23T11:35:09Z</time>
      </trkpt>
      <trkpt lat="45.63255" lon="5.69323">
        <ele>731</ele>
        <time>2017-04-23T11:35:09Z</time>
      </trkpt>
      <trkpt lat="45.6325" lon="5.69325">
        <ele>731</ele>
        <time>2017-04-23T11:35:09Z</time>
      </trkpt>
      <trkpt lat="45.63246" lon="5.69329">
        <ele>731</ele>
        <time>2017-04-23T11:35:25Z</time>
      </trkpt>
      <trkpt lat="45.63241" lon="5.69334">
        <ele>731</ele>
        <time>2017-04-23T11:35:25Z</time>
      </trkpt>
      <trkpt lat="45.63238" lon="5.69341">
        <ele>731</ele>
        <time>2017-04-23T11:35:25Z</time>
      </trkpt>
      <trkpt lat="45.63236" lon="5.69345">
        <ele>731</ele>
        <time>2017-04-23T11:35:25Z</time>
      </trkpt>
      <trkpt lat="45.63236" lon="5.69345">
        <ele>731</ele>
        <time>2017-04-23T11:35:41Z</time>
      </trkpt>
      <trkpt lat="45.63235" lon="5.6935">
        <ele>731</ele>
        <time>2017-04-23T11:35:41Z</time>
      </trkpt>
      <trkpt lat="45.63233" lon="5.69354">
        <ele>731</ele>
        <time>2017-04-23T11:35:41Z</time>
      </trkpt>
      <trkpt lat="45.6323" lon="5.6936">
        <ele>731</ele>
        <time>2017-04-23T11:35:41Z</time>
      </trkpt>
      <trkpt lat="45.63226" lon="5.69365">
        <ele>731</ele>
        <time>2017-04-23T11:35:57Z</time>
      </trkpt>
      <trkpt lat="45.63223" lon="5.69368">
        <ele>731</ele>
        <time>2017-04-23T11:35:57Z</time>
      </trkpt>
      <trkpt lat="45.63219" lon="5.69371">
        <ele>731</ele>
        <time>2017-04-23T11:35:57Z</time>
      </trkpt>
      <trkpt lat="45.63215" lon="5.69373">
        <ele>731</ele>
        <time>2017-04-23T11:35:57Z</time>
      </trkpt>
      <trkpt lat="45.63211" lon="5.69376">
        <ele>731</ele>
        <time>2017-04-23T11:36:13Z</time>
      </trkpt>
      <trkpt lat="45.63207" lon="5.69378">
        <ele>727</ele>
        <time>2017-04-23T11:36:13Z</time>
      </trkpt>
      <trkpt lat="45.63202" lon="5.69379">
        <ele>727</ele>
        <time>2017-04-23T11:36:13Z</time>
      </trkpt>
      <trkpt lat="45.63197" lon="5.69379">
        <ele>727</ele>
        <time>2017-04-23T11:36:13Z</time>
      </trkpt>
      <trkpt lat="45.63192" lon="5.69378">
        <ele>727</ele>
        <time>2017-04-23T11:36:29Z</time>
      </trkpt>
      <trkpt lat="45.63187" lon="5.69376">
        <ele>727</ele>
        <time>2017-04-23T11:36:29Z</time>
      </trkpt>
      <trkpt lat="45.63182" lon="5.69375">
        <ele>727</ele>
        <time>2017-04-23T11:36:29Z</time>
      </trkpt>
      <trkpt lat="45.63177" lon="5.69375">
        <ele>727</ele>
        <time>2017-04-23T11:36:29Z</time>
      </trkpt>
      <trkpt lat="45.63171" lon="5.69374">
        <ele>727</ele>
        <time>2017-04-23T11:36:45Z</time>
      </trkpt>
      <trkpt lat="45.63165" lon="5.69373">
        <ele>727</ele>
        <time>2017-04-23T11:36:45Z</time>
      </trkpt>
      <trkpt lat="45.63159" lon="5.69372">
        <ele>727</ele>
        <time>2017-04-23T11:36:45Z</time>
      </trkpt>
      <trkpt lat="45.63156" lon="5.69372">
        <ele>727</ele>
        <time>2017-04-23T11:36:45Z</time>
      </trkpt>
      <trkpt lat="45.6315" lon="5.69371">
        <ele>727</ele>
        <time>2017-04-23T11:37:01Z</time>
      </trkpt>
      <trkpt lat="45.63143" lon="5.69372">
        <ele>727</ele>
        <time>2017-04-23T11:37:01Z</time>
      </trkpt>
      <trkpt lat="45.63137" lon="5.69371">
        <ele>727</ele>
        <time>2017-04-23T11:37:01Z</time>
      </trkpt>
      <trkpt lat="45.6313" lon="5.6937">
        <ele>727</ele>
        <time>2017-04-23T11:37:01Z</time>
      </trkpt>
      <trkpt lat="45.63124" lon="5.69369">
        <ele>723</ele>
        <time>2017-04-23T11:37:17Z</time>
      </trkpt>
      <trkpt lat="45.63118" lon="5.69367">
        <ele>723</ele>
        <time>2017-04-23T11:37:17Z</time>
      </trkpt>
      <trkpt lat="45.63112" lon="5.69364">
        <ele>723</ele>
        <time>2017-04-23T11:37:17Z</time>
      </trkpt>
      <trkpt lat="45.63108" lon="5.69361">
        <ele>723</ele>
        <time>2017-04-23T11:37:17Z</time>
      </trkpt>
      <trkpt lat="45.63103" lon="5.69357">
        <ele>723</ele>
        <time>2017-04-23T11:37:33Z</time>
      </trkpt>
      <trkpt lat="45.63097" lon="5.69353">
        <ele>723</ele>
        <time>2017-04-23T11:37:33Z</time>
      </trkpt>
      <trkpt lat="45.63091" lon="5.69349">
        <ele>723</ele>
        <time>2017-04-23T11:37:33Z</time>
      </trkpt>
      <trkpt lat="45.63086" lon="5.69345">
        <ele>723</ele>
        <time>2017-04-23T11:37:33Z</time>
      </trkpt>
      <trkpt lat="45.6308" lon="5.69343">
        <ele>723</ele>
        <time>2017-04-23T11:37:49Z</time>
      </trkpt>
      <trkpt lat="45.63074" lon="5.69345">
        <ele>723</ele>
        <time>2017-04-23T11:37:49Z</time>
      </trkpt>
      <trkpt lat="45.63069" lon="5.69345">
        <ele>723</ele>
        <time>2017-04-23T11:37:49Z</time>
      </trkpt>
      <trkpt lat="45.63065" lon="5.69339">
        <ele>723</ele>
        <time>2017-04-23T11:37:49Z</time>
      </trkpt>
      <trkpt lat="45.63063" lon="5.69329">
        <ele>723</ele>
        <time>2017-04-23T11:38:05Z</time>
      </trkpt>
      <trkpt lat="45.63058" lon="5.69317">
        <ele>723</ele>
        <time>2017-04-23T11:38:05Z</time>
      </trkpt>
      <trkpt lat="45.63055" lon="5.69307">
        <ele>723</ele>
        <time>2017-04-23T11:38:05Z</time>
      </trkpt>
      <trkpt lat="45.6305" lon="5.69299">
        <ele>723</ele>
        <time>2017-04-23T11:38:05Z</time>
      </trkpt>
      <trkpt lat="45.63047" lon="5.69291">
        <ele>721</ele>
        <time>2017-04-23T11:38:21Z</time>
      </trkpt>
      <trkpt lat="45.63042" lon="5.69283">
        <ele>721</ele>
        <time>2017-04-23T11:38:21Z</time>
      </trkpt>
      <trkpt lat="45.63033" lon="5.69276">
        <ele>719</ele>
        <time>2017-04-23T11:38:21Z</time>
      </trkpt>
      <trkpt lat="45.63026" lon="5.6927">
        <ele>719</ele>
        <time>2017-04-23T11:38:21Z</time>
      </trkpt>
      <trkpt lat="45.63022" lon="5.69266">
        <ele>719</ele>
        <time>2017-04-23T11:38:37Z</time>
      </trkpt>
      <trkpt lat="45.63018" lon="5.69263">
        <ele>719</ele>
        <time>2017-04-23T11:38:37Z</time>
      </trkpt>
      <trkpt lat="45.63013" lon="5.69259">
        <ele>719</ele>
        <time>2017-04-23T11:38:37Z</time>
      </trkpt>
      <trkpt lat="45.63008" lon="5.69254">
        <ele>719</ele>
        <time>2017-04-23T11:38:37Z</time>
      </trkpt>
      <trkpt lat="45.63004" lon="5.69249">
        <ele>719</ele>
        <time>2017-04-23T11:38:53Z</time>
      </trkpt>
      <trkpt lat="45.63" lon="5.69244">
        <ele>719</ele>
        <time>2017-04-23T11:38:53Z</time>
      </trkpt>
      <trkpt lat="45.62996" lon="5.6924">
        <ele>719</ele>
        <time>2017-04-23T11:38:53Z</time>
      </trkpt>
      <trkpt lat="45.62992" lon="5.69236">
        <ele>719</ele>
        <time>2017-04-23T11:38:53Z</time>
      </trkpt>
      <trkpt lat="45.62988" lon="5.69231">
        <ele>719</ele>
        <time>2017-04-23T11:39:09Z</time>
      </trkpt>
      <trkpt lat="45.62983" lon="5.69227">
        <ele>719</ele>
        <time>2017-04-23T11:39:09Z</time>
      </trkpt>
      <trkpt lat="45.62978" lon="5.69224">
        <ele>719</ele>
        <time>2017-04-23T11:39:09Z</time>
      </trkpt>
      <trkpt lat="45.62972" lon="5.69222">
        <ele>719</ele>
        <time>2017-04-23T11:39:09Z</time>
      </trkpt>
      <trkpt lat="45.62967" lon="5.69218">
        <ele>719</ele>
        <time>2017-04-23T11:39:25Z</time>
      </trkpt>
      <trkpt lat="45.62963" lon="5.69216">
        <ele>719</ele>
        <time>2017-04-23T11:39:25Z</time>
      </trkpt>
      <trkpt lat="45.62959" lon="5.69212">
        <ele>719</ele>
        <time>2017-04-23T11:39:25Z</time>
      </trkpt>
      <trkpt lat="45.62956" lon="5.69206">
        <ele>717</ele>
        <time>2017-04-23T11:39:25Z</time>
      </trkpt>
      <trkpt lat="45.62953" lon="5.692">
        <ele>717</ele>
        <time>2017-04-23T11:39:41Z</time>
      </trkpt>
      <trkpt lat="45.6295" lon="5.69194">
        <ele>717</ele>
        <time>2017-04-23T11:39:41Z</time>
      </trkpt>
      <trkpt lat="45.62947" lon="5.69188">
        <ele>717</ele>
        <time>2017-04-23T11:39:41Z</time>
      </trkpt>
      <trkpt lat="45.62944" lon="5.69182">
        <ele>717</ele>
        <time>2017-04-23T11:39:41Z</time>
      </trkpt>
      <trkpt lat="45.62942" lon="5.69174">
        <ele>717</ele>
        <time>2017-04-23T11:39:57Z</time>
      </trkpt>
      <trkpt lat="45.62939" lon="5.69165">
        <ele>717</ele>
        <time>2017-04-23T11:39:57Z</time>
      </trkpt>
      <trkpt lat="45.62935" lon="5.69157">
        <ele>717</ele>
        <time>2017-04-23T11:39:57Z</time>
      </trkpt>
      <trkpt lat="45.62931" lon="5.69151">
        <ele>717</ele>
        <time>2017-04-23T11:39:57Z</time>
      </trkpt>
      <trkpt lat="45.6293" lon="5.69145">
        <ele>717</ele>
        <time>2017-04-23T11:40:13Z</time>
      </trkpt>
      <trkpt lat="45.62928" lon="5.69139">
        <ele>717</ele>
        <time>2017-04-23T11:40:13Z</time>
      </trkpt>
      <trkpt lat="45.62925" lon="5.69131">
        <ele>717</ele>
        <time>2017-04-23T11:40:13Z</time>
      </trkpt>
      <trkpt lat="45.62921" lon="5.69124">
        <ele>718</ele>
        <time>2017-04-23T11:40:13Z</time>
      </trkpt>
      <trkpt lat="45.62918" lon="5.69117">
        <ele>718</ele>
        <time>2017-04-23T11:40:29Z</time>
      </trkpt>
      <trkpt lat="45.62916" lon="5.6911">
        <ele>718</ele>
        <time>2017-04-23T11:40:29Z</time>
      </trkpt>
      <trkpt lat="45.62916" lon="5.69103">
        <ele>718</ele>
        <time>2017-04-23T11:40:29Z</time>
      </trkpt>
      <trkpt lat="45.62916" lon="5.69096">
        <ele>718</ele>
        <time>2017-04-23T11:40:29Z</time>
      </trkpt>
      <trkpt lat="45.62918" lon="5.69091">
        <ele>718</ele>
        <time>2017-04-23T11:40:45Z</time>
      </trkpt>
      <trkpt lat="45.62917" lon="5.69084">
        <ele>718</ele>
        <time>2017-04-23T11:40:45Z</time>
      </trkpt>
      <trkpt lat="45.62915" lon="5.69077">
        <ele>718</ele>
        <time>2017-04-23T11:40:45Z</time>
      </trkpt>
      <trkpt lat="45.6291" lon="5.69069">
        <ele>718</ele>
        <time>2017-04-23T11:40:45Z</time>
      </trkpt>
      <trkpt lat="45.62902" lon="5.69054">
        <ele>718</ele>
        <time>2017-04-23T11:41:01Z</time>
      </trkpt>
      <trkpt lat="45.62893" lon="5.69042">
        <ele>718</ele>
        <time>2017-04-23T11:41:01Z</time>
      </trkpt>
      <trkpt lat="45.62889" lon="5.69038">
        <ele>719</ele>
        <time>2017-04-23T11:41:01Z</time>
      </trkpt>
      <trkpt lat="45.62884" lon="5.69031">
        <ele>719</ele>
        <time>2017-04-23T11:41:01Z</time>
      </trkpt>
      <trkpt lat="45.62879" lon="5.69024">
        <ele>719</ele>
        <time>2017-04-23T11:41:17Z</time>
      </trkpt>
      <trkpt lat="45.62873" lon="5.69018">
        <ele>719</ele>
        <time>2017-04-23T11:41:17Z</time>
      </trkpt>
      <trkpt lat="45.62869" lon="5.69012">
        <ele>719</ele>
        <time>2017-04-23T11:41:17Z</time>
      </trkpt>
      <trkpt lat="45.62866" lon="5.69005">
        <ele>719</ele>
        <time>2017-04-23T11:41:17Z</time>
      </trkpt>
      <trkpt lat="45.62861" lon="5.68999">
        <ele>719</ele>
        <time>2017-04-23T11:41:33Z</time>
      </trkpt>
      <trkpt lat="45.62857" lon="5.68994">
        <ele>719</ele>
        <time>2017-04-23T11:41:33Z</time>
      </trkpt>
      <trkpt lat="45.62852" lon="5.68989">
        <ele>719</ele>
        <time>2017-04-23T11:41:33Z</time>
      </trkpt>
      <trkpt lat="45.62848" lon="5.68984">
        <ele>719</ele>
        <time>2017-04-23T11:41:33Z</time>
      </trkpt>
      <trkpt lat="45.62845" lon="5.68977">
        <ele>719</ele>
        <time>2017-04-23T11:41:49Z</time>
      </trkpt>
      <trkpt lat="45.62839" lon="5.68971">
        <ele>719</ele>
        <time>2017-04-23T11:41:49Z</time>
      </trkpt>
      <trkpt lat="45.62833" lon="5.68963">
        <ele>719</ele>
        <time>2017-04-23T11:41:49Z</time>
      </trkpt>
      <trkpt lat="45.62829" lon="5.68958">
        <ele>718</ele>
        <time>2017-04-23T11:41:49Z</time>
      </trkpt>
      <trkpt lat="45.62825" lon="5.68948">
        <ele>718</ele>
        <time>2017-04-23T11:42:05Z</time>
      </trkpt>
      <trkpt lat="45.62822" lon="5.68942">
        <ele>718</ele>
        <time>2017-04-23T11:42:05Z</time>
      </trkpt>
      <trkpt lat="45.6282" lon="5.68937">
        <ele>718</ele>
        <time>2017-04-23T11:42:05Z</time>
      </trkpt>
      <trkpt lat="45.62815" lon="5.68923">
        <ele>718</ele>
        <time>2017-04-23T11:42:05Z</time>
      </trkpt>
      <trkpt lat="45.62812" lon="5.68911">
        <ele>718</ele>
        <time>2017-04-23T11:42:21Z</time>
      </trkpt>
      <trkpt lat="45.62803" lon="5.68913">
        <ele>718</ele>
        <time>2017-04-23T11:42:21Z</time>
      </trkpt>
      <trkpt lat="45.62794" lon="5.68908">
        <ele>718</ele>
        <time>2017-04-23T11:42:21Z</time>
      </trkpt>
      <trkpt lat="45.62791" lon="5.68905">
        <ele>714</ele>
        <time>2017-04-23T11:42:21Z</time>
      </trkpt>
      <trkpt lat="45.62784" lon="5.68905">
        <ele>714</ele>
        <time>2017-04-23T11:42:37Z</time>
      </trkpt>
      <trkpt lat="45.62779" lon="5.68894">
        <ele>714</ele>
        <time>2017-04-23T11:42:37Z</time>
      </trkpt>
      <trkpt lat="45.6277" lon="5.68893">
        <ele>714</ele>
        <time>2017-04-23T11:42:37Z</time>
      </trkpt>
      <trkpt lat="45.62761" lon="5.68897">
        <ele>714</ele>
        <time>2017-04-23T11:42:37Z</time>
      </trkpt>
      <trkpt lat="45.62758" lon="5.68897">
        <ele>714</ele>
        <time>2017-04-23T11:42:53Z</time>
      </trkpt>
      <trkpt lat="45.62753" lon="5.68897">
        <ele>714</ele>
        <time>2017-04-23T11:42:53Z</time>
      </trkpt>
      <trkpt lat="45.6275" lon="5.68894">
        <ele>714</ele>
        <time>2017-04-23T11:42:53Z</time>
      </trkpt>
      <trkpt lat="45.62747" lon="5.68892">
        <ele>714</ele>
        <time>2017-04-23T11:42:53Z</time>
      </trkpt>
      <trkpt lat="45.62742" lon="5.6889">
        <ele>714</ele>
        <time>2017-04-23T11:43:09Z</time>
      </trkpt>
      <trkpt lat="45.62737" lon="5.68886">
        <ele>714</ele>
        <time>2017-04-23T11:43:09Z</time>
      </trkpt>
      <trkpt lat="45.62731" lon="5.68883">
        <ele>714</ele>
        <time>2017-04-23T11:43:09Z</time>
      </trkpt>
      <trkpt lat="45.62726" lon="5.6888">
        <ele>714</ele>
        <time>2017-04-23T11:43:09Z</time>
      </trkpt>
      <trkpt lat="45.62721" lon="5.68879">
        <ele>714</ele>
        <time>2017-04-23T11:43:25Z</time>
      </trkpt>
      <trkpt lat="45.62715" lon="5.6888">
        <ele>714</ele>
        <time>2017-04-23T11:43:25Z</time>
      </trkpt>
      <trkpt lat="45.62711" lon="5.68878">
        <ele>714</ele>
        <time>2017-04-23T11:43:25Z</time>
      </trkpt>
      <trkpt lat="45.62708" lon="5.68878">
        <ele>707</ele>
        <time>2017-04-23T11:43:25Z</time>
      </trkpt>
      <trkpt lat="45.62705" lon="5.68879">
        <ele>707</ele>
        <time>2017-04-23T11:43:41Z</time>
      </trkpt>
      <trkpt lat="45.62701" lon="5.68878">
        <ele>707</ele>
        <time>2017-04-23T11:43:41Z</time>
      </trkpt>
      <trkpt lat="45.62696" lon="5.68878">
        <ele>707</ele>
        <time>2017-04-23T11:43:41Z</time>
      </trkpt>
      <trkpt lat="45.62691" lon="5.68878">
        <ele>707</ele>
        <time>2017-04-23T11:43:41Z</time>
      </trkpt>
      <trkpt lat="45.62685" lon="5.68879">
        <ele>707</ele>
        <time>2017-04-23T11:43:57Z</time>
      </trkpt>
      <trkpt lat="45.62679" lon="5.68879">
        <ele>707</ele>
        <time>2017-04-23T11:43:57Z</time>
      </trkpt>
      <trkpt lat="45.62673" lon="5.6888">
        <ele>707</ele>
        <time>2017-04-23T11:43:57Z</time>
      </trkpt>
      <trkpt lat="45.62667" lon="5.6888">
        <ele>707</ele>
        <time>2017-04-23T11:43:57Z</time>
      </trkpt>
      <trkpt lat="45.62662" lon="5.68879">
        <ele>707</ele>
        <time>2017-04-23T11:44:13Z</time>
      </trkpt>
      <trkpt lat="45.62656" lon="5.68878">
        <ele>707</ele>
        <time>2017-04-23T11:44:13Z</time>
      </trkpt>
      <trkpt lat="45.62651" lon="5.68876">
        <ele>707</ele>
        <time>2017-04-23T11:44:13Z</time>
      </trkpt>
      <trkpt lat="45.62645" lon="5.68875">
        <ele>707</ele>
        <time>2017-04-23T11:44:13Z</time>
      </trkpt>
      <trkpt lat="45.6264" lon="5.68873">
        <ele>707</ele>
        <time>2017-04-23T11:44:29Z</time>
      </trkpt>
      <trkpt lat="45.62634" lon="5.68872">
        <ele>707</ele>
        <time>2017-04-23T11:44:29Z</time>
      </trkpt>
      <trkpt lat="45.62628" lon="5.68871">
        <ele>707</ele>
        <time>2017-04-23T11:44:29Z</time>
      </trkpt>
      <trkpt lat="45.62622" lon="5.6887">
        <ele>702</ele>
        <time>2017-04-23T11:44:29Z</time>
      </trkpt>
      <trkpt lat="45.62616" lon="5.68869">
        <ele>702</ele>
        <time>2017-04-23T11:44:45Z</time>
      </trkpt>
      <trkpt lat="45.62609" lon="5.68868">
        <ele>702</ele>
        <time>2017-04-23T11:44:45Z</time>
      </trkpt>
      <trkpt lat="45.62603" lon="5.68868">
        <ele>702</ele>
        <time>2017-04-23T11:44:45Z</time>
      </trkpt>
      <trkpt lat="45.62597" lon="5.68867">
        <ele>702</ele>
        <time>2017-04-23T11:44:45Z</time>
      </trkpt>
      <trkpt lat="45.62591" lon="5.68866">
        <ele>702</ele>
        <time>2017-04-23T11:45:01Z</time>
      </trkpt>
      <trkpt lat="45.62585" lon="5.68865">
        <ele>702</ele>
        <time>2017-04-23T11:45:01Z</time>
      </trkpt>
      <trkpt lat="45.62579" lon="5.68864">
        <ele>702</ele>
        <time>2017-04-23T11:45:01Z</time>
      </trkpt>
      <trkpt lat="45.62572" lon="5.68864">
        <ele>702</ele>
        <time>2017-04-23T11:45:01Z</time>
      </trkpt>
      <trkpt lat="45.62572" lon="5.68864">
        <ele>702</ele>
        <time>2017-04-23T11:45:17Z</time>
      </trkpt>
      <trkpt lat="45.62572" lon="5.68865">
        <ele>702</ele>
        <time>2017-04-23T11:45:17Z</time>
      </trkpt>
      <trkpt lat="45.62568" lon="5.68864">
        <ele>702</ele>
        <time>2017-04-23T11:45:17Z</time>
      </trkpt>
      <trkpt lat="45.62563" lon="5.68862">
        <ele>702</ele>
        <time>2017-04-23T11:45:17Z</time>
      </trkpt>
      <trkpt lat="45.62557" lon="5.68864">
        <ele>702</ele>
        <time>2017-04-23T11:45:33Z</time>
      </trkpt>
      <trkpt lat="45.62552" lon="5.68867">
        <ele>702</ele>
        <time>2017-04-23T11:45:33Z</time>
      </trkpt>
      <trkpt lat="45.62548" lon="5.68869">
        <ele>702</ele>
        <time>2017-04-23T11:45:33Z</time>
      </trkpt>
      <trkpt lat="45.62544" lon="5.68869">
        <ele>702</ele>
        <time>2017-04-23T11:45:33Z</time>
      </trkpt>
      <trkpt lat="45.62543" lon="5.68867">
        <ele>702</ele>
        <time>2017-04-23T11:45:49Z</time>
      </trkpt>
      <trkpt lat="45.62542" lon="5.68867">
        <ele>702</ele>
        <time>2017-04-23T11:45:49Z</time>
      </trkpt>
      <trkpt lat="45.62537" lon="5.68867">
        <ele>685</ele>
        <time>2017-04-23T11:45:49Z</time>
      </trkpt>
      <trkpt lat="45.62531" lon="5.68868">
        <ele>685</ele>
        <time>2017-04-23T11:45:49Z</time>
      </trkpt>
      <trkpt lat="45.62526" lon="5.6887">
        <ele>685</ele>
        <time>2017-04-23T11:46:05Z</time>
      </trkpt>
      <trkpt lat="45.62521" lon="5.68872">
        <ele>685</ele>
        <time>2017-04-23T11:46:05Z</time>
      </trkpt>
      <trkpt lat="45.62516" lon="5.68876">
        <ele>685</ele>
        <time>2017-04-23T11:46:05Z</time>
      </trkpt>
      <trkpt lat="45.62512" lon="5.6888">
        <ele>685</ele>
        <time>2017-04-23T11:46:05Z</time>
      </trkpt>
      <trkpt lat="45.62508" lon="5.68886">
        <ele>685</ele>
        <time>2017-04-23T11:46:21Z</time>
      </trkpt>
      <trkpt lat="45.62506" lon="5.6889">
        <ele>685</ele>
        <time>2017-04-23T11:46:21Z</time>
      </trkpt>
      <trkpt lat="45.62502" lon="5.68892">
        <ele>685</ele>
        <time>2017-04-23T11:46:21Z</time>
      </trkpt>
      <trkpt lat="45.625" lon="5.68892">
        <ele>685</ele>
        <time>2017-04-23T11:46:21Z</time>
      </trkpt>
      <trkpt lat="45.62497" lon="5.68894">
        <ele>685</ele>
        <time>2017-04-23T11:46:37Z</time>
      </trkpt>
      <trkpt lat="45.62492" lon="5.68894">
        <ele>685</ele>
        <time>2017-04-23T11:46:37Z</time>
      </trkpt>
      <trkpt lat="45.62487" lon="5.68893">
        <ele>685</ele>
        <time>2017-04-23T11:46:37Z</time>
      </trkpt>
      <trkpt lat="45.6248" lon="5.68894">
        <ele>685</ele>
        <time>2017-04-23T11:46:37Z</time>
      </trkpt>
      <trkpt lat="45.62473" lon="5.68897">
        <ele>685</ele>
        <time>2017-04-23T11:46:53Z</time>
      </trkpt>
      <trkpt lat="45.62469" lon="5.68899">
        <ele>685</ele>
        <time>2017-04-23T11:46:53Z</time>
      </trkpt>
      <trkpt lat="45.62463" lon="5.68901">
        <ele>685</ele>
        <time>2017-04-23T11:46:53Z</time>
      </trkpt>
      <trkpt lat="45.62456" lon="5.68905">
        <ele>690</ele>
        <time>2017-04-23T11:46:53Z</time>
      </trkpt>
      <trkpt lat="45.62454" lon="5.68908">
        <ele>690</ele>
        <time>2017-04-23T11:47:09Z</time>
      </trkpt>
      <trkpt lat="45.6245" lon="5.68913">
        <ele>690</ele>
        <time>2017-04-23T11:47:09Z</time>
      </trkpt>
      <trkpt lat="45.62446" lon="5.68915">
        <ele>690</ele>
        <time>2017-04-23T11:47:09Z</time>
      </trkpt>
      <trkpt lat="45.62442" lon="5.68918">
        <ele>690</ele>
        <time>2017-04-23T11:47:09Z</time>
      </trkpt>
      <trkpt lat="45.62439" lon="5.68919">
        <ele>690</ele>
        <time>2017-04-23T11:47:25Z</time>
      </trkpt>
      <trkpt lat="45.62435" lon="5.68921">
        <ele>690</ele>
        <time>2017-04-23T11:47:25Z</time>
      </trkpt>
      <trkpt lat="45.62431" lon="5.68923">
        <ele>690</ele>
        <time>2017-04-23T11:47:25Z</time>
      </trkpt>
      <trkpt lat="45.62427" lon="5.68925">
        <ele>690</ele>
        <time>2017-04-23T11:47:25Z</time>
      </trkpt>
      <trkpt lat="45.62423" lon="5.68928">
        <ele>690</ele>
        <time>2017-04-23T11:47:45Z</time>
      </trkpt>
      <trkpt lat="45.62421" lon="5.68929">
        <ele>690</ele>
        <time>2017-04-23T11:47:45Z</time>
      </trkpt>
      <trkpt lat="45.62419" lon="5.6893">
        <ele>690</ele>
        <time>2017-04-23T11:47:45Z</time>
      </trkpt>
      <trkpt lat="45.62415" lon="5.68928">
        <ele>690</ele>
        <time>2017-04-23T11:47:45Z</time>
      </trkpt>
      <trkpt lat="45.6241" lon="5.68927">
        <ele>690</ele>
        <time>2017-04-23T11:47:45Z</time>
      </trkpt>
      <trkpt lat="45.62403" lon="5.68923">
        <ele>690</ele>
        <time>2017-04-23T11:48:01Z</time>
      </trkpt>
      <trkpt lat="45.62401" lon="5.68916">
        <ele>690</ele>
        <time>2017-04-23T11:48:01Z</time>
      </trkpt>
      <trkpt lat="45.62397" lon="5.68912">
        <ele>690</ele>
        <time>2017-04-23T11:48:01Z</time>
      </trkpt>
      <trkpt lat="45.62394" lon="5.68909">
        <ele>690</ele>
        <time>2017-04-23T11:48:01Z</time>
      </trkpt>
      <trkpt lat="45.62394" lon="5.68907">
        <ele>690</ele>
        <time>2017-04-23T11:48:17Z</time>
      </trkpt>
      <trkpt lat="45.62393" lon="5.68902">
        <ele>690</ele>
        <time>2017-04-23T11:48:17Z</time>
      </trkpt>
      <trkpt lat="45.62392" lon="5.68896">
        <ele>690</ele>
        <time>2017-04-23T11:48:17Z</time>
      </trkpt>
      <trkpt lat="45.62392" lon="5.68888">
        <ele>690</ele>
        <time>2017-04-23T11:48:17Z</time>
      </trkpt>
      <trkpt lat="45.62394" lon="5.68878">
        <ele>690</ele>
        <time>2017-04-23T11:49:01Z</time>
      </trkpt>
      <trkpt lat="45.62394" lon="5.68877">
        <ele>690</ele>
        <time>2017-04-23T11:49:01Z</time>
      </trkpt>
      <trkpt lat="45.62394" lon="5.68876">
        <ele>690</ele>
        <time>2017-04-23T11:49:01Z</time>
      </trkpt>
      <trkpt lat="45.62393" lon="5.68873">
        <ele>690</ele>
        <time>2017-04-23T11:49:01Z</time>
      </trkpt>
      <trkpt lat="45.62393" lon="5.68865">
        <ele>690</ele>
        <time>2017-04-23T11:49:01Z</time>
      </trkpt>
      <trkpt lat="45.62393" lon="5.68857">
        <ele>690</ele>
        <time>2017-04-23T11:49:17Z</time>
      </trkpt>
      <trkpt lat="45.62392" lon="5.68852">
        <ele>690</ele>
        <time>2017-04-23T11:49:17Z</time>
      </trkpt>
      <trkpt lat="45.6239" lon="5.68844">
        <ele>690</ele>
        <time>2017-04-23T11:49:17Z</time>
      </trkpt>
      <trkpt lat="45.6239" lon="5.68834">
        <ele>690</ele>
        <time>2017-04-23T11:49:17Z</time>
      </trkpt>
      <trkpt lat="45.6239" lon="5.68822">
        <ele>690</ele>
        <time>2017-04-23T11:49:33Z</time>
      </trkpt>
      <trkpt lat="45.62388" lon="5.68812">
        <ele>690</ele>
        <time>2017-04-23T11:49:33Z</time>
      </trkpt>
      <trkpt lat="45.62385" lon="5.68801">
        <ele>690</ele>
        <time>2017-04-23T11:49:33Z</time>
      </trkpt>
      <trkpt lat="45.62382" lon="5.68789">
        <ele>689</ele>
        <time>2017-04-23T11:49:33Z</time>
      </trkpt>
      <trkpt lat="45.6238" lon="5.68778">
        <ele>689</ele>
        <time>2017-04-23T11:49:49Z</time>
      </trkpt>
      <trkpt lat="45.6238" lon="5.68772">
        <ele>689</ele>
        <time>2017-04-23T11:49:49Z</time>
      </trkpt>
      <trkpt lat="45.62382" lon="5.68766">
        <ele>689</ele>
        <time>2017-04-23T11:49:49Z</time>
      </trkpt>
      <trkpt lat="45.62384" lon="5.6876">
        <ele>689</ele>
        <time>2017-04-23T11:49:49Z</time>
      </trkpt>
      <trkpt lat="45.62384" lon="5.68754">
        <ele>689</ele>
        <time>2017-04-23T11:50:05Z</time>
      </trkpt>
      <trkpt lat="45.62386" lon="5.68748">
        <ele>689</ele>
        <time>2017-04-23T11:50:05Z</time>
      </trkpt>
      <trkpt lat="45.62387" lon="5.68742">
        <ele>689</ele>
        <time>2017-04-23T11:50:05Z</time>
      </trkpt>
      <trkpt lat="45.62385" lon="5.68737">
        <ele>689</ele>
        <time>2017-04-23T11:50:05Z</time>
      </trkpt>
      <trkpt lat="45.62385" lon="5.68733">
        <ele>689</ele>
        <time>2017-04-23T11:50:21Z</time>
      </trkpt>
      <trkpt lat="45.62384" lon="5.68726">
        <ele>689</ele>
        <time>2017-04-23T11:50:21Z</time>
      </trkpt>
      <trkpt lat="45.62382" lon="5.68718">
        <ele>689</ele>
        <time>2017-04-23T11:50:21Z</time>
      </trkpt>
      <trkpt lat="45.6238" lon="5.68709">
        <ele>689</ele>
        <time>2017-04-23T11:50:21Z</time>
      </trkpt>
      <trkpt lat="45.62378" lon="5.68697">
        <ele>667</ele>
        <time>2017-04-23T11:50:37Z</time>
      </trkpt>
      <trkpt lat="45.62378" lon="5.68683">
        <ele>667</ele>
        <time>2017-04-23T11:50:37Z</time>
      </trkpt>
      <trkpt lat="45.62379" lon="5.68673">
        <ele>667</ele>
        <time>2017-04-23T11:50:37Z</time>
      </trkpt>
      <trkpt lat="45.62378" lon="5.68667">
        <ele>667</ele>
        <time>2017-04-23T11:50:37Z</time>
      </trkpt>
      <trkpt lat="45.62379" lon="5.6866">
        <ele>667</ele>
        <time>2017-04-23T11:50:53Z</time>
      </trkpt>
      <trkpt lat="45.6238" lon="5.68653">
        <ele>667</ele>
        <time>2017-04-23T11:50:53Z</time>
      </trkpt>
      <trkpt lat="45.62379" lon="5.68647">
        <ele>667</ele>
        <time>2017-04-23T11:50:53Z</time>
      </trkpt>
      <trkpt lat="45.62379" lon="5.68641">
        <ele>667</ele>
        <time>2017-04-23T11:50:53Z</time>
      </trkpt>
      <trkpt lat="45.6238" lon="5.68633">
        <ele>667</ele>
        <time>2017-04-23T11:51:09Z</time>
      </trkpt>
      <trkpt lat="45.62383" lon="5.68625">
        <ele>667</ele>
        <time>2017-04-23T11:51:09Z</time>
      </trkpt>
      <trkpt lat="45.62387" lon="5.6862">
        <ele>651</ele>
        <time>2017-04-23T11:51:09Z</time>
      </trkpt>
      <trkpt lat="45.62391" lon="5.68613">
        <ele>651</ele>
        <time>2017-04-23T11:51:09Z</time>
      </trkpt>
      <trkpt lat="45.62395" lon="5.68606">
        <ele>651</ele>
        <time>2017-04-23T11:51:25Z</time>
      </trkpt>
      <trkpt lat="45.62398" lon="5.68598">
        <ele>651</ele>
        <time>2017-04-23T11:51:25Z</time>
      </trkpt>
      <trkpt lat="45.624" lon="5.68592">
        <ele>651</ele>
        <time>2017-04-23T11:51:25Z</time>
      </trkpt>
      <trkpt lat="45.62402" lon="5.68584">
        <ele>651</ele>
        <time>2017-04-23T11:51:25Z</time>
      </trkpt>
      <trkpt lat="45.62403" lon="5.68577">
        <ele>651</ele>
        <time>2017-04-23T11:51:41Z</time>
      </trkpt>
      <trkpt lat="45.62405" lon="5.68574">
        <ele>651</ele>
        <time>2017-04-23T11:51:41Z</time>
      </trkpt>
      <trkpt lat="45.62406" lon="5.68568">
        <ele>651</ele>
        <time>2017-04-23T11:51:41Z</time>
      </trkpt>
      <trkpt lat="45.62408" lon="5.68562">
        <ele>651</ele>
        <time>2017-04-23T11:51:41Z</time>
      </trkpt>
      <trkpt lat="45.6241" lon="5.68557">
        <ele>651</ele>
        <time>2017-04-23T11:51:57Z</time>
      </trkpt>
      <trkpt lat="45.62412" lon="5.68554">
        <ele>651</ele>
        <time>2017-04-23T11:51:57Z</time>
      </trkpt>
      <trkpt lat="45.62414" lon="5.68549">
        <ele>651</ele>
        <time>2017-04-23T11:51:57Z</time>
      </trkpt>
      <trkpt lat="45.62415" lon="5.68544">
        <ele>651</ele>
        <time>2017-04-23T11:51:57Z</time>
      </trkpt>
      <trkpt lat="45.62417" lon="5.68539">
        <ele>637</ele>
        <time>2017-04-23T11:52:13Z</time>
      </trkpt>
      <trkpt lat="45.62416" lon="5.68533">
        <ele>637</ele>
        <time>2017-04-23T11:52:13Z</time>
      </trkpt>
      <trkpt lat="45.62417" lon="5.68516">
        <ele>637</ele>
        <time>2017-04-23T11:52:13Z</time>
      </trkpt>
      <trkpt lat="45.62418" lon="5.68506">
        <ele>637</ele>
        <time>2017-04-23T11:52:13Z</time>
      </trkpt>
      <trkpt lat="45.6242" lon="5.68496">
        <ele>637</ele>
        <time>2017-04-23T11:52:29Z</time>
      </trkpt>
      <trkpt lat="45.62421" lon="5.68489">
        <ele>637</ele>
        <time>2017-04-23T11:52:29Z</time>
      </trkpt>
      <trkpt lat="45.62421" lon="5.68479">
        <ele>637</ele>
        <time>2017-04-23T11:52:29Z</time>
      </trkpt>
      <trkpt lat="45.6242" lon="5.68468">
        <ele>637</ele>
        <time>2017-04-23T11:52:29Z</time>
      </trkpt>
      <trkpt lat="45.62417" lon="5.68459">
        <ele>637</ele>
        <time>2017-04-23T11:52:45Z</time>
      </trkpt>
      <trkpt lat="45.62413" lon="5.68452">
        <ele>621</ele>
        <time>2017-04-23T11:52:45Z</time>
      </trkpt>
      <trkpt lat="45.6241" lon="5.68446">
        <ele>621</ele>
        <time>2017-04-23T11:52:45Z</time>
      </trkpt>
      <trkpt lat="45.62406" lon="5.68443">
        <ele>621</ele>
        <time>2017-04-23T11:52:45Z</time>
      </trkpt>
      <trkpt lat="45.62401" lon="5.68439">
        <ele>621</ele>
        <time>2017-04-23T11:53:01Z</time>
      </trkpt>
      <trkpt lat="45.62397" lon="5.68434">
        <ele>621</ele>
        <time>2017-04-23T11:53:01Z</time>
      </trkpt>
      <trkpt lat="45.62392" lon="5.68431">
        <ele>621</ele>
        <time>2017-04-23T11:53:01Z</time>
      </trkpt>
      <trkpt lat="45.62386" lon="5.68427">
        <ele>621</ele>
        <time>2017-04-23T11:53:01Z</time>
      </trkpt>
      <trkpt lat="45.62377" lon="5.68418">
        <ele>621</ele>
        <time>2017-04-23T11:53:33Z</time>
      </trkpt>
      <trkpt lat="45.62376" lon="5.68417">
        <ele>621</ele>
        <time>2017-04-23T11:53:33Z</time>
      </trkpt>
      <trkpt lat="45.62376" lon="5.68415">
        <ele>621</ele>
        <time>2017-04-23T11:53:33Z</time>
      </trkpt>
      <trkpt lat="45.62376" lon="5.68414">
        <ele>621</ele>
        <time>2017-04-23T11:53:33Z</time>
      </trkpt>
      <trkpt lat="45.62375" lon="5.68413">
        <ele>621</ele>
        <time>2017-04-23T11:53:33Z</time>
      </trkpt>
      <trkpt lat="45.62374" lon="5.68411">
        <ele>631</ele>
        <time>2017-04-23T11:53:57Z</time>
      </trkpt>
      <trkpt lat="45.62371" lon="5.6841">
        <ele>631</ele>
        <time>2017-04-23T11:53:57Z</time>
      </trkpt>
      <trkpt lat="45.62368" lon="5.68409">
        <ele>631</ele>
        <time>2017-04-23T11:53:57Z</time>
      </trkpt>
      <trkpt lat="45.62367" lon="5.68408">
        <ele>631</ele>
        <time>2017-04-23T11:53:57Z</time>
      </trkpt>
      <trkpt lat="45.62365" lon="5.68409">
        <ele>631</ele>
        <time>2017-04-23T11:53:57Z</time>
      </trkpt>
      <trkpt lat="45.62362" lon="5.6841">
        <ele>631</ele>
        <time>2017-04-23T11:54:17Z</time>
      </trkpt>
      <trkpt lat="45.62358" lon="5.6841">
        <ele>631</ele>
        <time>2017-04-23T11:54:17Z</time>
      </trkpt>
      <trkpt lat="45.62356" lon="5.68408">
        <ele>631</ele>
        <time>2017-04-23T11:54:17Z</time>
      </trkpt>
      <trkpt lat="45.62353" lon="5.68408">
        <ele>631</ele>
        <time>2017-04-23T11:54:17Z</time>
      </trkpt>
      <trkpt lat="45.6235" lon="5.68406">
        <ele>631</ele>
        <time>2017-04-23T11:54:17Z</time>
      </trkpt>
      <trkpt lat="45.62346" lon="5.68405">
        <ele>631</ele>
        <time>2017-04-23T11:54:33Z</time>
      </trkpt>
      <trkpt lat="45.6234" lon="5.68407">
        <ele>631</ele>
        <time>2017-04-23T11:54:33Z</time>
      </trkpt>
      <trkpt lat="45.62334" lon="5.68407">
        <ele>631</ele>
        <time>2017-04-23T11:54:33Z</time>
      </trkpt>
      <trkpt lat="45.62331" lon="5.68407">
        <ele>631</ele>
        <time>2017-04-23T11:54:33Z</time>
      </trkpt>
      <trkpt lat="45.62328" lon="5.68408">
        <ele>631</ele>
        <time>2017-04-23T11:54:53Z</time>
      </trkpt>
      <trkpt lat="45.62326" lon="5.6841">
        <ele>631</ele>
        <time>2017-04-23T11:54:53Z</time>
      </trkpt>
      <trkpt lat="45.62322" lon="5.6841">
        <ele>631</ele>
        <time>2017-04-23T11:54:53Z</time>
      </trkpt>
      <trkpt lat="45.6232" lon="5.6841">
        <ele>631</ele>
        <time>2017-04-23T11:54:53Z</time>
      </trkpt>
      <trkpt lat="45.62316" lon="5.6841">
        <ele>631</ele>
        <time>2017-04-23T11:54:53Z</time>
      </trkpt>
      <trkpt lat="45.62311" lon="5.68408">
        <ele>631</ele>
        <time>2017-04-23T11:55:09Z</time>
      </trkpt>
      <trkpt lat="45.62307" lon="5.68405">
        <ele>631</ele>
        <time>2017-04-23T11:55:09Z</time>
      </trkpt>
      <trkpt lat="45.62302" lon="5.68402">
        <ele>631</ele>
        <time>2017-04-23T11:55:09Z</time>
      </trkpt>
      <trkpt lat="45.62297" lon="5.68399">
        <ele>631</ele>
        <time>2017-04-23T11:55:09Z</time>
      </trkpt>
      <trkpt lat="45.62291" lon="5.68394">
        <ele>633</ele>
        <time>2017-04-23T11:55:25Z</time>
      </trkpt>
      <trkpt lat="45.62284" lon="5.68389">
        <ele>633</ele>
        <time>2017-04-23T11:55:25Z</time>
      </trkpt>
      <trkpt lat="45.62278" lon="5.68387">
        <ele>633</ele>
        <time>2017-04-23T11:55:25Z</time>
      </trkpt>
      <trkpt lat="45.62273" lon="5.68387">
        <ele>633</ele>
        <time>2017-04-23T11:55:25Z</time>
      </trkpt>
      <trkpt lat="45.62269" lon="5.68387">
        <ele>633</ele>
        <time>2017-04-23T11:55:41Z</time>
      </trkpt>
      <trkpt lat="45.62265" lon="5.68387">
        <ele>633</ele>
        <time>2017-04-23T11:55:41Z</time>
      </trkpt>
      <trkpt lat="45.62261" lon="5.68387">
        <ele>633</ele>
        <time>2017-04-23T11:55:41Z</time>
      </trkpt>
      <trkpt lat="45.62256" lon="5.68386">
        <ele>633</ele>
        <time>2017-04-23T11:55:41Z</time>
      </trkpt>
      <trkpt lat="45.62248" lon="5.68385">
        <ele>633</ele>
        <time>2017-04-23T11:55:57Z</time>
      </trkpt>
      <trkpt lat="45.62242" lon="5.68384">
        <ele>633</ele>
        <time>2017-04-23T11:55:57Z</time>
      </trkpt>
      <trkpt lat="45.62236" lon="5.68383">
        <ele>633</ele>
        <time>2017-04-23T11:55:57Z</time>
      </trkpt>
      <trkpt lat="45.62231" lon="5.68382">
        <ele>633</ele>
        <time>2017-04-23T11:55:57Z</time>
      </trkpt>
      <trkpt lat="45.62224" lon="5.6838">
        <ele>633</ele>
        <time>2017-04-23T11:56:13Z</time>
      </trkpt>
      <trkpt lat="45.62219" lon="5.68378">
        <ele>633</ele>
        <time>2017-04-23T11:56:13Z</time>
      </trkpt>
      <trkpt lat="45.62215" lon="5.68377">
        <ele>633</ele>
        <time>2017-04-23T11:56:13Z</time>
      </trkpt>
      <trkpt lat="45.62209" lon="5.68377">
        <ele>633</ele>
        <time>2017-04-23T11:56:13Z</time>
      </trkpt>
      <trkpt lat="45.62205" lon="5.68376">
        <ele>627</ele>
        <time>2017-04-23T11:56:33Z</time>
      </trkpt>
      <trkpt lat="45.62203" lon="5.68376">
        <ele>627</ele>
        <time>2017-04-23T11:56:33Z</time>
      </trkpt>
      <trkpt lat="45.62201" lon="5.68374">
        <ele>604</ele>
        <time>2017-04-23T11:56:33Z</time>
      </trkpt>
      <trkpt lat="45.62198" lon="5.68373">
        <ele>604</ele>
        <time>2017-04-23T11:56:33Z</time>
      </trkpt>
      <trkpt lat="45.62193" lon="5.68371">
        <ele>604</ele>
        <time>2017-04-23T11:56:33Z</time>
      </trkpt>
      <trkpt lat="45.62188" lon="5.68369">
        <ele>604</ele>
        <time>2017-04-23T11:56:49Z</time>
      </trkpt>
      <trkpt lat="45.62183" lon="5.68367">
        <ele>604</ele>
        <time>2017-04-23T11:56:49Z</time>
      </trkpt>
      <trkpt lat="45.6218" lon="5.68367">
        <ele>604</ele>
        <time>2017-04-23T11:56:49Z</time>
      </trkpt>
      <trkpt lat="45.62177" lon="5.68368">
        <ele>604</ele>
        <time>2017-04-23T11:56:49Z</time>
      </trkpt>
      <trkpt lat="45.62171" lon="5.68364">
        <ele>604</ele>
        <time>2017-04-23T11:57:17Z</time>
      </trkpt>
      <trkpt lat="45.6217" lon="5.68364">
        <ele>604</ele>
        <time>2017-04-23T11:57:17Z</time>
      </trkpt>
      <trkpt lat="45.62169" lon="5.68364">
        <ele>604</ele>
        <time>2017-04-23T11:57:17Z</time>
      </trkpt>
      <trkpt lat="45.62167" lon="5.68363">
        <ele>604</ele>
        <time>2017-04-23T11:57:17Z</time>
      </trkpt>
      <trkpt lat="45.62164" lon="5.68363">
        <ele>604</ele>
        <time>2017-04-23T11:57:17Z</time>
      </trkpt>
      <trkpt lat="45.6216" lon="5.68362">
        <ele>604</ele>
        <time>2017-04-23T11:57:33Z</time>
      </trkpt>
      <trkpt lat="45.62157" lon="5.68362">
        <ele>604</ele>
        <time>2017-04-23T11:57:33Z</time>
      </trkpt>
      <trkpt lat="45.62153" lon="5.68361">
        <ele>604</ele>
        <time>2017-04-23T11:57:33Z</time>
      </trkpt>
      <trkpt lat="45.62148" lon="5.68361">
        <ele>604</ele>
        <time>2017-04-23T11:57:33Z</time>
      </trkpt>
      <trkpt lat="45.62144" lon="5.6836">
        <ele>604</ele>
        <time>2017-04-23T11:57:49Z</time>
      </trkpt>
      <trkpt lat="45.6214" lon="5.68359">
        <ele>604</ele>
        <time>2017-04-23T11:57:49Z</time>
      </trkpt>
      <trkpt lat="45.62134" lon="5.68357">
        <ele>604</ele>
        <time>2017-04-23T11:57:49Z</time>
      </trkpt>
      <trkpt lat="45.62128" lon="5.68356">
        <ele>604</ele>
        <time>2017-04-23T11:57:49Z</time>
      </trkpt>
      <trkpt lat="45.62125" lon="5.68356">
        <ele>595</ele>
        <time>2017-04-23T11:58:05Z</time>
      </trkpt>
      <trkpt lat="45.6212" lon="5.68359">
        <ele>595</ele>
        <time>2017-04-23T11:58:05Z</time>
      </trkpt>
      <trkpt lat="45.62114" lon="5.6836">
        <ele>595</ele>
        <time>2017-04-23T11:58:05Z</time>
      </trkpt>
      <trkpt lat="45.6211" lon="5.68362">
        <ele>595</ele>
        <time>2017-04-23T11:58:05Z</time>
      </trkpt>
      <trkpt lat="45.62105" lon="5.68365">
        <ele>595</ele>
        <time>2017-04-23T11:58:21Z</time>
      </trkpt>
      <trkpt lat="45.621" lon="5.68366">
        <ele>595</ele>
        <time>2017-04-23T11:58:21Z</time>
      </trkpt>
      <trkpt lat="45.62096" lon="5.6837">
        <ele>595</ele>
        <time>2017-04-23T11:58:21Z</time>
      </trkpt>
      <trkpt lat="45.62094" lon="5.68372">
        <ele>595</ele>
        <time>2017-04-23T11:58:21Z</time>
      </trkpt>
      <trkpt lat="45.62089" lon="5.68373">
        <ele>595</ele>
        <time>2017-04-23T11:58:37Z</time>
      </trkpt>
      <trkpt lat="45.62083" lon="5.68369">
        <ele>595</ele>
        <time>2017-04-23T11:58:37Z</time>
      </trkpt>
      <trkpt lat="45.62076" lon="5.68366">
        <ele>595</ele>
        <time>2017-04-23T11:58:37Z</time>
      </trkpt>
      <trkpt lat="45.6207" lon="5.68365">
        <ele>595</ele>
        <time>2017-04-23T11:58:37Z</time>
      </trkpt>
      <trkpt lat="45.62066" lon="5.68364">
        <ele>595</ele>
        <time>2017-04-23T11:58:53Z</time>
      </trkpt>
      <trkpt lat="45.62062" lon="5.68367">
        <ele>595</ele>
        <time>2017-04-23T11:58:53Z</time>
      </trkpt>
      <trkpt lat="45.62058" lon="5.6837">
        <ele>595</ele>
        <time>2017-04-23T11:58:53Z</time>
      </trkpt>
      <trkpt lat="45.62052" lon="5.6837">
        <ele>595</ele>
        <time>2017-04-23T11:58:53Z</time>
      </trkpt>
      <trkpt lat="45.62048" lon="5.6837">
        <ele>595</ele>
        <time>2017-04-23T11:59:09Z</time>
      </trkpt>
      <trkpt lat="45.62043" lon="5.68371">
        <ele>595</ele>
        <time>2017-04-23T11:59:09Z</time>
      </trkpt>
      <trkpt lat="45.62037" lon="5.68374">
        <ele>577</ele>
        <time>2017-04-23T11:59:09Z</time>
      </trkpt>
      <trkpt lat="45.62032" lon="5.68375">
        <ele>577</ele>
        <time>2017-04-23T11:59:09Z</time>
      </trkpt>
      <trkpt lat="45.6203" lon="5.68375">
        <ele>577</ele>
        <time>2017-04-23T11:59:25Z</time>
      </trkpt>
      <trkpt lat="45.62025" lon="5.68374">
        <ele>577</ele>
        <time>2017-04-23T11:59:25Z</time>
      </trkpt>
      <trkpt lat="45.6202" lon="5.68376">
        <ele>604</ele>
        <time>2017-04-23T11:59:25Z</time>
      </trkpt>
      <trkpt lat="45.62015" lon="5.68379">
        <ele>604</ele>
        <time>2017-04-23T11:59:25Z</time>
      </trkpt>
      <trkpt lat="45.62009" lon="5.68381">
        <ele>604</ele>
        <time>2017-04-23T11:59:41Z</time>
      </trkpt>
      <trkpt lat="45.62004" lon="5.68382">
        <ele>604</ele>
        <time>2017-04-23T11:59:41Z</time>
      </trkpt>
      <trkpt lat="45.62001" lon="5.68384">
        <ele>604</ele>
        <time>2017-04-23T11:59:41Z</time>
      </trkpt>
      <trkpt lat="45.61996" lon="5.68385">
        <ele>604</ele>
        <time>2017-04-23T11:59:41Z</time>
      </trkpt>
      <trkpt lat="45.6199" lon="5.68387">
        <ele>604</ele>
        <time>2017-04-23T11:59:57Z</time>
      </trkpt>
      <trkpt lat="45.61984" lon="5.68388">
        <ele>604</ele>
        <time>2017-04-23T11:59:57Z</time>
      </trkpt>
      <trkpt lat="45.61979" lon="5.68389">
        <ele>604</ele>
        <time>2017-04-23T11:59:57Z</time>
      </trkpt>
      <trkpt lat="45.61976" lon="5.68389">
        <ele>604</ele>
        <time>2017-04-23T11:59:57Z</time>
      </trkpt>
      <trkpt lat="45.61971" lon="5.68392">
        <ele>604</ele>
        <time>2017-04-23T12:00:13Z</time>
      </trkpt>
      <trkpt lat="45.61965" lon="5.68395">
        <ele>604</ele>
        <time>2017-04-23T12:00:13Z</time>
      </trkpt>
      <trkpt lat="45.61959" lon="5.68398">
        <ele>604</ele>
        <time>2017-04-23T12:00:13Z</time>
      </trkpt>
      <trkpt lat="45.61955" lon="5.68399">
        <ele>590</ele>
        <time>2017-04-23T12:00:13Z</time>
      </trkpt>
      <trkpt lat="45.61952" lon="5.684">
        <ele>590</ele>
        <time>2017-04-23T12:00:45Z</time>
      </trkpt>
      <trkpt lat="45.61951" lon="5.68402">
        <ele>590</ele>
        <time>2017-04-23T12:00:45Z</time>
      </trkpt>
      <trkpt lat="45.61948" lon="5.68406">
        <ele>590</ele>
        <time>2017-04-23T12:00:45Z</time>
      </trkpt>
      <trkpt lat="45.61947" lon="5.68408">
        <ele>590</ele>
        <time>2017-04-23T12:00:45Z</time>
      </trkpt>
      <trkpt lat="45.61946" lon="5.6841">
        <ele>590</ele>
        <time>2017-04-23T12:00:45Z</time>
      </trkpt>
      <trkpt lat="45.61945" lon="5.6841">
        <ele>590</ele>
        <time>2017-04-23T12:01:05Z</time>
      </trkpt>
      <trkpt lat="45.61944" lon="5.6841">
        <ele>590</ele>
        <time>2017-04-23T12:01:05Z</time>
      </trkpt>
      <trkpt lat="45.61942" lon="5.68412">
        <ele>590</ele>
        <time>2017-04-23T12:01:05Z</time>
      </trkpt>
      <trkpt lat="45.61938" lon="5.68414">
        <ele>590</ele>
        <time>2017-04-23T12:01:05Z</time>
      </trkpt>
      <trkpt lat="45.61932" lon="5.68413">
        <ele>590</ele>
        <time>2017-04-23T12:01:05Z</time>
      </trkpt>
      <trkpt lat="45.6193" lon="5.68412">
        <ele>590</ele>
        <time>2017-04-23T12:01:21Z</time>
      </trkpt>
      <trkpt lat="45.61929" lon="5.68412">
        <ele>590</ele>
        <time>2017-04-23T12:01:21Z</time>
      </trkpt>
      <trkpt lat="45.61925" lon="5.6841">
        <ele>590</ele>
        <time>2017-04-23T12:01:21Z</time>
      </trkpt>
      <trkpt lat="45.61918" lon="5.68408">
        <ele>590</ele>
        <time>2017-04-23T12:01:21Z</time>
      </trkpt>
      <trkpt lat="45.61914" lon="5.68405">
        <ele>590</ele>
        <time>2017-04-23T12:01:37Z</time>
      </trkpt>
      <trkpt lat="45.61908" lon="5.68404">
        <ele>590</ele>
        <time>2017-04-23T12:01:37Z</time>
      </trkpt>
      <trkpt lat="45.61904" lon="5.68403">
        <ele>590</ele>
        <time>2017-04-23T12:01:37Z</time>
      </trkpt>
      <trkpt lat="45.619" lon="5.68403">
        <ele>590</ele>
        <time>2017-04-23T12:01:37Z</time>
      </trkpt>
      <trkpt lat="45.61896" lon="5.68403">
        <ele>590</ele>
        <time>2017-04-23T12:01:53Z</time>
      </trkpt>
      <trkpt lat="45.61891" lon="5.68402">
        <ele>590</ele>
        <time>2017-04-23T12:01:53Z</time>
      </trkpt>
      <trkpt lat="45.61885" lon="5.68401">
        <ele>590</ele>
        <time>2017-04-23T12:01:53Z</time>
      </trkpt>
      <trkpt lat="45.6188" lon="5.68401">
        <ele>590</ele>
        <time>2017-04-23T12:01:53Z</time>
      </trkpt>
      <trkpt lat="45.6187" lon="5.68398">
        <ele>577</ele>
        <time>2017-04-23T12:02:33Z</time>
      </trkpt>
      <trkpt lat="45.61869" lon="5.68399">
        <ele>577</ele>
        <time>2017-04-23T12:02:33Z</time>
      </trkpt>
      <trkpt lat="45.61867" lon="5.68401">
        <ele>577</ele>
        <time>2017-04-23T12:02:33Z</time>
      </trkpt>
      <trkpt lat="45.61863" lon="5.68403">
        <ele>577</ele>
        <time>2017-04-23T12:02:33Z</time>
      </trkpt>
      <trkpt lat="45.6186" lon="5.68401">
        <ele>577</ele>
        <time>2017-04-23T12:02:33Z</time>
      </trkpt>
      <trkpt lat="45.61856" lon="5.68401">
        <ele>577</ele>
        <time>2017-04-23T12:03:01Z</time>
      </trkpt>
      <trkpt lat="45.61855" lon="5.68402">
        <ele>577</ele>
        <time>2017-04-23T12:03:01Z</time>
      </trkpt>
      <trkpt lat="45.61852" lon="5.68402">
        <ele>577</ele>
        <time>2017-04-23T12:03:01Z</time>
      </trkpt>
      <trkpt lat="45.61851" lon="5.68402">
        <ele>577</ele>
        <time>2017-04-23T12:03:01Z</time>
      </trkpt>
      <trkpt lat="45.61847" lon="5.68399">
        <ele>577</ele>
        <time>2017-04-23T12:03:01Z</time>
      </trkpt>
      <trkpt lat="45.61845" lon="5.68399">
        <ele>577</ele>
        <time>2017-04-23T12:03:17Z</time>
      </trkpt>
      <trkpt lat="45.61843" lon="5.68397">
        <ele>577</ele>
        <time>2017-04-23T12:03:17Z</time>
      </trkpt>
      <trkpt lat="45.6184" lon="5.68396">
        <ele>577</ele>
        <time>2017-04-23T12:03:17Z</time>
      </trkpt>
      <trkpt lat="45.61834" lon="5.68396">
        <ele>577</ele>
        <time>2017-04-23T12:03:17Z</time>
      </trkpt>
      <trkpt lat="45.61827" lon="5.68391">
        <ele>577</ele>
        <time>2017-04-23T12:03:33Z</time>
      </trkpt>
      <trkpt lat="45.61826" lon="5.68384">
        <ele>577</ele>
        <time>2017-04-23T12:03:33Z</time>
      </trkpt>
      <trkpt lat="45.61832" lon="5.68382">
        <ele>577</ele>
        <time>2017-04-23T12:03:33Z</time>
      </trkpt>
      <trkpt lat="45.61837" lon="5.68382">
        <ele>577</ele>
        <time>2017-04-23T12:03:33Z</time>
      </trkpt>
      <trkpt lat="45.6184" lon="5.68382">
        <ele>577</ele>
        <time>2017-04-23T12:03:49Z</time>
      </trkpt>
      <trkpt lat="45.61842" lon="5.68379">
        <ele>577</ele>
        <time>2017-04-23T12:03:49Z</time>
      </trkpt>
      <trkpt lat="45.61843" lon="5.68373">
        <ele>547</ele>
        <time>2017-04-23T12:03:49Z</time>
      </trkpt>
      <trkpt lat="45.61844" lon="5.68369">
        <ele>547</ele>
        <time>2017-04-23T12:03:49Z</time>
      </trkpt>
      <trkpt lat="45.61843" lon="5.68368">
        <ele>547</ele>
        <time>2017-04-23T12:04:13Z</time>
      </trkpt>
      <trkpt lat="45.61842" lon="5.68368">
        <ele>547</ele>
        <time>2017-04-23T12:04:13Z</time>
      </trkpt>
      <trkpt lat="45.61839" lon="5.68367">
        <ele>547</ele>
        <time>2017-04-23T12:04:13Z</time>
      </trkpt>
      <trkpt lat="45.61836" lon="5.68367">
        <ele>547</ele>
        <time>2017-04-23T12:04:13Z</time>
      </trkpt>
      <trkpt lat="45.61833" lon="5.68368">
        <ele>547</ele>
        <time>2017-04-23T12:04:13Z</time>
      </trkpt>
      <trkpt lat="45.61831" lon="5.68366">
        <ele>547</ele>
        <time>2017-04-23T12:04:37Z</time>
      </trkpt>
      <trkpt lat="45.61829" lon="5.68367">
        <ele>547</ele>
        <time>2017-04-23T12:04:37Z</time>
      </trkpt>
      <trkpt lat="45.61826" lon="5.68368">
        <ele>547</ele>
        <time>2017-04-23T12:04:37Z</time>
      </trkpt>
      <trkpt lat="45.61822" lon="5.68367">
        <ele>547</ele>
        <time>2017-04-23T12:04:37Z</time>
      </trkpt>
      <trkpt lat="45.61821" lon="5.68367">
        <ele>547</ele>
        <time>2017-04-23T12:04:37Z</time>
      </trkpt>
      <trkpt lat="45.61819" lon="5.68367">
        <ele>547</ele>
        <time>2017-04-23T12:04:53Z</time>
      </trkpt>
      <trkpt lat="45.61815" lon="5.68366">
        <ele>547</ele>
        <time>2017-04-23T12:04:53Z</time>
      </trkpt>
      <trkpt lat="45.61809" lon="5.68367">
        <ele>547</ele>
        <time>2017-04-23T12:04:53Z</time>
      </trkpt>
      <trkpt lat="45.61806" lon="5.68367">
        <ele>547</ele>
        <time>2017-04-23T12:04:53Z</time>
      </trkpt>
      <trkpt lat="45.61803" lon="5.68367">
        <ele>547</ele>
        <time>2017-04-23T12:05:09Z</time>
      </trkpt>
      <trkpt lat="45.61797" lon="5.68367">
        <ele>547</ele>
        <time>2017-04-23T12:05:09Z</time>
      </trkpt>
      <trkpt lat="45.61793" lon="5.68366">
        <ele>547</ele>
        <time>2017-04-23T12:05:09Z</time>
      </trkpt>
      <trkpt lat="45.6179" lon="5.68365">
        <ele>538</ele>
        <time>2017-04-23T12:05:09Z</time>
      </trkpt>
      <trkpt lat="45.61786" lon="5.68364">
        <ele>538</ele>
        <time>2017-04-23T12:05:25Z</time>
      </trkpt>
      <trkpt lat="45.61782" lon="5.68364">
        <ele>538</ele>
        <time>2017-04-23T12:05:25Z</time>
      </trkpt>
      <trkpt lat="45.61779" lon="5.68364">
        <ele>538</ele>
        <time>2017-04-23T12:05:25Z</time>
      </trkpt>
      <trkpt lat="45.61774" lon="5.68363">
        <ele>538</ele>
        <time>2017-04-23T12:05:25Z</time>
      </trkpt>
      <trkpt lat="45.6177" lon="5.68363">
        <ele>538</ele>
        <time>2017-04-23T12:05:41Z</time>
      </trkpt>
      <trkpt lat="45.61765" lon="5.68363">
        <ele>538</ele>
        <time>2017-04-23T12:05:41Z</time>
      </trkpt>
      <trkpt lat="45.61761" lon="5.68363">
        <ele>538</ele>
        <time>2017-04-23T12:05:41Z</time>
      </trkpt>
      <trkpt lat="45.61757" lon="5.68362">
        <ele>538</ele>
        <time>2017-04-23T12:05:41Z</time>
      </trkpt>
      <trkpt lat="45.61753" lon="5.68364">
        <ele>538</ele>
        <time>2017-04-23T12:05:57Z</time>
      </trkpt>
      <trkpt lat="45.61748" lon="5.68364">
        <ele>538</ele>
        <time>2017-04-23T12:05:57Z</time>
      </trkpt>
      <trkpt lat="45.61744" lon="5.68364">
        <ele>538</ele>
        <time>2017-04-23T12:05:57Z</time>
      </trkpt>
      <trkpt lat="45.61743" lon="5.68364">
        <ele>538</ele>
        <time>2017-04-23T12:05:57Z</time>
      </trkpt>
      <trkpt lat="45.61739" lon="5.68363">
        <ele>538</ele>
        <time>2017-04-23T12:06:13Z</time>
      </trkpt>
      <trkpt lat="45.61735" lon="5.68364">
        <ele>538</ele>
        <time>2017-04-23T12:06:13Z</time>
      </trkpt>
      <trkpt lat="45.6173" lon="5.68364">
        <ele>538</ele>
        <time>2017-04-23T12:06:13Z</time>
      </trkpt>
      <trkpt lat="45.61726" lon="5.68363">
        <ele>538</ele>
        <time>2017-04-23T12:06:13Z</time>
      </trkpt>
      <trkpt lat="45.61721" lon="5.68362">
        <ele>538</ele>
        <time>2017-04-23T12:06:29Z</time>
      </trkpt>
      <trkpt lat="45.61717" lon="5.6836">
        <ele>538</ele>
        <time>2017-04-23T12:06:29Z</time>
      </trkpt>
      <trkpt lat="45.61714" lon="5.68361">
        <ele>538</ele>
        <time>2017-04-23T12:06:29Z</time>
      </trkpt>
      <trkpt lat="45.61711" lon="5.68361">
        <ele>538</ele>
        <time>2017-04-23T12:06:29Z</time>
      </trkpt>
      <trkpt lat="45.61707" lon="5.68361">
        <ele>530</ele>
        <time>2017-04-23T12:06:45Z</time>
      </trkpt>
      <trkpt lat="45.61704" lon="5.68361">
        <ele>530</ele>
        <time>2017-04-23T12:06:45Z</time>
      </trkpt>
      <trkpt lat="45.617" lon="5.68361">
        <ele>530</ele>
        <time>2017-04-23T12:06:45Z</time>
      </trkpt>
      <trkpt lat="45.61696" lon="5.6836">
        <ele>530</ele>
        <time>2017-04-23T12:06:45Z</time>
      </trkpt>
      <trkpt lat="45.61692" lon="5.6836">
        <ele>530</ele>
        <time>2017-04-23T12:07:01Z</time>
      </trkpt>
      <trkpt lat="45.61688" lon="5.68358">
        <ele>530</ele>
        <time>2017-04-23T12:07:01Z</time>
      </trkpt>
      <trkpt lat="45.61684" lon="5.68359">
        <ele>530</ele>
        <time>2017-04-23T12:07:01Z</time>
      </trkpt>
      <trkpt lat="45.61681" lon="5.6836">
        <ele>530</ele>
        <time>2017-04-23T12:07:01Z</time>
      </trkpt>
      <trkpt lat="45.61678" lon="5.68361">
        <ele>530</ele>
        <time>2017-04-23T12:07:17Z</time>
      </trkpt>
      <trkpt lat="45.61676" lon="5.68361">
        <ele>530</ele>
        <time>2017-04-23T12:07:17Z</time>
      </trkpt>
      <trkpt lat="45.61671" lon="5.68362">
        <ele>530</ele>
        <time>2017-04-23T12:07:17Z</time>
      </trkpt>
      <trkpt lat="45.61666" lon="5.68364">
        <ele>530</ele>
        <time>2017-04-23T12:07:17Z</time>
      </trkpt>
      <trkpt lat="45.61659" lon="5.68364">
        <ele>530</ele>
        <time>2017-04-23T12:07:33Z</time>
      </trkpt>
      <trkpt lat="45.61652" lon="5.68366">
        <ele>530</ele>
        <time>2017-04-23T12:07:33Z</time>
      </trkpt>
      <trkpt lat="45.61647" lon="5.68368">
        <ele>530</ele>
        <time>2017-04-23T12:07:33Z</time>
      </trkpt>
      <trkpt lat="45.61641" lon="5.68371">
        <ele>530</ele>
        <time>2017-04-23T12:07:33Z</time>
      </trkpt>
      <trkpt lat="45.61636" lon="5.68373">
        <ele>530</ele>
        <time>2017-04-23T12:07:49Z</time>
      </trkpt>
      <trkpt lat="45.6163" lon="5.68376">
        <ele>545</ele>
        <time>2017-04-23T12:07:49Z</time>
      </trkpt>
      <trkpt lat="45.61625" lon="5.68378">
        <ele>545</ele>
        <time>2017-04-23T12:07:49Z</time>
      </trkpt>
      <trkpt lat="45.61619" lon="5.68378">
        <ele>534</ele>
        <time>2017-04-23T12:07:49Z</time>
      </trkpt>
      <trkpt lat="45.61614" lon="5.68379">
        <ele>534</ele>
        <time>2017-04-23T12:08:05Z</time>
      </trkpt>
      <trkpt lat="45.61609" lon="5.68381">
        <ele>534</ele>
        <time>2017-04-23T12:08:05Z</time>
      </trkpt>
      <trkpt lat="45.61604" lon="5.68383">
        <ele>534</ele>
        <time>2017-04-23T12:08:05Z</time>
      </trkpt>
      <trkpt lat="45.61599" lon="5.68387">
        <ele>534</ele>
        <time>2017-04-23T12:08:05Z</time>
      </trkpt>
      <trkpt lat="45.61594" lon="5.68391">
        <ele>534</ele>
        <time>2017-04-23T12:08:21Z</time>
      </trkpt>
      <trkpt lat="45.61589" lon="5.68395">
        <ele>534</ele>
        <time>2017-04-23T12:08:21Z</time>
      </trkpt>
      <trkpt lat="45.61584" lon="5.68398">
        <ele>534</ele>
        <time>2017-04-23T12:08:21Z</time>
      </trkpt>
      <trkpt lat="45.61579" lon="5.68403">
        <ele>534</ele>
        <time>2017-04-23T12:08:21Z</time>
      </trkpt>
      <trkpt lat="45.61575" lon="5.68406">
        <ele>534</ele>
        <time>2017-04-23T12:08:41Z</time>
      </trkpt>
      <trkpt lat="45.61572" lon="5.68407">
        <ele>534</ele>
        <time>2017-04-23T12:08:41Z</time>
      </trkpt>
      <trkpt lat="45.6157" lon="5.68409">
        <ele>534</ele>
        <time>2017-04-23T12:08:41Z</time>
      </trkpt>
      <trkpt lat="45.61568" lon="5.6841">
        <ele>534</ele>
        <time>2017-04-23T12:08:41Z</time>
      </trkpt>
      <trkpt lat="45.61565" lon="5.68408">
        <ele>534</ele>
        <time>2017-04-23T12:08:41Z</time>
      </trkpt>
      <trkpt lat="45.61563" lon="5.68407">
        <ele>534</ele>
        <time>2017-04-23T12:08:57Z</time>
      </trkpt>
      <trkpt lat="45.6156" lon="5.68405">
        <ele>534</ele>
        <time>2017-04-23T12:08:57Z</time>
      </trkpt>
      <trkpt lat="45.61557" lon="5.68403">
        <ele>534</ele>
        <time>2017-04-23T12:08:57Z</time>
      </trkpt>
      <trkpt lat="45.61554" lon="5.68401">
        <ele>534</ele>
        <time>2017-04-23T12:08:57Z</time>
      </trkpt>
      <trkpt lat="45.61553" lon="5.684">
        <ele>534</ele>
        <time>2017-04-23T12:09:17Z</time>
      </trkpt>
      <trkpt lat="45.61553" lon="5.68399">
        <ele>534</ele>
        <time>2017-04-23T12:09:17Z</time>
      </trkpt>
      <trkpt lat="45.61551" lon="5.68397">
        <ele>534</ele>
        <time>2017-04-23T12:09:17Z</time>
      </trkpt>
      <trkpt lat="45.61548" lon="5.68394">
        <ele>534</ele>
        <time>2017-04-23T12:09:17Z</time>
      </trkpt>
      <trkpt lat="45.61546" lon="5.68391">
        <ele>534</ele>
        <time>2017-04-23T12:09:17Z</time>
      </trkpt>
      <trkpt lat="45.61545" lon="5.68391">
        <ele>534</ele>
        <time>2017-04-23T12:09:37Z</time>
      </trkpt>
      <trkpt lat="45.61544" lon="5.6839">
        <ele>534</ele>
        <time>2017-04-23T12:09:37Z</time>
      </trkpt>
      <trkpt lat="45.61542" lon="5.68387">
        <ele>534</ele>
        <time>2017-04-23T12:09:37Z</time>
      </trkpt>
      <trkpt lat="45.61539" lon="5.68385">
        <ele>521</ele>
        <time>2017-04-23T12:09:37Z</time>
      </trkpt>
      <trkpt lat="45.61537" lon="5.68382">
        <ele>521</ele>
        <time>2017-04-23T12:09:37Z</time>
      </trkpt>
      <trkpt lat="45.61534" lon="5.6838">
        <ele>521</ele>
        <time>2017-04-23T12:09:53Z</time>
      </trkpt>
      <trkpt lat="45.61531" lon="5.68379">
        <ele>521</ele>
        <time>2017-04-23T12:09:53Z</time>
      </trkpt>
      <trkpt lat="45.61528" lon="5.68377">
        <ele>521</ele>
        <time>2017-04-23T12:09:53Z</time>
      </trkpt>
      <trkpt lat="45.61525" lon="5.68376">
        <ele>521</ele>
        <time>2017-04-23T12:09:53Z</time>
      </trkpt>
      <trkpt lat="45.6152" lon="5.68376">
        <ele>521</ele>
        <time>2017-04-23T12:10:09Z</time>
      </trkpt>
      <trkpt lat="45.61517" lon="5.68375">
        <ele>501</ele>
        <time>2017-04-23T12:10:09Z</time>
      </trkpt>
      <trkpt lat="45.61513" lon="5.68373">
        <ele>501</ele>
        <time>2017-04-23T12:10:09Z</time>
      </trkpt>
      <trkpt lat="45.61509" lon="5.68372">
        <ele>501</ele>
        <time>2017-04-23T12:10:09Z</time>
      </trkpt>
      <trkpt lat="45.61505" lon="5.68371">
        <ele>501</ele>
        <time>2017-04-23T12:10:25Z</time>
      </trkpt>
      <trkpt lat="45.61501" lon="5.6837">
        <ele>501</ele>
        <time>2017-04-23T12:10:25Z</time>
      </trkpt>
      <trkpt lat="45.61497" lon="5.68368">
        <ele>501</ele>
        <time>2017-04-23T12:10:25Z</time>
      </trkpt>
      <trkpt lat="45.61494" lon="5.68365">
        <ele>501</ele>
        <time>2017-04-23T12:10:25Z</time>
      </trkpt>
      <trkpt lat="45.6149" lon="5.68364">
        <ele>501</ele>
        <time>2017-04-23T12:10:41Z</time>
      </trkpt>
      <trkpt lat="45.61485" lon="5.68362">
        <ele>501</ele>
        <time>2017-04-23T12:10:41Z</time>
      </trkpt>
      <trkpt lat="45.61479" lon="5.6836">
        <ele>501</ele>
        <time>2017-04-23T12:10:41Z</time>
      </trkpt>
      <trkpt lat="45.61474" lon="5.68359">
        <ele>501</ele>
        <time>2017-04-23T12:10:41Z</time>
      </trkpt>
      <trkpt lat="45.61473" lon="5.68359">
        <ele>501</ele>
        <time>2017-04-23T12:10:57Z</time>
      </trkpt>
      <trkpt lat="45.61469" lon="5.68361">
        <ele>501</ele>
        <time>2017-04-23T12:10:57Z</time>
      </trkpt>
      <trkpt lat="45.61465" lon="5.68363">
        <ele>501</ele>
        <time>2017-04-23T12:10:57Z</time>
      </trkpt>
      <trkpt lat="45.61461" lon="5.68366">
        <ele>501</ele>
        <time>2017-04-23T12:10:57Z</time>
      </trkpt>
      <trkpt lat="45.61458" lon="5.68369">
        <ele>488</ele>
        <time>2017-04-23T12:11:13Z</time>
      </trkpt>
      <trkpt lat="45.61454" lon="5.68372">
        <ele>488</ele>
        <time>2017-04-23T12:11:13Z</time>
      </trkpt>
      <trkpt lat="45.6145" lon="5.68375">
        <ele>488</ele>
        <time>2017-04-23T12:11:13Z</time>
      </trkpt>
      <trkpt lat="45.61445" lon="5.68378">
        <ele>505</ele>
        <time>2017-04-23T12:11:13Z</time>
      </trkpt>
      <trkpt lat="45.61441" lon="5.68381">
        <ele>505</ele>
        <time>2017-04-23T12:11:29Z</time>
      </trkpt>
      <trkpt lat="45.61439" lon="5.68382">
        <ele>505</ele>
        <time>2017-04-23T12:11:29Z</time>
      </trkpt>
      <trkpt lat="45.61436" lon="5.68384">
        <ele>505</ele>
        <time>2017-04-23T12:11:29Z</time>
      </trkpt>
      <trkpt lat="45.61432" lon="5.68388">
        <ele>505</ele>
        <time>2017-04-23T12:11:29Z</time>
      </trkpt>
      <trkpt lat="45.61428" lon="5.68392">
        <ele>505</ele>
        <time>2017-04-23T12:11:45Z</time>
      </trkpt>
      <trkpt lat="45.61424" lon="5.68395">
        <ele>505</ele>
        <time>2017-04-23T12:11:45Z</time>
      </trkpt>
      <trkpt lat="45.61419" lon="5.68397">
        <ele>505</ele>
        <time>2017-04-23T12:11:45Z</time>
      </trkpt>
      <trkpt lat="45.61415" lon="5.68398">
        <ele>505</ele>
        <time>2017-04-23T12:11:45Z</time>
      </trkpt>
      <trkpt lat="45.61411" lon="5.68397">
        <ele>505</ele>
        <time>2017-04-23T12:12:05Z</time>
      </trkpt>
      <trkpt lat="45.61408" lon="5.68397">
        <ele>505</ele>
        <time>2017-04-23T12:12:05Z</time>
      </trkpt>
      <trkpt lat="45.61407" lon="5.68398">
        <ele>505</ele>
        <time>2017-04-23T12:12:05Z</time>
      </trkpt>
      <trkpt lat="45.61403" lon="5.68399">
        <ele>505</ele>
        <time>2017-04-23T12:12:05Z</time>
      </trkpt>
      <trkpt lat="45.61398" lon="5.684">
        <ele>505</ele>
        <time>2017-04-23T12:12:05Z</time>
      </trkpt>
      <trkpt lat="45.61393" lon="5.68397">
        <ele>505</ele>
        <time>2017-04-23T12:12:21Z</time>
      </trkpt>
      <trkpt lat="45.61389" lon="5.68396">
        <ele>505</ele>
        <time>2017-04-23T12:12:21Z</time>
      </trkpt>
      <trkpt lat="45.61384" lon="5.68395">
        <ele>505</ele>
        <time>2017-04-23T12:12:21Z</time>
      </trkpt>
      <trkpt lat="45.6138" lon="5.68393">
        <ele>505</ele>
        <time>2017-04-23T12:12:21Z</time>
      </trkpt>
      <trkpt lat="45.61377" lon="5.68391">
        <ele>505</ele>
        <time>2017-04-23T12:12:37Z</time>
      </trkpt>
      <trkpt lat="45.61373" lon="5.68389">
        <ele>486</ele>
        <time>2017-04-23T12:12:37Z</time>
      </trkpt>
      <trkpt lat="45.61368" lon="5.68386">
        <ele>486</ele>
        <time>2017-04-23T12:12:37Z</time>
      </trkpt>
      <trkpt lat="45.61363" lon="5.68382">
        <ele>486</ele>
        <time>2017-04-23T12:12:37Z</time>
      </trkpt>
      <trkpt lat="45.61358" lon="5.68379">
        <ele>486</ele>
        <time>2017-04-23T12:12:53Z</time>
      </trkpt>
      <trkpt lat="45.61352" lon="5.68374">
        <ele>471</ele>
        <time>2017-04-23T12:12:53Z</time>
      </trkpt>
      <trkpt lat="45.61347" lon="5.68369">
        <ele>471</ele>
        <time>2017-04-23T12:12:53Z</time>
      </trkpt>
      <trkpt lat="45.61342" lon="5.68365">
        <ele>471</ele>
        <time>2017-04-23T12:12:53Z</time>
      </trkpt>
      <trkpt lat="45.61338" lon="5.68361">
        <ele>471</ele>
        <time>2017-04-23T12:13:09Z</time>
      </trkpt>
      <trkpt lat="45.61333" lon="5.68357">
        <ele>471</ele>
        <time>2017-04-23T12:13:09Z</time>
      </trkpt>
      <trkpt lat="45.61328" lon="5.68353">
        <ele>471</ele>
        <time>2017-04-23T12:13:09Z</time>
      </trkpt>
      <trkpt lat="45.61322" lon="5.68349">
        <ele>471</ele>
        <time>2017-04-23T12:13:09Z</time>
      </trkpt>
      <trkpt lat="45.61317" lon="5.68344">
        <ele>471</ele>
        <time>2017-04-23T12:13:25Z</time>
      </trkpt>
      <trkpt lat="45.61312" lon="5.68339">
        <ele>471</ele>
        <time>2017-04-23T12:13:25Z</time>
      </trkpt>
      <trkpt lat="45.61307" lon="5.68335">
        <ele>471</ele>
        <time>2017-04-23T12:13:25Z</time>
      </trkpt>
      <trkpt lat="45.61301" lon="5.68332">
        <ele>471</ele>
        <time>2017-04-23T12:13:25Z</time>
      </trkpt>
      <trkpt lat="45.61295" lon="5.68331">
        <ele>471</ele>
        <time>2017-04-23T12:13:41Z</time>
      </trkpt>
      <trkpt lat="45.61289" lon="5.68332">
        <ele>459</ele>
        <time>2017-04-23T12:13:41Z</time>
      </trkpt>
      <trkpt lat="45.61284" lon="5.68334">
        <ele>459</ele>
        <time>2017-04-23T12:13:41Z</time>
      </trkpt>
      <trkpt lat="45.61279" lon="5.68334">
        <ele>459</ele>
        <time>2017-04-23T12:13:41Z</time>
      </trkpt>
      <trkpt lat="45.61274" lon="5.68331">
        <ele>459</ele>
        <time>2017-04-23T12:13:57Z</time>
      </trkpt>
      <trkpt lat="45.61271" lon="5.68324">
        <ele>459</ele>
        <time>2017-04-23T12:13:57Z</time>
      </trkpt>
      <trkpt lat="45.61272" lon="5.68316">
        <ele>459</ele>
        <time>2017-04-23T12:13:57Z</time>
      </trkpt>
      <trkpt lat="45.61273" lon="5.68309">
        <ele>459</ele>
        <time>2017-04-23T12:13:57Z</time>
      </trkpt>
      <trkpt lat="45.61275" lon="5.68301">
        <ele>459</ele>
        <time>2017-04-23T12:14:13Z</time>
      </trkpt>
      <trkpt lat="45.61276" lon="5.68293">
        <ele>459</ele>
        <time>2017-04-23T12:14:13Z</time>
      </trkpt>
      <trkpt lat="45.61277" lon="5.68286">
        <ele>451</ele>
        <time>2017-04-23T12:14:13Z</time>
      </trkpt>
      <trkpt lat="45.61279" lon="5.68279">
        <ele>451</ele>
        <time>2017-04-23T12:14:13Z</time>
      </trkpt>
      <trkpt lat="45.6128" lon="5.68275">
        <ele>451</ele>
        <time>2017-04-23T12:14:29Z</time>
      </trkpt>
      <trkpt lat="45.6128" lon="5.68273">
        <ele>451</ele>
        <time>2017-04-23T12:14:29Z</time>
      </trkpt>
      <trkpt lat="45.61282" lon="5.68265">
        <ele>451</ele>
        <time>2017-04-23T12:14:29Z</time>
      </trkpt>
      <trkpt lat="45.61285" lon="5.68257">
        <ele>451</ele>
        <time>2017-04-23T12:14:29Z</time>
      </trkpt>
      <trkpt lat="45.61288" lon="5.6825">
        <ele>451</ele>
        <time>2017-04-23T12:14:45Z</time>
      </trkpt>
      <trkpt lat="45.61291" lon="5.68243">
        <ele>451</ele>
        <time>2017-04-23T12:14:45Z</time>
      </trkpt>
      <trkpt lat="45.61293" lon="5.68236">
        <ele>457</ele>
        <time>2017-04-23T12:14:45Z</time>
      </trkpt>
      <trkpt lat="45.61296" lon="5.68229">
        <ele>457</ele>
        <time>2017-04-23T12:14:45Z</time>
      </trkpt>
      <trkpt lat="45.613" lon="5.68222">
        <ele>457</ele>
        <time>2017-04-23T12:15:01Z</time>
      </trkpt>
      <trkpt lat="45.61304" lon="5.68217">
        <ele>457</ele>
        <time>2017-04-23T12:15:01Z</time>
      </trkpt>
      <trkpt lat="45.61309" lon="5.68213">
        <ele>457</ele>
        <time>2017-04-23T12:15:01Z</time>
      </trkpt>
      <trkpt lat="45.61314" lon="5.6821">
        <ele>457</ele>
        <time>2017-04-23T12:15:01Z</time>
      </trkpt>
      <trkpt lat="45.61318" lon="5.68206">
        <ele>446</ele>
        <time>2017-04-23T12:15:17Z</time>
      </trkpt>
      <trkpt lat="45.61323" lon="5.68203">
        <ele>446</ele>
        <time>2017-04-23T12:15:17Z</time>
      </trkpt>
      <trkpt lat="45.61327" lon="5.682">
        <ele>446</ele>
        <time>2017-04-23T12:15:17Z</time>
      </trkpt>
      <trkpt lat="45.6133" lon="5.68196">
        <ele>446</ele>
        <time>2017-04-23T12:15:17Z</time>
      </trkpt>
      <trkpt lat="45.61336" lon="5.68191">
        <ele>446</ele>
        <time>2017-04-23T12:15:33Z</time>
      </trkpt>
      <trkpt lat="45.61342" lon="5.68186">
        <ele>446</ele>
        <time>2017-04-23T12:15:33Z</time>
      </trkpt>
      <trkpt lat="45.61348" lon="5.68183">
        <ele>446</ele>
        <time>2017-04-23T12:15:33Z</time>
      </trkpt>
      <trkpt lat="45.61354" lon="5.68182">
        <ele>446</ele>
        <time>2017-04-23T12:15:33Z</time>
      </trkpt>
      <trkpt lat="45.6136" lon="5.68181">
        <ele>446</ele>
        <time>2017-04-23T12:15:53Z</time>
      </trkpt>
      <trkpt lat="45.61362" lon="5.68182">
        <ele>446</ele>
        <time>2017-04-23T12:15:53Z</time>
      </trkpt>
      <trkpt lat="45.61362" lon="5.68182">
        <ele>446</ele>
        <time>2017-04-23T12:15:53Z</time>
      </trkpt>
      <trkpt lat="45.61366" lon="5.68179">
        <ele>446</ele>
        <time>2017-04-23T12:15:53Z</time>
      </trkpt>
      <trkpt lat="45.61371" lon="5.68175">
        <ele>446</ele>
        <time>2017-04-23T12:15:53Z</time>
      </trkpt>
      <trkpt lat="45.61377" lon="5.6817">
        <ele>457</ele>
        <time>2017-04-23T12:16:09Z</time>
      </trkpt>
      <trkpt lat="45.61382" lon="5.68166">
        <ele>457</ele>
        <time>2017-04-23T12:16:09Z</time>
      </trkpt>
      <trkpt lat="45.61387" lon="5.68163">
        <ele>457</ele>
        <time>2017-04-23T12:16:09Z</time>
      </trkpt>
      <trkpt lat="45.61392" lon="5.68158">
        <ele>457</ele>
        <time>2017-04-23T12:16:09Z</time>
      </trkpt>
      <trkpt lat="45.61396" lon="5.68153">
        <ele>457</ele>
        <time>2017-04-23T12:16:29Z</time>
      </trkpt>
      <trkpt lat="45.61397" lon="5.68153">
        <ele>457</ele>
        <time>2017-04-23T12:16:29Z</time>
      </trkpt>
      <trkpt lat="45.61398" lon="5.68152">
        <ele>457</ele>
        <time>2017-04-23T12:16:29Z</time>
      </trkpt>
      <trkpt lat="45.61401" lon="5.68146">
        <ele>457</ele>
        <time>2017-04-23T12:16:29Z</time>
      </trkpt>
      <trkpt lat="45.61405" lon="5.6814">
        <ele>457</ele>
        <time>2017-04-23T12:16:29Z</time>
      </trkpt>
      <trkpt lat="45.61409" lon="5.68133">
        <ele>457</ele>
        <time>2017-04-23T12:16:45Z</time>
      </trkpt>
      <trkpt lat="45.61413" lon="5.68128">
        <ele>457</ele>
        <time>2017-04-23T12:16:45Z</time>
      </trkpt>
      <trkpt lat="45.61416" lon="5.68121">
        <ele>448</ele>
        <time>2017-04-23T12:16:45Z</time>
      </trkpt>
      <trkpt lat="45.6142" lon="5.68115">
        <ele>448</ele>
        <time>2017-04-23T12:16:45Z</time>
      </trkpt>
      <trkpt lat="45.61424" lon="5.68111">
        <ele>448</ele>
        <time>2017-04-23T12:17:01Z</time>
      </trkpt>
      <trkpt lat="45.61427" lon="5.68104">
        <ele>448</ele>
        <time>2017-04-23T12:17:01Z</time>
      </trkpt>
      <trkpt lat="45.6143" lon="5.68097">
        <ele>448</ele>
        <time>2017-04-23T12:17:01Z</time>
      </trkpt>
      <trkpt lat="45.61432" lon="5.68096">
        <ele>448</ele>
        <time>2017-04-23T12:17:01Z</time>
      </trkpt>
      <trkpt lat="45.61435" lon="5.68092">
        <ele>448</ele>
        <time>2017-04-23T12:17:17Z</time>
      </trkpt>
      <trkpt lat="45.61438" lon="5.68086">
        <ele>448</ele>
        <time>2017-04-23T12:17:17Z</time>
      </trkpt>
      <trkpt lat="45.61442" lon="5.68081">
        <ele>448</ele>
        <time>2017-04-23T12:17:17Z</time>
      </trkpt>
      <trkpt lat="45.61446" lon="5.68076">
        <ele>448</ele>
        <time>2017-04-23T12:17:17Z</time>
      </trkpt>
      <trkpt lat="45.61451" lon="5.68071">
        <ele>448</ele>
        <time>2017-04-23T12:17:33Z</time>
      </trkpt>
      <trkpt lat="45.61455" lon="5.68067">
        <ele>448</ele>
        <time>2017-04-23T12:17:33Z</time>
      </trkpt>
      <trkpt lat="45.6146" lon="5.68064">
        <ele>455</ele>
        <time>2017-04-23T12:17:33Z</time>
      </trkpt>
      <trkpt lat="45.61466" lon="5.68061">
        <ele>455</ele>
        <time>2017-04-23T12:17:33Z</time>
      </trkpt>
      <trkpt lat="45.61471" lon="5.68059">
        <ele>455</ele>
        <time>2017-04-23T12:17:49Z</time>
      </trkpt>
      <trkpt lat="45.61476" lon="5.68056">
        <ele>455</ele>
        <time>2017-04-23T12:17:49Z</time>
      </trkpt>
      <trkpt lat="45.61482" lon="5.68051">
        <ele>455</ele>
        <time>2017-04-23T12:17:49Z</time>
      </trkpt>
      <trkpt lat="45.61486" lon="5.68046">
        <ele>455</ele>
        <time>2017-04-23T12:17:49Z</time>
      </trkpt>
      <trkpt lat="45.61492" lon="5.68043">
        <ele>455</ele>
        <time>2017-04-23T12:18:05Z</time>
      </trkpt>
      <trkpt lat="45.61497" lon="5.68039">
        <ele>447</ele>
        <time>2017-04-23T12:18:05Z</time>
      </trkpt>
      <trkpt lat="45.61502" lon="5.68035">
        <ele>447</ele>
        <time>2017-04-23T12:18:05Z</time>
      </trkpt>
      <trkpt lat="45.61507" lon="5.68032">
        <ele>447</ele>
        <time>2017-04-23T12:18:05Z</time>
      </trkpt>
      <trkpt lat="45.61512" lon="5.68028">
        <ele>447</ele>
        <time>2017-04-23T12:18:25Z</time>
      </trkpt>
      <trkpt lat="45.61516" lon="5.68025">
        <ele>447</ele>
        <time>2017-04-23T12:18:25Z</time>
      </trkpt>
      <trkpt lat="45.61517" lon="5.68026">
        <ele>447</ele>
        <time>2017-04-23T12:18:25Z</time>
      </trkpt>
      <trkpt lat="45.61519" lon="5.68022">
        <ele>447</ele>
        <time>2017-04-23T12:18:25Z</time>
      </trkpt>
      <trkpt lat="45.61524" lon="5.68017">
        <ele>447</ele>
        <time>2017-04-23T12:18:25Z</time>
      </trkpt>
      <trkpt lat="45.61529" lon="5.68012">
        <ele>447</ele>
        <time>2017-04-23T12:18:41Z</time>
      </trkpt>
      <trkpt lat="45.61533" lon="5.68007">
        <ele>447</ele>
        <time>2017-04-23T12:18:41Z</time>
      </trkpt>
      <trkpt lat="45.61537" lon="5.68001">
        <ele>447</ele>
        <time>2017-04-23T12:18:41Z</time>
      </trkpt>
      <trkpt lat="45.61541" lon="5.67995">
        <ele>447</ele>
        <time>2017-04-23T12:18:41Z</time>
      </trkpt>
      <trkpt lat="45.61545" lon="5.67989">
        <ele>449</ele>
        <time>2017-04-23T12:18:57Z</time>
      </trkpt>
      <trkpt lat="45.61547" lon="5.67983">
        <ele>449</ele>
        <time>2017-04-23T12:18:57Z</time>
      </trkpt>
      <trkpt lat="45.6155" lon="5.67977">
        <ele>449</ele>
        <time>2017-04-23T12:18:57Z</time>
      </trkpt>
      <trkpt lat="45.61553" lon="5.67971">
        <ele>449</ele>
        <time>2017-04-23T12:18:57Z</time>
      </trkpt>
      <trkpt lat="45.61556" lon="5.67965">
        <ele>449</ele>
        <time>2017-04-23T12:19:13Z</time>
      </trkpt>
      <trkpt lat="45.61559" lon="5.67958">
        <ele>437</ele>
        <time>2017-04-23T12:19:13Z</time>
      </trkpt>
      <trkpt lat="45.61562" lon="5.67951">
        <ele>437</ele>
        <time>2017-04-23T12:19:13Z</time>
      </trkpt>
      <trkpt lat="45.61565" lon="5.67944">
        <ele>437</ele>
        <time>2017-04-23T12:19:13Z</time>
      </trkpt>
      <trkpt lat="45.61568" lon="5.67938">
        <ele>437</ele>
        <time>2017-04-23T12:19:29Z</time>
      </trkpt>
      <trkpt lat="45.6157" lon="5.67931">
        <ele>437</ele>
        <time>2017-04-23T12:19:29Z</time>
      </trkpt>
      <trkpt lat="45.61569" lon="5.67924">
        <ele>437</ele>
        <time>2017-04-23T12:19:29Z</time>
      </trkpt>
      <trkpt lat="45.61568" lon="5.67916">
        <ele>437</ele>
        <time>2017-04-23T12:19:29Z</time>
      </trkpt>
      <trkpt lat="45.61565" lon="5.67909">
        <ele>437</ele>
        <time>2017-04-23T12:19:45Z</time>
      </trkpt>
      <trkpt lat="45.61562" lon="5.67903">
        <ele>437</ele>
        <time>2017-04-23T12:19:45Z</time>
      </trkpt>
      <trkpt lat="45.61558" lon="5.67897">
        <ele>437</ele>
        <time>2017-04-23T12:19:45Z</time>
      </trkpt>
      <trkpt lat="45.61554" lon="5.67892">
        <ele>437</ele>
        <time>2017-04-23T12:19:45Z</time>
      </trkpt>
      <trkpt lat="45.6155" lon="5.67887">
        <ele>437</ele>
        <time>2017-04-23T12:20:01Z</time>
      </trkpt>
      <trkpt lat="45.61546" lon="5.67883">
        <ele>437</ele>
        <time>2017-04-23T12:20:01Z</time>
      </trkpt>
      <trkpt lat="45.61542" lon="5.67881">
        <ele>437</ele>
        <time>2017-04-23T12:20:01Z</time>
      </trkpt>
      <trkpt lat="45.61537" lon="5.67879">
        <ele>438</ele>
        <time>2017-04-23T12:20:01Z</time>
      </trkpt>
      <trkpt lat="45.61532" lon="5.67878">
        <ele>438</ele>
        <time>2017-04-23T12:20:17Z</time>
      </trkpt>
      <trkpt lat="45.61527" lon="5.67877">
        <ele>438</ele>
        <time>2017-04-23T12:20:17Z</time>
      </trkpt>
      <trkpt lat="45.61522" lon="5.67876">
        <ele>438</ele>
        <time>2017-04-23T12:20:17Z</time>
      </trkpt>
      <trkpt lat="45.61517" lon="5.67875">
        <ele>438</ele>
        <time>2017-04-23T12:20:17Z</time>
      </trkpt>
      <trkpt lat="45.61513" lon="5.67873">
        <ele>430</ele>
        <time>2017-04-23T12:20:33Z</time>
      </trkpt>
      <trkpt lat="45.61508" lon="5.67871">
        <ele>430</ele>
        <time>2017-04-23T12:20:33Z</time>
      </trkpt>
      <trkpt lat="45.61503" lon="5.67868">
        <ele>430</ele>
        <time>2017-04-23T12:20:33Z</time>
      </trkpt>
      <trkpt lat="45.61498" lon="5.67864">
        <ele>430</ele>
        <time>2017-04-23T12:20:33Z</time>
      </trkpt>
      <trkpt lat="45.61494" lon="5.67858">
        <ele>430</ele>
        <time>2017-04-23T12:20:49Z</time>
      </trkpt>
      <trkpt lat="45.61492" lon="5.67851">
        <ele>430</ele>
        <time>2017-04-23T12:20:49Z</time>
      </trkpt>
      <trkpt lat="45.61493" lon="5.67842">
        <ele>430</ele>
        <time>2017-04-23T12:20:49Z</time>
      </trkpt>
      <trkpt lat="45.61494" lon="5.67834">
        <ele>430</ele>
        <time>2017-04-23T12:20:49Z</time>
      </trkpt>
      <trkpt lat="45.61496" lon="5.67826">
        <ele>430</ele>
        <time>2017-04-23T12:21:05Z</time>
      </trkpt>
      <trkpt lat="45.61499" lon="5.67819">
        <ele>430</ele>
        <time>2017-04-23T12:21:05Z</time>
      </trkpt>
      <trkpt lat="45.61502" lon="5.67813">
        <ele>430</ele>
        <time>2017-04-23T12:21:05Z</time>
      </trkpt>
      <trkpt lat="45.61504" lon="5.67807">
        <ele>430</ele>
        <time>2017-04-23T12:21:05Z</time>
      </trkpt>
      <trkpt lat="45.61506" lon="5.67802">
        <ele>430</ele>
        <time>2017-04-23T12:21:21Z</time>
      </trkpt>
      <trkpt lat="45.61508" lon="5.67797">
        <ele>430</ele>
        <time>2017-04-23T12:21:21Z</time>
      </trkpt>
      <trkpt lat="45.6151" lon="5.67791">
        <ele>422</ele>
        <time>2017-04-23T12:21:21Z</time>
      </trkpt>
      <trkpt lat="45.61512" lon="5.67784">
        <ele>422</ele>
        <time>2017-04-23T12:21:21Z</time>
      </trkpt>
      <trkpt lat="45.61515" lon="5.67777">
        <ele>422</ele>
        <time>2017-04-23T12:21:37Z</time>
      </trkpt>
      <trkpt lat="45.61518" lon="5.67769">
        <ele>422</ele>
        <time>2017-04-23T12:21:37Z</time>
      </trkpt>
      <trkpt lat="45.61522" lon="5.67763">
        <ele>422</ele>
        <time>2017-04-23T12:21:37Z</time>
      </trkpt>
      <trkpt lat="45.61526" lon="5.67758">
        <ele>422</ele>
        <time>2017-04-23T12:21:37Z</time>
      </trkpt>
      <trkpt lat="45.61531" lon="5.67756">
        <ele>422</ele>
        <time>2017-04-23T12:21:53Z</time>
      </trkpt>
      <trkpt lat="45.61537" lon="5.67754">
        <ele>422</ele>
        <time>2017-04-23T12:21:53Z</time>
      </trkpt>
      <trkpt lat="45.61542" lon="5.67752">
        <ele>416</ele>
        <time>2017-04-23T12:21:53Z</time>
      </trkpt>
      <trkpt lat="45.61547" lon="5.67749">
        <ele>416</ele>
        <time>2017-04-23T12:21:53Z</time>
      </trkpt>
      <trkpt lat="45.61552" lon="5.67748">
        <ele>416</ele>
        <time>2017-04-23T12:22:09Z</time>
      </trkpt>
      <trkpt lat="45.61557" lon="5.67746">
        <ele>416</ele>
        <time>2017-04-23T12:22:09Z</time>
      </trkpt>
      <trkpt lat="45.61562" lon="5.67743">
        <ele>416</ele>
        <time>2017-04-23T12:22:09Z</time>
      </trkpt>
      <trkpt lat="45.61565" lon="5.67739">
        <ele>416</ele>
        <time>2017-04-23T12:22:09Z</time>
      </trkpt>
      <trkpt lat="45.61565" lon="5.67739">
        <ele>416</ele>
        <time>2017-04-23T12:22:25Z</time>
      </trkpt>
      <trkpt lat="45.61567" lon="5.67734">
        <ele>416</ele>
        <time>2017-04-23T12:22:25Z</time>
      </trkpt>
      <trkpt lat="45.6157" lon="5.67727">
        <ele>416</ele>
        <time>2017-04-23T12:22:25Z</time>
      </trkpt>
      <trkpt lat="45.61571" lon="5.6772">
        <ele>416</ele>
        <time>2017-04-23T12:22:25Z</time>
      </trkpt>
      <trkpt lat="45.61571" lon="5.67713">
        <ele>416</ele>
        <time>2017-04-23T12:22:41Z</time>
      </trkpt>
      <trkpt lat="45.6157" lon="5.67706">
        <ele>406</ele>
        <time>2017-04-23T12:22:41Z</time>
      </trkpt>
      <trkpt lat="45.61569" lon="5.67702">
        <ele>406</ele>
        <time>2017-04-23T12:22:41Z</time>
      </trkpt>
      <trkpt lat="45.61569" lon="5.67698">
        <ele>406</ele>
        <time>2017-04-23T12:22:41Z</time>
      </trkpt>
      <trkpt lat="45.61567" lon="5.67693">
        <ele>406</ele>
        <time>2017-04-23T12:22:57Z</time>
      </trkpt>
      <trkpt lat="45.61566" lon="5.67686">
        <ele>406</ele>
        <time>2017-04-23T12:22:57Z</time>
      </trkpt>
      <trkpt lat="45.61565" lon="5.67678">
        <ele>406</ele>
        <time>2017-04-23T12:22:57Z</time>
      </trkpt>
      <trkpt lat="45.61563" lon="5.6767">
        <ele>406</ele>
        <time>2017-04-23T12:22:57Z</time>
      </trkpt>
      <trkpt lat="45.61561" lon="5.67664">
        <ele>406</ele>
        <time>2017-04-23T12:23:13Z</time>
      </trkpt>
      <trkpt lat="45.6156" lon="5.67657">
        <ele>406</ele>
        <time>2017-04-23T12:23:13Z</time>
      </trkpt>
      <trkpt lat="45.61559" lon="5.67649">
        <ele>406</ele>
        <time>2017-04-23T12:23:13Z</time>
      </trkpt>
      <trkpt lat="45.61558" lon="5.67642">
        <ele>406</ele>
        <time>2017-04-23T12:23:13Z</time>
      </trkpt>
      <trkpt lat="45.61557" lon="5.67634">
        <ele>406</ele>
        <time>2017-04-23T12:23:29Z</time>
      </trkpt>
      <trkpt lat="45.61556" lon="5.67627">
        <ele>406</ele>
        <time>2017-04-23T12:23:29Z</time>
      </trkpt>
      <trkpt lat="45.61554" lon="5.67619">
        <ele>395</ele>
        <time>2017-04-23T12:23:29Z</time>
      </trkpt>
      <trkpt lat="45.61553" lon="5.67612">
        <ele>395</ele>
        <time>2017-04-23T12:23:29Z</time>
      </trkpt>
      <trkpt lat="45.61554" lon="5.67614">
        <ele>395</ele>
        <time>2017-04-23T12:23:53Z</time>
      </trkpt>
      <trkpt lat="45.61554" lon="5.67614">
        <ele>395</ele>
        <time>2017-04-23T12:23:53Z</time>
      </trkpt>
      <trkpt lat="45.61554" lon="5.67609">
        <ele>395</ele>
        <time>2017-04-23T12:23:53Z</time>
      </trkpt>
      <trkpt lat="45.61551" lon="5.67602">
        <ele>395</ele>
        <time>2017-04-23T12:23:53Z</time>
      </trkpt>
      <trkpt lat="45.61547" lon="5.67595">
        <ele>395</ele>
        <time>2017-04-23T12:23:53Z</time>
      </trkpt>
      <trkpt lat="45.61543" lon="5.67589">
        <ele>395</ele>
        <time>2017-04-23T12:24:09Z</time>
      </trkpt>
      <trkpt lat="45.61544" lon="5.67581">
        <ele>395</ele>
        <time>2017-04-23T12:24:09Z</time>
      </trkpt>
      <trkpt lat="45.61549" lon="5.67577">
        <ele>395</ele>
        <time>2017-04-23T12:24:09Z</time>
      </trkpt>
      <trkpt lat="45.61554" lon="5.67574">
        <ele>395</ele>
        <time>2017-04-23T12:24:09Z</time>
      </trkpt>
      <trkpt lat="45.61559" lon="5.67572">
        <ele>395</ele>
        <time>2017-04-23T12:24:25Z</time>
      </trkpt>
      <trkpt lat="45.61564" lon="5.67569">
        <ele>395</ele>
        <time>2017-04-23T12:24:25Z</time>
      </trkpt>
      <trkpt lat="45.61568" lon="5.67565">
        <ele>395</ele>
        <time>2017-04-23T12:24:25Z</time>
      </trkpt>
      <trkpt lat="45.61571" lon="5.67563">
        <ele>395</ele>
        <time>2017-04-23T12:24:25Z</time>
      </trkpt>
      <trkpt lat="45.6157" lon="5.67562">
        <ele>395</ele>
        <time>2017-04-23T12:24:41Z</time>
      </trkpt>
      <trkpt lat="45.61573" lon="5.6756">
        <ele>395</ele>
        <time>2017-04-23T12:24:41Z</time>
      </trkpt>
      <trkpt lat="45.61576" lon="5.67558">
        <ele>395</ele>
        <time>2017-04-23T12:24:41Z</time>
      </trkpt>
      <trkpt lat="45.61579" lon="5.67557">
        <ele>395</ele>
        <time>2017-04-23T12:24:41Z</time>
      </trkpt>
      <trkpt lat="45.61583" lon="5.67556">
        <ele>395</ele>
        <time>2017-04-23T12:24:57Z</time>
      </trkpt>
      <trkpt lat="45.61585" lon="5.67553">
        <ele>395</ele>
        <time>2017-04-23T12:24:57Z</time>
      </trkpt>
      <trkpt lat="45.61587" lon="5.67547">
        <ele>395</ele>
        <time>2017-04-23T12:24:57Z</time>
      </trkpt>
      <trkpt lat="45.6159" lon="5.67541">
        <ele>383</ele>
        <time>2017-04-23T12:24:57Z</time>
      </trkpt>
      <trkpt lat="45.61593" lon="5.67537">
        <ele>383</ele>
        <time>2017-04-23T12:25:13Z</time>
      </trkpt>
      <trkpt lat="45.61595" lon="5.67532">
        <ele>383</ele>
        <time>2017-04-23T12:25:13Z</time>
      </trkpt>
      <trkpt lat="45.61596" lon="5.67528">
        <ele>383</ele>
        <time>2017-04-23T12:25:13Z</time>
      </trkpt>
      <trkpt lat="45.61598" lon="5.67525">
        <ele>383</ele>
        <time>2017-04-23T12:25:13Z</time>
      </trkpt>
      <trkpt lat="45.61599" lon="5.6752">
        <ele>383</ele>
        <time>2017-04-23T12:25:29Z</time>
      </trkpt>
      <trkpt lat="45.61601" lon="5.67515">
        <ele>383</ele>
        <time>2017-04-23T12:25:29Z</time>
      </trkpt>
      <trkpt lat="45.61603" lon="5.67508">
        <ele>383</ele>
        <time>2017-04-23T12:25:29Z</time>
      </trkpt>
      <trkpt lat="45.61603" lon="5.67502">
        <ele>383</ele>
        <time>2017-04-23T12:25:29Z</time>
      </trkpt>
      <trkpt lat="45.61604" lon="5.67498">
        <ele>383</ele>
        <time>2017-04-23T12:25:45Z</time>
      </trkpt>
      <trkpt lat="45.61605" lon="5.67493">
        <ele>383</ele>
        <time>2017-04-23T12:25:45Z</time>
      </trkpt>
      <trkpt lat="45.61607" lon="5.67489">
        <ele>383</ele>
        <time>2017-04-23T12:25:45Z</time>
      </trkpt>
      <trkpt lat="45.61609" lon="5.67484">
        <ele>383</ele>
        <time>2017-04-23T12:25:45Z</time>
      </trkpt>
      <trkpt lat="45.61612" lon="5.67475">
        <ele>383</ele>
        <time>2017-04-23T12:26:09Z</time>
      </trkpt>
      <trkpt lat="45.61613" lon="5.67473">
        <ele>383</ele>
        <time>2017-04-23T12:26:09Z</time>
      </trkpt>
      <trkpt lat="45.61613" lon="5.67472">
        <ele>383</ele>
        <time>2017-04-23T12:26:09Z</time>
      </trkpt>
      <trkpt lat="45.61615" lon="5.67471">
        <ele>383</ele>
        <time>2017-04-23T12:26:09Z</time>
      </trkpt>
      <trkpt lat="45.61615" lon="5.67466">
        <ele>383</ele>
        <time>2017-04-23T12:26:09Z</time>
      </trkpt>
      <trkpt lat="45.61617" lon="5.67461">
        <ele>383</ele>
        <time>2017-04-23T12:26:25Z</time>
      </trkpt>
      <trkpt lat="45.61619" lon="5.67456">
        <ele>375</ele>
        <time>2017-04-23T12:26:25Z</time>
      </trkpt>
      <trkpt lat="45.61621" lon="5.6745">
        <ele>375</ele>
        <time>2017-04-23T12:26:25Z</time>
      </trkpt>
      <trkpt lat="45.61623" lon="5.67447">
        <ele>375</ele>
        <time>2017-04-23T12:26:25Z</time>
      </trkpt>
      <trkpt lat="45.61624" lon="5.67442">
        <ele>375</ele>
        <time>2017-04-23T12:26:41Z</time>
      </trkpt>
      <trkpt lat="45.61625" lon="5.67437">
        <ele>375</ele>
        <time>2017-04-23T12:26:41Z</time>
      </trkpt>
      <trkpt lat="45.61626" lon="5.67431">
        <ele>359</ele>
        <time>2017-04-23T12:26:41Z</time>
      </trkpt>
      <trkpt lat="45.61627" lon="5.67428">
        <ele>359</ele>
        <time>2017-04-23T12:26:41Z</time>
      </trkpt>
      <trkpt lat="45.61627" lon="5.67427">
        <ele>359</ele>
        <time>2017-04-23T12:26:57Z</time>
      </trkpt>
      <trkpt lat="45.61628" lon="5.67422">
        <ele>359</ele>
        <time>2017-04-23T12:26:57Z</time>
      </trkpt>
      <trkpt lat="45.6163" lon="5.67415">
        <ele>359</ele>
        <time>2017-04-23T12:26:57Z</time>
      </trkpt>
      <trkpt lat="45.61631" lon="5.67408">
        <ele>359</ele>
        <time>2017-04-23T12:26:57Z</time>
      </trkpt>
      <trkpt lat="45.61631" lon="5.67408">
        <ele>359</ele>
        <time>2017-04-23T12:27:13Z</time>
      </trkpt>
      <trkpt lat="45.61632" lon="5.67406">
        <ele>359</ele>
        <time>2017-04-23T12:27:13Z</time>
      </trkpt>
      <trkpt lat="45.61634" lon="5.67402">
        <ele>359</ele>
        <time>2017-04-23T12:27:13Z</time>
      </trkpt>
      <trkpt lat="45.61635" lon="5.67395">
        <ele>359</ele>
        <time>2017-04-23T12:27:13Z</time>
      </trkpt>
      <trkpt lat="45.61637" lon="5.67388">
        <ele>359</ele>
        <time>2017-04-23T12:27:29Z</time>
      </trkpt>
      <trkpt lat="45.61639" lon="5.67382">
        <ele>359</ele>
        <time>2017-04-23T12:27:29Z</time>
      </trkpt>
      <trkpt lat="45.6164" lon="5.67376">
        <ele>359</ele>
        <time>2017-04-23T12:27:29Z</time>
      </trkpt>
      <trkpt lat="45.61642" lon="5.67371">
        <ele>352</ele>
        <time>2017-04-23T12:27:29Z</time>
      </trkpt>
      <trkpt lat="45.61644" lon="5.67365">
        <ele>352</ele>
        <time>2017-04-23T12:27:45Z</time>
      </trkpt>
      <trkpt lat="45.61646" lon="5.6736">
        <ele>352</ele>
        <time>2017-04-23T12:27:45Z</time>
      </trkpt>
      <trkpt lat="45.61648" lon="5.67356">
        <ele>352</ele>
        <time>2017-04-23T12:27:45Z</time>
      </trkpt>
      <trkpt lat="45.61649" lon="5.67352">
        <ele>352</ele>
        <time>2017-04-23T12:27:45Z</time>
      </trkpt>
      <trkpt lat="45.61651" lon="5.67346">
        <ele>352</ele>
        <time>2017-04-23T12:28:01Z</time>
      </trkpt>
      <trkpt lat="45.61652" lon="5.6734">
        <ele>352</ele>
        <time>2017-04-23T12:28:01Z</time>
      </trkpt>
      <trkpt lat="45.61654" lon="5.67334">
        <ele>352</ele>
        <time>2017-04-23T12:28:01Z</time>
      </trkpt>
      <trkpt lat="45.61657" lon="5.67328">
        <ele>352</ele>
        <time>2017-04-23T12:28:01Z</time>
      </trkpt>
      <trkpt lat="45.61658" lon="5.67326">
        <ele>352</ele>
        <time>2017-04-23T12:28:17Z</time>
      </trkpt>
      <trkpt lat="45.6166" lon="5.6732">
        <ele>352</ele>
        <time>2017-04-23T12:28:17Z</time>
      </trkpt>
      <trkpt lat="45.61662" lon="5.67315">
        <ele>352</ele>
        <time>2017-04-23T12:28:17Z</time>
      </trkpt>
      <trkpt lat="45.61664" lon="5.6731">
        <ele>352</ele>
        <time>2017-04-23T12:28:17Z</time>
      </trkpt>
      <trkpt lat="45.61667" lon="5.67303">
        <ele>352</ele>
        <time>2017-04-23T12:28:33Z</time>
      </trkpt>
      <trkpt lat="45.6167" lon="5.67297">
        <ele>352</ele>
        <time>2017-04-23T12:28:33Z</time>
      </trkpt>
      <trkpt lat="45.61671" lon="5.67294">
        <ele>352</ele>
        <time>2017-04-23T12:28:33Z</time>
      </trkpt>
      <trkpt lat="45.61673" lon="5.67291">
        <ele>346</ele>
        <time>2017-04-23T12:28:33Z</time>
      </trkpt>
      <trkpt lat="45.61677" lon="5.6728">
        <ele>346</ele>
        <time>2017-04-23T12:31:13Z</time>
      </trkpt>
      <trkpt lat="45.61677" lon="5.6728">
        <ele>346</ele>
        <time>2017-04-23T12:31:13Z</time>
      </trkpt>
      <trkpt lat="45.61677" lon="5.6728">
        <ele>346</ele>
        <time>2017-04-23T12:31:13Z</time>
      </trkpt>
      <trkpt lat="45.61677" lon="5.6728">
        <ele>346</ele>
        <time>2017-04-23T12:31:13Z</time>
      </trkpt>
      <trkpt lat="45.61677" lon="5.67278">
        <ele>346</ele>
        <time>2017-04-23T12:31:13Z</time>
      </trkpt>
      <trkpt lat="45.61669" lon="5.67262">
        <ele>346</ele>
        <time>2017-04-23T12:31:45Z</time>
      </trkpt>
      <trkpt lat="45.61669" lon="5.67263">
        <ele>346</ele>
        <time>2017-04-23T12:31:45Z</time>
      </trkpt>
      <trkpt lat="45.61668" lon="5.67263">
        <ele>346</ele>
        <time>2017-04-23T12:31:45Z</time>
      </trkpt>
      <trkpt lat="45.61668" lon="5.67263">
        <ele>346</ele>
        <time>2017-04-23T12:31:45Z</time>
      </trkpt>
      <trkpt lat="45.61667" lon="5.67259">
        <ele>346</ele>
        <time>2017-04-23T12:31:45Z</time>
      </trkpt>
      <trkpt lat="45.61665" lon="5.67252">
        <ele>346</ele>
        <time>2017-04-23T12:32:01Z</time>
      </trkpt>
      <trkpt lat="45.61662" lon="5.67242">
        <ele>346</ele>
        <time>2017-04-23T12:32:01Z</time>
      </trkpt>
      <trkpt lat="45.61659" lon="5.67233">
        <ele>346</ele>
        <time>2017-04-23T12:32:01Z</time>
      </trkpt>
      <trkpt lat="45.61657" lon="5.67223">
        <ele>346</ele>
        <time>2017-04-23T12:32:01Z</time>
      </trkpt>
      <trkpt lat="45.61655" lon="5.67215">
        <ele>346</ele>
        <time>2017-04-23T12:32:17Z</time>
      </trkpt>
      <trkpt lat="45.61652" lon="5.67206">
        <ele>340</ele>
        <time>2017-04-23T12:32:17Z</time>
      </trkpt>
      <trkpt lat="45.61649" lon="5.67197">
        <ele>340</ele>
        <time>2017-04-23T12:32:17Z</time>
      </trkpt>
      <trkpt lat="45.61646" lon="5.67189">
        <ele>340</ele>
        <time>2017-04-23T12:32:17Z</time>
      </trkpt>
      <trkpt lat="45.61644" lon="5.67181">
        <ele>340</ele>
        <time>2017-04-23T12:32:33Z</time>
      </trkpt>
      <trkpt lat="45.61641" lon="5.67173">
        <ele>340</ele>
        <time>2017-04-23T12:32:33Z</time>
      </trkpt>
      <trkpt lat="45.61638" lon="5.67166">
        <ele>340</ele>
        <time>2017-04-23T12:32:33Z</time>
      </trkpt>
      <trkpt lat="45.61635" lon="5.6716">
        <ele>340</ele>
        <time>2017-04-23T12:32:33Z</time>
      </trkpt>
      <trkpt lat="45.61632" lon="5.67153">
        <ele>340</ele>
        <time>2017-04-23T12:32:49Z</time>
      </trkpt>
      <trkpt lat="45.61629" lon="5.67146">
        <ele>340</ele>
        <time>2017-04-23T12:32:49Z</time>
      </trkpt>
      <trkpt lat="45.61625" lon="5.6714">
        <ele>340</ele>
        <time>2017-04-23T12:32:49Z</time>
      </trkpt>
      <trkpt lat="45.61623" lon="5.67132">
        <ele>359</ele>
        <time>2017-04-23T12:32:49Z</time>
      </trkpt>
      <trkpt lat="45.61621" lon="5.67125">
        <ele>359</ele>
        <time>2017-04-23T12:33:05Z</time>
      </trkpt>
      <trkpt lat="45.61619" lon="5.67119">
        <ele>354</ele>
        <time>2017-04-23T12:33:05Z</time>
      </trkpt>
      <trkpt lat="45.61618" lon="5.67112">
        <ele>354</ele>
        <time>2017-04-23T12:33:05Z</time>
      </trkpt>
      <trkpt lat="45.61616" lon="5.67104">
        <ele>354</ele>
        <time>2017-04-23T12:33:05Z</time>
      </trkpt>
      <trkpt lat="45.61614" lon="5.67096">
        <ele>354</ele>
        <time>2017-04-23T12:33:21Z</time>
      </trkpt>
      <trkpt lat="45.61613" lon="5.67089">
        <ele>354</ele>
        <time>2017-04-23T12:33:21Z</time>
      </trkpt>
      <trkpt lat="45.61612" lon="5.67081">
        <ele>354</ele>
        <time>2017-04-23T12:33:21Z</time>
      </trkpt>
      <trkpt lat="45.61612" lon="5.67074">
        <ele>354</ele>
        <time>2017-04-23T12:33:21Z</time>
      </trkpt>
      <trkpt lat="45.61611" lon="5.67066">
        <ele>354</ele>
        <time>2017-04-23T12:33:37Z</time>
      </trkpt>
      <trkpt lat="45.61611" lon="5.67057">
        <ele>354</ele>
        <time>2017-04-23T12:33:37Z</time>
      </trkpt>
      <trkpt lat="45.6161" lon="5.67048">
        <ele>354</ele>
        <time>2017-04-23T12:33:37Z</time>
      </trkpt>
      <trkpt lat="45.61608" lon="5.6704">
        <ele>350</ele>
        <time>2017-04-23T12:33:37Z</time>
      </trkpt>
      <trkpt lat="45.61608" lon="5.67031">
        <ele>350</ele>
        <time>2017-04-23T12:33:53Z</time>
      </trkpt>
      <trkpt lat="45.61606" lon="5.67023">
        <ele>350</ele>
        <time>2017-04-23T12:33:53Z</time>
      </trkpt>
      <trkpt lat="45.61604" lon="5.67014">
        <ele>350</ele>
        <time>2017-04-23T12:33:53Z</time>
      </trkpt>
      <trkpt lat="45.61603" lon="5.67005">
        <ele>350</ele>
        <time>2017-04-23T12:33:53Z</time>
      </trkpt>
      <trkpt lat="45.61603" lon="5.66994">
        <ele>350</ele>
        <time>2017-04-23T12:34:09Z</time>
      </trkpt>
      <trkpt lat="45.61603" lon="5.66984">
        <ele>350</ele>
        <time>2017-04-23T12:34:09Z</time>
      </trkpt>
      <trkpt lat="45.61602" lon="5.66976">
        <ele>350</ele>
        <time>2017-04-23T12:34:09Z</time>
      </trkpt>
      <trkpt lat="45.61601" lon="5.66967">
        <ele>350</ele>
        <time>2017-04-23T12:34:09Z</time>
      </trkpt>
      <trkpt lat="45.61599" lon="5.66958">
        <ele>345</ele>
        <time>2017-04-23T12:34:25Z</time>
      </trkpt>
      <trkpt lat="45.61598" lon="5.66949">
        <ele>345</ele>
        <time>2017-04-23T12:34:25Z</time>
      </trkpt>
      <trkpt lat="45.61599" lon="5.6694">
        <ele>345</ele>
        <time>2017-04-23T12:34:25Z</time>
      </trkpt>
      <trkpt lat="45.61601" lon="5.66933">
        <ele>345</ele>
        <time>2017-04-23T12:34:25Z</time>
      </trkpt>
      <trkpt lat="45.61602" lon="5.66922">
        <ele>345</ele>
        <time>2017-04-23T12:34:41Z</time>
      </trkpt>
      <trkpt lat="45.61605" lon="5.66913">
        <ele>345</ele>
        <time>2017-04-23T12:34:41Z</time>
      </trkpt>
      <trkpt lat="45.61606" lon="5.66902">
        <ele>345</ele>
        <time>2017-04-23T12:34:41Z</time>
      </trkpt>
      <trkpt lat="45.61607" lon="5.66891">
        <ele>345</ele>
        <time>2017-04-23T12:34:41Z</time>
      </trkpt>
      <trkpt lat="45.61609" lon="5.66882">
        <ele>345</ele>
        <time>2017-04-23T12:34:57Z</time>
      </trkpt>
      <trkpt lat="45.6161" lon="5.66877">
        <ele>345</ele>
        <time>2017-04-23T12:34:57Z</time>
      </trkpt>
      <trkpt lat="45.61611" lon="5.6687">
        <ele>341</ele>
        <time>2017-04-23T12:34:57Z</time>
      </trkpt>
      <trkpt lat="45.61612" lon="5.66862">
        <ele>341</ele>
        <time>2017-04-23T12:34:57Z</time>
      </trkpt>
      <trkpt lat="45.61611" lon="5.66854">
        <ele>341</ele>
        <time>2017-04-23T12:35:13Z</time>
      </trkpt>
      <trkpt lat="45.61611" lon="5.66844">
        <ele>341</ele>
        <time>2017-04-23T12:35:13Z</time>
      </trkpt>
      <trkpt lat="45.61609" lon="5.66835">
        <ele>341</ele>
        <time>2017-04-23T12:35:13Z</time>
      </trkpt>
      <trkpt lat="45.61612" lon="5.66828">
        <ele>341</ele>
        <time>2017-04-23T12:35:13Z</time>
      </trkpt>
      <trkpt lat="45.61612" lon="5.66821">
        <ele>341</ele>
        <time>2017-04-23T12:35:29Z</time>
      </trkpt>
      <trkpt lat="45.61612" lon="5.66813">
        <ele>341</ele>
        <time>2017-04-23T12:35:29Z</time>
      </trkpt>
      <trkpt lat="45.61613" lon="5.66806">
        <ele>341</ele>
        <time>2017-04-23T12:35:29Z</time>
      </trkpt>
      <trkpt lat="45.61615" lon="5.66802">
        <ele>341</ele>
        <time>2017-04-23T12:35:29Z</time>
      </trkpt>
      <trkpt lat="45.61614" lon="5.66793">
        <ele>341</ele>
        <time>2017-04-23T12:35:45Z</time>
      </trkpt>
      <trkpt lat="45.61615" lon="5.66784">
        <ele>338</ele>
        <time>2017-04-23T12:35:45Z</time>
      </trkpt>
      <trkpt lat="45.61613" lon="5.66775">
        <ele>338</ele>
        <time>2017-04-23T12:35:45Z</time>
      </trkpt>
      <trkpt lat="45.61612" lon="5.66766">
        <ele>338</ele>
        <time>2017-04-23T12:35:45Z</time>
      </trkpt>
      <trkpt lat="45.61612" lon="5.66757">
        <ele>338</ele>
        <time>2017-04-23T12:36:01Z</time>
      </trkpt>
      <trkpt lat="45.61611" lon="5.6675">
        <ele>338</ele>
        <time>2017-04-23T12:36:01Z</time>
      </trkpt>
      <trkpt lat="45.61612" lon="5.66742">
        <ele>338</ele>
        <time>2017-04-23T12:36:01Z</time>
      </trkpt>
      <trkpt lat="45.61613" lon="5.66737">
        <ele>338</ele>
        <time>2017-04-23T12:36:01Z</time>
      </trkpt>
      <trkpt lat="45.61613" lon="5.66728">
        <ele>338</ele>
        <time>2017-04-23T12:37:01Z</time>
      </trkpt>
      <trkpt lat="45.61613" lon="5.66725">
        <ele>338</ele>
        <time>2017-04-23T12:37:01Z</time>
      </trkpt>
      <trkpt lat="45.61615" lon="5.66719">
        <ele>338</ele>
        <time>2017-04-23T12:37:01Z</time>
      </trkpt>
      <trkpt lat="45.61618" lon="5.66714">
        <ele>338</ele>
        <time>2017-04-23T12:37:01Z</time>
      </trkpt>
      <trkpt lat="45.61621" lon="5.66711">
        <ele>338</ele>
        <time>2017-04-23T12:37:01Z</time>
      </trkpt>
      <trkpt lat="45.61622" lon="5.66704">
        <ele>334</ele>
        <time>2017-04-23T12:37:17Z</time>
      </trkpt>
      <trkpt lat="45.61621" lon="5.66696">
        <ele>334</ele>
        <time>2017-04-23T12:37:17Z</time>
      </trkpt>
      <trkpt lat="45.6162" lon="5.66686">
        <ele>334</ele>
        <time>2017-04-23T12:37:17Z</time>
      </trkpt>
      <trkpt lat="45.61621" lon="5.66677">
        <ele>334</ele>
        <time>2017-04-23T12:37:17Z</time>
      </trkpt>
      <trkpt lat="45.6162" lon="5.66668">
        <ele>334</ele>
        <time>2017-04-23T12:37:33Z</time>
      </trkpt>
      <trkpt lat="45.61619" lon="5.6666">
        <ele>334</ele>
        <time>2017-04-23T12:37:33Z</time>
      </trkpt>
      <trkpt lat="45.61618" lon="5.66652">
        <ele>334</ele>
        <time>2017-04-23T12:37:33Z</time>
      </trkpt>
      <trkpt lat="45.61618" lon="5.66644">
        <ele>334</ele>
        <time>2017-04-23T12:37:33Z</time>
      </trkpt>
      <trkpt lat="45.61618" lon="5.66637">
        <ele>334</ele>
        <time>2017-04-23T12:37:49Z</time>
      </trkpt>
      <trkpt lat="45.61621" lon="5.66631">
        <ele>334</ele>
        <time>2017-04-23T12:37:49Z</time>
      </trkpt>
      <trkpt lat="45.61626" lon="5.66628">
        <ele>309</ele>
        <time>2017-04-23T12:37:49Z</time>
      </trkpt>
      <trkpt lat="45.61632" lon="5.66629">
        <ele>309</ele>
        <time>2017-04-23T12:37:49Z</time>
      </trkpt>
      <trkpt lat="45.61637" lon="5.66636">
        <ele>309</ele>
        <time>2017-04-23T12:38:05Z</time>
      </trkpt>
      <trkpt lat="45.61642" lon="5.66643">
        <ele>309</ele>
        <time>2017-04-23T12:38:05Z</time>
      </trkpt>
      <trkpt lat="45.61645" lon="5.66652">
        <ele>309</ele>
        <time>2017-04-23T12:38:05Z</time>
      </trkpt>
      <trkpt lat="45.61648" lon="5.6666">
        <ele>309</ele>
        <time>2017-04-23T12:38:05Z</time>
      </trkpt>
      <trkpt lat="45.61652" lon="5.66667">
        <ele>309</ele>
        <time>2017-04-23T12:38:21Z</time>
      </trkpt>
      <trkpt lat="45.61655" lon="5.66674">
        <ele>309</ele>
        <time>2017-04-23T12:38:21Z</time>
      </trkpt>
      <trkpt lat="45.61658" lon="5.66681">
        <ele>309</ele>
        <time>2017-04-23T12:38:21Z</time>
      </trkpt>
      <trkpt lat="45.61662" lon="5.66687">
        <ele>309</ele>
        <time>2017-04-23T12:38:21Z</time>
      </trkpt>
      <trkpt lat="45.61666" lon="5.66695">
        <ele>309</ele>
        <time>2017-04-23T12:38:37Z</time>
      </trkpt>
      <trkpt lat="45.61667" lon="5.66702">
        <ele>309</ele>
        <time>2017-04-23T12:38:37Z</time>
      </trkpt>
      <trkpt lat="45.61669" lon="5.66709">
        <ele>318</ele>
        <time>2017-04-23T12:38:37Z</time>
      </trkpt>
      <trkpt lat="45.61672" lon="5.66715">
        <ele>318</ele>
        <time>2017-04-23T12:38:37Z</time>
      </trkpt>
      <trkpt lat="45.61674" lon="5.66717">
        <ele>318</ele>
        <time>2017-04-23T12:38:53Z</time>
      </trkpt>
      <trkpt lat="45.61676" lon="5.66723">
        <ele>318</ele>
        <time>2017-04-23T12:38:53Z</time>
      </trkpt>
      <trkpt lat="45.61679" lon="5.66729">
        <ele>318</ele>
        <time>2017-04-23T12:38:53Z</time>
      </trkpt>
      <trkpt lat="45.61684" lon="5.66736">
        <ele>318</ele>
        <time>2017-04-23T12:38:53Z</time>
      </trkpt>
      <trkpt lat="45.61687" lon="5.66744">
        <ele>318</ele>
        <time>2017-04-23T12:39:09Z</time>
      </trkpt>
      <trkpt lat="45.6169" lon="5.6675">
        <ele>318</ele>
        <time>2017-04-23T12:39:09Z</time>
      </trkpt>
      <trkpt lat="45.61691" lon="5.66756">
        <ele>318</ele>
        <time>2017-04-23T12:39:09Z</time>
      </trkpt>
      <trkpt lat="45.61694" lon="5.66762">
        <ele>318</ele>
        <time>2017-04-23T12:39:09Z</time>
      </trkpt>
      <trkpt lat="45.61697" lon="5.66768">
        <ele>318</ele>
        <time>2017-04-23T12:39:25Z</time>
      </trkpt>
      <trkpt lat="45.617" lon="5.66775">
        <ele>318</ele>
        <time>2017-04-23T12:39:25Z</time>
      </trkpt>
      <trkpt lat="45.61702" lon="5.66781">
        <ele>318</ele>
        <time>2017-04-23T12:39:25Z</time>
      </trkpt>
      <trkpt lat="45.61702" lon="5.66788">
        <ele>318</ele>
        <time>2017-04-23T12:39:25Z</time>
      </trkpt>
      <trkpt lat="45.61704" lon="5.66794">
        <ele>324</ele>
        <time>2017-04-23T12:39:41Z</time>
      </trkpt>
      <trkpt lat="45.61707" lon="5.668">
        <ele>324</ele>
        <time>2017-04-23T12:39:41Z</time>
      </trkpt>
      <trkpt lat="45.6171" lon="5.66806">
        <ele>298</ele>
        <time>2017-04-23T12:39:41Z</time>
      </trkpt>
      <trkpt lat="45.61711" lon="5.66813">
        <ele>298</ele>
        <time>2017-04-23T12:39:41Z</time>
      </trkpt>
      <trkpt lat="45.61714" lon="5.6682">
        <ele>298</ele>
        <time>2017-04-23T12:39:57Z</time>
      </trkpt>
      <trkpt lat="45.61716" lon="5.66826">
        <ele>298</ele>
        <time>2017-04-23T12:39:57Z</time>
      </trkpt>
      <trkpt lat="45.61718" lon="5.66832">
        <ele>298</ele>
        <time>2017-04-23T12:39:57Z</time>
      </trkpt>
      <trkpt lat="45.61722" lon="5.66838">
        <ele>298</ele>
        <time>2017-04-23T12:39:57Z</time>
      </trkpt>
      <trkpt lat="45.61725" lon="5.66845">
        <ele>298</ele>
        <time>2017-04-23T12:40:13Z</time>
      </trkpt>
      <trkpt lat="45.61729" lon="5.66852">
        <ele>298</ele>
        <time>2017-04-23T12:40:13Z</time>
      </trkpt>
      <trkpt lat="45.61732" lon="5.66861">
        <ele>298</ele>
        <time>2017-04-23T12:40:13Z</time>
      </trkpt>
      <trkpt lat="45.61736" lon="5.6687">
        <ele>298</ele>
        <time>2017-04-23T12:40:13Z</time>
      </trkpt>
      <trkpt lat="45.61739" lon="5.66878">
        <ele>306</ele>
        <time>2017-04-23T12:40:29Z</time>
      </trkpt>
      <trkpt lat="45.61742" lon="5.66885">
        <ele>306</ele>
        <time>2017-04-23T12:40:29Z</time>
      </trkpt>
      <trkpt lat="45.61746" lon="5.66891">
        <ele>306</ele>
        <time>2017-04-23T12:40:29Z</time>
      </trkpt>
      <trkpt lat="45.61749" lon="5.66897">
        <ele>306</ele>
        <time>2017-04-23T12:40:29Z</time>
      </trkpt>
      <trkpt lat="45.61749" lon="5.66899">
        <ele>306</ele>
        <time>2017-04-23T12:40:45Z</time>
      </trkpt>
      <trkpt lat="45.61753" lon="5.66904">
        <ele>306</ele>
        <time>2017-04-23T12:40:45Z</time>
      </trkpt>
      <trkpt lat="45.61757" lon="5.66907">
        <ele>306</ele>
        <time>2017-04-23T12:40:45Z</time>
      </trkpt>
      <trkpt lat="45.6176" lon="5.66909">
        <ele>306</ele>
        <time>2017-04-23T12:40:45Z</time>
      </trkpt>
      <trkpt lat="45.61765" lon="5.6691">
        <ele>306</ele>
        <time>2017-04-23T12:41:01Z</time>
      </trkpt>
      <trkpt lat="45.61769" lon="5.66911">
        <ele>306</ele>
        <time>2017-04-23T12:41:01Z</time>
      </trkpt>
      <trkpt lat="45.61774" lon="5.66913">
        <ele>306</ele>
        <time>2017-04-23T12:41:01Z</time>
      </trkpt>
      <trkpt lat="45.61779" lon="5.66915">
        <ele>306</ele>
        <time>2017-04-23T12:41:01Z</time>
      </trkpt>
      <trkpt lat="45.61784" lon="5.66919">
        <ele>306</ele>
        <time>2017-04-23T12:41:17Z</time>
      </trkpt>
      <trkpt lat="45.61789" lon="5.66923">
        <ele>306</ele>
        <time>2017-04-23T12:41:17Z</time>
      </trkpt>
      <trkpt lat="45.61793" lon="5.66929">
        <ele>280</ele>
        <time>2017-04-23T12:41:17Z</time>
      </trkpt>
      <trkpt lat="45.61796" lon="5.66936">
        <ele>280</ele>
        <time>2017-04-23T12:41:17Z</time>
      </trkpt>
      <trkpt lat="45.618" lon="5.66942">
        <ele>280</ele>
        <time>2017-04-23T12:41:33Z</time>
      </trkpt>
      <trkpt lat="45.61804" lon="5.66948">
        <ele>280</ele>
        <time>2017-04-23T12:41:33Z</time>
      </trkpt>
      <trkpt lat="45.61808" lon="5.66954">
        <ele>280</ele>
        <time>2017-04-23T12:41:33Z</time>
      </trkpt>
      <trkpt lat="45.61812" lon="5.66961">
        <ele>286</ele>
        <time>2017-04-23T12:41:33Z</time>
      </trkpt>
      <trkpt lat="45.61815" lon="5.66967">
        <ele>286</ele>
        <time>2017-04-23T12:41:49Z</time>
      </trkpt>
      <trkpt lat="45.61819" lon="5.66974">
        <ele>286</ele>
        <time>2017-04-23T12:41:49Z</time>
      </trkpt>
      <trkpt lat="45.61822" lon="5.6698">
        <ele>286</ele>
        <time>2017-04-23T12:41:49Z</time>
      </trkpt>
      <trkpt lat="45.61825" lon="5.66985">
        <ele>286</ele>
        <time>2017-04-23T12:41:49Z</time>
      </trkpt>
      <trkpt lat="45.61829" lon="5.66991">
        <ele>286</ele>
        <time>2017-04-23T12:42:05Z</time>
      </trkpt>
      <trkpt lat="45.6183" lon="5.66997">
        <ele>286</ele>
        <time>2017-04-23T12:42:05Z</time>
      </trkpt>
      <trkpt lat="45.61832" lon="5.67003">
        <ele>286</ele>
        <time>2017-04-23T12:42:05Z</time>
      </trkpt>
      <trkpt lat="45.61836" lon="5.67008">
        <ele>286</ele>
        <time>2017-04-23T12:42:05Z</time>
      </trkpt>
      <trkpt lat="45.61838" lon="5.6701">
        <ele>286</ele>
        <time>2017-04-23T12:42:21Z</time>
      </trkpt>
      <trkpt lat="45.61841" lon="5.67017">
        <ele>286</ele>
        <time>2017-04-23T12:42:21Z</time>
      </trkpt>
      <trkpt lat="45.61843" lon="5.67025">
        <ele>286</ele>
        <time>2017-04-23T12:42:21Z</time>
      </trkpt>
      <trkpt lat="45.61845" lon="5.67033">
        <ele>286</ele>
        <time>2017-04-23T12:42:21Z</time>
      </trkpt>
      <trkpt lat="45.61847" lon="5.67041">
        <ele>286</ele>
        <time>2017-04-23T12:42:37Z</time>
      </trkpt>
      <trkpt lat="45.61849" lon="5.67049">
        <ele>291</ele>
        <time>2017-04-23T12:42:37Z</time>
      </trkpt>
      <trkpt lat="45.61849" lon="5.67057">
        <ele>291</ele>
        <time>2017-04-23T12:42:37Z</time>
      </trkpt>
      <trkpt lat="45.61848" lon="5.67065">
        <ele>291</ele>
        <time>2017-04-23T12:42:37Z</time>
      </trkpt>
      <trkpt lat="45.61845" lon="5.67071">
        <ele>291</ele>
        <time>2017-04-23T12:42:53Z</time>
      </trkpt>
      <trkpt lat="45.61843" lon="5.67077">
        <ele>291</ele>
        <time>2017-04-23T12:42:53Z</time>
      </trkpt>
      <trkpt lat="45.61842" lon="5.67085">
        <ele>291</ele>
        <time>2017-04-23T12:42:53Z</time>
      </trkpt>
      <trkpt lat="45.61841" lon="5.67093">
        <ele>291</ele>
        <time>2017-04-23T12:42:53Z</time>
      </trkpt>
      <trkpt lat="45.61839" lon="5.67098">
        <ele>291</ele>
        <time>2017-04-23T12:43:09Z</time>
      </trkpt>
      <trkpt lat="45.61838" lon="5.67104">
        <ele>291</ele>
        <time>2017-04-23T12:43:09Z</time>
      </trkpt>
      <trkpt lat="45.61836" lon="5.67111">
        <ele>291</ele>
        <time>2017-04-23T12:43:09Z</time>
      </trkpt>
      <trkpt lat="45.61835" lon="5.67118">
        <ele>291</ele>
        <time>2017-04-23T12:43:09Z</time>
      </trkpt>
      <trkpt lat="45.61833" lon="5.67128">
        <ele>296</ele>
        <time>2017-04-23T12:43:25Z</time>
      </trkpt>
      <trkpt lat="45.61833" lon="5.67137">
        <ele>296</ele>
        <time>2017-04-23T12:43:25Z</time>
      </trkpt>
      <trkpt lat="45.61832" lon="5.67146">
        <ele>296</ele>
        <time>2017-04-23T12:43:25Z</time>
      </trkpt>
      <trkpt lat="45.61832" lon="5.67154">
        <ele>296</ele>
        <time>2017-04-23T12:43:25Z</time>
      </trkpt>
      <trkpt lat="45.61836" lon="5.67159">
        <ele>296</ele>
        <time>2017-04-23T12:43:41Z</time>
      </trkpt>
      <trkpt lat="45.6184" lon="5.6716">
        <ele>296</ele>
        <time>2017-04-23T12:43:41Z</time>
      </trkpt>
      <trkpt lat="45.61844" lon="5.67157">
        <ele>296</ele>
        <time>2017-04-23T12:43:41Z</time>
      </trkpt>
      <trkpt lat="45.61849" lon="5.67155">
        <ele>296</ele>
        <time>2017-04-23T12:43:41Z</time>
      </trkpt>
      <trkpt lat="45.61854" lon="5.67151">
        <ele>296</ele>
        <time>2017-04-23T12:43:57Z</time>
      </trkpt>
      <trkpt lat="45.61858" lon="5.67146">
        <ele>296</ele>
        <time>2017-04-23T12:43:57Z</time>
      </trkpt>
      <trkpt lat="45.61863" lon="5.67145">
        <ele>296</ele>
        <time>2017-04-23T12:43:57Z</time>
      </trkpt>
      <trkpt lat="45.61867" lon="5.67144">
        <ele>296</ele>
        <time>2017-04-23T12:43:57Z</time>
      </trkpt>
      <trkpt lat="45.6187" lon="5.67141">
        <ele>296</ele>
        <time>2017-04-23T12:44:25Z</time>
      </trkpt>
      <trkpt lat="45.61871" lon="5.6714">
        <ele>296</ele>
        <time>2017-04-23T12:44:25Z</time>
      </trkpt>
      <trkpt lat="45.61871" lon="5.67138">
        <ele>296</ele>
        <time>2017-04-23T12:44:25Z</time>
      </trkpt>
      <trkpt lat="45.61873" lon="5.67137">
        <ele>296</ele>
        <time>2017-04-23T12:44:25Z</time>
      </trkpt>
      <trkpt lat="45.61877" lon="5.67137">
        <ele>293</ele>
        <time>2017-04-23T12:44:25Z</time>
      </trkpt>
      <trkpt lat="45.61881" lon="5.67132">
        <ele>293</ele>
        <time>2017-04-23T12:44:41Z</time>
      </trkpt>
      <trkpt lat="45.61885" lon="5.67127">
        <ele>293</ele>
        <time>2017-04-23T12:44:41Z</time>
      </trkpt>
      <trkpt lat="45.61891" lon="5.67126">
        <ele>293</ele>
        <time>2017-04-23T12:44:41Z</time>
      </trkpt>
      <trkpt lat="45.61896" lon="5.67123">
        <ele>283</ele>
        <time>2017-04-23T12:44:41Z</time>
      </trkpt>
      <trkpt lat="45.61897" lon="5.67122">
        <ele>283</ele>
        <time>2017-04-23T12:44:57Z</time>
      </trkpt>
      <trkpt lat="45.61898" lon="5.67121">
        <ele>283</ele>
        <time>2017-04-23T12:44:57Z</time>
      </trkpt>
      <trkpt lat="45.61903" lon="5.67122">
        <ele>283</ele>
        <time>2017-04-23T12:44:57Z</time>
      </trkpt>
      <trkpt lat="45.61907" lon="5.67125">
        <ele>283</ele>
        <time>2017-04-23T12:44:57Z</time>
      </trkpt>
      <trkpt lat="45.61912" lon="5.67125">
        <ele>293</ele>
        <time>2017-04-23T12:45:13Z</time>
      </trkpt>
      <trkpt lat="45.61917" lon="5.67127">
        <ele>293</ele>
        <time>2017-04-23T12:45:13Z</time>
      </trkpt>
      <trkpt lat="45.61924" lon="5.67128">
        <ele>293</ele>
        <time>2017-04-23T12:45:13Z</time>
      </trkpt>
      <trkpt lat="45.61929" lon="5.67129">
        <ele>293</ele>
        <time>2017-04-23T12:45:13Z</time>
      </trkpt>
      <trkpt lat="45.61941" lon="5.67128">
        <ele>293</ele>
        <time>2017-04-23T12:45:49Z</time>
      </trkpt>
      <trkpt lat="45.61942" lon="5.67128">
        <ele>293</ele>
        <time>2017-04-23T12:45:49Z</time>
      </trkpt>
      <trkpt lat="45.61944" lon="5.67128">
        <ele>293</ele>
        <time>2017-04-23T12:45:49Z</time>
      </trkpt>
      <trkpt lat="45.61945" lon="5.67128">
        <ele>293</ele>
        <time>2017-04-23T12:45:49Z</time>
      </trkpt>
      <trkpt lat="45.61949" lon="5.67127">
        <ele>293</ele>
        <time>2017-04-23T12:45:49Z</time>
      </trkpt>
      <trkpt lat="45.61954" lon="5.67126">
        <ele>293</ele>
        <time>2017-04-23T12:46:05Z</time>
      </trkpt>
      <trkpt lat="45.61961" lon="5.67125">
        <ele>284</ele>
        <time>2017-04-23T12:46:05Z</time>
      </trkpt>
      <trkpt lat="45.61967" lon="5.67123">
        <ele>271</ele>
        <time>2017-04-23T12:46:05Z</time>
      </trkpt>
      <trkpt lat="45.61973" lon="5.67123">
        <ele>271</ele>
        <time>2017-04-23T12:46:05Z</time>
      </trkpt>
      <trkpt lat="45.61977" lon="5.67123">
        <ele>271</ele>
        <time>2017-04-23T12:46:21Z</time>
      </trkpt>
      <trkpt lat="45.61982" lon="5.67121">
        <ele>271</ele>
        <time>2017-04-23T12:46:21Z</time>
      </trkpt>
      <trkpt lat="45.61987" lon="5.6712">
        <ele>271</ele>
        <time>2017-04-23T12:46:21Z</time>
      </trkpt>
      <trkpt lat="45.61991" lon="5.67119">
        <ele>271</ele>
        <time>2017-04-23T12:46:21Z</time>
      </trkpt>
      <trkpt lat="45.61997" lon="5.67118">
        <ele>271</ele>
        <time>2017-04-23T12:46:37Z</time>
      </trkpt>
      <trkpt lat="45.62002" lon="5.67116">
        <ele>271</ele>
        <time>2017-04-23T12:46:37Z</time>
      </trkpt>
      <trkpt lat="45.62008" lon="5.67116">
        <ele>271</ele>
        <time>2017-04-23T12:46:37Z</time>
      </trkpt>
      <trkpt lat="45.62015" lon="5.67117">
        <ele>271</ele>
        <time>2017-04-23T12:46:37Z</time>
      </trkpt>
      <trkpt lat="45.62019" lon="5.67118">
        <ele>271</ele>
        <time>2017-04-23T12:46:53Z</time>
      </trkpt>
      <trkpt lat="45.62024" lon="5.67119">
        <ele>271</ele>
        <time>2017-04-23T12:46:53Z</time>
      </trkpt>
      <trkpt lat="45.62029" lon="5.67121">
        <ele>271</ele>
        <time>2017-04-23T12:46:53Z</time>
      </trkpt>
      <trkpt lat="45.62034" lon="5.67122">
        <ele>271</ele>
        <time>2017-04-23T12:46:53Z</time>
      </trkpt>
      <trkpt lat="45.6204" lon="5.67124">
        <ele>271</ele>
        <time>2017-04-23T12:47:09Z</time>
      </trkpt>
      <trkpt lat="45.62045" lon="5.67126">
        <ele>263</ele>
        <time>2017-04-23T12:47:09Z</time>
      </trkpt>
      <trkpt lat="45.6205" lon="5.67128">
        <ele>263</ele>
        <time>2017-04-23T12:47:09Z</time>
      </trkpt>
      <trkpt lat="45.62055" lon="5.6713">
        <ele>263</ele>
        <time>2017-04-23T12:47:09Z</time>
      </trkpt>
      <trkpt lat="45.6206" lon="5.6713">
        <ele>263</ele>
        <time>2017-04-23T12:47:25Z</time>
      </trkpt>
      <trkpt lat="45.62065" lon="5.67131">
        <ele>263</ele>
        <time>2017-04-23T12:47:25Z</time>
      </trkpt>
      <trkpt lat="45.62069" lon="5.67132">
        <ele>263</ele>
        <time>2017-04-23T12:47:25Z</time>
      </trkpt>
      <trkpt lat="45.62076" lon="5.67133">
        <ele>263</ele>
        <time>2017-04-23T12:47:25Z</time>
      </trkpt>
      <trkpt lat="45.62082" lon="5.67135">
        <ele>263</ele>
        <time>2017-04-23T12:47:41Z</time>
      </trkpt>
      <trkpt lat="45.62088" lon="5.67133">
        <ele>263</ele>
        <time>2017-04-23T12:47:41Z</time>
      </trkpt>
      <trkpt lat="45.62092" lon="5.6713">
        <ele>263</ele>
        <time>2017-04-23T12:47:41Z</time>
      </trkpt>
      <trkpt lat="45.62097" lon="5.67128">
        <ele>263</ele>
        <time>2017-04-23T12:47:41Z</time>
      </trkpt>
      <trkpt lat="45.62104" lon="5.67126">
        <ele>263</ele>
        <time>2017-04-23T12:47:57Z</time>
      </trkpt>
      <trkpt lat="45.6211" lon="5.67128">
        <ele>263</ele>
        <time>2017-04-23T12:47:57Z</time>
      </trkpt>
      <trkpt lat="45.62114" lon="5.67132">
        <ele>263</ele>
        <time>2017-04-23T12:47:57Z</time>
      </trkpt>
      <trkpt lat="45.62119" lon="5.67135">
        <ele>263</ele>
        <time>2017-04-23T12:47:57Z</time>
      </trkpt>
      <trkpt lat="45.62123" lon="5.67139">
        <ele>263</ele>
        <time>2017-04-23T12:48:13Z</time>
      </trkpt>
      <trkpt lat="45.62127" lon="5.67144">
        <ele>247</ele>
        <time>2017-04-23T12:48:13Z</time>
      </trkpt>
      <trkpt lat="45.62132" lon="5.67148">
        <ele>247</ele>
        <time>2017-04-23T12:48:13Z</time>
      </trkpt>
      <trkpt lat="45.62137" lon="5.67151">
        <ele>247</ele>
        <time>2017-04-23T12:48:13Z</time>
      </trkpt>
      <trkpt lat="45.62139" lon="5.67152">
        <ele>247</ele>
        <time>2017-04-23T12:48:29Z</time>
      </trkpt>
      <trkpt lat="45.62142" lon="5.67156">
        <ele>247</ele>
        <time>2017-04-23T12:48:29Z</time>
      </trkpt>
      <trkpt lat="45.62146" lon="5.67161">
        <ele>247</ele>
        <time>2017-04-23T12:48:29Z</time>
      </trkpt>
      <trkpt lat="45.62149" lon="5.67165">
        <ele>247</ele>
        <time>2017-04-23T12:48:29Z</time>
      </trkpt>
      <trkpt lat="45.62152" lon="5.67171">
        <ele>247</ele>
        <time>2017-04-23T12:48:45Z</time>
      </trkpt>
      <trkpt lat="45.62156" lon="5.67177">
        <ele>247</ele>
        <time>2017-04-23T12:48:45Z</time>
      </trkpt>
      <trkpt lat="45.62159" lon="5.67184">
        <ele>247</ele>
        <time>2017-04-23T12:48:45Z</time>
      </trkpt>
      <trkpt lat="45.62161" lon="5.67191">
        <ele>247</ele>
        <time>2017-04-23T12:48:45Z</time>
      </trkpt>
      <trkpt lat="45.62164" lon="5.67197">
        <ele>247</ele>
        <time>2017-04-23T12:49:01Z</time>
      </trkpt>
      <trkpt lat="45.62166" lon="5.67201">
        <ele>247</ele>
        <time>2017-04-23T12:49:01Z</time>
      </trkpt>
      <trkpt lat="45.62169" lon="5.67207">
        <ele>247</ele>
        <time>2017-04-23T12:49:01Z</time>
      </trkpt>
      <trkpt lat="45.62172" lon="5.67213">
        <ele>257</ele>
        <time>2017-04-23T12:49:01Z</time>
      </trkpt>
      <trkpt lat="45.62173" lon="5.67216">
        <ele>257</ele>
        <time>2017-04-23T12:49:21Z</time>
      </trkpt>
      <trkpt lat="45.62174" lon="5.67218">
        <ele>257</ele>
        <time>2017-04-23T12:49:21Z</time>
      </trkpt>
      <trkpt lat="45.62177" lon="5.6722">
        <ele>257</ele>
        <time>2017-04-23T12:49:21Z</time>
      </trkpt>
      <trkpt lat="45.6218" lon="5.67224">
        <ele>257</ele>
        <time>2017-04-23T12:49:21Z</time>
      </trkpt>
      <trkpt lat="45.62183" lon="5.67228">
        <ele>257</ele>
        <time>2017-04-23T12:49:21Z</time>
      </trkpt>
      <trkpt lat="45.62184" lon="5.6723">
        <ele>257</ele>
        <time>2017-04-23T12:49:37Z</time>
      </trkpt>
      <trkpt lat="45.62188" lon="5.67233">
        <ele>257</ele>
        <time>2017-04-23T12:49:37Z</time>
      </trkpt>
      <trkpt lat="45.62193" lon="5.67236">
        <ele>257</ele>
        <time>2017-04-23T12:49:37Z</time>
      </trkpt>
      <trkpt lat="45.62198" lon="5.67239">
        <ele>257</ele>
        <time>2017-04-23T12:49:37Z</time>
      </trkpt>
      <trkpt lat="45.62203" lon="5.67242">
        <ele>257</ele>
        <time>2017-04-23T12:49:53Z</time>
      </trkpt>
      <trkpt lat="45.62208" lon="5.67245">
        <ele>257</ele>
        <time>2017-04-23T12:49:53Z</time>
      </trkpt>
      <trkpt lat="45.62212" lon="5.67248">
        <ele>246</ele>
        <time>2017-04-23T12:49:53Z</time>
      </trkpt>
      <trkpt lat="45.62217" lon="5.67251">
        <ele>246</ele>
        <time>2017-04-23T12:49:53Z</time>
      </trkpt>
      <trkpt lat="45.62222" lon="5.67253">
        <ele>246</ele>
        <time>2017-04-23T12:50:09Z</time>
      </trkpt>
      <trkpt lat="45.62227" lon="5.67256">
        <ele>246</ele>
        <time>2017-04-23T12:50:09Z</time>
      </trkpt>
      <trkpt lat="45.62232" lon="5.67258">
        <ele>246</ele>
        <time>2017-04-23T12:50:09Z</time>
      </trkpt>
      <trkpt lat="45.62236" lon="5.67262">
        <ele>246</ele>
        <time>2017-04-23T12:50:09Z</time>
      </trkpt>
      <trkpt lat="45.62241" lon="5.67265">
        <ele>246</ele>
        <time>2017-04-23T12:50:25Z</time>
      </trkpt>
      <trkpt lat="45.62247" lon="5.67267">
        <ele>246</ele>
        <time>2017-04-23T12:50:25Z</time>
      </trkpt>
      <trkpt lat="45.62252" lon="5.67269">
        <ele>246</ele>
        <time>2017-04-23T12:50:25Z</time>
      </trkpt>
      <trkpt lat="45.62257" lon="5.67272">
        <ele>246</ele>
        <time>2017-04-23T12:50:25Z</time>
      </trkpt>
      <trkpt lat="45.62262" lon="5.67275">
        <ele>246</ele>
        <time>2017-04-23T12:50:41Z</time>
      </trkpt>
      <trkpt lat="45.62268" lon="5.67278">
        <ele>246</ele>
        <time>2017-04-23T12:50:41Z</time>
      </trkpt>
      <trkpt lat="45.62272" lon="5.67281">
        <ele>246</ele>
        <time>2017-04-23T12:50:41Z</time>
      </trkpt>
      <trkpt lat="45.62277" lon="5.67284">
        <ele>246</ele>
        <time>2017-04-23T12:50:41Z</time>
      </trkpt>
      <trkpt lat="45.62282" lon="5.67287">
        <ele>246</ele>
        <time>2017-04-23T12:50:57Z</time>
      </trkpt>
      <trkpt lat="45.62287" lon="5.67291">
        <ele>246</ele>
        <time>2017-04-23T12:50:57Z</time>
      </trkpt>
      <trkpt lat="45.62291" lon="5.67294">
        <ele>257</ele>
        <time>2017-04-23T12:50:57Z</time>
      </trkpt>
      <trkpt lat="45.62296" lon="5.67296">
        <ele>248</ele>
        <time>2017-04-23T12:50:57Z</time>
      </trkpt>
      <trkpt lat="45.623" lon="5.67299">
        <ele>248</ele>
        <time>2017-04-23T12:51:13Z</time>
      </trkpt>
      <trkpt lat="45.62305" lon="5.67302">
        <ele>248</ele>
        <time>2017-04-23T12:51:13Z</time>
      </trkpt>
      <trkpt lat="45.62311" lon="5.67303">
        <ele>248</ele>
        <time>2017-04-23T12:51:13Z</time>
      </trkpt>
      <trkpt lat="45.62317" lon="5.67304">
        <ele>248</ele>
        <time>2017-04-23T12:51:13Z</time>
      </trkpt>
      <trkpt lat="45.62323" lon="5.67305">
        <ele>248</ele>
        <time>2017-04-23T12:51:29Z</time>
      </trkpt>
      <trkpt lat="45.62329" lon="5.67305">
        <ele>248</ele>
        <time>2017-04-23T12:51:29Z</time>
      </trkpt>
      <trkpt lat="45.62334" lon="5.67306">
        <ele>248</ele>
        <time>2017-04-23T12:51:29Z</time>
      </trkpt>
      <trkpt lat="45.6234" lon="5.67307">
        <ele>248</ele>
        <time>2017-04-23T12:51:29Z</time>
      </trkpt>
      <trkpt lat="45.62345" lon="5.67308">
        <ele>248</ele>
        <time>2017-04-23T12:51:45Z</time>
      </trkpt>
      <trkpt lat="45.6235" lon="5.67309">
        <ele>248</ele>
        <time>2017-04-23T12:51:45Z</time>
      </trkpt>
      <trkpt lat="45.62356" lon="5.67309">
        <ele>248</ele>
        <time>2017-04-23T12:51:45Z</time>
      </trkpt>
      <trkpt lat="45.62361" lon="5.67308">
        <ele>248</ele>
        <time>2017-04-23T12:51:45Z</time>
      </trkpt>
      <trkpt lat="45.62366" lon="5.67307">
        <ele>248</ele>
        <time>2017-04-23T12:52:01Z</time>
      </trkpt>
      <trkpt lat="45.62371" lon="5.67306">
        <ele>248</ele>
        <time>2017-04-23T12:52:01Z</time>
      </trkpt>
      <trkpt lat="45.62376" lon="5.67305">
        <ele>240</ele>
        <time>2017-04-23T12:52:01Z</time>
      </trkpt>
      <trkpt lat="45.62381" lon="5.67304">
        <ele>240</ele>
        <time>2017-04-23T12:52:01Z</time>
      </trkpt>
      <trkpt lat="45.62385" lon="5.67303">
        <ele>240</ele>
        <time>2017-04-23T12:52:17Z</time>
      </trkpt>
      <trkpt lat="45.6239" lon="5.673">
        <ele>240</ele>
        <time>2017-04-23T12:52:17Z</time>
      </trkpt>
      <trkpt lat="45.62395" lon="5.67297">
        <ele>240</ele>
        <time>2017-04-23T12:52:17Z</time>
      </trkpt>
      <trkpt lat="45.62401" lon="5.67295">
        <ele>240</ele>
        <time>2017-04-23T12:52:17Z</time>
      </trkpt>
      <trkpt lat="45.62406" lon="5.67294">
        <ele>240</ele>
        <time>2017-04-23T12:52:33Z</time>
      </trkpt>
      <trkpt lat="45.62411" lon="5.67292">
        <ele>240</ele>
        <time>2017-04-23T12:52:33Z</time>
      </trkpt>
      <trkpt lat="45.62416" lon="5.67292">
        <ele>240</ele>
        <time>2017-04-23T12:52:33Z</time>
      </trkpt>
      <trkpt lat="45.6242" lon="5.67291">
        <ele>234</ele>
        <time>2017-04-23T12:52:33Z</time>
      </trkpt>
      <trkpt lat="45.62426" lon="5.67289">
        <ele>234</ele>
        <time>2017-04-23T12:52:49Z</time>
      </trkpt>
      <trkpt lat="45.62431" lon="5.67289">
        <ele>234</ele>
        <time>2017-04-23T12:52:49Z</time>
      </trkpt>
      <trkpt lat="45.62437" lon="5.6729">
        <ele>234</ele>
        <time>2017-04-23T12:52:49Z</time>
      </trkpt>
      <trkpt lat="45.62442" lon="5.6729">
        <ele>234</ele>
        <time>2017-04-23T12:52:49Z</time>
      </trkpt>
      <trkpt lat="45.62447" lon="5.6729">
        <ele>234</ele>
        <time>2017-04-23T12:53:05Z</time>
      </trkpt>
      <trkpt lat="45.62453" lon="5.6729">
        <ele>234</ele>
        <time>2017-04-23T12:53:05Z</time>
      </trkpt>
      <trkpt lat="45.62458" lon="5.67291">
        <ele>234</ele>
        <time>2017-04-23T12:53:05Z</time>
      </trkpt>
      <trkpt lat="45.62464" lon="5.67293">
        <ele>233</ele>
        <time>2017-04-23T12:53:05Z</time>
      </trkpt>
      <trkpt lat="45.6247" lon="5.67295">
        <ele>233</ele>
        <time>2017-04-23T12:53:21Z</time>
      </trkpt>
      <trkpt lat="45.62476" lon="5.67296">
        <ele>233</ele>
        <time>2017-04-23T12:53:21Z</time>
      </trkpt>
      <trkpt lat="45.62482" lon="5.67298">
        <ele>233</ele>
        <time>2017-04-23T12:53:21Z</time>
      </trkpt>
      <trkpt lat="45.62488" lon="5.67299">
        <ele>233</ele>
        <time>2017-04-23T12:53:21Z</time>
      </trkpt>
      <trkpt lat="45.62493" lon="5.67301">
        <ele>233</ele>
        <time>2017-04-23T12:53:37Z</time>
      </trkpt>
      <trkpt lat="45.62498" lon="5.67305">
        <ele>233</ele>
        <time>2017-04-23T12:53:37Z</time>
      </trkpt>
      <trkpt lat="45.62503" lon="5.67308">
        <ele>233</ele>
        <time>2017-04-23T12:53:37Z</time>
      </trkpt>
      <trkpt lat="45.62508" lon="5.67311">
        <ele>233</ele>
        <time>2017-04-23T12:53:37Z</time>
      </trkpt>
      <trkpt lat="45.62514" lon="5.67313">
        <ele>233</ele>
        <time>2017-04-23T12:53:53Z</time>
      </trkpt>
      <trkpt lat="45.62518" lon="5.67316">
        <ele>233</ele>
        <time>2017-04-23T12:53:53Z</time>
      </trkpt>
      <trkpt lat="45.62523" lon="5.67319">
        <ele>233</ele>
        <time>2017-04-23T12:53:53Z</time>
      </trkpt>
      <trkpt lat="45.62527" lon="5.67322">
        <ele>233</ele>
        <time>2017-04-23T12:53:53Z</time>
      </trkpt>
      <trkpt lat="45.62528" lon="5.67323">
        <ele>233</ele>
        <time>2017-04-23T12:54:13Z</time>
      </trkpt>
      <trkpt lat="45.62528" lon="5.67323">
        <ele>233</ele>
        <time>2017-04-23T12:54:13Z</time>
      </trkpt>
      <trkpt lat="45.62528" lon="5.67323">
        <ele>233</ele>
        <time>2017-04-23T12:54:13Z</time>
      </trkpt>
      <trkpt lat="45.62532" lon="5.67326">
        <ele>233</ele>
        <time>2017-04-23T12:54:13Z</time>
      </trkpt>
      <trkpt lat="45.62537" lon="5.67331">
        <ele>233</ele>
        <time>2017-04-23T12:54:13Z</time>
      </trkpt>
      <trkpt lat="45.62542" lon="5.67335">
        <ele>224</ele>
        <time>2017-04-23T12:54:29Z</time>
      </trkpt>
      <trkpt lat="45.62547" lon="5.67339">
        <ele>224</ele>
        <time>2017-04-23T12:54:29Z</time>
      </trkpt>
      <trkpt lat="45.62551" lon="5.67343">
        <ele>224</ele>
        <time>2017-04-23T12:54:29Z</time>
      </trkpt>
      <trkpt lat="45.62556" lon="5.67347">
        <ele>224</ele>
        <time>2017-04-23T12:54:29Z</time>
      </trkpt>
      <trkpt lat="45.6256" lon="5.67351">
        <ele>224</ele>
        <time>2017-04-23T12:54:45Z</time>
      </trkpt>
      <trkpt lat="45.62565" lon="5.67355">
        <ele>224</ele>
        <time>2017-04-23T12:54:45Z</time>
      </trkpt>
      <trkpt lat="45.62569" lon="5.67359">
        <ele>224</ele>
        <time>2017-04-23T12:54:45Z</time>
      </trkpt>
      <trkpt lat="45.62573" lon="5.67364">
        <ele>224</ele>
        <time>2017-04-23T12:54:45Z</time>
      </trkpt>
      <trkpt lat="45.62577" lon="5.67369">
        <ele>224</ele>
        <time>2017-04-23T12:55:01Z</time>
      </trkpt>
      <trkpt lat="45.62582" lon="5.67373">
        <ele>224</ele>
        <time>2017-04-23T12:55:01Z</time>
      </trkpt>
      <trkpt lat="45.62586" lon="5.67377">
        <ele>229</ele>
        <time>2017-04-23T12:55:01Z</time>
      </trkpt>
      <trkpt lat="45.62591" lon="5.6738">
        <ele>229</ele>
        <time>2017-04-23T12:55:01Z</time>
      </trkpt>
      <trkpt lat="45.62596" lon="5.67381">
        <ele>229</ele>
        <time>2017-04-23T12:55:17Z</time>
      </trkpt>
      <trkpt lat="45.626" lon="5.67377">
        <ele>229</ele>
        <time>2017-04-23T12:55:17Z</time>
      </trkpt>
      <trkpt lat="45.62602" lon="5.6737">
        <ele>224</ele>
        <time>2017-04-23T12:55:17Z</time>
      </trkpt>
      <trkpt lat="45.62605" lon="5.67365">
        <ele>224</ele>
        <time>2017-04-23T12:55:17Z</time>
      </trkpt>
      <trkpt lat="45.62608" lon="5.6736">
        <ele>224</ele>
        <time>2017-04-23T12:55:37Z</time>
      </trkpt>
      <trkpt lat="45.6261" lon="5.67356">
        <ele>224</ele>
        <time>2017-04-23T12:55:37Z</time>
      </trkpt>
      <trkpt lat="45.62609" lon="5.67351">
        <ele>224</ele>
        <time>2017-04-23T12:55:37Z</time>
      </trkpt>
      <trkpt lat="45.6261" lon="5.67349">
        <ele>224</ele>
        <time>2017-04-23T12:55:37Z</time>
      </trkpt>
      <trkpt lat="45.62613" lon="5.67347">
        <ele>224</ele>
        <time>2017-04-23T12:55:37Z</time>
      </trkpt>
      <trkpt lat="45.62616" lon="5.67343">
        <ele>224</ele>
        <time>2017-04-23T12:55:53Z</time>
      </trkpt>
      <trkpt lat="45.62619" lon="5.67336">
        <ele>224</ele>
        <time>2017-04-23T12:55:53Z</time>
      </trkpt>
      <trkpt lat="45.62624" lon="5.6733">
        <ele>224</ele>
        <time>2017-04-23T12:55:53Z</time>
      </trkpt>
      <trkpt lat="45.62627" lon="5.67324">
        <ele>219</ele>
        <time>2017-04-23T12:55:53Z</time>
      </trkpt>
      <trkpt lat="45.6263" lon="5.67319">
        <ele>219</ele>
        <time>2017-04-23T12:56:09Z</time>
      </trkpt>
      <trkpt lat="45.62634" lon="5.67315">
        <ele>219</ele>
        <time>2017-04-23T12:56:09Z</time>
      </trkpt>
      <trkpt lat="45.62634" lon="5.67314">
        <ele>219</ele>
        <time>2017-04-23T12:56:09Z</time>
      </trkpt>
      <trkpt lat="45.62636" lon="5.67308">
        <ele>219</ele>
        <time>2017-04-23T12:56:09Z</time>
      </trkpt>
      <trkpt lat="45.62637" lon="5.67306">
        <ele>219</ele>
        <time>2017-04-23T12:56:29Z</time>
      </trkpt>
      <trkpt lat="45.62637" lon="5.67308">
        <ele>219</ele>
        <time>2017-04-23T12:56:29Z</time>
      </trkpt>
      <trkpt lat="45.62639" lon="5.67303">
        <ele>219</ele>
        <time>2017-04-23T12:56:29Z</time>
      </trkpt>
      <trkpt lat="45.62642" lon="5.67297">
        <ele>219</ele>
        <time>2017-04-23T12:56:29Z</time>
      </trkpt>
      <trkpt lat="45.62645" lon="5.67292">
        <ele>219</ele>
        <time>2017-04-23T12:56:29Z</time>
      </trkpt>
      <trkpt lat="45.62648" lon="5.67285">
        <ele>219</ele>
        <time>2017-04-23T12:56:45Z</time>
      </trkpt>
      <trkpt lat="45.62651" lon="5.67277">
        <ele>219</ele>
        <time>2017-04-23T12:56:45Z</time>
      </trkpt>
      <trkpt lat="45.62655" lon="5.67269">
        <ele>219</ele>
        <time>2017-04-23T12:56:45Z</time>
      </trkpt>
      <trkpt lat="45.62658" lon="5.67262">
        <ele>219</ele>
        <time>2017-04-23T12:56:45Z</time>
      </trkpt>
      <trkpt lat="45.62661" lon="5.67253">
        <ele>219</ele>
        <time>2017-04-23T12:58:13Z</time>
      </trkpt>
      <trkpt lat="45.62661" lon="5.67252">
        <ele>219</ele>
        <time>2017-04-23T12:58:13Z</time>
      </trkpt>
      <trkpt lat="45.62661" lon="5.67251">
        <ele>219</ele>
        <time>2017-04-23T12:58:13Z</time>
      </trkpt>
      <trkpt lat="45.62664" lon="5.6725">
        <ele>219</ele>
        <time>2017-04-23T12:58:13Z</time>
      </trkpt>
      <trkpt lat="45.62667" lon="5.67245">
        <ele>219</ele>
        <time>2017-04-23T12:58:13Z</time>
      </trkpt>
      <trkpt lat="45.62668" lon="5.6724">
        <ele>219</ele>
        <time>2017-04-23T12:58:29Z</time>
      </trkpt>
      <trkpt lat="45.6267" lon="5.67235">
        <ele>219</ele>
        <time>2017-04-23T12:58:29Z</time>
      </trkpt>
      <trkpt lat="45.62672" lon="5.67229">
        <ele>219</ele>
        <time>2017-04-23T12:58:29Z</time>
      </trkpt>
      <trkpt lat="45.62675" lon="5.67223">
        <ele>219</ele>
        <time>2017-04-23T12:58:29Z</time>
      </trkpt>
      <trkpt lat="45.62676" lon="5.67214">
        <ele>219</ele>
        <time>2017-04-23T12:58:45Z</time>
      </trkpt>
      <trkpt lat="45.62679" lon="5.67205">
        <ele>218</ele>
        <time>2017-04-23T12:58:45Z</time>
      </trkpt>
      <trkpt lat="45.62682" lon="5.67195">
        <ele>218</ele>
        <time>2017-04-23T12:58:45Z</time>
      </trkpt>
      <trkpt lat="45.62682" lon="5.67186">
        <ele>218</ele>
        <time>2017-04-23T12:58:45Z</time>
      </trkpt>
      <trkpt lat="45.62677" lon="5.67181">
        <ele>218</ele>
        <time>2017-04-23T12:59:01Z</time>
      </trkpt>
      <trkpt lat="45.62671" lon="5.67177">
        <ele>218</ele>
        <time>2017-04-23T12:59:01Z</time>
      </trkpt>
      <trkpt lat="45.62669" lon="5.67169">
        <ele>218</ele>
        <time>2017-04-23T12:59:01Z</time>
      </trkpt>
      <trkpt lat="45.62667" lon="5.67161">
        <ele>218</ele>
        <time>2017-04-23T12:59:01Z</time>
      </trkpt>
      <trkpt lat="45.62665" lon="5.67152">
        <ele>218</ele>
        <time>2017-04-23T12:59:17Z</time>
      </trkpt>
      <trkpt lat="45.62664" lon="5.67144">
        <ele>218</ele>
        <time>2017-04-23T12:59:17Z</time>
      </trkpt>
      <trkpt lat="45.62661" lon="5.67136">
        <ele>218</ele>
        <time>2017-04-23T12:59:17Z</time>
      </trkpt>
      <trkpt lat="45.62658" lon="5.67127">
        <ele>218</ele>
        <time>2017-04-23T12:59:17Z</time>
      </trkpt>
      <trkpt lat="45.62655" lon="5.67118">
        <ele>218</ele>
        <time>2017-04-23T12:59:33Z</time>
      </trkpt>
      <trkpt lat="45.62655" lon="5.67108">
        <ele>218</ele>
        <time>2017-04-23T12:59:33Z</time>
      </trkpt>
      <trkpt lat="45.62655" lon="5.67099">
        <ele>218</ele>
        <time>2017-04-23T12:59:33Z</time>
      </trkpt>
      <trkpt lat="45.62656" lon="5.6709">
        <ele>218</ele>
        <time>2017-04-23T12:59:33Z</time>
      </trkpt>
      <trkpt lat="45.62659" lon="5.67081">
        <ele>218</ele>
        <time>2017-04-23T12:59:49Z</time>
      </trkpt>
      <trkpt lat="45.62663" lon="5.67072">
        <ele>218</ele>
        <time>2017-04-23T12:59:49Z</time>
      </trkpt>
      <trkpt lat="45.62666" lon="5.67064">
        <ele>218</ele>
        <time>2017-04-23T12:59:49Z</time>
      </trkpt>
      <trkpt lat="45.6267" lon="5.67057">
        <ele>218</ele>
        <time>2017-04-23T12:59:49Z</time>
      </trkpt>
      <trkpt lat="45.62673" lon="5.6705">
        <ele>218</ele>
        <time>2017-04-23T13:00:05Z</time>
      </trkpt>
      <trkpt lat="45.62678" lon="5.67044">
        <ele>218</ele>
        <time>2017-04-23T13:00:05Z</time>
      </trkpt>
      <trkpt lat="45.62681" lon="5.67037">
        <ele>218</ele>
        <time>2017-04-23T13:00:05Z</time>
      </trkpt>
      <trkpt lat="45.62684" lon="5.67029">
        <ele>218</ele>
        <time>2017-04-23T13:00:05Z</time>
      </trkpt>
      <trkpt lat="45.62688" lon="5.67021">
        <ele>218</ele>
        <time>2017-04-23T13:00:21Z</time>
      </trkpt>
      <trkpt lat="45.6269" lon="5.67012">
        <ele>218</ele>
        <time>2017-04-23T13:00:21Z</time>
      </trkpt>
      <trkpt lat="45.62694" lon="5.67004">
        <ele>218</ele>
        <time>2017-04-23T13:00:21Z</time>
      </trkpt>
      <trkpt lat="45.62699" lon="5.66999">
        <ele>218</ele>
        <time>2017-04-23T13:00:21Z</time>
      </trkpt>
      <trkpt lat="45.62702" lon="5.66993">
        <ele>218</ele>
        <time>2017-04-23T13:00:37Z</time>
      </trkpt>
      <trkpt lat="45.62705" lon="5.66985">
        <ele>218</ele>
        <time>2017-04-23T13:00:37Z</time>
      </trkpt>
      <trkpt lat="45.62708" lon="5.66978">
        <ele>218</ele>
        <time>2017-04-23T13:00:37Z</time>
      </trkpt>
      <trkpt lat="45.62712" lon="5.66972">
        <ele>217</ele>
        <time>2017-04-23T13:00:37Z</time>
      </trkpt>
      <trkpt lat="45.62715" lon="5.66965">
        <ele>217</ele>
        <time>2017-04-23T13:00:53Z</time>
      </trkpt>
      <trkpt lat="45.62718" lon="5.66958">
        <ele>217</ele>
        <time>2017-04-23T13:00:53Z</time>
      </trkpt>
      <trkpt lat="45.62721" lon="5.6695">
        <ele>217</ele>
        <time>2017-04-23T13:00:53Z</time>
      </trkpt>
      <trkpt lat="45.62724" lon="5.66944">
        <ele>217</ele>
        <time>2017-04-23T13:00:53Z</time>
      </trkpt>
      <trkpt lat="45.62728" lon="5.66937">
        <ele>217</ele>
        <time>2017-04-23T13:01:09Z</time>
      </trkpt>
      <trkpt lat="45.62732" lon="5.6693">
        <ele>217</ele>
        <time>2017-04-23T13:01:09Z</time>
      </trkpt>
      <trkpt lat="45.62735" lon="5.66924">
        <ele>217</ele>
        <time>2017-04-23T13:01:09Z</time>
      </trkpt>
      <trkpt lat="45.6274" lon="5.66917">
        <ele>217</ele>
        <time>2017-04-23T13:01:09Z</time>
      </trkpt>
      <trkpt lat="45.62744" lon="5.66911">
        <ele>217</ele>
        <time>2017-04-23T13:01:25Z</time>
      </trkpt>
      <trkpt lat="45.62748" lon="5.66905">
        <ele>217</ele>
        <time>2017-04-23T13:01:25Z</time>
      </trkpt>
      <trkpt lat="45.62753" lon="5.66899">
        <ele>217</ele>
        <time>2017-04-23T13:01:25Z</time>
      </trkpt>
      <trkpt lat="45.62758" lon="5.66896">
        <ele>217</ele>
        <time>2017-04-23T13:01:25Z</time>
      </trkpt>
      <trkpt lat="45.62764" lon="5.66893">
        <ele>217</ele>
        <time>2017-04-23T13:01:41Z</time>
      </trkpt>
      <trkpt lat="45.62769" lon="5.66889">
        <ele>217</ele>
        <time>2017-04-23T13:01:41Z</time>
      </trkpt>
      <trkpt lat="45.62775" lon="5.66885">
        <ele>217</ele>
        <time>2017-04-23T13:01:41Z</time>
      </trkpt>
      <trkpt lat="45.6278" lon="5.6688">
        <ele>217</ele>
        <time>2017-04-23T13:01:41Z</time>
      </trkpt>
      <trkpt lat="45.62785" lon="5.66876">
        <ele>217</ele>
        <time>2017-04-23T13:01:57Z</time>
      </trkpt>
      <trkpt lat="45.6279" lon="5.66871">
        <ele>216</ele>
        <time>2017-04-23T13:01:57Z</time>
      </trkpt>
      <trkpt lat="45.62796" lon="5.66867">
        <ele>216</ele>
        <time>2017-04-23T13:01:57Z</time>
      </trkpt>
      <trkpt lat="45.62801" lon="5.66863">
        <ele>216</ele>
        <time>2017-04-23T13:01:57Z</time>
      </trkpt>
      <trkpt lat="45.62808" lon="5.66862">
        <ele>216</ele>
        <time>2017-04-23T13:02:13Z</time>
      </trkpt>
      <trkpt lat="45.62814" lon="5.66862">
        <ele>216</ele>
        <time>2017-04-23T13:02:13Z</time>
      </trkpt>
      <trkpt lat="45.62819" lon="5.66859">
        <ele>216</ele>
        <time>2017-04-23T13:02:13Z</time>
      </trkpt>
      <trkpt lat="45.62824" lon="5.66858">
        <ele>216</ele>
        <time>2017-04-23T13:02:13Z</time>
      </trkpt>
      <trkpt lat="45.62829" lon="5.66857">
        <ele>216</ele>
        <time>2017-04-23T13:02:29Z</time>
      </trkpt>
      <trkpt lat="45.62835" lon="5.66858">
        <ele>216</ele>
        <time>2017-04-23T13:02:29Z</time>
      </trkpt>
      <trkpt lat="45.62841" lon="5.66858">
        <ele>216</ele>
        <time>2017-04-23T13:02:29Z</time>
      </trkpt>
      <trkpt lat="45.62847" lon="5.66856">
        <ele>216</ele>
        <time>2017-04-23T13:02:29Z</time>
      </trkpt>
      <trkpt lat="45.62851" lon="5.66857">
        <ele>216</ele>
        <time>2017-04-23T13:02:45Z</time>
      </trkpt>
      <trkpt lat="45.62853" lon="5.66857">
        <ele>216</ele>
        <time>2017-04-23T13:02:45Z</time>
      </trkpt>
      <trkpt lat="45.62859" lon="5.66857">
        <ele>216</ele>
        <time>2017-04-23T13:02:45Z</time>
      </trkpt>
      <trkpt lat="45.62865" lon="5.66859">
        <ele>216</ele>
        <time>2017-04-23T13:02:45Z</time>
      </trkpt>
      <trkpt lat="45.62871" lon="5.6686">
        <ele>216</ele>
        <time>2017-04-23T13:03:01Z</time>
      </trkpt>
      <trkpt lat="45.62877" lon="5.66859">
        <ele>215</ele>
        <time>2017-04-23T13:03:01Z</time>
      </trkpt>
      <trkpt lat="45.62883" lon="5.66859">
        <ele>215</ele>
        <time>2017-04-23T13:03:01Z</time>
      </trkpt>
      <trkpt lat="45.6289" lon="5.6686">
        <ele>215</ele>
        <time>2017-04-23T13:03:01Z</time>
      </trkpt>
      <trkpt lat="45.62904" lon="5.66861">
        <ele>215</ele>
        <time>2017-04-23T13:03:17Z</time>
      </trkpt>
      <trkpt lat="45.62917" lon="5.66861">
        <ele>215</ele>
        <time>2017-04-23T13:03:17Z</time>
      </trkpt>
      <trkpt lat="45.62927" lon="5.66862">
        <ele>215</ele>
        <time>2017-04-23T13:03:17Z</time>
      </trkpt>
      <trkpt lat="45.62938" lon="5.66862">
        <ele>215</ele>
        <time>2017-04-23T13:03:17Z</time>
      </trkpt>
      <trkpt lat="45.62948" lon="5.66863">
        <ele>215</ele>
        <time>2017-04-23T13:03:33Z</time>
      </trkpt>
      <trkpt lat="45.62952" lon="5.66864">
        <ele>215</ele>
        <time>2017-04-23T13:03:33Z</time>
      </trkpt>
      <trkpt lat="45.62957" lon="5.66863">
        <ele>215</ele>
        <time>2017-04-23T13:03:33Z</time>
      </trkpt>
      <trkpt lat="45.62962" lon="5.66863">
        <ele>215</ele>
        <time>2017-04-23T13:03:33Z</time>
      </trkpt>
      <trkpt lat="45.6297" lon="5.66861">
        <ele>215</ele>
        <time>2017-04-23T13:03:49Z</time>
      </trkpt>
      <trkpt lat="45.62977" lon="5.66861">
        <ele>215</ele>
        <time>2017-04-23T13:03:49Z</time>
      </trkpt>
      <trkpt lat="45.62988" lon="5.66862">
        <ele>215</ele>
        <time>2017-04-23T13:03:49Z</time>
      </trkpt>
      <trkpt lat="45.62997" lon="5.66864">
        <ele>215</ele>
        <time>2017-04-23T13:03:49Z</time>
      </trkpt>
      <trkpt lat="45.63003" lon="5.66865">
        <ele>215</ele>
        <time>2017-04-23T13:04:05Z</time>
      </trkpt>
      <trkpt lat="45.63008" lon="5.66865">
        <ele>215</ele>
        <time>2017-04-23T13:04:05Z</time>
      </trkpt>
      <trkpt lat="45.63016" lon="5.66862">
        <ele>215</ele>
        <time>2017-04-23T13:04:05Z</time>
      </trkpt>
      <trkpt lat="45.63022" lon="5.66864">
        <ele>215</ele>
        <time>2017-04-23T13:04:05Z</time>
      </trkpt>
      <trkpt lat="45.63028" lon="5.66865">
        <ele>215</ele>
        <time>2017-04-23T13:04:21Z</time>
      </trkpt>
      <trkpt lat="45.63036" lon="5.66865">
        <ele>215</ele>
        <time>2017-04-23T13:04:21Z</time>
      </trkpt>
      <trkpt lat="45.63045" lon="5.66857">
        <ele>214</ele>
        <time>2017-04-23T13:04:21Z</time>
      </trkpt>
      <trkpt lat="45.63049" lon="5.66834">
        <ele>214</ele>
        <time>2017-04-23T13:04:21Z</time>
      </trkpt>
      <trkpt lat="45.6305" lon="5.66812">
        <ele>214</ele>
        <time>2017-04-23T13:04:37Z</time>
      </trkpt>
      <trkpt lat="45.63052" lon="5.66789">
        <ele>214</ele>
        <time>2017-04-23T13:04:37Z</time>
      </trkpt>
      <trkpt lat="45.63054" lon="5.66767">
        <ele>214</ele>
        <time>2017-04-23T13:04:37Z</time>
      </trkpt>
      <trkpt lat="45.63058" lon="5.66742">
        <ele>214</ele>
        <time>2017-04-23T13:04:37Z</time>
      </trkpt>
      <trkpt lat="45.63063" lon="5.66715">
        <ele>214</ele>
        <time>2017-04-23T13:04:53Z</time>
      </trkpt>
      <trkpt lat="45.63068" lon="5.66688">
        <ele>213</ele>
        <time>2017-04-23T13:04:53Z</time>
      </trkpt>
      <trkpt lat="45.63073" lon="5.66662">
        <ele>213</ele>
        <time>2017-04-23T13:04:53Z</time>
      </trkpt>
      <trkpt lat="45.63078" lon="5.66634">
        <ele>213</ele>
        <time>2017-04-23T13:04:53Z</time>
      </trkpt>
      <trkpt lat="45.63083" lon="5.66606">
        <ele>213</ele>
        <time>2017-04-23T13:05:09Z</time>
      </trkpt>
      <trkpt lat="45.63087" lon="5.66576">
        <ele>213</ele>
        <time>2017-04-23T13:05:09Z</time>
      </trkpt>
      <trkpt lat="45.63089" lon="5.66544">
        <ele>213</ele>
        <time>2017-04-23T13:05:09Z</time>
      </trkpt>
      <trkpt lat="45.63087" lon="5.66514">
        <ele>213</ele>
        <time>2017-04-23T13:05:09Z</time>
      </trkpt>
      <trkpt lat="45.63086" lon="5.66485">
        <ele>213</ele>
        <time>2017-04-23T13:05:25Z</time>
      </trkpt>
      <trkpt lat="45.63086" lon="5.66454">
        <ele>213</ele>
        <time>2017-04-23T13:05:25Z</time>
      </trkpt>
      <trkpt lat="45.63087" lon="5.66431">
        <ele>213</ele>
        <time>2017-04-23T13:05:25Z</time>
      </trkpt>
      <trkpt lat="45.6309" lon="5.66421">
        <ele>213</ele>
        <time>2017-04-23T13:05:25Z</time>
      </trkpt>
      <trkpt lat="45.63092" lon="5.6641">
        <ele>213</ele>
        <time>2017-04-23T13:05:41Z</time>
      </trkpt>
      <trkpt lat="45.63095" lon="5.66399">
        <ele>213</ele>
        <time>2017-04-23T13:05:41Z</time>
      </trkpt>
      <trkpt lat="45.63098" lon="5.66379">
        <ele>213</ele>
        <time>2017-04-23T13:05:41Z</time>
      </trkpt>
      <trkpt lat="45.63103" lon="5.66355">
        <ele>212</ele>
        <time>2017-04-23T13:05:41Z</time>
      </trkpt>
      <trkpt lat="45.63108" lon="5.66329">
        <ele>212</ele>
        <time>2017-04-23T13:05:57Z</time>
      </trkpt>
      <trkpt lat="45.63114" lon="5.66305">
        <ele>212</ele>
        <time>2017-04-23T13:05:57Z</time>
      </trkpt>
      <trkpt lat="45.63122" lon="5.66278">
        <ele>212</ele>
        <time>2017-04-23T13:05:57Z</time>
      </trkpt>
      <trkpt lat="45.63129" lon="5.66255">
        <ele>212</ele>
        <time>2017-04-23T13:05:57Z</time>
      </trkpt>
      <trkpt lat="45.63137" lon="5.6623">
        <ele>212</ele>
        <time>2017-04-23T13:06:13Z</time>
      </trkpt>
      <trkpt lat="45.63142" lon="5.66203">
        <ele>212</ele>
        <time>2017-04-23T13:06:13Z</time>
      </trkpt>
      <trkpt lat="45.6314" lon="5.66169">
        <ele>212</ele>
        <time>2017-04-23T13:06:13Z</time>
      </trkpt>
      <trkpt lat="45.63136" lon="5.66136">
        <ele>212</ele>
        <time>2017-04-23T13:06:13Z</time>
      </trkpt>
      <trkpt lat="45.63132" lon="5.66109">
        <ele>211</ele>
        <time>2017-04-23T13:06:29Z</time>
      </trkpt>
      <trkpt lat="45.63128" lon="5.66084">
        <ele>211</ele>
        <time>2017-04-23T13:06:29Z</time>
      </trkpt>
      <trkpt lat="45.63124" lon="5.66074">
        <ele>212</ele>
        <time>2017-04-23T13:06:29Z</time>
      </trkpt>
      <trkpt lat="45.6312" lon="5.66068">
        <ele>212</ele>
        <time>2017-04-23T13:06:29Z</time>
      </trkpt>
      <trkpt lat="45.63117" lon="5.6606">
        <ele>212</ele>
        <time>2017-04-23T13:06:45Z</time>
      </trkpt>
      <trkpt lat="45.63116" lon="5.66051">
        <ele>212</ele>
        <time>2017-04-23T13:06:45Z</time>
      </trkpt>
      <trkpt lat="45.63118" lon="5.66043">
        <ele>212</ele>
        <time>2017-04-23T13:06:45Z</time>
      </trkpt>
      <trkpt lat="45.63118" lon="5.66034">
        <ele>211</ele>
        <time>2017-04-23T13:06:45Z</time>
      </trkpt>
      <trkpt lat="45.63116" lon="5.66026">
        <ele>211</ele>
        <time>2017-04-23T13:07:01Z</time>
      </trkpt>
      <trkpt lat="45.63113" lon="5.66019">
        <ele>211</ele>
        <time>2017-04-23T13:07:01Z</time>
      </trkpt>
      <trkpt lat="45.6311" lon="5.66012">
        <ele>211</ele>
        <time>2017-04-23T13:07:01Z</time>
      </trkpt>
      <trkpt lat="45.63107" lon="5.66004">
        <ele>211</ele>
        <time>2017-04-23T13:07:01Z</time>
      </trkpt>
      <trkpt lat="45.63103" lon="5.65996">
        <ele>211</ele>
        <time>2017-04-23T13:07:17Z</time>
      </trkpt>
      <trkpt lat="45.631" lon="5.65988">
        <ele>211</ele>
        <time>2017-04-23T13:07:17Z</time>
      </trkpt>
      <trkpt lat="45.63097" lon="5.65981">
        <ele>211</ele>
        <time>2017-04-23T13:07:17Z</time>
      </trkpt>
      <trkpt lat="45.63095" lon="5.65973">
        <ele>211</ele>
        <time>2017-04-23T13:07:17Z</time>
      </trkpt>
      <trkpt lat="45.63091" lon="5.65966">
        <ele>211</ele>
        <time>2017-04-23T13:07:33Z</time>
      </trkpt>
      <trkpt lat="45.63087" lon="5.65959">
        <ele>211</ele>
        <time>2017-04-23T13:07:33Z</time>
      </trkpt>
      <trkpt lat="45.63084" lon="5.65951">
        <ele>211</ele>
        <time>2017-04-23T13:07:33Z</time>
      </trkpt>
      <trkpt lat="45.63081" lon="5.65945">
        <ele>211</ele>
        <time>2017-04-23T13:07:33Z</time>
      </trkpt>
      <trkpt lat="45.63077" lon="5.65938">
        <ele>211</ele>
        <time>2017-04-23T13:07:49Z</time>
      </trkpt>
      <trkpt lat="45.63074" lon="5.65931">
        <ele>211</ele>
        <time>2017-04-23T13:07:49Z</time>
      </trkpt>
      <trkpt lat="45.63071" lon="5.65924">
        <ele>211</ele>
        <time>2017-04-23T13:07:49Z</time>
      </trkpt>
      <trkpt lat="45.63067" lon="5.65918">
        <ele>211</ele>
        <time>2017-04-23T13:07:49Z</time>
      </trkpt>
      <trkpt lat="45.63064" lon="5.65913">
        <ele>211</ele>
        <time>2017-04-23T13:08:05Z</time>
      </trkpt>
      <trkpt lat="45.63062" lon="5.65906">
        <ele>211</ele>
        <time>2017-04-23T13:08:05Z</time>
      </trkpt>
      <trkpt lat="45.63059" lon="5.659">
        <ele>211</ele>
        <time>2017-04-23T13:08:05Z</time>
      </trkpt>
      <trkpt lat="45.63055" lon="5.65894">
        <ele>211</ele>
        <time>2017-04-23T13:08:05Z</time>
      </trkpt>
      <trkpt lat="45.63053" lon="5.65886">
        <ele>211</ele>
        <time>2017-04-23T13:08:21Z</time>
      </trkpt>
      <trkpt lat="45.63054" lon="5.65877">
        <ele>211</ele>
        <time>2017-04-23T13:08:21Z</time>
      </trkpt>
      <trkpt lat="45.63057" lon="5.65869">
        <ele>211</ele>
        <time>2017-04-23T13:08:21Z</time>
      </trkpt>
      <trkpt lat="45.63061" lon="5.65862">
        <ele>211</ele>
        <time>2017-04-23T13:08:21Z</time>
      </trkpt>
      <trkpt lat="45.63066" lon="5.65857">
        <ele>211</ele>
        <time>2017-04-23T13:08:37Z</time>
      </trkpt>
      <trkpt lat="45.63071" lon="5.65849">
        <ele>211</ele>
        <time>2017-04-23T13:08:37Z</time>
      </trkpt>
      <trkpt lat="45.63075" lon="5.65842">
        <ele>211</ele>
        <time>2017-04-23T13:08:37Z</time>
      </trkpt>
      <trkpt lat="45.63079" lon="5.65835">
        <ele>211</ele>
        <time>2017-04-23T13:08:37Z</time>
      </trkpt>
      <trkpt lat="45.63083" lon="5.65828">
        <ele>211</ele>
        <time>2017-04-23T13:08:53Z</time>
      </trkpt>
      <trkpt lat="45.63086" lon="5.65821">
        <ele>211</ele>
        <time>2017-04-23T13:08:53Z</time>
      </trkpt>
      <trkpt lat="45.6309" lon="5.65814">
        <ele>211</ele>
        <time>2017-04-23T13:08:53Z</time>
      </trkpt>
      <trkpt lat="45.63093" lon="5.65807">
        <ele>211</ele>
        <time>2017-04-23T13:08:53Z</time>
      </trkpt>
      <trkpt lat="45.63097" lon="5.658">
        <ele>211</ele>
        <time>2017-04-23T13:09:09Z</time>
      </trkpt>
      <trkpt lat="45.631" lon="5.65792">
        <ele>211</ele>
        <time>2017-04-23T13:09:09Z</time>
      </trkpt>
      <trkpt lat="45.63104" lon="5.65784">
        <ele>211</ele>
        <time>2017-04-23T13:09:09Z</time>
      </trkpt>
      <trkpt lat="45.63108" lon="5.65777">
        <ele>211</ele>
        <time>2017-04-23T13:09:09Z</time>
      </trkpt>
      <trkpt lat="45.63112" lon="5.6577">
        <ele>211</ele>
        <time>2017-04-23T13:09:25Z</time>
      </trkpt>
      <trkpt lat="45.63116" lon="5.65763">
        <ele>211</ele>
        <time>2017-04-23T13:09:25Z</time>
      </trkpt>
      <trkpt lat="45.6312" lon="5.65756">
        <ele>211</ele>
        <time>2017-04-23T13:09:25Z</time>
      </trkpt>
      <trkpt lat="45.63122" lon="5.65749">
        <ele>211</ele>
        <time>2017-04-23T13:09:25Z</time>
      </trkpt>
      <trkpt lat="45.63125" lon="5.65741">
        <ele>210</ele>
        <time>2017-04-23T13:09:41Z</time>
      </trkpt>
      <trkpt lat="45.63129" lon="5.65734">
        <ele>210</ele>
        <time>2017-04-23T13:09:41Z</time>
      </trkpt>
      <trkpt lat="45.63132" lon="5.65727">
        <ele>210</ele>
        <time>2017-04-23T13:09:41Z</time>
      </trkpt>
      <trkpt lat="45.63135" lon="5.6572">
        <ele>210</ele>
        <time>2017-04-23T13:09:41Z</time>
      </trkpt>
      <trkpt lat="45.63139" lon="5.65713">
        <ele>210</ele>
        <time>2017-04-23T13:09:57Z</time>
      </trkpt>
      <trkpt lat="45.63142" lon="5.65706">
        <ele>210</ele>
        <time>2017-04-23T13:09:57Z</time>
      </trkpt>
      <trkpt lat="45.63146" lon="5.65699">
        <ele>210</ele>
        <time>2017-04-23T13:09:57Z</time>
      </trkpt>
      <trkpt lat="45.63149" lon="5.65691">
        <ele>210</ele>
        <time>2017-04-23T13:09:57Z</time>
      </trkpt>
      <trkpt lat="45.63153" lon="5.65684">
        <ele>210</ele>
        <time>2017-04-23T13:10:13Z</time>
      </trkpt>
      <trkpt lat="45.63156" lon="5.65676">
        <ele>210</ele>
        <time>2017-04-23T13:10:13Z</time>
      </trkpt>
      <trkpt lat="45.63161" lon="5.65669">
        <ele>210</ele>
        <time>2017-04-23T13:10:13Z</time>
      </trkpt>
      <trkpt lat="45.63165" lon="5.65662">
        <ele>210</ele>
        <time>2017-04-23T13:10:13Z</time>
      </trkpt>
      <trkpt lat="45.63169" lon="5.65656">
        <ele>210</ele>
        <time>2017-04-23T13:10:29Z</time>
      </trkpt>
      <trkpt lat="45.63173" lon="5.65649">
        <ele>210</ele>
        <time>2017-04-23T13:10:29Z</time>
      </trkpt>
      <trkpt lat="45.63177" lon="5.65641">
        <ele>210</ele>
        <time>2017-04-23T13:10:29Z</time>
      </trkpt>
      <trkpt lat="45.63181" lon="5.65632">
        <ele>210</ele>
        <time>2017-04-23T13:10:29Z</time>
      </trkpt>
      <trkpt lat="45.63185" lon="5.65624">
        <ele>210</ele>
        <time>2017-04-23T13:10:45Z</time>
      </trkpt>
      <trkpt lat="45.63189" lon="5.65617">
        <ele>210</ele>
        <time>2017-04-23T13:10:45Z</time>
      </trkpt>
      <trkpt lat="45.63192" lon="5.6561">
        <ele>210</ele>
        <time>2017-04-23T13:10:45Z</time>
      </trkpt>
      <trkpt lat="45.63196" lon="5.65602">
        <ele>210</ele>
        <time>2017-04-23T13:10:45Z</time>
      </trkpt>
      <trkpt lat="45.632" lon="5.65595">
        <ele>210</ele>
        <time>2017-04-23T13:11:01Z</time>
      </trkpt>
      <trkpt lat="45.63203" lon="5.65588">
        <ele>210</ele>
        <time>2017-04-23T13:11:01Z</time>
      </trkpt>
      <trkpt lat="45.63207" lon="5.6558">
        <ele>210</ele>
        <time>2017-04-23T13:11:01Z</time>
      </trkpt>
      <trkpt lat="45.63209" lon="5.65572">
        <ele>210</ele>
        <time>2017-04-23T13:11:01Z</time>
      </trkpt>
      <trkpt lat="45.63206" lon="5.65563">
        <ele>210</ele>
        <time>2017-04-23T13:11:17Z</time>
      </trkpt>
      <trkpt lat="45.63202" lon="5.65557">
        <ele>210</ele>
        <time>2017-04-23T13:11:17Z</time>
      </trkpt>
      <trkpt lat="45.63197" lon="5.65553">
        <ele>210</ele>
        <time>2017-04-23T13:11:17Z</time>
      </trkpt>
      <trkpt lat="45.63192" lon="5.6555">
        <ele>210</ele>
        <time>2017-04-23T13:11:17Z</time>
      </trkpt>
      <trkpt lat="45.63187" lon="5.65545">
        <ele>210</ele>
        <time>2017-04-23T13:11:33Z</time>
      </trkpt>
      <trkpt lat="45.63183" lon="5.65542">
        <ele>210</ele>
        <time>2017-04-23T13:11:33Z</time>
      </trkpt>
      <trkpt lat="45.63179" lon="5.65538">
        <ele>210</ele>
        <time>2017-04-23T13:11:33Z</time>
      </trkpt>
      <trkpt lat="45.63174" lon="5.65535">
        <ele>210</ele>
        <time>2017-04-23T13:11:33Z</time>
      </trkpt>
      <trkpt lat="45.63168" lon="5.65532">
        <ele>210</ele>
        <time>2017-04-23T13:11:49Z</time>
      </trkpt>
      <trkpt lat="45.63162" lon="5.65528">
        <ele>210</ele>
        <time>2017-04-23T13:11:49Z</time>
      </trkpt>
      <trkpt lat="45.63156" lon="5.65522">
        <ele>210</ele>
        <time>2017-04-23T13:11:49Z</time>
      </trkpt>
      <trkpt lat="45.63151" lon="5.65517">
        <ele>210</ele>
        <time>2017-04-23T13:11:49Z</time>
      </trkpt>
      <trkpt lat="45.63146" lon="5.65512">
        <ele>210</ele>
        <time>2017-04-23T13:12:05Z</time>
      </trkpt>
      <trkpt lat="45.63141" lon="5.65509">
        <ele>210</ele>
        <time>2017-04-23T13:12:05Z</time>
      </trkpt>
      <trkpt lat="45.63135" lon="5.65505">
        <ele>210</ele>
        <time>2017-04-23T13:12:05Z</time>
      </trkpt>
      <trkpt lat="45.6313" lon="5.65501">
        <ele>210</ele>
        <time>2017-04-23T13:12:05Z</time>
      </trkpt>
      <trkpt lat="45.63124" lon="5.65498">
        <ele>210</ele>
        <time>2017-04-23T13:12:21Z</time>
      </trkpt>
      <trkpt lat="45.63119" lon="5.65496">
        <ele>210</ele>
        <time>2017-04-23T13:12:21Z</time>
      </trkpt>
      <trkpt lat="45.63114" lon="5.65495">
        <ele>210</ele>
        <time>2017-04-23T13:12:21Z</time>
      </trkpt>
      <trkpt lat="45.63108" lon="5.65493">
        <ele>210</ele>
        <time>2017-04-23T13:12:21Z</time>
      </trkpt>
      <trkpt lat="45.63103" lon="5.6549">
        <ele>210</ele>
        <time>2017-04-23T13:12:37Z</time>
      </trkpt>
      <trkpt lat="45.63099" lon="5.65485">
        <ele>210</ele>
        <time>2017-04-23T13:12:37Z</time>
      </trkpt>
      <trkpt lat="45.63098" lon="5.65479">
        <ele>210</ele>
        <time>2017-04-23T13:12:37Z</time>
      </trkpt>
      <trkpt lat="45.63095" lon="5.65471">
        <ele>210</ele>
        <time>2017-04-23T13:12:37Z</time>
      </trkpt>
      <trkpt lat="45.63092" lon="5.65464">
        <ele>210</ele>
        <time>2017-04-23T13:12:53Z</time>
      </trkpt>
      <trkpt lat="45.63089" lon="5.65457">
        <ele>210</ele>
        <time>2017-04-23T13:12:53Z</time>
      </trkpt>
      <trkpt lat="45.63087" lon="5.6545">
        <ele>210</ele>
        <time>2017-04-23T13:12:53Z</time>
      </trkpt>
      <trkpt lat="45.63086" lon="5.6544">
        <ele>210</ele>
        <time>2017-04-23T13:12:53Z</time>
      </trkpt>
      <trkpt lat="45.63085" lon="5.65428">
        <ele>210</ele>
        <time>2017-04-23T13:13:09Z</time>
      </trkpt>
      <trkpt lat="45.63086" lon="5.65417">
        <ele>210</ele>
        <time>2017-04-23T13:13:09Z</time>
      </trkpt>
      <trkpt lat="45.63086" lon="5.65407">
        <ele>210</ele>
        <time>2017-04-23T13:13:09Z</time>
      </trkpt>
      <trkpt lat="45.63085" lon="5.65398">
        <ele>210</ele>
        <time>2017-04-23T13:13:09Z</time>
      </trkpt>
      <trkpt lat="45.63086" lon="5.65389">
        <ele>210</ele>
        <time>2017-04-23T13:13:25Z</time>
      </trkpt>
      <trkpt lat="45.63088" lon="5.65381">
        <ele>210</ele>
        <time>2017-04-23T13:13:25Z</time>
      </trkpt>
      <trkpt lat="45.63093" lon="5.65378">
        <ele>210</ele>
        <time>2017-04-23T13:13:25Z</time>
      </trkpt>
      <trkpt lat="45.63097" lon="5.65383">
        <ele>210</ele>
        <time>2017-04-23T13:13:25Z</time>
      </trkpt>
      <trkpt lat="45.63102" lon="5.65383">
        <ele>210</ele>
        <time>2017-04-23T13:13:41Z</time>
      </trkpt>
      <trkpt lat="45.63105" lon="5.65381">
        <ele>210</ele>
        <time>2017-04-23T13:13:41Z</time>
      </trkpt>
      <trkpt lat="45.6311" lon="5.65383">
        <ele>210</ele>
        <time>2017-04-23T13:13:41Z</time>
      </trkpt>
      <trkpt lat="45.63114" lon="5.65388">
        <ele>210</ele>
        <time>2017-04-23T13:13:41Z</time>
      </trkpt>
      <trkpt lat="45.63118" lon="5.6539">
        <ele>210</ele>
        <time>2017-04-23T13:13:57Z</time>
      </trkpt>
      <trkpt lat="45.63124" lon="5.65392">
        <ele>210</ele>
        <time>2017-04-23T13:13:57Z</time>
      </trkpt>
      <trkpt lat="45.6313" lon="5.65396">
        <ele>209</ele>
        <time>2017-04-23T13:13:57Z</time>
      </trkpt>
      <trkpt lat="45.63134" lon="5.65398">
        <ele>209</ele>
        <time>2017-04-23T13:13:57Z</time>
      </trkpt>
      <trkpt lat="45.63138" lon="5.65402">
        <ele>209</ele>
        <time>2017-04-23T13:14:13Z</time>
      </trkpt>
      <trkpt lat="45.63143" lon="5.65408">
        <ele>209</ele>
        <time>2017-04-23T13:14:13Z</time>
      </trkpt>
      <trkpt lat="45.6315" lon="5.65414">
        <ele>209</ele>
        <time>2017-04-23T13:14:13Z</time>
      </trkpt>
      <trkpt lat="45.63157" lon="5.65415">
        <ele>209</ele>
        <time>2017-04-23T13:14:13Z</time>
      </trkpt>
      <trkpt lat="45.63162" lon="5.65416">
        <ele>209</ele>
        <time>2017-04-23T13:14:29Z</time>
      </trkpt>
      <trkpt lat="45.63166" lon="5.65419">
        <ele>209</ele>
        <time>2017-04-23T13:14:29Z</time>
      </trkpt>
      <trkpt lat="45.63171" lon="5.65422">
        <ele>209</ele>
        <time>2017-04-23T13:14:29Z</time>
      </trkpt>
      <trkpt lat="45.63175" lon="5.65424">
        <ele>209</ele>
        <time>2017-04-23T13:14:29Z</time>
      </trkpt>
      <trkpt lat="45.63184" lon="5.65428">
        <ele>209</ele>
        <time>2017-04-23T13:14:45Z</time>
      </trkpt>
      <trkpt lat="45.63191" lon="5.65432">
        <ele>209</ele>
        <time>2017-04-23T13:14:45Z</time>
      </trkpt>
      <trkpt lat="45.63198" lon="5.65436">
        <ele>209</ele>
        <time>2017-04-23T13:14:45Z</time>
      </trkpt>
      <trkpt lat="45.63203" lon="5.65441">
        <ele>209</ele>
        <time>2017-04-23T13:14:45Z</time>
      </trkpt>
      <trkpt lat="45.63209" lon="5.65443">
        <ele>210</ele>
        <time>2017-04-23T13:15:01Z</time>
      </trkpt>
      <trkpt lat="45.63218" lon="5.65445">
        <ele>210</ele>
        <time>2017-04-23T13:15:01Z</time>
      </trkpt>
      <trkpt lat="45.63224" lon="5.65451">
        <ele>210</ele>
        <time>2017-04-23T13:15:01Z</time>
      </trkpt>
      <trkpt lat="45.6323" lon="5.65455">
        <ele>210</ele>
        <time>2017-04-23T13:15:01Z</time>
      </trkpt>
      <trkpt lat="45.63237" lon="5.6546">
        <ele>210</ele>
        <time>2017-04-23T13:15:17Z</time>
      </trkpt>
      <trkpt lat="45.63242" lon="5.65464">
        <ele>210</ele>
        <time>2017-04-23T13:15:17Z</time>
      </trkpt>
      <trkpt lat="45.63249" lon="5.65468">
        <ele>210</ele>
        <time>2017-04-23T13:15:17Z</time>
      </trkpt>
      <trkpt lat="45.63254" lon="5.65472">
        <ele>210</ele>
        <time>2017-04-23T13:15:17Z</time>
      </trkpt>
      <trkpt lat="45.63259" lon="5.65475">
        <ele>210</ele>
        <time>2017-04-23T13:15:33Z</time>
      </trkpt>
      <trkpt lat="45.63264" lon="5.65478">
        <ele>210</ele>
        <time>2017-04-23T13:15:33Z</time>
      </trkpt>
      <trkpt lat="45.63269" lon="5.65482">
        <ele>210</ele>
        <time>2017-04-23T13:15:33Z</time>
      </trkpt>
      <trkpt lat="45.63274" lon="5.65485">
        <ele>210</ele>
        <time>2017-04-23T13:15:33Z</time>
      </trkpt>
      <trkpt lat="45.6328" lon="5.65488">
        <ele>210</ele>
        <time>2017-04-23T13:15:49Z</time>
      </trkpt>
      <trkpt lat="45.63286" lon="5.65491">
        <ele>210</ele>
        <time>2017-04-23T13:15:49Z</time>
      </trkpt>
      <trkpt lat="45.63292" lon="5.65496">
        <ele>210</ele>
        <time>2017-04-23T13:15:49Z</time>
      </trkpt>
      <trkpt lat="45.63298" lon="5.65501">
        <ele>210</ele>
        <time>2017-04-23T13:15:49Z</time>
      </trkpt>
      <trkpt lat="45.63304" lon="5.65504">
        <ele>210</ele>
        <time>2017-04-23T13:16:05Z</time>
      </trkpt>
      <trkpt lat="45.6331" lon="5.65508">
        <ele>210</ele>
        <time>2017-04-23T13:16:05Z</time>
      </trkpt>
      <trkpt lat="45.63315" lon="5.65512">
        <ele>210</ele>
        <time>2017-04-23T13:16:05Z</time>
      </trkpt>
      <trkpt lat="45.63319" lon="5.65516">
        <ele>210</ele>
        <time>2017-04-23T13:16:05Z</time>
      </trkpt>
      <trkpt lat="45.63324" lon="5.65519">
        <ele>210</ele>
        <time>2017-04-23T13:16:21Z</time>
      </trkpt>
      <trkpt lat="45.6333" lon="5.65524">
        <ele>210</ele>
        <time>2017-04-23T13:16:21Z</time>
      </trkpt>
      <trkpt lat="45.63335" lon="5.65529">
        <ele>210</ele>
        <time>2017-04-23T13:16:21Z</time>
      </trkpt>
      <trkpt lat="45.63341" lon="5.65534">
        <ele>210</ele>
        <time>2017-04-23T13:16:21Z</time>
      </trkpt>
      <trkpt lat="45.63348" lon="5.65538">
        <ele>210</ele>
        <time>2017-04-23T13:16:37Z</time>
      </trkpt>
      <trkpt lat="45.63354" lon="5.65541">
        <ele>210</ele>
        <time>2017-04-23T13:16:37Z</time>
      </trkpt>
      <trkpt lat="45.63361" lon="5.65544">
        <ele>211</ele>
        <time>2017-04-23T13:16:37Z</time>
      </trkpt>
      <trkpt lat="45.63367" lon="5.65549">
        <ele>211</ele>
        <time>2017-04-23T13:16:37Z</time>
      </trkpt>
      <trkpt lat="45.63374" lon="5.65552">
        <ele>211</ele>
        <time>2017-04-23T13:16:53Z</time>
      </trkpt>
      <trkpt lat="45.63381" lon="5.65556">
        <ele>211</ele>
        <time>2017-04-23T13:16:53Z</time>
      </trkpt>
      <trkpt lat="45.63385" lon="5.65562">
        <ele>211</ele>
        <time>2017-04-23T13:16:53Z</time>
      </trkpt>
      <trkpt lat="45.63391" lon="5.65565">
        <ele>211</ele>
        <time>2017-04-23T13:16:53Z</time>
      </trkpt>
      <trkpt lat="45.63396" lon="5.65568">
        <ele>211</ele>
        <time>2017-04-23T13:17:09Z</time>
      </trkpt>
      <trkpt lat="45.63402" lon="5.65572">
        <ele>211</ele>
        <time>2017-04-23T13:17:09Z</time>
      </trkpt>
      <trkpt lat="45.63407" lon="5.65575">
        <ele>211</ele>
        <time>2017-04-23T13:17:09Z</time>
      </trkpt>
      <trkpt lat="45.63412" lon="5.65579">
        <ele>211</ele>
        <time>2017-04-23T13:17:09Z</time>
      </trkpt>
      <trkpt lat="45.63418" lon="5.65583">
        <ele>211</ele>
        <time>2017-04-23T13:17:25Z</time>
      </trkpt>
      <trkpt lat="45.63424" lon="5.65587">
        <ele>211</ele>
        <time>2017-04-23T13:17:25Z</time>
      </trkpt>
      <trkpt lat="45.6343" lon="5.6559">
        <ele>211</ele>
        <time>2017-04-23T13:17:25Z</time>
      </trkpt>
      <trkpt lat="45.63436" lon="5.65593">
        <ele>211</ele>
        <time>2017-04-23T13:17:25Z</time>
      </trkpt>
      <trkpt lat="45.63442" lon="5.65596">
        <ele>211</ele>
        <time>2017-04-23T13:17:41Z</time>
      </trkpt>
      <trkpt lat="45.63446" lon="5.656">
        <ele>211</ele>
        <time>2017-04-23T13:17:41Z</time>
      </trkpt>
      <trkpt lat="45.63451" lon="5.65604">
        <ele>211</ele>
        <time>2017-04-23T13:17:41Z</time>
      </trkpt>
      <trkpt lat="45.63456" lon="5.65604">
        <ele>211</ele>
        <time>2017-04-23T13:17:41Z</time>
      </trkpt>
      <trkpt lat="45.63461" lon="5.656">
        <ele>211</ele>
        <time>2017-04-23T13:17:57Z</time>
      </trkpt>
      <trkpt lat="45.63465" lon="5.65595">
        <ele>211</ele>
        <time>2017-04-23T13:17:57Z</time>
      </trkpt>
      <trkpt lat="45.63469" lon="5.65586">
        <ele>211</ele>
        <time>2017-04-23T13:17:57Z</time>
      </trkpt>
      <trkpt lat="45.63473" lon="5.65579">
        <ele>211</ele>
        <time>2017-04-23T13:17:57Z</time>
      </trkpt>
      <trkpt lat="45.63477" lon="5.65573">
        <ele>211</ele>
        <time>2017-04-23T13:18:13Z</time>
      </trkpt>
      <trkpt lat="45.63482" lon="5.65567">
        <ele>211</ele>
        <time>2017-04-23T13:18:13Z</time>
      </trkpt>
      <trkpt lat="45.63486" lon="5.65561">
        <ele>211</ele>
        <time>2017-04-23T13:18:13Z</time>
      </trkpt>
      <trkpt lat="45.6349" lon="5.65555">
        <ele>211</ele>
        <time>2017-04-23T13:18:13Z</time>
      </trkpt>
      <trkpt lat="45.63494" lon="5.65548">
        <ele>211</ele>
        <time>2017-04-23T13:18:29Z</time>
      </trkpt>
      <trkpt lat="45.63498" lon="5.65543">
        <ele>211</ele>
        <time>2017-04-23T13:18:29Z</time>
      </trkpt>
      <trkpt lat="45.63503" lon="5.65539">
        <ele>211</ele>
        <time>2017-04-23T13:18:29Z</time>
      </trkpt>
      <trkpt lat="45.63508" lon="5.65531">
        <ele>211</ele>
        <time>2017-04-23T13:18:29Z</time>
      </trkpt>
      <trkpt lat="45.63511" lon="5.65524">
        <ele>211</ele>
        <time>2017-04-23T13:18:45Z</time>
      </trkpt>
      <trkpt lat="45.63516" lon="5.65521">
        <ele>211</ele>
        <time>2017-04-23T13:18:45Z</time>
      </trkpt>
      <trkpt lat="45.63519" lon="5.65514">
        <ele>211</ele>
        <time>2017-04-23T13:18:45Z</time>
      </trkpt>
      <trkpt lat="45.63523" lon="5.65507">
        <ele>211</ele>
        <time>2017-04-23T13:18:45Z</time>
      </trkpt>
      <trkpt lat="45.63527" lon="5.65502">
        <ele>211</ele>
        <time>2017-04-23T13:19:01Z</time>
      </trkpt>
      <trkpt lat="45.63531" lon="5.65497">
        <ele>211</ele>
        <time>2017-04-23T13:19:01Z</time>
      </trkpt>
      <trkpt lat="45.63535" lon="5.65488">
        <ele>211</ele>
        <time>2017-04-23T13:19:01Z</time>
      </trkpt>
      <trkpt lat="45.63538" lon="5.65482">
        <ele>211</ele>
        <time>2017-04-23T13:19:01Z</time>
      </trkpt>
      <trkpt lat="45.63543" lon="5.65479">
        <ele>211</ele>
        <time>2017-04-23T13:20:13Z</time>
      </trkpt>
      <trkpt lat="45.63543" lon="5.65477">
        <ele>211</ele>
        <time>2017-04-23T13:20:13Z</time>
      </trkpt>
      <trkpt lat="45.63545" lon="5.65474">
        <ele>211</ele>
        <time>2017-04-23T13:20:13Z</time>
      </trkpt>
      <trkpt lat="45.63547" lon="5.6547">
        <ele>211</ele>
        <time>2017-04-23T13:20:13Z</time>
      </trkpt>
      <trkpt lat="45.6355" lon="5.65464">
        <ele>211</ele>
        <time>2017-04-23T13:20:13Z</time>
      </trkpt>
      <trkpt lat="45.63554" lon="5.65457">
        <ele>211</ele>
        <time>2017-04-23T13:20:29Z</time>
      </trkpt>
      <trkpt lat="45.63558" lon="5.65451">
        <ele>211</ele>
        <time>2017-04-23T13:20:29Z</time>
      </trkpt>
      <trkpt lat="45.63563" lon="5.65445">
        <ele>211</ele>
        <time>2017-04-23T13:20:29Z</time>
      </trkpt>
      <trkpt lat="45.63567" lon="5.65439">
        <ele>211</ele>
        <time>2017-04-23T13:20:29Z</time>
      </trkpt>
      <trkpt lat="45.63572" lon="5.65433">
        <ele>211</ele>
        <time>2017-04-23T13:20:45Z</time>
      </trkpt>
      <trkpt lat="45.63575" lon="5.65426">
        <ele>211</ele>
        <time>2017-04-23T13:20:45Z</time>
      </trkpt>
      <trkpt lat="45.63579" lon="5.6542">
        <ele>211</ele>
        <time>2017-04-23T13:20:45Z</time>
      </trkpt>
      <trkpt lat="45.63583" lon="5.65415">
        <ele>211</ele>
        <time>2017-04-23T13:20:45Z</time>
      </trkpt>
      <trkpt lat="45.63586" lon="5.6541">
        <ele>211</ele>
        <time>2017-04-23T13:21:01Z</time>
      </trkpt>
      <trkpt lat="45.63589" lon="5.65406">
        <ele>211</ele>
        <time>2017-04-23T13:21:01Z</time>
      </trkpt>
      <trkpt lat="45.63593" lon="5.65401">
        <ele>211</ele>
        <time>2017-04-23T13:21:01Z</time>
      </trkpt>
      <trkpt lat="45.63597" lon="5.65396">
        <ele>211</ele>
        <time>2017-04-23T13:21:01Z</time>
      </trkpt>
      <trkpt lat="45.63602" lon="5.6539">
        <ele>211</ele>
        <time>2017-04-23T13:21:17Z</time>
      </trkpt>
      <trkpt lat="45.63608" lon="5.65385">
        <ele>211</ele>
        <time>2017-04-23T13:21:17Z</time>
      </trkpt>
      <trkpt lat="45.63613" lon="5.6538">
        <ele>211</ele>
        <time>2017-04-23T13:21:17Z</time>
      </trkpt>
      <trkpt lat="45.63614" lon="5.65379">
        <ele>211</ele>
        <time>2017-04-23T13:21:17Z</time>
      </trkpt>
      <trkpt lat="45.63615" lon="5.65379">
        <ele>211</ele>
        <time>2017-04-23T13:21:41Z</time>
      </trkpt>
      <trkpt lat="45.63615" lon="5.65379">
        <ele>211</ele>
        <time>2017-04-23T13:21:41Z</time>
      </trkpt>
      <trkpt lat="45.63615" lon="5.65379">
        <ele>211</ele>
        <time>2017-04-23T13:21:41Z</time>
      </trkpt>
      <trkpt lat="45.63618" lon="5.65377">
        <ele>211</ele>
        <time>2017-04-23T13:21:41Z</time>
      </trkpt>
      <trkpt lat="45.63623" lon="5.65373">
        <ele>211</ele>
        <time>2017-04-23T13:21:41Z</time>
      </trkpt>
      <trkpt lat="45.63629" lon="5.65369">
        <ele>211</ele>
        <time>2017-04-23T13:21:57Z</time>
      </trkpt>
      <trkpt lat="45.63633" lon="5.65364">
        <ele>211</ele>
        <time>2017-04-23T13:21:57Z</time>
      </trkpt>
      <trkpt lat="45.63638" lon="5.65361">
        <ele>211</ele>
        <time>2017-04-23T13:21:57Z</time>
      </trkpt>
      <trkpt lat="45.63643" lon="5.65357">
        <ele>211</ele>
        <time>2017-04-23T13:21:57Z</time>
      </trkpt>
      <trkpt lat="45.63648" lon="5.65352">
        <ele>211</ele>
        <time>2017-04-23T13:22:13Z</time>
      </trkpt>
      <trkpt lat="45.63654" lon="5.65349">
        <ele>211</ele>
        <time>2017-04-23T13:22:13Z</time>
      </trkpt>
      <trkpt lat="45.63661" lon="5.65349">
        <ele>211</ele>
        <time>2017-04-23T13:22:13Z</time>
      </trkpt>
      <trkpt lat="45.63668" lon="5.65351">
        <ele>211</ele>
        <time>2017-04-23T13:22:13Z</time>
      </trkpt>
      <trkpt lat="45.63674" lon="5.65352">
        <ele>211</ele>
        <time>2017-04-23T13:22:29Z</time>
      </trkpt>
      <trkpt lat="45.6368" lon="5.65352">
        <ele>211</ele>
        <time>2017-04-23T13:22:29Z</time>
      </trkpt>
      <trkpt lat="45.63686" lon="5.6535">
        <ele>211</ele>
        <time>2017-04-23T13:22:29Z</time>
      </trkpt>
      <trkpt lat="45.63691" lon="5.65347">
        <ele>211</ele>
        <time>2017-04-23T13:22:29Z</time>
      </trkpt>
      <trkpt lat="45.63697" lon="5.65344">
        <ele>211</ele>
        <time>2017-04-23T13:22:45Z</time>
      </trkpt>
      <trkpt lat="45.63703" lon="5.65342">
        <ele>211</ele>
        <time>2017-04-23T13:22:45Z</time>
      </trkpt>
      <trkpt lat="45.63709" lon="5.65338">
        <ele>212</ele>
        <time>2017-04-23T13:22:45Z</time>
      </trkpt>
      <trkpt lat="45.63715" lon="5.65332">
        <ele>212</ele>
        <time>2017-04-23T13:22:45Z</time>
      </trkpt>
      <trkpt lat="45.63719" lon="5.65325">
        <ele>212</ele>
        <time>2017-04-23T13:23:01Z</time>
      </trkpt>
      <trkpt lat="45.63723" lon="5.6532">
        <ele>212</ele>
        <time>2017-04-23T13:23:01Z</time>
      </trkpt>
      <trkpt lat="45.63726" lon="5.65313">
        <ele>212</ele>
        <time>2017-04-23T13:23:01Z</time>
      </trkpt>
      <trkpt lat="45.63729" lon="5.65307">
        <ele>212</ele>
        <time>2017-04-23T13:23:01Z</time>
      </trkpt>
      <trkpt lat="45.63732" lon="5.653">
        <ele>212</ele>
        <time>2017-04-23T13:23:17Z</time>
      </trkpt>
      <trkpt lat="45.63733" lon="5.65292">
        <ele>213</ele>
        <time>2017-04-23T13:23:17Z</time>
      </trkpt>
      <trkpt lat="45.63734" lon="5.65283">
        <ele>213</ele>
        <time>2017-04-23T13:23:17Z</time>
      </trkpt>
      <trkpt lat="45.63734" lon="5.65274">
        <ele>213</ele>
        <time>2017-04-23T13:23:17Z</time>
      </trkpt>
      <trkpt lat="45.63735" lon="5.65265">
        <ele>213</ele>
        <time>2017-04-23T13:23:33Z</time>
      </trkpt>
      <trkpt lat="45.63735" lon="5.65257">
        <ele>213</ele>
        <time>2017-04-23T13:23:33Z</time>
      </trkpt>
      <trkpt lat="45.63734" lon="5.65248">
        <ele>213</ele>
        <time>2017-04-23T13:23:33Z</time>
      </trkpt>
      <trkpt lat="45.63732" lon="5.65239">
        <ele>213</ele>
        <time>2017-04-23T13:23:33Z</time>
      </trkpt>
      <trkpt lat="45.6373" lon="5.65229">
        <ele>213</ele>
        <time>2017-04-23T13:23:49Z</time>
      </trkpt>
      <trkpt lat="45.63727" lon="5.65221">
        <ele>213</ele>
        <time>2017-04-23T13:23:49Z</time>
      </trkpt>
      <trkpt lat="45.63726" lon="5.65212">
        <ele>213</ele>
        <time>2017-04-23T13:23:49Z</time>
      </trkpt>
      <trkpt lat="45.63724" lon="5.65203">
        <ele>213</ele>
        <time>2017-04-23T13:23:49Z</time>
      </trkpt>
      <trkpt lat="45.63722" lon="5.65195">
        <ele>213</ele>
        <time>2017-04-23T13:24:05Z</time>
      </trkpt>
      <trkpt lat="45.6372" lon="5.65188">
        <ele>213</ele>
        <time>2017-04-23T13:24:05Z</time>
      </trkpt>
      <trkpt lat="45.63718" lon="5.6518">
        <ele>213</ele>
        <time>2017-04-23T13:24:05Z</time>
      </trkpt>
      <trkpt lat="45.63716" lon="5.65172">
        <ele>213</ele>
        <time>2017-04-23T13:24:05Z</time>
      </trkpt>
      <trkpt lat="45.63714" lon="5.65164">
        <ele>213</ele>
        <time>2017-04-23T13:24:21Z</time>
      </trkpt>
      <trkpt lat="45.63711" lon="5.65161">
        <ele>213</ele>
        <time>2017-04-23T13:24:21Z</time>
      </trkpt>
      <trkpt lat="45.6371" lon="5.65157">
        <ele>213</ele>
        <time>2017-04-23T13:24:21Z</time>
      </trkpt>
      <trkpt lat="45.63708" lon="5.65152">
        <ele>213</ele>
        <time>2017-04-23T13:24:21Z</time>
      </trkpt>
      <trkpt lat="45.63705" lon="5.65148">
        <ele>212</ele>
        <time>2017-04-23T13:24:37Z</time>
      </trkpt>
      <trkpt lat="45.63701" lon="5.65145">
        <ele>212</ele>
        <time>2017-04-23T13:24:37Z</time>
      </trkpt>
      <trkpt lat="45.63696" lon="5.65144">
        <ele>212</ele>
        <time>2017-04-23T13:24:37Z</time>
      </trkpt>
      <trkpt lat="45.6369" lon="5.65144">
        <ele>212</ele>
        <time>2017-04-23T13:24:37Z</time>
      </trkpt>
      <trkpt lat="45.63684" lon="5.65144">
        <ele>212</ele>
        <time>2017-04-23T13:24:53Z</time>
      </trkpt>
      <trkpt lat="45.63678" lon="5.65144">
        <ele>212</ele>
        <time>2017-04-23T13:24:53Z</time>
      </trkpt>
      <trkpt lat="45.63673" lon="5.65141">
        <ele>212</ele>
        <time>2017-04-23T13:24:53Z</time>
      </trkpt>
      <trkpt lat="45.63671" lon="5.65141">
        <ele>212</ele>
        <time>2017-04-23T13:24:53Z</time>
      </trkpt>
      <trkpt lat="45.6367" lon="5.6514">
        <ele>212</ele>
        <time>2017-04-23T13:26:09Z</time>
      </trkpt>
      <trkpt lat="45.6367" lon="5.6514">
        <ele>212</ele>
        <time>2017-04-23T13:26:09Z</time>
      </trkpt>
      <trkpt lat="45.63668" lon="5.65138">
        <ele>212</ele>
        <time>2017-04-23T13:26:09Z</time>
      </trkpt>
      <trkpt lat="45.63665" lon="5.65133">
        <ele>212</ele>
        <time>2017-04-23T13:26:09Z</time>
      </trkpt>
      <trkpt lat="45.63662" lon="5.65128">
        <ele>212</ele>
        <time>2017-04-23T13:26:09Z</time>
      </trkpt>
      <trkpt lat="45.6366" lon="5.65126">
        <ele>212</ele>
        <time>2017-04-23T13:26:25Z</time>
      </trkpt>
      <trkpt lat="45.63657" lon="5.65121">
        <ele>213</ele>
        <time>2017-04-23T13:26:25Z</time>
      </trkpt>
      <trkpt lat="45.63653" lon="5.65114">
        <ele>213</ele>
        <time>2017-04-23T13:26:25Z</time>
      </trkpt>
      <trkpt lat="45.63649" lon="5.65107">
        <ele>213</ele>
        <time>2017-04-23T13:26:25Z</time>
      </trkpt>
      <trkpt lat="45.63644" lon="5.651">
        <ele>213</ele>
        <time>2017-04-23T13:26:41Z</time>
      </trkpt>
      <trkpt lat="45.6364" lon="5.6509">
        <ele>213</ele>
        <time>2017-04-23T13:26:41Z</time>
      </trkpt>
      <trkpt lat="45.63637" lon="5.65081">
        <ele>213</ele>
        <time>2017-04-23T13:26:41Z</time>
      </trkpt>
      <trkpt lat="45.63638" lon="5.65073">
        <ele>213</ele>
        <time>2017-04-23T13:26:41Z</time>
      </trkpt>
      <trkpt lat="45.63641" lon="5.65068">
        <ele>213</ele>
        <time>2017-04-23T13:26:57Z</time>
      </trkpt>
      <trkpt lat="45.63643" lon="5.65061">
        <ele>213</ele>
        <time>2017-04-23T13:26:57Z</time>
      </trkpt>
      <trkpt lat="45.63645" lon="5.65053">
        <ele>213</ele>
        <time>2017-04-23T13:26:57Z</time>
      </trkpt>
      <trkpt lat="45.63644" lon="5.65049">
        <ele>213</ele>
        <time>2017-04-23T13:26:57Z</time>
      </trkpt>
      <trkpt lat="45.63641" lon="5.65042">
        <ele>213</ele>
        <time>2017-04-23T13:27:13Z</time>
      </trkpt>
      <trkpt lat="45.63637" lon="5.65035">
        <ele>214</ele>
        <time>2017-04-23T13:27:13Z</time>
      </trkpt>
      <trkpt lat="45.63633" lon="5.65029">
        <ele>214</ele>
        <time>2017-04-23T13:27:13Z</time>
      </trkpt>
      <trkpt lat="45.63628" lon="5.65023">
        <ele>214</ele>
        <time>2017-04-23T13:27:13Z</time>
      </trkpt>
      <trkpt lat="45.63623" lon="5.65017">
        <ele>213</ele>
        <time>2017-04-23T13:27:29Z</time>
      </trkpt>
      <trkpt lat="45.63617" lon="5.65009">
        <ele>213</ele>
        <time>2017-04-23T13:27:29Z</time>
      </trkpt>
      <trkpt lat="45.6361" lon="5.65002">
        <ele>213</ele>
        <time>2017-04-23T13:27:29Z</time>
      </trkpt>
      <trkpt lat="45.63604" lon="5.64995">
        <ele>213</ele>
        <time>2017-04-23T13:27:29Z</time>
      </trkpt>
      <trkpt lat="45.636" lon="5.64988">
        <ele>213</ele>
        <time>2017-04-23T13:27:45Z</time>
      </trkpt>
      <trkpt lat="45.63596" lon="5.64981">
        <ele>213</ele>
        <time>2017-04-23T13:27:45Z</time>
      </trkpt>
      <trkpt lat="45.6359" lon="5.64975">
        <ele>213</ele>
        <time>2017-04-23T13:27:45Z</time>
      </trkpt>
      <trkpt lat="45.63585" lon="5.64968">
        <ele>213</ele>
        <time>2017-04-23T13:27:45Z</time>
      </trkpt>
      <trkpt lat="45.63579" lon="5.64963">
        <ele>213</ele>
        <time>2017-04-23T13:28:01Z</time>
      </trkpt>
      <trkpt lat="45.63575" lon="5.64959">
        <ele>213</ele>
        <time>2017-04-23T13:28:01Z</time>
      </trkpt>
      <trkpt lat="45.63572" lon="5.64954">
        <ele>213</ele>
        <time>2017-04-23T13:28:01Z</time>
      </trkpt>
      <trkpt lat="45.63568" lon="5.6495">
        <ele>213</ele>
        <time>2017-04-23T13:28:01Z</time>
      </trkpt>
      <trkpt lat="45.63562" lon="5.64947">
        <ele>213</ele>
        <time>2017-04-23T13:28:17Z</time>
      </trkpt>
      <trkpt lat="45.63554" lon="5.64943">
        <ele>213</ele>
        <time>2017-04-23T13:28:17Z</time>
      </trkpt>
      <trkpt lat="45.6355" lon="5.6494">
        <ele>213</ele>
        <time>2017-04-23T13:28:17Z</time>
      </trkpt>
      <trkpt lat="45.63546" lon="5.64939">
        <ele>213</ele>
        <time>2017-04-23T13:28:17Z</time>
      </trkpt>
      <trkpt lat="45.63534" lon="5.64935">
        <ele>212</ele>
        <time>2017-04-23T13:28:33Z</time>
      </trkpt>
      <trkpt lat="45.63518" lon="5.64926">
        <ele>212</ele>
        <time>2017-04-23T13:28:33Z</time>
      </trkpt>
      <trkpt lat="45.63507" lon="5.64911">
        <ele>212</ele>
        <time>2017-04-23T13:28:33Z</time>
      </trkpt>
      <trkpt lat="45.63497" lon="5.649">
        <ele>212</ele>
        <time>2017-04-23T13:28:33Z</time>
      </trkpt>
      <trkpt lat="45.63482" lon="5.64888">
        <ele>212</ele>
        <time>2017-04-23T13:28:49Z</time>
      </trkpt>
      <trkpt lat="45.63471" lon="5.64873">
        <ele>213</ele>
        <time>2017-04-23T13:28:49Z</time>
      </trkpt>
      <trkpt lat="45.63461" lon="5.64855">
        <ele>213</ele>
        <time>2017-04-23T13:28:49Z</time>
      </trkpt>
      <trkpt lat="45.63454" lon="5.64833">
        <ele>211</ele>
        <time>2017-04-23T13:28:49Z</time>
      </trkpt>
      <trkpt lat="45.6344" lon="5.64814">
        <ele>211</ele>
        <time>2017-04-23T13:29:05Z</time>
      </trkpt>
      <trkpt lat="45.63426" lon="5.64799">
        <ele>211</ele>
        <time>2017-04-23T13:29:05Z</time>
      </trkpt>
      <trkpt lat="45.63422" lon="5.64798">
        <ele>211</ele>
        <time>2017-04-23T13:29:05Z</time>
      </trkpt>
      <trkpt lat="45.63418" lon="5.64795">
        <ele>211</ele>
        <time>2017-04-23T13:29:05Z</time>
      </trkpt>
      <trkpt lat="45.63414" lon="5.64791">
        <ele>211</ele>
        <time>2017-04-23T13:29:21Z</time>
      </trkpt>
      <trkpt lat="45.6341" lon="5.64785">
        <ele>211</ele>
        <time>2017-04-23T13:29:21Z</time>
      </trkpt>
      <trkpt lat="45.63406" lon="5.6478">
        <ele>211</ele>
        <time>2017-04-23T13:29:21Z</time>
      </trkpt>
      <trkpt lat="45.63403" lon="5.64771">
        <ele>211</ele>
        <time>2017-04-23T13:29:21Z</time>
      </trkpt>
      <trkpt lat="45.634" lon="5.64762">
        <ele>211</ele>
        <time>2017-04-23T13:29:37Z</time>
      </trkpt>
      <trkpt lat="45.63398" lon="5.64752">
        <ele>211</ele>
        <time>2017-04-23T13:29:37Z</time>
      </trkpt>
      <trkpt lat="45.634" lon="5.64742">
        <ele>211</ele>
        <time>2017-04-23T13:29:37Z</time>
      </trkpt>
      <trkpt lat="45.63401" lon="5.64732">
        <ele>211</ele>
        <time>2017-04-23T13:29:37Z</time>
      </trkpt>
      <trkpt lat="45.63401" lon="5.64713">
        <ele>211</ele>
        <time>2017-04-23T13:29:53Z</time>
      </trkpt>
      <trkpt lat="45.63402" lon="5.64701">
        <ele>214</ele>
        <time>2017-04-23T13:29:53Z</time>
      </trkpt>
      <trkpt lat="45.63404" lon="5.64696">
        <ele>214</ele>
        <time>2017-04-23T13:29:53Z</time>
      </trkpt>
      <trkpt lat="45.63406" lon="5.64692">
        <ele>214</ele>
        <time>2017-04-23T13:29:53Z</time>
      </trkpt>
      <trkpt lat="45.63408" lon="5.64687">
        <ele>214</ele>
        <time>2017-04-23T13:30:09Z</time>
      </trkpt>
      <trkpt lat="45.63407" lon="5.64677">
        <ele>214</ele>
        <time>2017-04-23T13:30:09Z</time>
      </trkpt>
      <trkpt lat="45.63404" lon="5.64668">
        <ele>214</ele>
        <time>2017-04-23T13:30:09Z</time>
      </trkpt>
      <trkpt lat="45.63401" lon="5.64659">
        <ele>214</ele>
        <time>2017-04-23T13:30:09Z</time>
      </trkpt>
      <trkpt lat="45.63399" lon="5.64651">
        <ele>214</ele>
        <time>2017-04-23T13:30:25Z</time>
      </trkpt>
      <trkpt lat="45.63397" lon="5.6464">
        <ele>214</ele>
        <time>2017-04-23T13:30:25Z</time>
      </trkpt>
      <trkpt lat="45.63397" lon="5.64629">
        <ele>214</ele>
        <time>2017-04-23T13:30:25Z</time>
      </trkpt>
      <trkpt lat="45.63397" lon="5.64622">
        <ele>215</ele>
        <time>2017-04-23T13:30:25Z</time>
      </trkpt>
      <trkpt lat="45.63397" lon="5.64615">
        <ele>215</ele>
        <time>2017-04-23T13:30:41Z</time>
      </trkpt>
      <trkpt lat="45.63397" lon="5.64607">
        <ele>215</ele>
        <time>2017-04-23T13:30:41Z</time>
      </trkpt>
      <trkpt lat="45.63396" lon="5.64599">
        <ele>215</ele>
        <time>2017-04-23T13:30:41Z</time>
      </trkpt>
      <trkpt lat="45.63395" lon="5.64591">
        <ele>215</ele>
        <time>2017-04-23T13:30:41Z</time>
      </trkpt>
      <trkpt lat="45.63394" lon="5.64581">
        <ele>215</ele>
        <time>2017-04-23T13:30:57Z</time>
      </trkpt>
      <trkpt lat="45.63394" lon="5.64571">
        <ele>215</ele>
        <time>2017-04-23T13:30:57Z</time>
      </trkpt>
      <trkpt lat="45.63395" lon="5.64562">
        <ele>215</ele>
        <time>2017-04-23T13:30:57Z</time>
      </trkpt>
      <trkpt lat="45.63397" lon="5.64553">
        <ele>215</ele>
        <time>2017-04-23T13:30:57Z</time>
      </trkpt>
      <trkpt lat="45.63398" lon="5.64543">
        <ele>215</ele>
        <time>2017-04-23T13:31:13Z</time>
      </trkpt>
      <trkpt lat="45.634" lon="5.64534">
        <ele>216</ele>
        <time>2017-04-23T13:31:13Z</time>
      </trkpt>
      <trkpt lat="45.63402" lon="5.64525">
        <ele>216</ele>
        <time>2017-04-23T13:31:13Z</time>
      </trkpt>
      <trkpt lat="45.63405" lon="5.64516">
        <ele>216</ele>
        <time>2017-04-23T13:31:13Z</time>
      </trkpt>
      <trkpt lat="45.63408" lon="5.64508">
        <ele>216</ele>
        <time>2017-04-23T13:31:29Z</time>
      </trkpt>
      <trkpt lat="45.6341" lon="5.64499">
        <ele>216</ele>
        <time>2017-04-23T13:31:29Z</time>
      </trkpt>
      <trkpt lat="45.63412" lon="5.64491">
        <ele>216</ele>
        <time>2017-04-23T13:31:29Z</time>
      </trkpt>
      <trkpt lat="45.63415" lon="5.64484">
        <ele>216</ele>
        <time>2017-04-23T13:31:29Z</time>
      </trkpt>
      <trkpt lat="45.63418" lon="5.64478">
        <ele>216</ele>
        <time>2017-04-23T13:31:45Z</time>
      </trkpt>
      <trkpt lat="45.63421" lon="5.64471">
        <ele>216</ele>
        <time>2017-04-23T13:31:45Z</time>
      </trkpt>
      <trkpt lat="45.63423" lon="5.64464">
        <ele>216</ele>
        <time>2017-04-23T13:31:45Z</time>
      </trkpt>
      <trkpt lat="45.63425" lon="5.64457">
        <ele>217</ele>
        <time>2017-04-23T13:31:45Z</time>
      </trkpt>
      <trkpt lat="45.63427" lon="5.6445">
        <ele>217</ele>
        <time>2017-04-23T13:32:01Z</time>
      </trkpt>
      <trkpt lat="45.63429" lon="5.64444">
        <ele>217</ele>
        <time>2017-04-23T13:32:01Z</time>
      </trkpt>
      <trkpt lat="45.6343" lon="5.64438">
        <ele>217</ele>
        <time>2017-04-23T13:32:01Z</time>
      </trkpt>
      <trkpt lat="45.63431" lon="5.64431">
        <ele>217</ele>
        <time>2017-04-23T13:32:01Z</time>
      </trkpt>
      <trkpt lat="45.63434" lon="5.64423">
        <ele>217</ele>
        <time>2017-04-23T13:32:17Z</time>
      </trkpt>
      <trkpt lat="45.63437" lon="5.64415">
        <ele>217</ele>
        <time>2017-04-23T13:32:17Z</time>
      </trkpt>
      <trkpt lat="45.63439" lon="5.64406">
        <ele>217</ele>
        <time>2017-04-23T13:32:17Z</time>
      </trkpt>
      <trkpt lat="45.63442" lon="5.64397">
        <ele>217</ele>
        <time>2017-04-23T13:32:17Z</time>
      </trkpt>
      <trkpt lat="45.63444" lon="5.64389">
        <ele>217</ele>
        <time>2017-04-23T13:32:33Z</time>
      </trkpt>
      <trkpt lat="45.63446" lon="5.6438">
        <ele>217</ele>
        <time>2017-04-23T13:32:33Z</time>
      </trkpt>
      <trkpt lat="45.63447" lon="5.64371">
        <ele>218</ele>
        <time>2017-04-23T13:32:33Z</time>
      </trkpt>
      <trkpt lat="45.63448" lon="5.64362">
        <ele>218</ele>
        <time>2017-04-23T13:32:33Z</time>
      </trkpt>
      <trkpt lat="45.6345" lon="5.64353">
        <ele>218</ele>
        <time>2017-04-23T13:32:49Z</time>
      </trkpt>
      <trkpt lat="45.6345" lon="5.64349">
        <ele>218</ele>
        <time>2017-04-23T13:32:49Z</time>
      </trkpt>
      <trkpt lat="45.63451" lon="5.64336">
        <ele>218</ele>
        <time>2017-04-23T13:32:49Z</time>
      </trkpt>
      <trkpt lat="45.63452" lon="5.64329">
        <ele>218</ele>
        <time>2017-04-23T13:32:49Z</time>
      </trkpt>
      <trkpt lat="45.63452" lon="5.64321">
        <ele>218</ele>
        <time>2017-04-23T13:33:05Z</time>
      </trkpt>
      <trkpt lat="45.63453" lon="5.64312">
        <ele>218</ele>
        <time>2017-04-23T13:33:05Z</time>
      </trkpt>
      <trkpt lat="45.63453" lon="5.64303">
        <ele>218</ele>
        <time>2017-04-23T13:33:05Z</time>
      </trkpt>
      <trkpt lat="45.63453" lon="5.64295">
        <ele>218</ele>
        <time>2017-04-23T13:33:05Z</time>
      </trkpt>
      <trkpt lat="45.63454" lon="5.64286">
        <ele>219</ele>
        <time>2017-04-23T13:33:21Z</time>
      </trkpt>
      <trkpt lat="45.63456" lon="5.64277">
        <ele>219</ele>
        <time>2017-04-23T13:33:21Z</time>
      </trkpt>
      <trkpt lat="45.63458" lon="5.64268">
        <ele>219</ele>
        <time>2017-04-23T13:33:21Z</time>
      </trkpt>
      <trkpt lat="45.6346" lon="5.6426">
        <ele>219</ele>
        <time>2017-04-23T13:33:21Z</time>
      </trkpt>
      <trkpt lat="45.63461" lon="5.64255">
        <ele>219</ele>
        <time>2017-04-23T13:33:37Z</time>
      </trkpt>
      <trkpt lat="45.63462" lon="5.64251">
        <ele>219</ele>
        <time>2017-04-23T13:33:37Z</time>
      </trkpt>
      <trkpt lat="45.63464" lon="5.64242">
        <ele>219</ele>
        <time>2017-04-23T13:33:37Z</time>
      </trkpt>
      <trkpt lat="45.63466" lon="5.64234">
        <ele>219</ele>
        <time>2017-04-23T13:33:37Z</time>
      </trkpt>
      <trkpt lat="45.63469" lon="5.64225">
        <ele>219</ele>
        <time>2017-04-23T13:33:53Z</time>
      </trkpt>
      <trkpt lat="45.63472" lon="5.64215">
        <ele>219</ele>
        <time>2017-04-23T13:33:53Z</time>
      </trkpt>
      <trkpt lat="45.63474" lon="5.64206">
        <ele>220</ele>
        <time>2017-04-23T13:33:53Z</time>
      </trkpt>
      <trkpt lat="45.63477" lon="5.64201">
        <ele>220</ele>
        <time>2017-04-23T13:33:53Z</time>
      </trkpt>
      <trkpt lat="45.6348" lon="5.64194">
        <ele>220</ele>
        <time>2017-04-23T13:34:09Z</time>
      </trkpt>
      <trkpt lat="45.63485" lon="5.64187">
        <ele>220</ele>
        <time>2017-04-23T13:34:09Z</time>
      </trkpt>
      <trkpt lat="45.63489" lon="5.64181">
        <ele>220</ele>
        <time>2017-04-23T13:34:09Z</time>
      </trkpt>
      <trkpt lat="45.63494" lon="5.64176">
        <ele>220</ele>
        <time>2017-04-23T13:34:09Z</time>
      </trkpt>
      <trkpt lat="45.63498" lon="5.64172">
        <ele>220</ele>
        <time>2017-04-23T13:34:25Z</time>
      </trkpt>
      <trkpt lat="45.63503" lon="5.64167">
        <ele>220</ele>
        <time>2017-04-23T13:34:25Z</time>
      </trkpt>
      <trkpt lat="45.63505" lon="5.64164">
        <ele>220</ele>
        <time>2017-04-23T13:34:25Z</time>
      </trkpt>
      <trkpt lat="45.6351" lon="5.64159">
        <ele>220</ele>
        <time>2017-04-23T13:34:25Z</time>
      </trkpt>
      <trkpt lat="45.6352" lon="5.64153">
        <ele>220</ele>
        <time>2017-04-23T13:34:53Z</time>
      </trkpt>
      <trkpt lat="45.63522" lon="5.64153">
        <ele>220</ele>
        <time>2017-04-23T13:34:53Z</time>
      </trkpt>
      <trkpt lat="45.63523" lon="5.64154">
        <ele>220</ele>
        <time>2017-04-23T13:34:53Z</time>
      </trkpt>
      <trkpt lat="45.63525" lon="5.64156">
        <ele>220</ele>
        <time>2017-04-23T13:34:53Z</time>
      </trkpt>
      <trkpt lat="45.63526" lon="5.64155">
        <ele>220</ele>
        <time>2017-04-23T13:34:53Z</time>
      </trkpt>
      <trkpt lat="45.63533" lon="5.64148">
        <ele>220</ele>
        <time>2017-04-23T13:37:33Z</time>
      </trkpt>
      <trkpt lat="45.63534" lon="5.64148">
        <ele>220</ele>
        <time>2017-04-23T13:37:33Z</time>
      </trkpt>
      <trkpt lat="45.63535" lon="5.64146">
        <ele>220</ele>
        <time>2017-04-23T13:37:33Z</time>
      </trkpt>
      <trkpt lat="45.63536" lon="5.64146">
        <ele>220</ele>
        <time>2017-04-23T13:37:33Z</time>
      </trkpt>
      <trkpt lat="45.63536" lon="5.64146">
        <ele>220</ele>
        <time>2017-04-23T13:37:33Z</time>
      </trkpt>
      <trkpt lat="45.63537" lon="5.64146">
        <ele>220</ele>
        <time>2017-04-23T13:38:05Z</time>
      </trkpt>
      <trkpt lat="45.63537" lon="5.64146">
        <ele>220</ele>
        <time>2017-04-23T13:38:05Z</time>
      </trkpt>
      <trkpt lat="45.63537" lon="5.64146">
        <ele>220</ele>
        <time>2017-04-23T13:38:05Z</time>
      </trkpt>
      <trkpt lat="45.6354" lon="5.64145">
        <ele>220</ele>
        <time>2017-04-23T13:38:05Z</time>
      </trkpt>
      <trkpt lat="45.63546" lon="5.64143">
        <ele>220</ele>
        <time>2017-04-23T13:38:05Z</time>
      </trkpt>
      <trkpt lat="45.63547" lon="5.64143">
        <ele>220</ele>
        <time>2017-04-23T13:38:21Z</time>
      </trkpt>
      <trkpt lat="45.63546" lon="5.64143">
        <ele>220</ele>
        <time>2017-04-23T13:38:21Z</time>
      </trkpt>
      <trkpt lat="45.6355" lon="5.64143">
        <ele>220</ele>
        <time>2017-04-23T13:38:21Z</time>
      </trkpt>
      <trkpt lat="45.63556" lon="5.6414">
        <ele>220</ele>
        <time>2017-04-23T13:38:21Z</time>
      </trkpt>
      <trkpt lat="45.63562" lon="5.64137">
        <ele>220</ele>
        <time>2017-04-23T13:38:37Z</time>
      </trkpt>
      <trkpt lat="45.63568" lon="5.64133">
        <ele>220</ele>
        <time>2017-04-23T13:38:37Z</time>
      </trkpt>
      <trkpt lat="45.63574" lon="5.6413">
        <ele>220</ele>
        <time>2017-04-23T13:38:37Z</time>
      </trkpt>
      <trkpt lat="45.63579" lon="5.64128">
        <ele>220</ele>
        <time>2017-04-23T13:38:37Z</time>
      </trkpt>
      <trkpt lat="45.63585" lon="5.64126">
        <ele>220</ele>
        <time>2017-04-23T13:38:53Z</time>
      </trkpt>
      <trkpt lat="45.63591" lon="5.64125">
        <ele>220</ele>
        <time>2017-04-23T13:38:53Z</time>
      </trkpt>
      <trkpt lat="45.63598" lon="5.64123">
        <ele>220</ele>
        <time>2017-04-23T13:38:53Z</time>
      </trkpt>
      <trkpt lat="45.63604" lon="5.64124">
        <ele>220</ele>
        <time>2017-04-23T13:38:53Z</time>
      </trkpt>
      <trkpt lat="45.6361" lon="5.64126">
        <ele>220</ele>
        <time>2017-04-23T13:39:09Z</time>
      </trkpt>
      <trkpt lat="45.63615" lon="5.64128">
        <ele>220</ele>
        <time>2017-04-23T13:39:09Z</time>
      </trkpt>
      <trkpt lat="45.63621" lon="5.64132">
        <ele>220</ele>
        <time>2017-04-23T13:39:09Z</time>
      </trkpt>
      <trkpt lat="45.63626" lon="5.64137">
        <ele>220</ele>
        <time>2017-04-23T13:39:09Z</time>
      </trkpt>
      <trkpt lat="45.63632" lon="5.6414">
        <ele>220</ele>
        <time>2017-04-23T13:39:25Z</time>
      </trkpt>
      <trkpt lat="45.63638" lon="5.64144">
        <ele>220</ele>
        <time>2017-04-23T13:39:25Z</time>
      </trkpt>
      <trkpt lat="45.63642" lon="5.6415">
        <ele>220</ele>
        <time>2017-04-23T13:39:25Z</time>
      </trkpt>
      <trkpt lat="45.63647" lon="5.64155">
        <ele>220</ele>
        <time>2017-04-23T13:39:25Z</time>
      </trkpt>
      <trkpt lat="45.6365" lon="5.64161">
        <ele>220</ele>
        <time>2017-04-23T13:39:41Z</time>
      </trkpt>
      <trkpt lat="45.63654" lon="5.64166">
        <ele>220</ele>
        <time>2017-04-23T13:39:41Z</time>
      </trkpt>
      <trkpt lat="45.63659" lon="5.6417">
        <ele>220</ele>
        <time>2017-04-23T13:39:41Z</time>
      </trkpt>
      <trkpt lat="45.63662" lon="5.64175">
        <ele>220</ele>
        <time>2017-04-23T13:39:41Z</time>
      </trkpt>
      <trkpt lat="45.63666" lon="5.64179">
        <ele>220</ele>
        <time>2017-04-23T13:39:57Z</time>
      </trkpt>
      <trkpt lat="45.6367" lon="5.64184">
        <ele>220</ele>
        <time>2017-04-23T13:39:57Z</time>
      </trkpt>
      <trkpt lat="45.63675" lon="5.6419">
        <ele>220</ele>
        <time>2017-04-23T13:39:57Z</time>
      </trkpt>
      <trkpt lat="45.63679" lon="5.64197">
        <ele>220</ele>
        <time>2017-04-23T13:39:57Z</time>
      </trkpt>
      <trkpt lat="45.63683" lon="5.64203">
        <ele>220</ele>
        <time>2017-04-23T13:40:13Z</time>
      </trkpt>
      <trkpt lat="45.63687" lon="5.64208">
        <ele>220</ele>
        <time>2017-04-23T13:40:13Z</time>
      </trkpt>
      <trkpt lat="45.63691" lon="5.64214">
        <ele>220</ele>
        <time>2017-04-23T13:40:13Z</time>
      </trkpt>
      <trkpt lat="45.63695" lon="5.64219">
        <ele>220</ele>
        <time>2017-04-23T13:40:13Z</time>
      </trkpt>
      <trkpt lat="45.63699" lon="5.64225">
        <ele>220</ele>
        <time>2017-04-23T13:40:29Z</time>
      </trkpt>
      <trkpt lat="45.63702" lon="5.64231">
        <ele>220</ele>
        <time>2017-04-23T13:40:29Z</time>
      </trkpt>
      <trkpt lat="45.63704" lon="5.64236">
        <ele>220</ele>
        <time>2017-04-23T13:40:29Z</time>
      </trkpt>
      <trkpt lat="45.63707" lon="5.64242">
        <ele>220</ele>
        <time>2017-04-23T13:40:29Z</time>
      </trkpt>
      <trkpt lat="45.63711" lon="5.64248">
        <ele>220</ele>
        <time>2017-04-23T13:40:45Z</time>
      </trkpt>
      <trkpt lat="45.63715" lon="5.64254">
        <ele>220</ele>
        <time>2017-04-23T13:40:45Z</time>
      </trkpt>
      <trkpt lat="45.63719" lon="5.64259">
        <ele>220</ele>
        <time>2017-04-23T13:40:45Z</time>
      </trkpt>
      <trkpt lat="45.63723" lon="5.64264">
        <ele>220</ele>
        <time>2017-04-23T13:40:45Z</time>
      </trkpt>
      <trkpt lat="45.63728" lon="5.64275">
        <ele>220</ele>
        <time>2017-04-23T13:42:01Z</time>
      </trkpt>
      <trkpt lat="45.63729" lon="5.64276">
        <ele>220</ele>
        <time>2017-04-23T13:42:01Z</time>
      </trkpt>
      <trkpt lat="45.63733" lon="5.6428">
        <ele>220</ele>
        <time>2017-04-23T13:42:01Z</time>
      </trkpt>
      <trkpt lat="45.63735" lon="5.64283">
        <ele>220</ele>
        <time>2017-04-23T13:42:01Z</time>
      </trkpt>
      <trkpt lat="45.63735" lon="5.64284">
        <ele>220</ele>
        <time>2017-04-23T13:42:01Z</time>
      </trkpt>
      <trkpt lat="45.63737" lon="5.64287">
        <ele>220</ele>
        <time>2017-04-23T13:42:17Z</time>
      </trkpt>
      <trkpt lat="45.63742" lon="5.64291">
        <ele>220</ele>
        <time>2017-04-23T13:42:17Z</time>
      </trkpt>
      <trkpt lat="45.63746" lon="5.64296">
        <ele>220</ele>
        <time>2017-04-23T13:42:17Z</time>
      </trkpt>
      <trkpt lat="45.63749" lon="5.64298">
        <ele>220</ele>
        <time>2017-04-23T13:42:17Z</time>
      </trkpt>
      <trkpt lat="45.6375" lon="5.64299">
        <ele>220</ele>
        <time>2017-04-23T13:42:33Z</time>
      </trkpt>
      <trkpt lat="45.63755" lon="5.64304">
        <ele>220</ele>
        <time>2017-04-23T13:42:33Z</time>
      </trkpt>
      <trkpt lat="45.6376" lon="5.6431">
        <ele>220</ele>
        <time>2017-04-23T13:42:33Z</time>
      </trkpt>
      <trkpt lat="45.63765" lon="5.64315">
        <ele>220</ele>
        <time>2017-04-23T13:42:33Z</time>
      </trkpt>
      <trkpt lat="45.63769" lon="5.64321">
        <ele>220</ele>
        <time>2017-04-23T13:42:49Z</time>
      </trkpt>
      <trkpt lat="45.63774" lon="5.64325">
        <ele>220</ele>
        <time>2017-04-23T13:42:49Z</time>
      </trkpt>
      <trkpt lat="45.63779" lon="5.6433">
        <ele>220</ele>
        <time>2017-04-23T13:42:49Z</time>
      </trkpt>
      <trkpt lat="45.63784" lon="5.64333">
        <ele>220</ele>
        <time>2017-04-23T13:42:49Z</time>
      </trkpt>
      <trkpt lat="45.63789" lon="5.64337">
        <ele>220</ele>
        <time>2017-04-23T13:43:05Z</time>
      </trkpt>
      <trkpt lat="45.63793" lon="5.64341">
        <ele>220</ele>
        <time>2017-04-23T13:43:05Z</time>
      </trkpt>
      <trkpt lat="45.63796" lon="5.64348">
        <ele>220</ele>
        <time>2017-04-23T13:43:05Z</time>
      </trkpt>
      <trkpt lat="45.63797" lon="5.64356">
        <ele>220</ele>
        <time>2017-04-23T13:43:05Z</time>
      </trkpt>
      <trkpt lat="45.63802" lon="5.64364">
        <ele>220</ele>
        <time>2017-04-23T13:45:29Z</time>
      </trkpt>
      <trkpt lat="45.638" lon="5.64366">
        <ele>220</ele>
        <time>2017-04-23T13:45:29Z</time>
      </trkpt>
      <trkpt lat="45.63799" lon="5.64369">
        <ele>220</ele>
        <time>2017-04-23T13:45:29Z</time>
      </trkpt>
      <trkpt lat="45.63797" lon="5.64372">
        <ele>220</ele>
        <time>2017-04-23T13:45:29Z</time>
      </trkpt>
      <trkpt lat="45.63797" lon="5.64374">
        <ele>220</ele>
        <time>2017-04-23T13:45:29Z</time>
      </trkpt>
      <trkpt lat="45.63796" lon="5.64374">
        <ele>220</ele>
        <time>2017-04-23T13:49:17Z</time>
      </trkpt>
      <trkpt lat="45.63799" lon="5.64371">
        <ele>220</ele>
        <time>2017-04-23T13:49:17Z</time>
      </trkpt>
      <trkpt lat="45.63803" lon="5.64369">
        <ele>220</ele>
        <time>2017-04-23T13:49:17Z</time>
      </trkpt>
      <trkpt lat="45.63804" lon="5.64366">
        <ele>220</ele>
        <time>2017-04-23T13:49:17Z</time>
      </trkpt>
      <trkpt lat="45.63805" lon="5.64366">
        <ele>220</ele>
        <time>2017-04-23T13:49:17Z</time>
      </trkpt>
      <trkpt lat="45.63804" lon="5.64367">
        <ele>220</ele>
        <time>2017-04-23T13:51:09Z</time>
      </trkpt>
      <trkpt lat="45.63804" lon="5.64367">
        <ele>220</ele>
        <time>2017-04-23T13:51:09Z</time>
      </trkpt>
      <trkpt lat="45.63801" lon="5.64368">
        <ele>220</ele>
        <time>2017-04-23T13:51:09Z</time>
      </trkpt>
      <trkpt lat="45.63798" lon="5.6437">
        <ele>220</ele>
        <time>2017-04-23T13:51:09Z</time>
      </trkpt>
      <trkpt lat="45.63796" lon="5.64374">
        <ele>220</ele>
        <time>2017-04-23T13:51:09Z</time>
      </trkpt>
      <trkpt lat="45.63792" lon="5.64381">
        <ele>220</ele>
        <time>2017-04-23T14:45:15Z</time>
      </trkpt>
      <trkpt lat="45.63792" lon="5.64381">
        <ele>220</ele>
        <time>2017-04-23T14:45:15Z</time>
      </trkpt>
      <trkpt lat="45.63792" lon="5.64381">
        <ele>220</ele>
        <time>2017-04-23T14:45:15Z</time>
      </trkpt>
      <trkpt lat="45.63792" lon="5.64381">
        <ele>220</ele>
        <time>2017-04-23T14:45:15Z</time>
      </trkpt>
      <trkpt lat="45.638" lon="5.64365">
        <ele>220</ele>
        <time>2017-04-23T14:45:15Z</time>
      </trkpt>
      <trkpt lat="45.63792" lon="5.64378">
        <ele>219</ele>
        <time>2017-04-23T14:46:51Z</time>
      </trkpt>
      <trkpt lat="45.63792" lon="5.64378">
        <ele>219</ele>
        <time>2017-04-23T14:46:51Z</time>
      </trkpt>
      <trkpt lat="45.63792" lon="5.64378">
        <ele>219</ele>
        <time>2017-04-23T14:46:51Z</time>
      </trkpt>
      <trkpt lat="45.63791" lon="5.64379">
        <ele>219</ele>
        <time>2017-04-23T14:46:51Z</time>
      </trkpt>
      <trkpt lat="45.63792" lon="5.6438">
        <ele>219</ele>
        <time>2017-04-23T14:46:51Z</time>
      </trkpt>
      <trkpt lat="45.63791" lon="5.64379">
        <ele>219</ele>
        <time>2017-04-23T14:47:11Z</time>
      </trkpt>
      <trkpt lat="45.63791" lon="5.64377">
        <ele>219</ele>
        <time>2017-04-23T14:47:11Z</time>
      </trkpt>
      <trkpt lat="45.6379" lon="5.64373">
        <ele>220</ele>
        <time>2017-04-23T14:47:11Z</time>
      </trkpt>
      <trkpt lat="45.63791" lon="5.64367">
        <ele>220</ele>
        <time>2017-04-23T14:47:11Z</time>
      </trkpt>
      <trkpt lat="45.6379" lon="5.6436">
        <ele>220</ele>
        <time>2017-04-23T14:47:11Z</time>
      </trkpt>
      <trkpt lat="45.63789" lon="5.64353">
        <ele>220</ele>
        <time>2017-04-23T14:47:27Z</time>
      </trkpt>
      <trkpt lat="45.63787" lon="5.64344">
        <ele>220</ele>
        <time>2017-04-23T14:47:27Z</time>
      </trkpt>
      <trkpt lat="45.63784" lon="5.64336">
        <ele>220</ele>
        <time>2017-04-23T14:47:27Z</time>
      </trkpt>
      <trkpt lat="45.63781" lon="5.64329">
        <ele>220</ele>
        <time>2017-04-23T14:47:27Z</time>
      </trkpt>
      <trkpt lat="45.63777" lon="5.64326">
        <ele>220</ele>
        <time>2017-04-23T14:47:43Z</time>
      </trkpt>
      <trkpt lat="45.63774" lon="5.64324">
        <ele>220</ele>
        <time>2017-04-23T14:47:43Z</time>
      </trkpt>
      <trkpt lat="45.6377" lon="5.64324">
        <ele>220</ele>
        <time>2017-04-23T14:47:43Z</time>
      </trkpt>
      <trkpt lat="45.63766" lon="5.64328">
        <ele>220</ele>
        <time>2017-04-23T14:47:43Z</time>
      </trkpt>
      <trkpt lat="45.63766" lon="5.64325">
        <ele>220</ele>
        <time>2017-04-23T14:48:23Z</time>
      </trkpt>
      <trkpt lat="45.63766" lon="5.64324">
        <ele>220</ele>
        <time>2017-04-23T14:48:23Z</time>
      </trkpt>
      <trkpt lat="45.63766" lon="5.64322">
        <ele>220</ele>
        <time>2017-04-23T14:48:23Z</time>
      </trkpt>
      <trkpt lat="45.63765" lon="5.64319">
        <ele>220</ele>
        <time>2017-04-23T14:48:23Z</time>
      </trkpt>
      <trkpt lat="45.63765" lon="5.64316">
        <ele>220</ele>
        <time>2017-04-23T14:48:23Z</time>
      </trkpt>
      <trkpt lat="45.63763" lon="5.64308">
        <ele>220</ele>
        <time>2017-04-23T14:48:39Z</time>
      </trkpt>
      <trkpt lat="45.63762" lon="5.64301">
        <ele>220</ele>
        <time>2017-04-23T14:48:39Z</time>
      </trkpt>
      <trkpt lat="45.63761" lon="5.64293">
        <ele>220</ele>
        <time>2017-04-23T14:48:39Z</time>
      </trkpt>
      <trkpt lat="45.63761" lon="5.64286">
        <ele>220</ele>
        <time>2017-04-23T14:48:39Z</time>
      </trkpt>
      <trkpt lat="45.63763" lon="5.64279">
        <ele>220</ele>
        <time>2017-04-23T14:48:55Z</time>
      </trkpt>
      <trkpt lat="45.63763" lon="5.6427">
        <ele>220</ele>
        <time>2017-04-23T14:48:55Z</time>
      </trkpt>
      <trkpt lat="45.63762" lon="5.64263">
        <ele>220</ele>
        <time>2017-04-23T14:48:55Z</time>
      </trkpt>
      <trkpt lat="45.63762" lon="5.64256">
        <ele>220</ele>
        <time>2017-04-23T14:48:55Z</time>
      </trkpt>
      <trkpt lat="45.63762" lon="5.64248">
        <ele>220</ele>
        <time>2017-04-23T14:49:11Z</time>
      </trkpt>
      <trkpt lat="45.63763" lon="5.6424">
        <ele>220</ele>
        <time>2017-04-23T14:49:11Z</time>
      </trkpt>
      <trkpt lat="45.63765" lon="5.64233">
        <ele>220</ele>
        <time>2017-04-23T14:49:11Z</time>
      </trkpt>
      <trkpt lat="45.63767" lon="5.64227">
        <ele>220</ele>
        <time>2017-04-23T14:49:11Z</time>
      </trkpt>
      <trkpt lat="45.63767" lon="5.64221">
        <ele>220</ele>
        <time>2017-04-23T14:49:27Z</time>
      </trkpt>
      <trkpt lat="45.63766" lon="5.64212">
        <ele>220</ele>
        <time>2017-04-23T14:49:27Z</time>
      </trkpt>
      <trkpt lat="45.63765" lon="5.64204">
        <ele>221</ele>
        <time>2017-04-23T14:49:27Z</time>
      </trkpt>
      <trkpt lat="45.63766" lon="5.64197">
        <ele>221</ele>
        <time>2017-04-23T14:49:27Z</time>
      </trkpt>
      <trkpt lat="45.63766" lon="5.64192">
        <ele>221</ele>
        <time>2017-04-23T14:49:43Z</time>
      </trkpt>
      <trkpt lat="45.63767" lon="5.64184">
        <ele>221</ele>
        <time>2017-04-23T14:49:43Z</time>
      </trkpt>
      <trkpt lat="45.63767" lon="5.64176">
        <ele>221</ele>
        <time>2017-04-23T14:49:43Z</time>
      </trkpt>
      <trkpt lat="45.63768" lon="5.64167">
        <ele>221</ele>
        <time>2017-04-23T14:49:43Z</time>
      </trkpt>
      <trkpt lat="45.63768" lon="5.6416">
        <ele>221</ele>
        <time>2017-04-23T14:49:59Z</time>
      </trkpt>
      <trkpt lat="45.63768" lon="5.64152">
        <ele>221</ele>
        <time>2017-04-23T14:49:59Z</time>
      </trkpt>
      <trkpt lat="45.6377" lon="5.64144">
        <ele>221</ele>
        <time>2017-04-23T14:49:59Z</time>
      </trkpt>
      <trkpt lat="45.63774" lon="5.64138">
        <ele>221</ele>
        <time>2017-04-23T14:49:59Z</time>
      </trkpt>
      <trkpt lat="45.63782" lon="5.64141">
        <ele>221</ele>
        <time>2017-04-23T14:50:15Z</time>
      </trkpt>
      <trkpt lat="45.63787" lon="5.64147">
        <ele>221</ele>
        <time>2017-04-23T14:50:15Z</time>
      </trkpt>
      <trkpt lat="45.63792" lon="5.64153">
        <ele>220</ele>
        <time>2017-04-23T14:50:15Z</time>
      </trkpt>
      <trkpt lat="45.63797" lon="5.64157">
        <ele>220</ele>
        <time>2017-04-23T14:50:15Z</time>
      </trkpt>
      <trkpt lat="45.63802" lon="5.64162">
        <ele>220</ele>
        <time>2017-04-23T14:50:31Z</time>
      </trkpt>
      <trkpt lat="45.63807" lon="5.64165">
        <ele>220</ele>
        <time>2017-04-23T14:50:31Z</time>
      </trkpt>
      <trkpt lat="45.63812" lon="5.64168">
        <ele>220</ele>
        <time>2017-04-23T14:50:31Z</time>
      </trkpt>
      <trkpt lat="45.63819" lon="5.64173">
        <ele>220</ele>
        <time>2017-04-23T14:50:31Z</time>
      </trkpt>
      <trkpt lat="45.63829" lon="5.64179">
        <ele>220</ele>
        <time>2017-04-23T14:50:47Z</time>
      </trkpt>
      <trkpt lat="45.63838" lon="5.64185">
        <ele>220</ele>
        <time>2017-04-23T14:50:47Z</time>
      </trkpt>
      <trkpt lat="45.63847" lon="5.64189">
        <ele>220</ele>
        <time>2017-04-23T14:50:47Z</time>
      </trkpt>
      <trkpt lat="45.63856" lon="5.64195">
        <ele>220</ele>
        <time>2017-04-23T14:50:47Z</time>
      </trkpt>
      <trkpt lat="45.63865" lon="5.642">
        <ele>220</ele>
        <time>2017-04-23T14:51:03Z</time>
      </trkpt>
      <trkpt lat="45.63873" lon="5.64205">
        <ele>220</ele>
        <time>2017-04-23T14:51:03Z</time>
      </trkpt>
      <trkpt lat="45.6388" lon="5.6421">
        <ele>218</ele>
        <time>2017-04-23T14:51:03Z</time>
      </trkpt>
      <trkpt lat="45.63884" lon="5.64214">
        <ele>218</ele>
        <time>2017-04-23T14:51:03Z</time>
      </trkpt>
      <trkpt lat="45.63896" lon="5.64226">
        <ele>218</ele>
        <time>2017-04-23T14:51:55Z</time>
      </trkpt>
      <trkpt lat="45.63896" lon="5.64227">
        <ele>218</ele>
        <time>2017-04-23T14:51:55Z</time>
      </trkpt>
      <trkpt lat="45.63899" lon="5.64229">
        <ele>218</ele>
        <time>2017-04-23T14:51:55Z</time>
      </trkpt>
      <trkpt lat="45.63904" lon="5.64232">
        <ele>218</ele>
        <time>2017-04-23T14:51:55Z</time>
      </trkpt>
      <trkpt lat="45.63909" lon="5.64237">
        <ele>218</ele>
        <time>2017-04-23T14:51:55Z</time>
      </trkpt>
      <trkpt lat="45.63914" lon="5.6424">
        <ele>218</ele>
        <time>2017-04-23T14:52:11Z</time>
      </trkpt>
      <trkpt lat="45.63919" lon="5.64242">
        <ele>218</ele>
        <time>2017-04-23T14:52:11Z</time>
      </trkpt>
      <trkpt lat="45.63923" lon="5.64245">
        <ele>218</ele>
        <time>2017-04-23T14:52:11Z</time>
      </trkpt>
      <trkpt lat="45.63928" lon="5.64248">
        <ele>218</ele>
        <time>2017-04-23T14:52:11Z</time>
      </trkpt>
      <trkpt lat="45.63933" lon="5.64251">
        <ele>218</ele>
        <time>2017-04-23T14:52:27Z</time>
      </trkpt>
      <trkpt lat="45.63937" lon="5.64254">
        <ele>218</ele>
        <time>2017-04-23T14:52:27Z</time>
      </trkpt>
      <trkpt lat="45.63942" lon="5.64257">
        <ele>218</ele>
        <time>2017-04-23T14:52:27Z</time>
      </trkpt>
      <trkpt lat="45.63946" lon="5.6426">
        <ele>218</ele>
        <time>2017-04-23T14:52:27Z</time>
      </trkpt>
      <trkpt lat="45.63951" lon="5.64264">
        <ele>218</ele>
        <time>2017-04-23T14:52:43Z</time>
      </trkpt>
      <trkpt lat="45.63956" lon="5.64268">
        <ele>218</ele>
        <time>2017-04-23T14:52:43Z</time>
      </trkpt>
      <trkpt lat="45.63961" lon="5.64271">
        <ele>219</ele>
        <time>2017-04-23T14:52:43Z</time>
      </trkpt>
      <trkpt lat="45.63967" lon="5.64275">
        <ele>219</ele>
        <time>2017-04-23T14:52:43Z</time>
      </trkpt>
      <trkpt lat="45.63972" lon="5.64278">
        <ele>219</ele>
        <time>2017-04-23T14:52:59Z</time>
      </trkpt>
      <trkpt lat="45.63978" lon="5.64281">
        <ele>219</ele>
        <time>2017-04-23T14:52:59Z</time>
      </trkpt>
      <trkpt lat="45.63983" lon="5.64286">
        <ele>219</ele>
        <time>2017-04-23T14:52:59Z</time>
      </trkpt>
      <trkpt lat="45.63988" lon="5.64289">
        <ele>219</ele>
        <time>2017-04-23T14:52:59Z</time>
      </trkpt>
      <trkpt lat="45.63994" lon="5.64292">
        <ele>221</ele>
        <time>2017-04-23T14:53:15Z</time>
      </trkpt>
      <trkpt lat="45.64" lon="5.64295">
        <ele>221</ele>
        <time>2017-04-23T14:53:15Z</time>
      </trkpt>
      <trkpt lat="45.64005" lon="5.64298">
        <ele>221</ele>
        <time>2017-04-23T14:53:15Z</time>
      </trkpt>
      <trkpt lat="45.6401" lon="5.64302">
        <ele>221</ele>
        <time>2017-04-23T14:53:15Z</time>
      </trkpt>
      <trkpt lat="45.64016" lon="5.64305">
        <ele>221</ele>
        <time>2017-04-23T14:53:31Z</time>
      </trkpt>
      <trkpt lat="45.64021" lon="5.64308">
        <ele>221</ele>
        <time>2017-04-23T14:53:31Z</time>
      </trkpt>
      <trkpt lat="45.64026" lon="5.64311">
        <ele>221</ele>
        <time>2017-04-23T14:53:31Z</time>
      </trkpt>
      <trkpt lat="45.6403" lon="5.64316">
        <ele>221</ele>
        <time>2017-04-23T14:53:31Z</time>
      </trkpt>
      <trkpt lat="45.64034" lon="5.6432">
        <ele>221</ele>
        <time>2017-04-23T14:53:47Z</time>
      </trkpt>
      <trkpt lat="45.64039" lon="5.64326">
        <ele>221</ele>
        <time>2017-04-23T14:53:47Z</time>
      </trkpt>
      <trkpt lat="45.64043" lon="5.64333">
        <ele>232</ele>
        <time>2017-04-23T14:53:47Z</time>
      </trkpt>
      <trkpt lat="45.64047" lon="5.6434">
        <ele>232</ele>
        <time>2017-04-23T14:53:47Z</time>
      </trkpt>
      <trkpt lat="45.64051" lon="5.64349">
        <ele>232</ele>
        <time>2017-04-23T14:54:03Z</time>
      </trkpt>
      <trkpt lat="45.64054" lon="5.64356">
        <ele>232</ele>
        <time>2017-04-23T14:54:03Z</time>
      </trkpt>
      <trkpt lat="45.64057" lon="5.64363">
        <ele>232</ele>
        <time>2017-04-23T14:54:03Z</time>
      </trkpt>
      <trkpt lat="45.64059" lon="5.64371">
        <ele>232</ele>
        <time>2017-04-23T14:54:03Z</time>
      </trkpt>
      <trkpt lat="45.64057" lon="5.64381">
        <ele>235</ele>
        <time>2017-04-23T14:54:19Z</time>
      </trkpt>
      <trkpt lat="45.64056" lon="5.6439">
        <ele>235</ele>
        <time>2017-04-23T14:54:19Z</time>
      </trkpt>
      <trkpt lat="45.64056" lon="5.64399">
        <ele>235</ele>
        <time>2017-04-23T14:54:19Z</time>
      </trkpt>
      <trkpt lat="45.64055" lon="5.64407">
        <ele>235</ele>
        <time>2017-04-23T14:54:19Z</time>
      </trkpt>
      <trkpt lat="45.64054" lon="5.64415">
        <ele>235</ele>
        <time>2017-04-23T14:54:35Z</time>
      </trkpt>
      <trkpt lat="45.64053" lon="5.64423">
        <ele>235</ele>
        <time>2017-04-23T14:54:35Z</time>
      </trkpt>
      <trkpt lat="45.64052" lon="5.64431">
        <ele>235</ele>
        <time>2017-04-23T14:54:35Z</time>
      </trkpt>
      <trkpt lat="45.6405" lon="5.64438">
        <ele>235</ele>
        <time>2017-04-23T14:54:35Z</time>
      </trkpt>
      <trkpt lat="45.64047" lon="5.64438">
        <ele>235</ele>
        <time>2017-04-23T14:54:51Z</time>
      </trkpt>
      <trkpt lat="45.64044" lon="5.64437">
        <ele>235</ele>
        <time>2017-04-23T14:54:51Z</time>
      </trkpt>
      <trkpt lat="45.64038" lon="5.64437">
        <ele>223</ele>
        <time>2017-04-23T14:54:51Z</time>
      </trkpt>
      <trkpt lat="45.64032" lon="5.64436">
        <ele>223</ele>
        <time>2017-04-23T14:54:51Z</time>
      </trkpt>
      <trkpt lat="45.64026" lon="5.64435">
        <ele>223</ele>
        <time>2017-04-23T14:55:07Z</time>
      </trkpt>
      <trkpt lat="45.64021" lon="5.64434">
        <ele>223</ele>
        <time>2017-04-23T14:55:07Z</time>
      </trkpt>
      <trkpt lat="45.64018" lon="5.64432">
        <ele>223</ele>
        <time>2017-04-23T14:55:07Z</time>
      </trkpt>
      <trkpt lat="45.64016" lon="5.64432">
        <ele>223</ele>
        <time>2017-04-23T14:55:07Z</time>
      </trkpt>
      <trkpt lat="45.64015" lon="5.64433">
        <ele>223</ele>
        <time>2017-04-23T14:56:11Z</time>
      </trkpt>
      <trkpt lat="45.64015" lon="5.64433">
        <ele>223</ele>
        <time>2017-04-23T14:56:11Z</time>
      </trkpt>
      <trkpt lat="45.64015" lon="5.64434">
        <ele>223</ele>
        <time>2017-04-23T14:56:11Z</time>
      </trkpt>
      <trkpt lat="45.64013" lon="5.64441">
        <ele>223</ele>
        <time>2017-04-23T14:56:11Z</time>
      </trkpt>
      <trkpt lat="45.6401" lon="5.64449">
        <ele>223</ele>
        <time>2017-04-23T14:56:11Z</time>
      </trkpt>
      <trkpt lat="45.64009" lon="5.64457">
        <ele>223</ele>
        <time>2017-04-23T14:56:27Z</time>
      </trkpt>
      <trkpt lat="45.64006" lon="5.64468">
        <ele>227</ele>
        <time>2017-04-23T14:56:27Z</time>
      </trkpt>
      <trkpt lat="45.64003" lon="5.6448">
        <ele>227</ele>
        <time>2017-04-23T14:56:27Z</time>
      </trkpt>
      <trkpt lat="45.64" lon="5.64487">
        <ele>227</ele>
        <time>2017-04-23T14:56:27Z</time>
      </trkpt>
      <trkpt lat="45.63997" lon="5.64495">
        <ele>227</ele>
        <time>2017-04-23T14:56:43Z</time>
      </trkpt>
      <trkpt lat="45.63995" lon="5.64502">
        <ele>227</ele>
        <time>2017-04-23T14:56:43Z</time>
      </trkpt>
      <trkpt lat="45.63995" lon="5.64509">
        <ele>227</ele>
        <time>2017-04-23T14:56:43Z</time>
      </trkpt>
      <trkpt lat="45.63993" lon="5.64517">
        <ele>227</ele>
        <time>2017-04-23T14:56:43Z</time>
      </trkpt>
      <trkpt lat="45.63992" lon="5.64524">
        <ele>227</ele>
        <time>2017-04-23T14:56:59Z</time>
      </trkpt>
      <trkpt lat="45.63992" lon="5.64531">
        <ele>227</ele>
        <time>2017-04-23T14:56:59Z</time>
      </trkpt>
      <trkpt lat="45.6399" lon="5.64539">
        <ele>227</ele>
        <time>2017-04-23T14:56:59Z</time>
      </trkpt>
      <trkpt lat="45.63988" lon="5.64546">
        <ele>235</ele>
        <time>2017-04-23T14:56:59Z</time>
      </trkpt>
      <trkpt lat="45.63987" lon="5.64553">
        <ele>235</ele>
        <time>2017-04-23T14:57:15Z</time>
      </trkpt>
      <trkpt lat="45.63987" lon="5.64559">
        <ele>235</ele>
        <time>2017-04-23T14:57:15Z</time>
      </trkpt>
      <trkpt lat="45.63986" lon="5.64565">
        <ele>235</ele>
        <time>2017-04-23T14:57:15Z</time>
      </trkpt>
      <trkpt lat="45.63985" lon="5.64572">
        <ele>235</ele>
        <time>2017-04-23T14:57:15Z</time>
      </trkpt>
      <trkpt lat="45.63986" lon="5.6458">
        <ele>235</ele>
        <time>2017-04-23T14:57:31Z</time>
      </trkpt>
      <trkpt lat="45.63986" lon="5.64589">
        <ele>235</ele>
        <time>2017-04-23T14:57:31Z</time>
      </trkpt>
      <trkpt lat="45.63986" lon="5.64597">
        <ele>235</ele>
        <time>2017-04-23T14:57:31Z</time>
      </trkpt>
      <trkpt lat="45.63986" lon="5.64605">
        <ele>235</ele>
        <time>2017-04-23T14:57:31Z</time>
      </trkpt>
      <trkpt lat="45.63986" lon="5.64612">
        <ele>235</ele>
        <time>2017-04-23T14:57:47Z</time>
      </trkpt>
      <trkpt lat="45.63986" lon="5.64619">
        <ele>235</ele>
        <time>2017-04-23T14:57:47Z</time>
      </trkpt>
      <trkpt lat="45.63987" lon="5.64627">
        <ele>239</ele>
        <time>2017-04-23T14:57:47Z</time>
      </trkpt>
      <trkpt lat="45.63989" lon="5.64635">
        <ele>239</ele>
        <time>2017-04-23T14:57:47Z</time>
      </trkpt>
      <trkpt lat="45.63991" lon="5.64643">
        <ele>239</ele>
        <time>2017-04-23T14:58:03Z</time>
      </trkpt>
      <trkpt lat="45.63993" lon="5.64653">
        <ele>239</ele>
        <time>2017-04-23T14:58:03Z</time>
      </trkpt>
      <trkpt lat="45.63994" lon="5.64663">
        <ele>239</ele>
        <time>2017-04-23T14:58:03Z</time>
      </trkpt>
      <trkpt lat="45.63993" lon="5.64672">
        <ele>239</ele>
        <time>2017-04-23T14:58:03Z</time>
      </trkpt>
      <trkpt lat="45.63993" lon="5.6468">
        <ele>239</ele>
        <time>2017-04-23T14:58:19Z</time>
      </trkpt>
      <trkpt lat="45.63992" lon="5.64689">
        <ele>239</ele>
        <time>2017-04-23T14:58:19Z</time>
      </trkpt>
      <trkpt lat="45.6399" lon="5.64697">
        <ele>239</ele>
        <time>2017-04-23T14:58:19Z</time>
      </trkpt>
      <trkpt lat="45.6399" lon="5.64704">
        <ele>239</ele>
        <time>2017-04-23T14:58:19Z</time>
      </trkpt>
      <trkpt lat="45.63989" lon="5.64712">
        <ele>231</ele>
        <time>2017-04-23T14:58:35Z</time>
      </trkpt>
      <trkpt lat="45.63988" lon="5.6472">
        <ele>231</ele>
        <time>2017-04-23T14:58:35Z</time>
      </trkpt>
      <trkpt lat="45.63988" lon="5.64727">
        <ele>231</ele>
        <time>2017-04-23T14:58:35Z</time>
      </trkpt>
      <trkpt lat="45.63987" lon="5.64735">
        <ele>231</ele>
        <time>2017-04-23T14:58:35Z</time>
      </trkpt>
      <trkpt lat="45.63986" lon="5.64742">
        <ele>231</ele>
        <time>2017-04-23T14:58:51Z</time>
      </trkpt>
      <trkpt lat="45.63986" lon="5.6475">
        <ele>231</ele>
        <time>2017-04-23T14:58:51Z</time>
      </trkpt>
      <trkpt lat="45.63984" lon="5.64757">
        <ele>231</ele>
        <time>2017-04-23T14:58:51Z</time>
      </trkpt>
      <trkpt lat="45.63983" lon="5.64766">
        <ele>231</ele>
        <time>2017-04-23T14:58:51Z</time>
      </trkpt>
      <trkpt lat="45.63979" lon="5.64771">
        <ele>231</ele>
        <time>2017-04-23T14:59:07Z</time>
      </trkpt>
      <trkpt lat="45.63975" lon="5.64775">
        <ele>231</ele>
        <time>2017-04-23T14:59:07Z</time>
      </trkpt>
      <trkpt lat="45.6397" lon="5.64779">
        <ele>231</ele>
        <time>2017-04-23T14:59:07Z</time>
      </trkpt>
      <trkpt lat="45.63965" lon="5.64783">
        <ele>231</ele>
        <time>2017-04-23T14:59:07Z</time>
      </trkpt>
      <trkpt lat="45.6396" lon="5.64786">
        <ele>231</ele>
        <time>2017-04-23T14:59:23Z</time>
      </trkpt>
      <trkpt lat="45.63955" lon="5.64789">
        <ele>220</ele>
        <time>2017-04-23T14:59:23Z</time>
      </trkpt>
      <trkpt lat="45.6395" lon="5.64794">
        <ele>219</ele>
        <time>2017-04-23T14:59:23Z</time>
      </trkpt>
      <trkpt lat="45.63943" lon="5.64798">
        <ele>219</ele>
        <time>2017-04-23T14:59:23Z</time>
      </trkpt>
      <trkpt lat="45.63937" lon="5.64803">
        <ele>219</ele>
        <time>2017-04-23T14:59:39Z</time>
      </trkpt>
      <trkpt lat="45.63932" lon="5.64808">
        <ele>219</ele>
        <time>2017-04-23T14:59:39Z</time>
      </trkpt>
      <trkpt lat="45.63925" lon="5.64814">
        <ele>219</ele>
        <time>2017-04-23T14:59:39Z</time>
      </trkpt>
      <trkpt lat="45.6392" lon="5.64818">
        <ele>219</ele>
        <time>2017-04-23T14:59:39Z</time>
      </trkpt>
      <trkpt lat="45.63915" lon="5.64822">
        <ele>219</ele>
        <time>2017-04-23T14:59:55Z</time>
      </trkpt>
      <trkpt lat="45.6391" lon="5.64827">
        <ele>219</ele>
        <time>2017-04-23T14:59:55Z</time>
      </trkpt>
      <trkpt lat="45.63906" lon="5.64833">
        <ele>219</ele>
        <time>2017-04-23T14:59:55Z</time>
      </trkpt>
      <trkpt lat="45.63901" lon="5.64838">
        <ele>219</ele>
        <time>2017-04-23T14:59:55Z</time>
      </trkpt>
      <trkpt lat="45.63897" lon="5.64844">
        <ele>219</ele>
        <time>2017-04-23T15:00:11Z</time>
      </trkpt>
      <trkpt lat="45.63894" lon="5.64848">
        <ele>219</ele>
        <time>2017-04-23T15:00:11Z</time>
      </trkpt>
      <trkpt lat="45.63893" lon="5.64848">
        <ele>219</ele>
        <time>2017-04-23T15:00:11Z</time>
      </trkpt>
      <trkpt lat="45.6389" lon="5.64854">
        <ele>219</ele>
        <time>2017-04-23T15:00:11Z</time>
      </trkpt>
      <trkpt lat="45.63886" lon="5.64861">
        <ele>219</ele>
        <time>2017-04-23T15:00:27Z</time>
      </trkpt>
      <trkpt lat="45.63883" lon="5.6487">
        <ele>219</ele>
        <time>2017-04-23T15:00:27Z</time>
      </trkpt>
      <trkpt lat="45.63881" lon="5.64878">
        <ele>218</ele>
        <time>2017-04-23T15:00:27Z</time>
      </trkpt>
      <trkpt lat="45.6388" lon="5.64884">
        <ele>218</ele>
        <time>2017-04-23T15:00:27Z</time>
      </trkpt>
      <trkpt lat="45.6388" lon="5.6489">
        <ele>218</ele>
        <time>2017-04-23T15:00:43Z</time>
      </trkpt>
      <trkpt lat="45.6388" lon="5.64896">
        <ele>218</ele>
        <time>2017-04-23T15:00:43Z</time>
      </trkpt>
      <trkpt lat="45.6388" lon="5.64903">
        <ele>218</ele>
        <time>2017-04-23T15:00:43Z</time>
      </trkpt>
      <trkpt lat="45.6388" lon="5.6491">
        <ele>218</ele>
        <time>2017-04-23T15:00:43Z</time>
      </trkpt>
      <trkpt lat="45.63879" lon="5.64917">
        <ele>218</ele>
        <time>2017-04-23T15:00:59Z</time>
      </trkpt>
      <trkpt lat="45.63879" lon="5.64924">
        <ele>218</ele>
        <time>2017-04-23T15:00:59Z</time>
      </trkpt>
      <trkpt lat="45.63879" lon="5.64932">
        <ele>218</ele>
        <time>2017-04-23T15:00:59Z</time>
      </trkpt>
      <trkpt lat="45.6388" lon="5.64944">
        <ele>218</ele>
        <time>2017-04-23T15:00:59Z</time>
      </trkpt>
      <trkpt lat="45.6388" lon="5.64954">
        <ele>218</ele>
        <time>2017-04-23T15:01:15Z</time>
      </trkpt>
      <trkpt lat="45.63881" lon="5.64962">
        <ele>218</ele>
        <time>2017-04-23T15:01:15Z</time>
      </trkpt>
      <trkpt lat="45.6388" lon="5.64972">
        <ele>218</ele>
        <time>2017-04-23T15:01:15Z</time>
      </trkpt>
      <trkpt lat="45.6388" lon="5.6498">
        <ele>218</ele>
        <time>2017-04-23T15:01:15Z</time>
      </trkpt>
      <trkpt lat="45.6388" lon="5.64989">
        <ele>218</ele>
        <time>2017-04-23T15:01:31Z</time>
      </trkpt>
      <trkpt lat="45.6388" lon="5.64997">
        <ele>218</ele>
        <time>2017-04-23T15:01:31Z</time>
      </trkpt>
      <trkpt lat="45.6388" lon="5.65005">
        <ele>218</ele>
        <time>2017-04-23T15:01:31Z</time>
      </trkpt>
      <trkpt lat="45.63881" lon="5.65013">
        <ele>218</ele>
        <time>2017-04-23T15:01:31Z</time>
      </trkpt>
      <trkpt lat="45.63881" lon="5.6502">
        <ele>218</ele>
        <time>2017-04-23T15:01:47Z</time>
      </trkpt>
      <trkpt lat="45.63881" lon="5.65028">
        <ele>218</ele>
        <time>2017-04-23T15:01:47Z</time>
      </trkpt>
      <trkpt lat="45.6388" lon="5.65036">
        <ele>218</ele>
        <time>2017-04-23T15:01:47Z</time>
      </trkpt>
      <trkpt lat="45.6388" lon="5.65044">
        <ele>217</ele>
        <time>2017-04-23T15:01:47Z</time>
      </trkpt>
      <trkpt lat="45.63879" lon="5.65052">
        <ele>217</ele>
        <time>2017-04-23T15:02:03Z</time>
      </trkpt>
      <trkpt lat="45.63879" lon="5.65061">
        <ele>217</ele>
        <time>2017-04-23T15:02:03Z</time>
      </trkpt>
      <trkpt lat="45.63878" lon="5.6507">
        <ele>217</ele>
        <time>2017-04-23T15:02:03Z</time>
      </trkpt>
      <trkpt lat="45.63878" lon="5.65078">
        <ele>217</ele>
        <time>2017-04-23T15:02:03Z</time>
      </trkpt>
      <trkpt lat="45.63879" lon="5.65085">
        <ele>217</ele>
        <time>2017-04-23T15:02:19Z</time>
      </trkpt>
      <trkpt lat="45.63879" lon="5.65093">
        <ele>217</ele>
        <time>2017-04-23T15:02:19Z</time>
      </trkpt>
      <trkpt lat="45.63879" lon="5.651">
        <ele>217</ele>
        <time>2017-04-23T15:02:19Z</time>
      </trkpt>
      <trkpt lat="45.63879" lon="5.65107">
        <ele>217</ele>
        <time>2017-04-23T15:02:19Z</time>
      </trkpt>
      <trkpt lat="45.63879" lon="5.65115">
        <ele>217</ele>
        <time>2017-04-23T15:02:35Z</time>
      </trkpt>
      <trkpt lat="45.63878" lon="5.65123">
        <ele>217</ele>
        <time>2017-04-23T15:02:35Z</time>
      </trkpt>
      <trkpt lat="45.6388" lon="5.6513">
        <ele>217</ele>
        <time>2017-04-23T15:02:35Z</time>
      </trkpt>
      <trkpt lat="45.6388" lon="5.65139">
        <ele>217</ele>
        <time>2017-04-23T15:02:35Z</time>
      </trkpt>
      <trkpt lat="45.6388" lon="5.65147">
        <ele>217</ele>
        <time>2017-04-23T15:02:51Z</time>
      </trkpt>
      <trkpt lat="45.6388" lon="5.65155">
        <ele>217</ele>
        <time>2017-04-23T15:02:51Z</time>
      </trkpt>
      <trkpt lat="45.6388" lon="5.65163">
        <ele>217</ele>
        <time>2017-04-23T15:02:51Z</time>
      </trkpt>
      <trkpt lat="45.63881" lon="5.6517">
        <ele>217</ele>
        <time>2017-04-23T15:02:51Z</time>
      </trkpt>
      <trkpt lat="45.63882" lon="5.65174">
        <ele>217</ele>
        <time>2017-04-23T15:03:07Z</time>
      </trkpt>
      <trkpt lat="45.63884" lon="5.65172">
        <ele>217</ele>
        <time>2017-04-23T15:03:07Z</time>
      </trkpt>
      <trkpt lat="45.63885" lon="5.65165">
        <ele>217</ele>
        <time>2017-04-23T15:03:07Z</time>
      </trkpt>
      <trkpt lat="45.63886" lon="5.65156">
        <ele>217</ele>
        <time>2017-04-23T15:03:07Z</time>
      </trkpt>
      <trkpt lat="45.63887" lon="5.65148">
        <ele>217</ele>
        <time>2017-04-23T15:03:23Z</time>
      </trkpt>
      <trkpt lat="45.63888" lon="5.65139">
        <ele>217</ele>
        <time>2017-04-23T15:03:23Z</time>
      </trkpt>
      <trkpt lat="45.63892" lon="5.65131">
        <ele>217</ele>
        <time>2017-04-23T15:03:23Z</time>
      </trkpt>
      <trkpt lat="45.63897" lon="5.65127">
        <ele>217</ele>
        <time>2017-04-23T15:03:23Z</time>
      </trkpt>
      <trkpt lat="45.63907" lon="5.65121">
        <ele>217</ele>
        <time>2017-04-23T15:04:51Z</time>
      </trkpt>
      <trkpt lat="45.63907" lon="5.65121">
        <ele>217</ele>
        <time>2017-04-23T15:04:51Z</time>
      </trkpt>
      <trkpt lat="45.63907" lon="5.65121">
        <ele>217</ele>
        <time>2017-04-23T15:04:51Z</time>
      </trkpt>
      <trkpt lat="45.63908" lon="5.65122">
        <ele>217</ele>
        <time>2017-04-23T15:04:51Z</time>
      </trkpt>
      <trkpt lat="45.63911" lon="5.65129">
        <ele>217</ele>
        <time>2017-04-23T15:04:51Z</time>
      </trkpt>
      <trkpt lat="45.63913" lon="5.65137">
        <ele>217</ele>
        <time>2017-04-23T15:05:07Z</time>
      </trkpt>
      <trkpt lat="45.63914" lon="5.65147">
        <ele>217</ele>
        <time>2017-04-23T15:05:07Z</time>
      </trkpt>
      <trkpt lat="45.63915" lon="5.65157">
        <ele>217</ele>
        <time>2017-04-23T15:05:07Z</time>
      </trkpt>
      <trkpt lat="45.63915" lon="5.65166">
        <ele>217</ele>
        <time>2017-04-23T15:05:07Z</time>
      </trkpt>
      <trkpt lat="45.63915" lon="5.65176">
        <ele>217</ele>
        <time>2017-04-23T15:05:23Z</time>
      </trkpt>
      <trkpt lat="45.63915" lon="5.65185">
        <ele>217</ele>
        <time>2017-04-23T15:05:23Z</time>
      </trkpt>
      <trkpt lat="45.63916" lon="5.65194">
        <ele>217</ele>
        <time>2017-04-23T15:05:23Z</time>
      </trkpt>
      <trkpt lat="45.63915" lon="5.65203">
        <ele>217</ele>
        <time>2017-04-23T15:05:23Z</time>
      </trkpt>
      <trkpt lat="45.63915" lon="5.6521">
        <ele>217</ele>
        <time>2017-04-23T15:05:39Z</time>
      </trkpt>
      <trkpt lat="45.63916" lon="5.65219">
        <ele>217</ele>
        <time>2017-04-23T15:05:39Z</time>
      </trkpt>
      <trkpt lat="45.63916" lon="5.65227">
        <ele>217</ele>
        <time>2017-04-23T15:05:39Z</time>
      </trkpt>
      <trkpt lat="45.63916" lon="5.65235">
        <ele>217</ele>
        <time>2017-04-23T15:05:39Z</time>
      </trkpt>
      <trkpt lat="45.63916" lon="5.65244">
        <ele>217</ele>
        <time>2017-04-23T15:05:55Z</time>
      </trkpt>
      <trkpt lat="45.63916" lon="5.65252">
        <ele>217</ele>
        <time>2017-04-23T15:05:55Z</time>
      </trkpt>
      <trkpt lat="45.63916" lon="5.65261">
        <ele>217</ele>
        <time>2017-04-23T15:05:55Z</time>
      </trkpt>
      <trkpt lat="45.63916" lon="5.65269">
        <ele>217</ele>
        <time>2017-04-23T15:05:55Z</time>
      </trkpt>
      <trkpt lat="45.63915" lon="5.65276">
        <ele>217</ele>
        <time>2017-04-23T15:06:11Z</time>
      </trkpt>
      <trkpt lat="45.63915" lon="5.65283">
        <ele>217</ele>
        <time>2017-04-23T15:06:11Z</time>
      </trkpt>
      <trkpt lat="45.63915" lon="5.65291">
        <ele>217</ele>
        <time>2017-04-23T15:06:11Z</time>
      </trkpt>
      <trkpt lat="45.63914" lon="5.653">
        <ele>216</ele>
        <time>2017-04-23T15:06:11Z</time>
      </trkpt>
      <trkpt lat="45.63914" lon="5.65308">
        <ele>216</ele>
        <time>2017-04-23T15:06:27Z</time>
      </trkpt>
      <trkpt lat="45.63914" lon="5.65317">
        <ele>216</ele>
        <time>2017-04-23T15:06:27Z</time>
      </trkpt>
      <trkpt lat="45.63914" lon="5.65325">
        <ele>216</ele>
        <time>2017-04-23T15:06:27Z</time>
      </trkpt>
      <trkpt lat="45.63915" lon="5.65338">
        <ele>216</ele>
        <time>2017-04-23T15:06:27Z</time>
      </trkpt>
      <trkpt lat="45.63916" lon="5.65349">
        <ele>216</ele>
        <time>2017-04-23T15:06:43Z</time>
      </trkpt>
      <trkpt lat="45.63916" lon="5.65359">
        <ele>216</ele>
        <time>2017-04-23T15:06:43Z</time>
      </trkpt>
      <trkpt lat="45.63916" lon="5.65377">
        <ele>216</ele>
        <time>2017-04-23T15:06:43Z</time>
      </trkpt>
      <trkpt lat="45.63917" lon="5.65397">
        <ele>216</ele>
        <time>2017-04-23T15:06:43Z</time>
      </trkpt>
      <trkpt lat="45.63917" lon="5.65416">
        <ele>216</ele>
        <time>2017-04-23T15:06:59Z</time>
      </trkpt>
      <trkpt lat="45.63919" lon="5.65436">
        <ele>216</ele>
        <time>2017-04-23T15:06:59Z</time>
      </trkpt>
      <trkpt lat="45.63922" lon="5.65458">
        <ele>216</ele>
        <time>2017-04-23T15:06:59Z</time>
      </trkpt>
      <trkpt lat="45.63926" lon="5.65479">
        <ele>215</ele>
        <time>2017-04-23T15:06:59Z</time>
      </trkpt>
      <trkpt lat="45.63931" lon="5.655">
        <ele>215</ele>
        <time>2017-04-23T15:07:15Z</time>
      </trkpt>
      <trkpt lat="45.63934" lon="5.6552">
        <ele>215</ele>
        <time>2017-04-23T15:07:15Z</time>
      </trkpt>
      <trkpt lat="45.63938" lon="5.65537">
        <ele>215</ele>
        <time>2017-04-23T15:07:15Z</time>
      </trkpt>
      <trkpt lat="45.63943" lon="5.65554">
        <ele>215</ele>
        <time>2017-04-23T15:07:15Z</time>
      </trkpt>
      <trkpt lat="45.63947" lon="5.65574">
        <ele>215</ele>
        <time>2017-04-23T15:07:31Z</time>
      </trkpt>
      <trkpt lat="45.63951" lon="5.65593">
        <ele>215</ele>
        <time>2017-04-23T15:07:31Z</time>
      </trkpt>
      <trkpt lat="45.63955" lon="5.65612">
        <ele>215</ele>
        <time>2017-04-23T15:07:31Z</time>
      </trkpt>
      <trkpt lat="45.63959" lon="5.65631">
        <ele>216</ele>
        <time>2017-04-23T15:07:31Z</time>
      </trkpt>
      <trkpt lat="45.63963" lon="5.6565">
        <ele>216</ele>
        <time>2017-04-23T15:07:47Z</time>
      </trkpt>
      <trkpt lat="45.63967" lon="5.65672">
        <ele>216</ele>
        <time>2017-04-23T15:07:47Z</time>
      </trkpt>
      <trkpt lat="45.63972" lon="5.65693">
        <ele>216</ele>
        <time>2017-04-23T15:07:47Z</time>
      </trkpt>
      <trkpt lat="45.63976" lon="5.65714">
        <ele>216</ele>
        <time>2017-04-23T15:07:47Z</time>
      </trkpt>
      <trkpt lat="45.6398" lon="5.65735">
        <ele>216</ele>
        <time>2017-04-23T15:08:03Z</time>
      </trkpt>
      <trkpt lat="45.63984" lon="5.65756">
        <ele>216</ele>
        <time>2017-04-23T15:08:03Z</time>
      </trkpt>
      <trkpt lat="45.63988" lon="5.65777">
        <ele>216</ele>
        <time>2017-04-23T15:08:03Z</time>
      </trkpt>
      <trkpt lat="45.6399" lon="5.65785">
        <ele>216</ele>
        <time>2017-04-23T15:08:03Z</time>
      </trkpt>
      <trkpt lat="45.63989" lon="5.65791">
        <ele>216</ele>
        <time>2017-04-23T15:08:19Z</time>
      </trkpt>
      <trkpt lat="45.63989" lon="5.65798">
        <ele>215</ele>
        <time>2017-04-23T15:08:19Z</time>
      </trkpt>
      <trkpt lat="45.63989" lon="5.65806">
        <ele>215</ele>
        <time>2017-04-23T15:08:19Z</time>
      </trkpt>
      <trkpt lat="45.63989" lon="5.65814">
        <ele>215</ele>
        <time>2017-04-23T15:08:19Z</time>
      </trkpt>
      <trkpt lat="45.63989" lon="5.65822">
        <ele>215</ele>
        <time>2017-04-23T15:08:35Z</time>
      </trkpt>
      <trkpt lat="45.6399" lon="5.6583">
        <ele>215</ele>
        <time>2017-04-23T15:08:35Z</time>
      </trkpt>
      <trkpt lat="45.63991" lon="5.65837">
        <ele>215</ele>
        <time>2017-04-23T15:08:35Z</time>
      </trkpt>
      <trkpt lat="45.63991" lon="5.65845">
        <ele>215</ele>
        <time>2017-04-23T15:08:35Z</time>
      </trkpt>
      <trkpt lat="45.63991" lon="5.65852">
        <ele>215</ele>
        <time>2017-04-23T15:08:51Z</time>
      </trkpt>
      <trkpt lat="45.6399" lon="5.65859">
        <ele>215</ele>
        <time>2017-04-23T15:08:51Z</time>
      </trkpt>
      <trkpt lat="45.6399" lon="5.65868">
        <ele>215</ele>
        <time>2017-04-23T15:08:51Z</time>
      </trkpt>
      <trkpt lat="45.63991" lon="5.65877">
        <ele>215</ele>
        <time>2017-04-23T15:08:51Z</time>
      </trkpt>
      <trkpt lat="45.63992" lon="5.65886">
        <ele>215</ele>
        <time>2017-04-23T15:09:07Z</time>
      </trkpt>
      <trkpt lat="45.63992" lon="5.65893">
        <ele>215</ele>
        <time>2017-04-23T15:09:07Z</time>
      </trkpt>
      <trkpt lat="45.63992" lon="5.659">
        <ele>215</ele>
        <time>2017-04-23T15:09:07Z</time>
      </trkpt>
      <trkpt lat="45.63992" lon="5.65906">
        <ele>215</ele>
        <time>2017-04-23T15:09:07Z</time>
      </trkpt>
      <trkpt lat="45.63993" lon="5.65914">
        <ele>215</ele>
        <time>2017-04-23T15:09:23Z</time>
      </trkpt>
      <trkpt lat="45.63993" lon="5.65921">
        <ele>215</ele>
        <time>2017-04-23T15:09:23Z</time>
      </trkpt>
      <trkpt lat="45.63994" lon="5.65929">
        <ele>215</ele>
        <time>2017-04-23T15:09:23Z</time>
      </trkpt>
      <trkpt lat="45.63994" lon="5.6594">
        <ele>215</ele>
        <time>2017-04-23T15:09:23Z</time>
      </trkpt>
      <trkpt lat="45.63994" lon="5.6595">
        <ele>215</ele>
        <time>2017-04-23T15:09:39Z</time>
      </trkpt>
      <trkpt lat="45.63995" lon="5.6596">
        <ele>216</ele>
        <time>2017-04-23T15:09:39Z</time>
      </trkpt>
      <trkpt lat="45.63995" lon="5.6597">
        <ele>216</ele>
        <time>2017-04-23T15:09:39Z</time>
      </trkpt>
      <trkpt lat="45.63995" lon="5.65979">
        <ele>216</ele>
        <time>2017-04-23T15:09:39Z</time>
      </trkpt>
      <trkpt lat="45.63995" lon="5.65987">
        <ele>216</ele>
        <time>2017-04-23T15:09:55Z</time>
      </trkpt>
      <trkpt lat="45.63995" lon="5.65995">
        <ele>216</ele>
        <time>2017-04-23T15:09:55Z</time>
      </trkpt>
      <trkpt lat="45.63995" lon="5.66004">
        <ele>216</ele>
        <time>2017-04-23T15:09:55Z</time>
      </trkpt>
      <trkpt lat="45.63994" lon="5.66012">
        <ele>216</ele>
        <time>2017-04-23T15:09:55Z</time>
      </trkpt>
      <trkpt lat="45.63994" lon="5.66021">
        <ele>216</ele>
        <time>2017-04-23T15:10:11Z</time>
      </trkpt>
      <trkpt lat="45.63994" lon="5.66029">
        <ele>216</ele>
        <time>2017-04-23T15:10:11Z</time>
      </trkpt>
      <trkpt lat="45.63994" lon="5.66038">
        <ele>216</ele>
        <time>2017-04-23T15:10:11Z</time>
      </trkpt>
      <trkpt lat="45.63995" lon="5.66047">
        <ele>216</ele>
        <time>2017-04-23T15:10:11Z</time>
      </trkpt>
      <trkpt lat="45.63995" lon="5.66055">
        <ele>216</ele>
        <time>2017-04-23T15:10:27Z</time>
      </trkpt>
      <trkpt lat="45.63995" lon="5.66065">
        <ele>216</ele>
        <time>2017-04-23T15:10:27Z</time>
      </trkpt>
      <trkpt lat="45.63996" lon="5.66081">
        <ele>216</ele>
        <time>2017-04-23T15:10:27Z</time>
      </trkpt>
      <trkpt lat="45.63996" lon="5.66089">
        <ele>216</ele>
        <time>2017-04-23T15:10:27Z</time>
      </trkpt>
      <trkpt lat="45.63996" lon="5.66097">
        <ele>216</ele>
        <time>2017-04-23T15:10:43Z</time>
      </trkpt>
      <trkpt lat="45.63996" lon="5.66105">
        <ele>216</ele>
        <time>2017-04-23T15:10:43Z</time>
      </trkpt>
      <trkpt lat="45.63996" lon="5.66113">
        <ele>216</ele>
        <time>2017-04-23T15:10:43Z</time>
      </trkpt>
      <trkpt lat="45.63996" lon="5.66121">
        <ele>216</ele>
        <time>2017-04-23T15:10:43Z</time>
      </trkpt>
      <trkpt lat="45.63996" lon="5.66128">
        <ele>218</ele>
        <time>2017-04-23T15:10:59Z</time>
      </trkpt>
      <trkpt lat="45.63996" lon="5.66136">
        <ele>218</ele>
        <time>2017-04-23T15:10:59Z</time>
      </trkpt>
      <trkpt lat="45.63996" lon="5.66144">
        <ele>218</ele>
        <time>2017-04-23T15:10:59Z</time>
      </trkpt>
      <trkpt lat="45.63995" lon="5.66147">
        <ele>218</ele>
        <time>2017-04-23T15:10:59Z</time>
      </trkpt>
      <trkpt lat="45.63995" lon="5.66147">
        <ele>218</ele>
        <time>2017-04-23T15:11:27Z</time>
      </trkpt>
      <trkpt lat="45.63996" lon="5.6615">
        <ele>218</ele>
        <time>2017-04-23T15:11:27Z</time>
      </trkpt>
      <trkpt lat="45.63998" lon="5.66152">
        <ele>218</ele>
        <time>2017-04-23T15:11:27Z</time>
      </trkpt>
      <trkpt lat="45.64003" lon="5.66152">
        <ele>218</ele>
        <time>2017-04-23T15:11:27Z</time>
      </trkpt>
      <trkpt lat="45.64009" lon="5.66152">
        <ele>218</ele>
        <time>2017-04-23T15:11:27Z</time>
      </trkpt>
      <trkpt lat="45.64014" lon="5.66154">
        <ele>218</ele>
        <time>2017-04-23T15:11:43Z</time>
      </trkpt>
      <trkpt lat="45.64017" lon="5.66162">
        <ele>218</ele>
        <time>2017-04-23T15:11:43Z</time>
      </trkpt>
      <trkpt lat="45.6402" lon="5.66172">
        <ele>218</ele>
        <time>2017-04-23T15:11:43Z</time>
      </trkpt>
      <trkpt lat="45.64021" lon="5.66183">
        <ele>218</ele>
        <time>2017-04-23T15:11:43Z</time>
      </trkpt>
      <trkpt lat="45.64022" lon="5.6619">
        <ele>218</ele>
        <time>2017-04-23T15:11:59Z</time>
      </trkpt>
      <trkpt lat="45.64022" lon="5.66197">
        <ele>218</ele>
        <time>2017-04-23T15:11:59Z</time>
      </trkpt>
      <trkpt lat="45.64022" lon="5.66205">
        <ele>218</ele>
        <time>2017-04-23T15:11:59Z</time>
      </trkpt>
      <trkpt lat="45.64021" lon="5.66213">
        <ele>220</ele>
        <time>2017-04-23T15:11:59Z</time>
      </trkpt>
      <trkpt lat="45.64022" lon="5.6622">
        <ele>220</ele>
        <time>2017-04-23T15:12:15Z</time>
      </trkpt>
      <trkpt lat="45.64022" lon="5.66229">
        <ele>220</ele>
        <time>2017-04-23T15:12:15Z</time>
      </trkpt>
      <trkpt lat="45.64021" lon="5.6624">
        <ele>220</ele>
        <time>2017-04-23T15:12:15Z</time>
      </trkpt>
      <trkpt lat="45.64021" lon="5.66252">
        <ele>220</ele>
        <time>2017-04-23T15:12:15Z</time>
      </trkpt>
      <trkpt lat="45.6402" lon="5.66261">
        <ele>220</ele>
        <time>2017-04-23T15:12:31Z</time>
      </trkpt>
      <trkpt lat="45.64021" lon="5.66268">
        <ele>220</ele>
        <time>2017-04-23T15:12:31Z</time>
      </trkpt>
      <trkpt lat="45.6402" lon="5.66275">
        <ele>220</ele>
        <time>2017-04-23T15:12:31Z</time>
      </trkpt>
      <trkpt lat="45.64019" lon="5.66283">
        <ele>220</ele>
        <time>2017-04-23T15:12:31Z</time>
      </trkpt>
      <trkpt lat="45.64018" lon="5.66292">
        <ele>220</ele>
        <time>2017-04-23T15:12:47Z</time>
      </trkpt>
      <trkpt lat="45.64018" lon="5.663">
        <ele>222</ele>
        <time>2017-04-23T15:12:47Z</time>
      </trkpt>
      <trkpt lat="45.64017" lon="5.66309">
        <ele>222</ele>
        <time>2017-04-23T15:12:47Z</time>
      </trkpt>
      <trkpt lat="45.64016" lon="5.66317">
        <ele>222</ele>
        <time>2017-04-23T15:12:47Z</time>
      </trkpt>
      <trkpt lat="45.64016" lon="5.66325">
        <ele>222</ele>
        <time>2017-04-23T15:13:03Z</time>
      </trkpt>
      <trkpt lat="45.64017" lon="5.66335">
        <ele>222</ele>
        <time>2017-04-23T15:13:03Z</time>
      </trkpt>
      <trkpt lat="45.64017" lon="5.66344">
        <ele>222</ele>
        <time>2017-04-23T15:13:03Z</time>
      </trkpt>
      <trkpt lat="45.64018" lon="5.66353">
        <ele>222</ele>
        <time>2017-04-23T15:13:03Z</time>
      </trkpt>
      <trkpt lat="45.64018" lon="5.66353">
        <ele>222</ele>
        <time>2017-04-23T15:13:27Z</time>
      </trkpt>
      <trkpt lat="45.64018" lon="5.66354">
        <ele>222</ele>
        <time>2017-04-23T15:13:27Z</time>
      </trkpt>
      <trkpt lat="45.64018" lon="5.66355">
        <ele>222</ele>
        <time>2017-04-23T15:13:27Z</time>
      </trkpt>
      <trkpt lat="45.64016" lon="5.66364">
        <ele>222</ele>
        <time>2017-04-23T15:13:27Z</time>
      </trkpt>
      <trkpt lat="45.64015" lon="5.66373">
        <ele>222</ele>
        <time>2017-04-23T15:13:27Z</time>
      </trkpt>
      <trkpt lat="45.64015" lon="5.66381">
        <ele>222</ele>
        <time>2017-04-23T15:13:43Z</time>
      </trkpt>
      <trkpt lat="45.64015" lon="5.6639">
        <ele>222</ele>
        <time>2017-04-23T15:13:43Z</time>
      </trkpt>
      <trkpt lat="45.64016" lon="5.66395">
        <ele>222</ele>
        <time>2017-04-23T15:13:43Z</time>
      </trkpt>
      <trkpt lat="45.64016" lon="5.664">
        <ele>222</ele>
        <time>2017-04-23T15:13:43Z</time>
      </trkpt>
      <trkpt lat="45.64017" lon="5.66408">
        <ele>222</ele>
        <time>2017-04-23T15:13:59Z</time>
      </trkpt>
      <trkpt lat="45.64019" lon="5.66416">
        <ele>222</ele>
        <time>2017-04-23T15:13:59Z</time>
      </trkpt>
      <trkpt lat="45.64021" lon="5.66423">
        <ele>222</ele>
        <time>2017-04-23T15:13:59Z</time>
      </trkpt>
      <trkpt lat="45.64023" lon="5.66429">
        <ele>222</ele>
        <time>2017-04-23T15:13:59Z</time>
      </trkpt>
      <trkpt lat="45.64024" lon="5.66438">
        <ele>222</ele>
        <time>2017-04-23T15:14:15Z</time>
      </trkpt>
      <trkpt lat="45.64025" lon="5.66449">
        <ele>222</ele>
        <time>2017-04-23T15:14:15Z</time>
      </trkpt>
      <trkpt lat="45.64026" lon="5.66459">
        <ele>220</ele>
        <time>2017-04-23T15:14:15Z</time>
      </trkpt>
      <trkpt lat="45.64029" lon="5.66467">
        <ele>220</ele>
        <time>2017-04-23T15:14:15Z</time>
      </trkpt>
      <trkpt lat="45.64032" lon="5.66477">
        <ele>220</ele>
        <time>2017-04-23T15:14:31Z</time>
      </trkpt>
      <trkpt lat="45.64035" lon="5.66488">
        <ele>220</ele>
        <time>2017-04-23T15:14:31Z</time>
      </trkpt>
      <trkpt lat="45.6404" lon="5.66504">
        <ele>220</ele>
        <time>2017-04-23T15:14:31Z</time>
      </trkpt>
      <trkpt lat="45.64045" lon="5.6652">
        <ele>234</ele>
        <time>2017-04-23T15:14:31Z</time>
      </trkpt>
      <trkpt lat="45.64048" lon="5.66538">
        <ele>234</ele>
        <time>2017-04-23T15:14:47Z</time>
      </trkpt>
      <trkpt lat="45.64049" lon="5.66558">
        <ele>231</ele>
        <time>2017-04-23T15:14:47Z</time>
      </trkpt>
      <trkpt lat="45.64052" lon="5.66574">
        <ele>231</ele>
        <time>2017-04-23T15:14:47Z</time>
      </trkpt>
      <trkpt lat="45.64055" lon="5.66585">
        <ele>231</ele>
        <time>2017-04-23T15:14:47Z</time>
      </trkpt>
      <trkpt lat="45.64058" lon="5.666">
        <ele>231</ele>
        <time>2017-04-23T15:15:03Z</time>
      </trkpt>
      <trkpt lat="45.64061" lon="5.6661">
        <ele>231</ele>
        <time>2017-04-23T15:15:03Z</time>
      </trkpt>
      <trkpt lat="45.64065" lon="5.6663">
        <ele>229</ele>
        <time>2017-04-23T15:15:03Z</time>
      </trkpt>
      <trkpt lat="45.64068" lon="5.66648">
        <ele>229</ele>
        <time>2017-04-23T15:15:03Z</time>
      </trkpt>
      <trkpt lat="45.64071" lon="5.66662">
        <ele>229</ele>
        <time>2017-04-23T15:15:19Z</time>
      </trkpt>
      <trkpt lat="45.64074" lon="5.66673">
        <ele>229</ele>
        <time>2017-04-23T15:15:19Z</time>
      </trkpt>
      <trkpt lat="45.64078" lon="5.66692">
        <ele>229</ele>
        <time>2017-04-23T15:15:19Z</time>
      </trkpt>
      <trkpt lat="45.64081" lon="5.66711">
        <ele>227</ele>
        <time>2017-04-23T15:15:19Z</time>
      </trkpt>
      <trkpt lat="45.64085" lon="5.6673">
        <ele>227</ele>
        <time>2017-04-23T15:15:35Z</time>
      </trkpt>
      <trkpt lat="45.64088" lon="5.66749">
        <ele>227</ele>
        <time>2017-04-23T15:15:35Z</time>
      </trkpt>
      <trkpt lat="45.64093" lon="5.66768">
        <ele>227</ele>
        <time>2017-04-23T15:15:35Z</time>
      </trkpt>
      <trkpt lat="45.64096" lon="5.66787">
        <ele>227</ele>
        <time>2017-04-23T15:15:35Z</time>
      </trkpt>
      <trkpt lat="45.64097" lon="5.66794">
        <ele>225</ele>
        <time>2017-04-23T15:15:51Z</time>
      </trkpt>
      <trkpt lat="45.64098" lon="5.66801">
        <ele>225</ele>
        <time>2017-04-23T15:15:51Z</time>
      </trkpt>
      <trkpt lat="45.641" lon="5.6681">
        <ele>225</ele>
        <time>2017-04-23T15:15:51Z</time>
      </trkpt>
      <trkpt lat="45.64103" lon="5.66819">
        <ele>225</ele>
        <time>2017-04-23T15:15:51Z</time>
      </trkpt>
      <trkpt lat="45.64105" lon="5.66827">
        <ele>225</ele>
        <time>2017-04-23T15:16:07Z</time>
      </trkpt>
      <trkpt lat="45.64108" lon="5.66835">
        <ele>225</ele>
        <time>2017-04-23T15:16:07Z</time>
      </trkpt>
      <trkpt lat="45.64111" lon="5.66845">
        <ele>225</ele>
        <time>2017-04-23T15:16:07Z</time>
      </trkpt>
      <trkpt lat="45.64115" lon="5.66857">
        <ele>225</ele>
        <time>2017-04-23T15:16:07Z</time>
      </trkpt>
      <trkpt lat="45.64117" lon="5.66867">
        <ele>225</ele>
        <time>2017-04-23T15:16:23Z</time>
      </trkpt>
      <trkpt lat="45.64119" lon="5.66876">
        <ele>222</ele>
        <time>2017-04-23T15:16:23Z</time>
      </trkpt>
      <trkpt lat="45.64119" lon="5.66883">
        <ele>222</ele>
        <time>2017-04-23T15:16:23Z</time>
      </trkpt>
      <trkpt lat="45.64123" lon="5.66889">
        <ele>222</ele>
        <time>2017-04-23T15:16:23Z</time>
      </trkpt>
      <trkpt lat="45.64125" lon="5.66897">
        <ele>237</ele>
        <time>2017-04-23T15:16:39Z</time>
      </trkpt>
      <trkpt lat="45.64126" lon="5.66906">
        <ele>237</ele>
        <time>2017-04-23T15:16:39Z</time>
      </trkpt>
      <trkpt lat="45.64126" lon="5.66914">
        <ele>237</ele>
        <time>2017-04-23T15:16:39Z</time>
      </trkpt>
      <trkpt lat="45.64126" lon="5.66924">
        <ele>237</ele>
        <time>2017-04-23T15:16:39Z</time>
      </trkpt>
      <trkpt lat="45.64127" lon="5.66934">
        <ele>237</ele>
        <time>2017-04-23T15:16:55Z</time>
      </trkpt>
      <trkpt lat="45.64127" lon="5.66941">
        <ele>237</ele>
        <time>2017-04-23T15:16:55Z</time>
      </trkpt>
      <trkpt lat="45.64129" lon="5.66948">
        <ele>237</ele>
        <time>2017-04-23T15:16:55Z</time>
      </trkpt>
      <trkpt lat="45.64132" lon="5.66953">
        <ele>237</ele>
        <time>2017-04-23T15:16:55Z</time>
      </trkpt>
      <trkpt lat="45.64137" lon="5.66962">
        <ele>233</ele>
        <time>2017-04-23T15:17:11Z</time>
      </trkpt>
      <trkpt lat="45.64142" lon="5.66972">
        <ele>233</ele>
        <time>2017-04-23T15:17:11Z</time>
      </trkpt>
      <trkpt lat="45.64143" lon="5.66979">
        <ele>233</ele>
        <time>2017-04-23T15:17:11Z</time>
      </trkpt>
      <trkpt lat="45.64144" lon="5.66985">
        <ele>233</ele>
        <time>2017-04-23T15:17:11Z</time>
      </trkpt>
      <trkpt lat="45.64146" lon="5.6699">
        <ele>233</ele>
        <time>2017-04-23T15:17:27Z</time>
      </trkpt>
      <trkpt lat="45.64148" lon="5.66996">
        <ele>233</ele>
        <time>2017-04-23T15:17:27Z</time>
      </trkpt>
      <trkpt lat="45.64151" lon="5.67003">
        <ele>233</ele>
        <time>2017-04-23T15:17:27Z</time>
      </trkpt>
      <trkpt lat="45.64156" lon="5.67011">
        <ele>233</ele>
        <time>2017-04-23T15:17:27Z</time>
      </trkpt>
      <trkpt lat="45.64159" lon="5.67016">
        <ele>233</ele>
        <time>2017-04-23T15:17:43Z</time>
      </trkpt>
      <trkpt lat="45.6416" lon="5.67021">
        <ele>233</ele>
        <time>2017-04-23T15:17:43Z</time>
      </trkpt>
      <trkpt lat="45.64163" lon="5.6703">
        <ele>233</ele>
        <time>2017-04-23T15:17:43Z</time>
      </trkpt>
      <trkpt lat="45.64166" lon="5.67037">
        <ele>233</ele>
        <time>2017-04-23T15:17:43Z</time>
      </trkpt>
      <trkpt lat="45.64169" lon="5.67045">
        <ele>230</ele>
        <time>2017-04-23T15:17:59Z</time>
      </trkpt>
      <trkpt lat="45.64173" lon="5.67052">
        <ele>230</ele>
        <time>2017-04-23T15:17:59Z</time>
      </trkpt>
      <trkpt lat="45.64179" lon="5.67061">
        <ele>230</ele>
        <time>2017-04-23T15:17:59Z</time>
      </trkpt>
      <trkpt lat="45.64184" lon="5.67067">
        <ele>230</ele>
        <time>2017-04-23T15:17:59Z</time>
      </trkpt>
      <trkpt lat="45.64189" lon="5.67073">
        <ele>230</ele>
        <time>2017-04-23T15:18:15Z</time>
      </trkpt>
      <trkpt lat="45.64194" lon="5.67081">
        <ele>230</ele>
        <time>2017-04-23T15:18:15Z</time>
      </trkpt>
      <trkpt lat="45.64199" lon="5.67089">
        <ele>230</ele>
        <time>2017-04-23T15:18:15Z</time>
      </trkpt>
      <trkpt lat="45.64202" lon="5.67096">
        <ele>230</ele>
        <time>2017-04-23T15:18:15Z</time>
      </trkpt>
      <trkpt lat="45.64205" lon="5.67103">
        <ele>230</ele>
        <time>2017-04-23T15:18:31Z</time>
      </trkpt>
      <trkpt lat="45.64209" lon="5.6711">
        <ele>238</ele>
        <time>2017-04-23T15:18:31Z</time>
      </trkpt>
      <trkpt lat="45.64213" lon="5.67117">
        <ele>238</ele>
        <time>2017-04-23T15:18:31Z</time>
      </trkpt>
      <trkpt lat="45.64216" lon="5.67117">
        <ele>238</ele>
        <time>2017-04-23T15:18:31Z</time>
      </trkpt>
      <trkpt lat="45.64219" lon="5.67122">
        <ele>238</ele>
        <time>2017-04-23T15:18:47Z</time>
      </trkpt>
      <trkpt lat="45.64225" lon="5.6713">
        <ele>236</ele>
        <time>2017-04-23T15:18:47Z</time>
      </trkpt>
      <trkpt lat="45.64232" lon="5.67135">
        <ele>236</ele>
        <time>2017-04-23T15:18:47Z</time>
      </trkpt>
      <trkpt lat="45.64239" lon="5.6714">
        <ele>236</ele>
        <time>2017-04-23T15:18:47Z</time>
      </trkpt>
      <trkpt lat="45.64246" lon="5.67147">
        <ele>236</ele>
        <time>2017-04-23T15:19:03Z</time>
      </trkpt>
      <trkpt lat="45.64253" lon="5.67152">
        <ele>236</ele>
        <time>2017-04-23T15:19:03Z</time>
      </trkpt>
      <trkpt lat="45.64261" lon="5.67157">
        <ele>236</ele>
        <time>2017-04-23T15:19:03Z</time>
      </trkpt>
      <trkpt lat="45.64264" lon="5.67161">
        <ele>236</ele>
        <time>2017-04-23T15:19:03Z</time>
      </trkpt>
      <trkpt lat="45.64269" lon="5.67165">
        <ele>236</ele>
        <time>2017-04-23T15:19:19Z</time>
      </trkpt>
      <trkpt lat="45.64273" lon="5.6717">
        <ele>236</ele>
        <time>2017-04-23T15:19:19Z</time>
      </trkpt>
      <trkpt lat="45.64278" lon="5.67176">
        <ele>236</ele>
        <time>2017-04-23T15:19:19Z</time>
      </trkpt>
      <trkpt lat="45.64283" lon="5.67181">
        <ele>236</ele>
        <time>2017-04-23T15:19:19Z</time>
      </trkpt>
      <trkpt lat="45.64288" lon="5.67185">
        <ele>236</ele>
        <time>2017-04-23T15:19:35Z</time>
      </trkpt>
      <trkpt lat="45.64293" lon="5.67188">
        <ele>238</ele>
        <time>2017-04-23T15:19:35Z</time>
      </trkpt>
      <trkpt lat="45.64299" lon="5.67193">
        <ele>238</ele>
        <time>2017-04-23T15:19:35Z</time>
      </trkpt>
      <trkpt lat="45.64306" lon="5.67196">
        <ele>238</ele>
        <time>2017-04-23T15:19:35Z</time>
      </trkpt>
      <trkpt lat="45.64312" lon="5.67199">
        <ele>238</ele>
        <time>2017-04-23T15:19:51Z</time>
      </trkpt>
      <trkpt lat="45.64317" lon="5.67201">
        <ele>238</ele>
        <time>2017-04-23T15:19:51Z</time>
      </trkpt>
      <trkpt lat="45.64323" lon="5.67204">
        <ele>238</ele>
        <time>2017-04-23T15:19:51Z</time>
      </trkpt>
      <trkpt lat="45.64328" lon="5.67208">
        <ele>238</ele>
        <time>2017-04-23T15:19:51Z</time>
      </trkpt>
      <trkpt lat="45.64334" lon="5.6721">
        <ele>236</ele>
        <time>2017-04-23T15:20:07Z</time>
      </trkpt>
      <trkpt lat="45.6434" lon="5.67213">
        <ele>236</ele>
        <time>2017-04-23T15:20:07Z</time>
      </trkpt>
      <trkpt lat="45.64346" lon="5.67216">
        <ele>236</ele>
        <time>2017-04-23T15:20:07Z</time>
      </trkpt>
      <trkpt lat="45.64352" lon="5.67219">
        <ele>236</ele>
        <time>2017-04-23T15:20:07Z</time>
      </trkpt>
      <trkpt lat="45.64358" lon="5.67222">
        <ele>236</ele>
        <time>2017-04-23T15:20:23Z</time>
      </trkpt>
      <trkpt lat="45.64365" lon="5.67225">
        <ele>236</ele>
        <time>2017-04-23T15:20:23Z</time>
      </trkpt>
      <trkpt lat="45.64371" lon="5.67228">
        <ele>236</ele>
        <time>2017-04-23T15:20:23Z</time>
      </trkpt>
      <trkpt lat="45.64377" lon="5.67232">
        <ele>239</ele>
        <time>2017-04-23T15:20:23Z</time>
      </trkpt>
      <trkpt lat="45.64384" lon="5.67235">
        <ele>239</ele>
        <time>2017-04-23T15:20:39Z</time>
      </trkpt>
      <trkpt lat="45.64389" lon="5.67238">
        <ele>239</ele>
        <time>2017-04-23T15:20:39Z</time>
      </trkpt>
      <trkpt lat="45.64395" lon="5.67242">
        <ele>239</ele>
        <time>2017-04-23T15:20:39Z</time>
      </trkpt>
      <trkpt lat="45.644" lon="5.67244">
        <ele>239</ele>
        <time>2017-04-23T15:20:39Z</time>
      </trkpt>
      <trkpt lat="45.64405" lon="5.67246">
        <ele>239</ele>
        <time>2017-04-23T15:20:55Z</time>
      </trkpt>
      <trkpt lat="45.64411" lon="5.67247">
        <ele>239</ele>
        <time>2017-04-23T15:20:55Z</time>
      </trkpt>
      <trkpt lat="45.64416" lon="5.67249">
        <ele>239</ele>
        <time>2017-04-23T15:20:55Z</time>
      </trkpt>
      <trkpt lat="45.64421" lon="5.67252">
        <ele>239</ele>
        <time>2017-04-23T15:20:55Z</time>
      </trkpt>
      <trkpt lat="45.64427" lon="5.67255">
        <ele>239</ele>
        <time>2017-04-23T15:21:11Z</time>
      </trkpt>
      <trkpt lat="45.64433" lon="5.67258">
        <ele>239</ele>
        <time>2017-04-23T15:21:11Z</time>
      </trkpt>
      <trkpt lat="45.64439" lon="5.67261">
        <ele>239</ele>
        <time>2017-04-23T15:21:11Z</time>
      </trkpt>
      <trkpt lat="45.64445" lon="5.67265">
        <ele>239</ele>
        <time>2017-04-23T15:21:11Z</time>
      </trkpt>
      <trkpt lat="45.64456" lon="5.67269">
        <ele>239</ele>
        <time>2017-04-23T15:21:43Z</time>
      </trkpt>
      <trkpt lat="45.64456" lon="5.67269">
        <ele>239</ele>
        <time>2017-04-23T15:21:43Z</time>
      </trkpt>
      <trkpt lat="45.6446" lon="5.67271">
        <ele>240</ele>
        <time>2017-04-23T15:21:43Z</time>
      </trkpt>
      <trkpt lat="45.64466" lon="5.67273">
        <ele>240</ele>
        <time>2017-04-23T15:21:43Z</time>
      </trkpt>
      <trkpt lat="45.64473" lon="5.67275">
        <ele>240</ele>
        <time>2017-04-23T15:21:43Z</time>
      </trkpt>
      <trkpt lat="45.64479" lon="5.67278">
        <ele>240</ele>
        <time>2017-04-23T15:21:59Z</time>
      </trkpt>
      <trkpt lat="45.64485" lon="5.67281">
        <ele>240</ele>
        <time>2017-04-23T15:21:59Z</time>
      </trkpt>
      <trkpt lat="45.64489" lon="5.67283">
        <ele>240</ele>
        <time>2017-04-23T15:21:59Z</time>
      </trkpt>
      <trkpt lat="45.64493" lon="5.67286">
        <ele>240</ele>
        <time>2017-04-23T15:21:59Z</time>
      </trkpt>
      <trkpt lat="45.645" lon="5.67289">
        <ele>240</ele>
        <time>2017-04-23T15:22:15Z</time>
      </trkpt>
      <trkpt lat="45.64505" lon="5.67292">
        <ele>240</ele>
        <time>2017-04-23T15:22:15Z</time>
      </trkpt>
      <trkpt lat="45.6451" lon="5.67294">
        <ele>240</ele>
        <time>2017-04-23T15:22:15Z</time>
      </trkpt>
      <trkpt lat="45.64515" lon="5.67296">
        <ele>240</ele>
        <time>2017-04-23T15:22:15Z</time>
      </trkpt>
      <trkpt lat="45.6452" lon="5.67299">
        <ele>240</ele>
        <time>2017-04-23T15:22:31Z</time>
      </trkpt>
      <trkpt lat="45.64525" lon="5.67302">
        <ele>240</ele>
        <time>2017-04-23T15:22:31Z</time>
      </trkpt>
      <trkpt lat="45.64531" lon="5.67306">
        <ele>240</ele>
        <time>2017-04-23T15:22:31Z</time>
      </trkpt>
      <trkpt lat="45.64535" lon="5.67308">
        <ele>240</ele>
        <time>2017-04-23T15:22:31Z</time>
      </trkpt>
      <trkpt lat="45.6454" lon="5.67311">
        <ele>240</ele>
        <time>2017-04-23T15:22:47Z</time>
      </trkpt>
      <trkpt lat="45.64545" lon="5.67315">
        <ele>242</ele>
        <time>2017-04-23T15:22:47Z</time>
      </trkpt>
      <trkpt lat="45.64549" lon="5.67317">
        <ele>242</ele>
        <time>2017-04-23T15:22:47Z</time>
      </trkpt>
      <trkpt lat="45.64556" lon="5.67319">
        <ele>242</ele>
        <time>2017-04-23T15:22:47Z</time>
      </trkpt>
      <trkpt lat="45.64563" lon="5.67322">
        <ele>242</ele>
        <time>2017-04-23T15:23:03Z</time>
      </trkpt>
      <trkpt lat="45.6457" lon="5.67324">
        <ele>242</ele>
        <time>2017-04-23T15:23:03Z</time>
      </trkpt>
      <trkpt lat="45.64575" lon="5.67326">
        <ele>242</ele>
        <time>2017-04-23T15:23:03Z</time>
      </trkpt>
      <trkpt lat="45.6458" lon="5.67328">
        <ele>242</ele>
        <time>2017-04-23T15:23:03Z</time>
      </trkpt>
      <trkpt lat="45.64583" lon="5.67331">
        <ele>242</ele>
        <time>2017-04-23T15:23:19Z</time>
      </trkpt>
      <trkpt lat="45.64588" lon="5.67334">
        <ele>242</ele>
        <time>2017-04-23T15:23:19Z</time>
      </trkpt>
      <trkpt lat="45.64596" lon="5.67336">
        <ele>242</ele>
        <time>2017-04-23T15:23:19Z</time>
      </trkpt>
      <trkpt lat="45.646" lon="5.67338">
        <ele>242</ele>
        <time>2017-04-23T15:23:19Z</time>
      </trkpt>
      <trkpt lat="45.64606" lon="5.67338">
        <ele>242</ele>
        <time>2017-04-23T15:23:35Z</time>
      </trkpt>
      <trkpt lat="45.64612" lon="5.67341">
        <ele>242</ele>
        <time>2017-04-23T15:23:35Z</time>
      </trkpt>
      <trkpt lat="45.64618" lon="5.67344">
        <ele>242</ele>
        <time>2017-04-23T15:23:35Z</time>
      </trkpt>
      <trkpt lat="45.64623" lon="5.67348">
        <ele>242</ele>
        <time>2017-04-23T15:23:35Z</time>
      </trkpt>
      <trkpt lat="45.64627" lon="5.67348">
        <ele>252</ele>
        <time>2017-04-23T15:23:51Z</time>
      </trkpt>
      <trkpt lat="45.64632" lon="5.6735">
        <ele>252</ele>
        <time>2017-04-23T15:23:51Z</time>
      </trkpt>
      <trkpt lat="45.64637" lon="5.67352">
        <ele>252</ele>
        <time>2017-04-23T15:23:51Z</time>
      </trkpt>
      <trkpt lat="45.64641" lon="5.67355">
        <ele>252</ele>
        <time>2017-04-23T15:23:51Z</time>
      </trkpt>
      <trkpt lat="45.64647" lon="5.67357">
        <ele>252</ele>
        <time>2017-04-23T15:24:07Z</time>
      </trkpt>
      <trkpt lat="45.64654" lon="5.67359">
        <ele>252</ele>
        <time>2017-04-23T15:24:07Z</time>
      </trkpt>
      <trkpt lat="45.64662" lon="5.67362">
        <ele>252</ele>
        <time>2017-04-23T15:24:07Z</time>
      </trkpt>
      <trkpt lat="45.6467" lon="5.67366">
        <ele>252</ele>
        <time>2017-04-23T15:24:07Z</time>
      </trkpt>
      <trkpt lat="45.64677" lon="5.6737">
        <ele>252</ele>
        <time>2017-04-23T15:24:23Z</time>
      </trkpt>
      <trkpt lat="45.64684" lon="5.67374">
        <ele>252</ele>
        <time>2017-04-23T15:24:23Z</time>
      </trkpt>
      <trkpt lat="45.64689" lon="5.67378">
        <ele>240</ele>
        <time>2017-04-23T15:24:23Z</time>
      </trkpt>
      <trkpt lat="45.64691" lon="5.6738">
        <ele>240</ele>
        <time>2017-04-23T15:24:23Z</time>
      </trkpt>
      <trkpt lat="45.64692" lon="5.67383">
        <ele>240</ele>
        <time>2017-04-23T15:25:35Z</time>
      </trkpt>
      <trkpt lat="45.64693" lon="5.67383">
        <ele>240</ele>
        <time>2017-04-23T15:25:35Z</time>
      </trkpt>
      <trkpt lat="45.64694" lon="5.67388">
        <ele>240</ele>
        <time>2017-04-23T15:25:35Z</time>
      </trkpt>
      <trkpt lat="45.64696" lon="5.67393">
        <ele>240</ele>
        <time>2017-04-23T15:25:35Z</time>
      </trkpt>
      <trkpt lat="45.64701" lon="5.67396">
        <ele>240</ele>
        <time>2017-04-23T15:25:35Z</time>
      </trkpt>
      <trkpt lat="45.64705" lon="5.67398">
        <ele>240</ele>
        <time>2017-04-23T15:25:51Z</time>
      </trkpt>
      <trkpt lat="45.64711" lon="5.67401">
        <ele>241</ele>
        <time>2017-04-23T15:25:51Z</time>
      </trkpt>
      <trkpt lat="45.64722" lon="5.67404">
        <ele>241</ele>
        <time>2017-04-23T15:25:51Z</time>
      </trkpt>
      <trkpt lat="45.64732" lon="5.67408">
        <ele>241</ele>
        <time>2017-04-23T15:25:51Z</time>
      </trkpt>
      <trkpt lat="45.6474" lon="5.67408">
        <ele>241</ele>
        <time>2017-04-23T15:26:07Z</time>
      </trkpt>
      <trkpt lat="45.64746" lon="5.67408">
        <ele>241</ele>
        <time>2017-04-23T15:26:07Z</time>
      </trkpt>
      <trkpt lat="45.64753" lon="5.67409">
        <ele>241</ele>
        <time>2017-04-23T15:26:07Z</time>
      </trkpt>
      <trkpt lat="45.6476" lon="5.6741">
        <ele>241</ele>
        <time>2017-04-23T15:26:07Z</time>
      </trkpt>
      <trkpt lat="45.64766" lon="5.67412">
        <ele>241</ele>
        <time>2017-04-23T15:26:23Z</time>
      </trkpt>
      <trkpt lat="45.64772" lon="5.67416">
        <ele>241</ele>
        <time>2017-04-23T15:26:23Z</time>
      </trkpt>
      <trkpt lat="45.64776" lon="5.67419">
        <ele>241</ele>
        <time>2017-04-23T15:26:23Z</time>
      </trkpt>
      <trkpt lat="45.64781" lon="5.67421">
        <ele>241</ele>
        <time>2017-04-23T15:26:23Z</time>
      </trkpt>
      <trkpt lat="45.64787" lon="5.67424">
        <ele>241</ele>
        <time>2017-04-23T15:26:39Z</time>
      </trkpt>
      <trkpt lat="45.64794" lon="5.67426">
        <ele>241</ele>
        <time>2017-04-23T15:26:39Z</time>
      </trkpt>
      <trkpt lat="45.64801" lon="5.67427">
        <ele>241</ele>
        <time>2017-04-23T15:26:39Z</time>
      </trkpt>
      <trkpt lat="45.64807" lon="5.67429">
        <ele>241</ele>
        <time>2017-04-23T15:26:39Z</time>
      </trkpt>
      <trkpt lat="45.64813" lon="5.67432">
        <ele>241</ele>
        <time>2017-04-23T15:26:55Z</time>
      </trkpt>
      <trkpt lat="45.64819" lon="5.67436">
        <ele>241</ele>
        <time>2017-04-23T15:26:55Z</time>
      </trkpt>
      <trkpt lat="45.64825" lon="5.67439">
        <ele>241</ele>
        <time>2017-04-23T15:26:55Z</time>
      </trkpt>
      <trkpt lat="45.6483" lon="5.67442">
        <ele>241</ele>
        <time>2017-04-23T15:26:55Z</time>
      </trkpt>
      <trkpt lat="45.64836" lon="5.67445">
        <ele>241</ele>
        <time>2017-04-23T15:27:11Z</time>
      </trkpt>
      <trkpt lat="45.64842" lon="5.67449">
        <ele>241</ele>
        <time>2017-04-23T15:27:11Z</time>
      </trkpt>
      <trkpt lat="45.64847" lon="5.67451">
        <ele>241</ele>
        <time>2017-04-23T15:27:11Z</time>
      </trkpt>
      <trkpt lat="45.64852" lon="5.67455">
        <ele>241</ele>
        <time>2017-04-23T15:27:11Z</time>
      </trkpt>
      <trkpt lat="45.64857" lon="5.67457">
        <ele>241</ele>
        <time>2017-04-23T15:27:27Z</time>
      </trkpt>
      <trkpt lat="45.64863" lon="5.6746">
        <ele>240</ele>
        <time>2017-04-23T15:27:27Z</time>
      </trkpt>
      <trkpt lat="45.64868" lon="5.67462">
        <ele>240</ele>
        <time>2017-04-23T15:27:27Z</time>
      </trkpt>
      <trkpt lat="45.64872" lon="5.67465">
        <ele>240</ele>
        <time>2017-04-23T15:27:27Z</time>
      </trkpt>
      <trkpt lat="45.64877" lon="5.67466">
        <ele>240</ele>
        <time>2017-04-23T15:27:43Z</time>
      </trkpt>
      <trkpt lat="45.64881" lon="5.67468">
        <ele>240</ele>
        <time>2017-04-23T15:27:43Z</time>
      </trkpt>
      <trkpt lat="45.64885" lon="5.67469">
        <ele>240</ele>
        <time>2017-04-23T15:27:43Z</time>
      </trkpt>
      <trkpt lat="45.6489" lon="5.67472">
        <ele>240</ele>
        <time>2017-04-23T15:27:43Z</time>
      </trkpt>
      <trkpt lat="45.64895" lon="5.67476">
        <ele>240</ele>
        <time>2017-04-23T15:27:59Z</time>
      </trkpt>
      <trkpt lat="45.64899" lon="5.6748">
        <ele>240</ele>
        <time>2017-04-23T15:27:59Z</time>
      </trkpt>
      <trkpt lat="45.64905" lon="5.67484">
        <ele>240</ele>
        <time>2017-04-23T15:27:59Z</time>
      </trkpt>
      <trkpt lat="45.64911" lon="5.67488">
        <ele>240</ele>
        <time>2017-04-23T15:27:59Z</time>
      </trkpt>
      <trkpt lat="45.64917" lon="5.67491">
        <ele>240</ele>
        <time>2017-04-23T15:28:15Z</time>
      </trkpt>
      <trkpt lat="45.64923" lon="5.67495">
        <ele>240</ele>
        <time>2017-04-23T15:28:15Z</time>
      </trkpt>
      <trkpt lat="45.6493" lon="5.67501">
        <ele>240</ele>
        <time>2017-04-23T15:28:15Z</time>
      </trkpt>
      <trkpt lat="45.64936" lon="5.67505">
        <ele>240</ele>
        <time>2017-04-23T15:28:15Z</time>
      </trkpt>
      <trkpt lat="45.64942" lon="5.6751">
        <ele>240</ele>
        <time>2017-04-23T15:28:31Z</time>
      </trkpt>
      <trkpt lat="45.64947" lon="5.67517">
        <ele>240</ele>
        <time>2017-04-23T15:28:31Z</time>
      </trkpt>
      <trkpt lat="45.64951" lon="5.67525">
        <ele>240</ele>
        <time>2017-04-23T15:28:31Z</time>
      </trkpt>
      <trkpt lat="45.64955" lon="5.67532">
        <ele>240</ele>
        <time>2017-04-23T15:28:31Z</time>
      </trkpt>
      <trkpt lat="45.64961" lon="5.67539">
        <ele>248</ele>
        <time>2017-04-23T15:28:47Z</time>
      </trkpt>
      <trkpt lat="45.64969" lon="5.67551">
        <ele>239</ele>
        <time>2017-04-23T15:28:47Z</time>
      </trkpt>
      <trkpt lat="45.6498" lon="5.67563">
        <ele>239</ele>
        <time>2017-04-23T15:28:47Z</time>
      </trkpt>
      <trkpt lat="45.64989" lon="5.67577">
        <ele>239</ele>
        <time>2017-04-23T15:28:47Z</time>
      </trkpt>
      <trkpt lat="45.64998" lon="5.67587">
        <ele>239</ele>
        <time>2017-04-23T15:29:03Z</time>
      </trkpt>
      <trkpt lat="45.65006" lon="5.676">
        <ele>239</ele>
        <time>2017-04-23T15:29:03Z</time>
      </trkpt>
      <trkpt lat="45.65016" lon="5.67612">
        <ele>239</ele>
        <time>2017-04-23T15:29:03Z</time>
      </trkpt>
      <trkpt lat="45.65026" lon="5.67624">
        <ele>239</ele>
        <time>2017-04-23T15:29:03Z</time>
      </trkpt>
      <trkpt lat="45.65036" lon="5.67636">
        <ele>235</ele>
        <time>2017-04-23T15:29:19Z</time>
      </trkpt>
      <trkpt lat="45.65038" lon="5.67643">
        <ele>235</ele>
        <time>2017-04-23T15:29:19Z</time>
      </trkpt>
      <trkpt lat="45.65043" lon="5.67649">
        <ele>231</ele>
        <time>2017-04-23T15:29:19Z</time>
      </trkpt>
      <trkpt lat="45.65045" lon="5.67655">
        <ele>231</ele>
        <time>2017-04-23T15:29:19Z</time>
      </trkpt>
      <trkpt lat="45.65045" lon="5.67662">
        <ele>231</ele>
        <time>2017-04-23T15:29:35Z</time>
      </trkpt>
      <trkpt lat="45.65047" lon="5.67669">
        <ele>231</ele>
        <time>2017-04-23T15:29:35Z</time>
      </trkpt>
      <trkpt lat="45.6505" lon="5.67675">
        <ele>231</ele>
        <time>2017-04-23T15:29:35Z</time>
      </trkpt>
      <trkpt lat="45.65052" lon="5.67681">
        <ele>231</ele>
        <time>2017-04-23T15:29:35Z</time>
      </trkpt>
      <trkpt lat="45.65055" lon="5.67687">
        <ele>231</ele>
        <time>2017-04-23T15:29:51Z</time>
      </trkpt>
      <trkpt lat="45.65058" lon="5.67692">
        <ele>231</ele>
        <time>2017-04-23T15:29:51Z</time>
      </trkpt>
      <trkpt lat="45.65061" lon="5.67699">
        <ele>231</ele>
        <time>2017-04-23T15:29:51Z</time>
      </trkpt>
      <trkpt lat="45.65063" lon="5.67709">
        <ele>221</ele>
        <time>2017-04-23T15:29:51Z</time>
      </trkpt>
      <trkpt lat="45.65065" lon="5.67718">
        <ele>221</ele>
        <time>2017-04-23T15:30:07Z</time>
      </trkpt>
      <trkpt lat="45.65067" lon="5.67727">
        <ele>221</ele>
        <time>2017-04-23T15:30:07Z</time>
      </trkpt>
      <trkpt lat="45.65073" lon="5.67733">
        <ele>221</ele>
        <time>2017-04-23T15:30:07Z</time>
      </trkpt>
      <trkpt lat="45.65075" lon="5.67742">
        <ele>221</ele>
        <time>2017-04-23T15:30:07Z</time>
      </trkpt>
      <trkpt lat="45.65078" lon="5.67753">
        <ele>221</ele>
        <time>2017-04-23T15:30:23Z</time>
      </trkpt>
      <trkpt lat="45.6508" lon="5.67763">
        <ele>221</ele>
        <time>2017-04-23T15:30:23Z</time>
      </trkpt>
      <trkpt lat="45.65082" lon="5.67772">
        <ele>221</ele>
        <time>2017-04-23T15:30:23Z</time>
      </trkpt>
      <trkpt lat="45.65083" lon="5.67782">
        <ele>221</ele>
        <time>2017-04-23T15:30:23Z</time>
      </trkpt>
      <trkpt lat="45.65088" lon="5.67789">
        <ele>221</ele>
        <time>2017-04-23T15:30:39Z</time>
      </trkpt>
      <trkpt lat="45.65091" lon="5.67797">
        <ele>220</ele>
        <time>2017-04-23T15:30:39Z</time>
      </trkpt>
      <trkpt lat="45.65094" lon="5.67804">
        <ele>220</ele>
        <time>2017-04-23T15:30:39Z</time>
      </trkpt>
      <trkpt lat="45.65099" lon="5.6781">
        <ele>220</ele>
        <time>2017-04-23T15:30:39Z</time>
      </trkpt>
      <trkpt lat="45.65101" lon="5.67818">
        <ele>220</ele>
        <time>2017-04-23T15:30:55Z</time>
      </trkpt>
      <trkpt lat="45.65103" lon="5.67826">
        <ele>220</ele>
        <time>2017-04-23T15:30:55Z</time>
      </trkpt>
      <trkpt lat="45.65105" lon="5.67835">
        <ele>220</ele>
        <time>2017-04-23T15:30:55Z</time>
      </trkpt>
      <trkpt lat="45.65104" lon="5.67844">
        <ele>220</ele>
        <time>2017-04-23T15:30:55Z</time>
      </trkpt>
      <trkpt lat="45.65107" lon="5.67851">
        <ele>220</ele>
        <time>2017-04-23T15:31:11Z</time>
      </trkpt>
      <trkpt lat="45.65109" lon="5.6786">
        <ele>220</ele>
        <time>2017-04-23T15:31:11Z</time>
      </trkpt>
      <trkpt lat="45.6511" lon="5.67869">
        <ele>220</ele>
        <time>2017-04-23T15:31:11Z</time>
      </trkpt>
      <trkpt lat="45.6511" lon="5.67878">
        <ele>220</ele>
        <time>2017-04-23T15:31:11Z</time>
      </trkpt>
      <trkpt lat="45.65114" lon="5.67885">
        <ele>220</ele>
        <time>2017-04-23T15:31:27Z</time>
      </trkpt>
      <trkpt lat="45.65117" lon="5.67893">
        <ele>220</ele>
        <time>2017-04-23T15:31:27Z</time>
      </trkpt>
      <trkpt lat="45.6512" lon="5.67901">
        <ele>220</ele>
        <time>2017-04-23T15:31:27Z</time>
      </trkpt>
      <trkpt lat="45.65122" lon="5.67907">
        <ele>220</ele>
        <time>2017-04-23T15:31:27Z</time>
      </trkpt>
      <trkpt lat="45.65121" lon="5.67914">
        <ele>220</ele>
        <time>2017-04-23T15:31:43Z</time>
      </trkpt>
      <trkpt lat="45.65123" lon="5.67922">
        <ele>220</ele>
        <time>2017-04-23T15:31:43Z</time>
      </trkpt>
      <trkpt lat="45.65124" lon="5.6793">
        <ele>220</ele>
        <time>2017-04-23T15:31:43Z</time>
      </trkpt>
      <trkpt lat="45.65126" lon="5.67936">
        <ele>229</ele>
        <time>2017-04-23T15:31:43Z</time>
      </trkpt>
      <trkpt lat="45.65129" lon="5.67943">
        <ele>229</ele>
        <time>2017-04-23T15:31:59Z</time>
      </trkpt>
      <trkpt lat="45.65132" lon="5.67952">
        <ele>229</ele>
        <time>2017-04-23T15:31:59Z</time>
      </trkpt>
      <trkpt lat="45.65134" lon="5.67961">
        <ele>228</ele>
        <time>2017-04-23T15:31:59Z</time>
      </trkpt>
      <trkpt lat="45.65138" lon="5.67969">
        <ele>228</ele>
        <time>2017-04-23T15:31:59Z</time>
      </trkpt>
      <trkpt lat="45.65141" lon="5.67977">
        <ele>228</ele>
        <time>2017-04-23T15:32:15Z</time>
      </trkpt>
      <trkpt lat="45.65145" lon="5.67985">
        <ele>228</ele>
        <time>2017-04-23T15:32:15Z</time>
      </trkpt>
      <trkpt lat="45.65149" lon="5.67995">
        <ele>228</ele>
        <time>2017-04-23T15:32:15Z</time>
      </trkpt>
      <trkpt lat="45.65152" lon="5.68005">
        <ele>228</ele>
        <time>2017-04-23T15:32:15Z</time>
      </trkpt>
      <trkpt lat="45.65154" lon="5.68013">
        <ele>228</ele>
        <time>2017-04-23T15:32:31Z</time>
      </trkpt>
      <trkpt lat="45.65155" lon="5.68022">
        <ele>228</ele>
        <time>2017-04-23T15:32:31Z</time>
      </trkpt>
      <trkpt lat="45.65158" lon="5.68029">
        <ele>228</ele>
        <time>2017-04-23T15:32:31Z</time>
      </trkpt>
      <trkpt lat="45.65159" lon="5.68038">
        <ele>228</ele>
        <time>2017-04-23T15:32:31Z</time>
      </trkpt>
      <trkpt lat="45.6516" lon="5.68046">
        <ele>223</ele>
        <time>2017-04-23T15:32:47Z</time>
      </trkpt>
      <trkpt lat="45.65161" lon="5.68056">
        <ele>223</ele>
        <time>2017-04-23T15:32:47Z</time>
      </trkpt>
      <trkpt lat="45.65162" lon="5.68067">
        <ele>223</ele>
        <time>2017-04-23T15:32:47Z</time>
      </trkpt>
      <trkpt lat="45.65162" lon="5.68075">
        <ele>223</ele>
        <time>2017-04-23T15:32:47Z</time>
      </trkpt>
      <trkpt lat="45.65163" lon="5.68084">
        <ele>223</ele>
        <time>2017-04-23T15:33:03Z</time>
      </trkpt>
      <trkpt lat="45.65163" lon="5.68092">
        <ele>223</ele>
        <time>2017-04-23T15:33:03Z</time>
      </trkpt>
      <trkpt lat="45.65165" lon="5.681">
        <ele>223</ele>
        <time>2017-04-23T15:33:03Z</time>
      </trkpt>
      <trkpt lat="45.65169" lon="5.68108">
        <ele>223</ele>
        <time>2017-04-23T15:33:03Z</time>
      </trkpt>
      <trkpt lat="45.65175" lon="5.68115">
        <ele>223</ele>
        <time>2017-04-23T15:33:19Z</time>
      </trkpt>
      <trkpt lat="45.65178" lon="5.68123">
        <ele>223</ele>
        <time>2017-04-23T15:33:19Z</time>
      </trkpt>
      <trkpt lat="45.6518" lon="5.68133">
        <ele>220</ele>
        <time>2017-04-23T15:33:19Z</time>
      </trkpt>
      <trkpt lat="45.65183" lon="5.6814">
        <ele>220</ele>
        <time>2017-04-23T15:33:19Z</time>
      </trkpt>
      <trkpt lat="45.65186" lon="5.68146">
        <ele>220</ele>
        <time>2017-04-23T15:33:35Z</time>
      </trkpt>
      <trkpt lat="45.65188" lon="5.68152">
        <ele>220</ele>
        <time>2017-04-23T15:33:35Z</time>
      </trkpt>
      <trkpt lat="45.65192" lon="5.68157">
        <ele>220</ele>
        <time>2017-04-23T15:33:35Z</time>
      </trkpt>
      <trkpt lat="45.65195" lon="5.68163">
        <ele>220</ele>
        <time>2017-04-23T15:33:35Z</time>
      </trkpt>
      <trkpt lat="45.65196" lon="5.68172">
        <ele>220</ele>
        <time>2017-04-23T15:34:07Z</time>
      </trkpt>
      <trkpt lat="45.65196" lon="5.68174">
        <ele>220</ele>
        <time>2017-04-23T15:34:07Z</time>
      </trkpt>
      <trkpt lat="45.65196" lon="5.68174">
        <ele>220</ele>
        <time>2017-04-23T15:34:07Z</time>
      </trkpt>
      <trkpt lat="45.65198" lon="5.68175">
        <ele>220</ele>
        <time>2017-04-23T15:34:07Z</time>
      </trkpt>
      <trkpt lat="45.65199" lon="5.68182">
        <ele>220</ele>
        <time>2017-04-23T15:34:07Z</time>
      </trkpt>
      <trkpt lat="45.65196" lon="5.68194">
        <ele>220</ele>
        <time>2017-04-23T15:34:23Z</time>
      </trkpt>
      <trkpt lat="45.65197" lon="5.68207">
        <ele>220</ele>
        <time>2017-04-23T15:34:23Z</time>
      </trkpt>
      <trkpt lat="45.65201" lon="5.68216">
        <ele>219</ele>
        <time>2017-04-23T15:34:23Z</time>
      </trkpt>
      <trkpt lat="45.65204" lon="5.68224">
        <ele>219</ele>
        <time>2017-04-23T15:34:23Z</time>
      </trkpt>
      <trkpt lat="45.65209" lon="5.6823">
        <ele>229</ele>
        <time>2017-04-23T15:34:39Z</time>
      </trkpt>
      <trkpt lat="45.65214" lon="5.68237">
        <ele>229</ele>
        <time>2017-04-23T15:34:39Z</time>
      </trkpt>
      <trkpt lat="45.65217" lon="5.68245">
        <ele>229</ele>
        <time>2017-04-23T15:34:39Z</time>
      </trkpt>
      <trkpt lat="45.65221" lon="5.68252">
        <ele>229</ele>
        <time>2017-04-23T15:34:39Z</time>
      </trkpt>
      <trkpt lat="45.65225" lon="5.68259">
        <ele>229</ele>
        <time>2017-04-23T15:34:55Z</time>
      </trkpt>
      <trkpt lat="45.65229" lon="5.68265">
        <ele>229</ele>
        <time>2017-04-23T15:34:55Z</time>
      </trkpt>
      <trkpt lat="45.65232" lon="5.68272">
        <ele>229</ele>
        <time>2017-04-23T15:34:55Z</time>
      </trkpt>
      <trkpt lat="45.65236" lon="5.68276">
        <ele>229</ele>
        <time>2017-04-23T15:34:55Z</time>
      </trkpt>
      <trkpt lat="45.65241" lon="5.68281">
        <ele>229</ele>
        <time>2017-04-23T15:35:11Z</time>
      </trkpt>
      <trkpt lat="45.65245" lon="5.68286">
        <ele>229</ele>
        <time>2017-04-23T15:35:11Z</time>
      </trkpt>
      <trkpt lat="45.6525" lon="5.68293">
        <ele>223</ele>
        <time>2017-04-23T15:35:11Z</time>
      </trkpt>
      <trkpt lat="45.65255" lon="5.68299">
        <ele>223</ele>
        <time>2017-04-23T15:35:11Z</time>
      </trkpt>
      <trkpt lat="45.65261" lon="5.68307">
        <ele>223</ele>
        <time>2017-04-23T15:35:27Z</time>
      </trkpt>
      <trkpt lat="45.65265" lon="5.68313">
        <ele>223</ele>
        <time>2017-04-23T15:35:27Z</time>
      </trkpt>
      <trkpt lat="45.6527" lon="5.6832">
        <ele>223</ele>
        <time>2017-04-23T15:35:27Z</time>
      </trkpt>
      <trkpt lat="45.65275" lon="5.68326">
        <ele>223</ele>
        <time>2017-04-23T15:35:27Z</time>
      </trkpt>
      <trkpt lat="45.65279" lon="5.6833">
        <ele>223</ele>
        <time>2017-04-23T15:35:43Z</time>
      </trkpt>
      <trkpt lat="45.65282" lon="5.68335">
        <ele>223</ele>
        <time>2017-04-23T15:35:43Z</time>
      </trkpt>
      <trkpt lat="45.65285" lon="5.6834">
        <ele>223</ele>
        <time>2017-04-23T15:35:43Z</time>
      </trkpt>
      <trkpt lat="45.65289" lon="5.68346">
        <ele>223</ele>
        <time>2017-04-23T15:35:43Z</time>
      </trkpt>
      <trkpt lat="45.65293" lon="5.68351">
        <ele>246</ele>
        <time>2017-04-23T15:35:59Z</time>
      </trkpt>
      <trkpt lat="45.65298" lon="5.68355">
        <ele>246</ele>
        <time>2017-04-23T15:35:59Z</time>
      </trkpt>
      <trkpt lat="45.65304" lon="5.68359">
        <ele>246</ele>
        <time>2017-04-23T15:35:59Z</time>
      </trkpt>
      <trkpt lat="45.65309" lon="5.68363">
        <ele>246</ele>
        <time>2017-04-23T15:35:59Z</time>
      </trkpt>
      <trkpt lat="45.65315" lon="5.68367">
        <ele>246</ele>
        <time>2017-04-23T15:36:15Z</time>
      </trkpt>
      <trkpt lat="45.6532" lon="5.6837">
        <ele>246</ele>
        <time>2017-04-23T15:36:15Z</time>
      </trkpt>
      <trkpt lat="45.65324" lon="5.68372">
        <ele>246</ele>
        <time>2017-04-23T15:36:15Z</time>
      </trkpt>
      <trkpt lat="45.65329" lon="5.68373">
        <ele>246</ele>
        <time>2017-04-23T15:36:15Z</time>
      </trkpt>
      <trkpt lat="45.65335" lon="5.68374">
        <ele>246</ele>
        <time>2017-04-23T15:36:31Z</time>
      </trkpt>
      <trkpt lat="45.6534" lon="5.68378">
        <ele>226</ele>
        <time>2017-04-23T15:36:31Z</time>
      </trkpt>
      <trkpt lat="45.65345" lon="5.68383">
        <ele>226</ele>
        <time>2017-04-23T15:36:31Z</time>
      </trkpt>
      <trkpt lat="45.6535" lon="5.68386">
        <ele>226</ele>
        <time>2017-04-23T15:36:31Z</time>
      </trkpt>
      <trkpt lat="45.65356" lon="5.68389">
        <ele>226</ele>
        <time>2017-04-23T15:36:47Z</time>
      </trkpt>
      <trkpt lat="45.65362" lon="5.68392">
        <ele>226</ele>
        <time>2017-04-23T15:36:47Z</time>
      </trkpt>
      <trkpt lat="45.65368" lon="5.68394">
        <ele>226</ele>
        <time>2017-04-23T15:36:47Z</time>
      </trkpt>
      <trkpt lat="45.65373" lon="5.68397">
        <ele>226</ele>
        <time>2017-04-23T15:36:47Z</time>
      </trkpt>
      <trkpt lat="45.65378" lon="5.684">
        <ele>232</ele>
        <time>2017-04-23T15:37:03Z</time>
      </trkpt>
      <trkpt lat="45.6538" lon="5.68402">
        <ele>232</ele>
        <time>2017-04-23T15:37:03Z</time>
      </trkpt>
      <trkpt lat="45.65384" lon="5.68404">
        <ele>232</ele>
        <time>2017-04-23T15:37:03Z</time>
      </trkpt>
      <trkpt lat="45.65391" lon="5.68404">
        <ele>232</ele>
        <time>2017-04-23T15:37:03Z</time>
      </trkpt>
      <trkpt lat="45.65407" lon="5.6841">
        <ele>232</ele>
        <time>2017-04-23T15:37:19Z</time>
      </trkpt>
      <trkpt lat="45.65425" lon="5.68417">
        <ele>232</ele>
        <time>2017-04-23T15:37:19Z</time>
      </trkpt>
      <trkpt lat="45.65441" lon="5.68422">
        <ele>232</ele>
        <time>2017-04-23T15:37:19Z</time>
      </trkpt>
      <trkpt lat="45.65454" lon="5.68418">
        <ele>232</ele>
        <time>2017-04-23T15:37:19Z</time>
      </trkpt>
      <trkpt lat="45.65468" lon="5.68415">
        <ele>231</ele>
        <time>2017-04-23T15:37:35Z</time>
      </trkpt>
      <trkpt lat="45.65482" lon="5.68415">
        <ele>231</ele>
        <time>2017-04-23T15:37:35Z</time>
      </trkpt>
      <trkpt lat="45.65494" lon="5.68413">
        <ele>231</ele>
        <time>2017-04-23T15:37:35Z</time>
      </trkpt>
      <trkpt lat="45.65506" lon="5.68411">
        <ele>231</ele>
        <time>2017-04-23T15:37:35Z</time>
      </trkpt>
      <trkpt lat="45.6552" lon="5.68412">
        <ele>231</ele>
        <time>2017-04-23T15:37:51Z</time>
      </trkpt>
      <trkpt lat="45.65536" lon="5.68411">
        <ele>231</ele>
        <time>2017-04-23T15:37:51Z</time>
      </trkpt>
      <trkpt lat="45.65552" lon="5.68414">
        <ele>226</ele>
        <time>2017-04-23T15:37:51Z</time>
      </trkpt>
      <trkpt lat="45.65573" lon="5.68411">
        <ele>226</ele>
        <time>2017-04-23T15:37:51Z</time>
      </trkpt>
      <trkpt lat="45.65591" lon="5.68408">
        <ele>226</ele>
        <time>2017-04-23T15:38:07Z</time>
      </trkpt>
      <trkpt lat="45.65606" lon="5.68402">
        <ele>226</ele>
        <time>2017-04-23T15:38:07Z</time>
      </trkpt>
      <trkpt lat="45.6562" lon="5.68395">
        <ele>226</ele>
        <time>2017-04-23T15:38:07Z</time>
      </trkpt>
      <trkpt lat="45.65633" lon="5.68391">
        <ele>220</ele>
        <time>2017-04-23T15:38:07Z</time>
      </trkpt>
      <trkpt lat="45.65648" lon="5.68386">
        <ele>220</ele>
        <time>2017-04-23T15:38:23Z</time>
      </trkpt>
      <trkpt lat="45.65658" lon="5.68382">
        <ele>220</ele>
        <time>2017-04-23T15:38:23Z</time>
      </trkpt>
      <trkpt lat="45.65665" lon="5.68379">
        <ele>220</ele>
        <time>2017-04-23T15:38:23Z</time>
      </trkpt>
      <trkpt lat="45.65669" lon="5.68376">
        <ele>220</ele>
        <time>2017-04-23T15:38:23Z</time>
      </trkpt>
      <trkpt lat="45.65675" lon="5.68374">
        <ele>259</ele>
        <time>2017-04-23T15:38:39Z</time>
      </trkpt>
      <trkpt lat="45.65681" lon="5.68372">
        <ele>259</ele>
        <time>2017-04-23T15:38:39Z</time>
      </trkpt>
      <trkpt lat="45.65686" lon="5.68368">
        <ele>259</ele>
        <time>2017-04-23T15:38:39Z</time>
      </trkpt>
      <trkpt lat="45.65691" lon="5.68365">
        <ele>259</ele>
        <time>2017-04-23T15:38:39Z</time>
      </trkpt>
      <trkpt lat="45.65696" lon="5.68364">
        <ele>259</ele>
        <time>2017-04-23T15:38:55Z</time>
      </trkpt>
      <trkpt lat="45.65701" lon="5.68361">
        <ele>259</ele>
        <time>2017-04-23T15:38:55Z</time>
      </trkpt>
      <trkpt lat="45.65707" lon="5.68359">
        <ele>259</ele>
        <time>2017-04-23T15:38:55Z</time>
      </trkpt>
      <trkpt lat="45.6571" lon="5.68357">
        <ele>242</ele>
        <time>2017-04-23T15:38:55Z</time>
      </trkpt>
      <trkpt lat="45.65713" lon="5.68353">
        <ele>242</ele>
        <time>2017-04-23T15:39:11Z</time>
      </trkpt>
      <trkpt lat="45.65717" lon="5.68348">
        <ele>242</ele>
        <time>2017-04-23T15:39:11Z</time>
      </trkpt>
      <trkpt lat="45.65722" lon="5.68346">
        <ele>242</ele>
        <time>2017-04-23T15:39:11Z</time>
      </trkpt>
      <trkpt lat="45.65727" lon="5.68346">
        <ele>242</ele>
        <time>2017-04-23T15:39:11Z</time>
      </trkpt>
      <trkpt lat="45.65733" lon="5.68344">
        <ele>242</ele>
        <time>2017-04-23T15:39:27Z</time>
      </trkpt>
      <trkpt lat="45.65739" lon="5.68341">
        <ele>242</ele>
        <time>2017-04-23T15:39:27Z</time>
      </trkpt>
      <trkpt lat="45.65743" lon="5.68338">
        <ele>242</ele>
        <time>2017-04-23T15:39:27Z</time>
      </trkpt>
      <trkpt lat="45.65749" lon="5.68336">
        <ele>242</ele>
        <time>2017-04-23T15:39:27Z</time>
      </trkpt>
      <trkpt lat="45.65759" lon="5.68333">
        <ele>242</ele>
        <time>2017-04-23T15:39:43Z</time>
      </trkpt>
      <trkpt lat="45.65767" lon="5.6833">
        <ele>242</ele>
        <time>2017-04-23T15:39:43Z</time>
      </trkpt>
      <trkpt lat="45.65774" lon="5.68327">
        <ele>242</ele>
        <time>2017-04-23T15:39:43Z</time>
      </trkpt>
      <trkpt lat="45.65779" lon="5.68323">
        <ele>242</ele>
        <time>2017-04-23T15:39:43Z</time>
      </trkpt>
      <trkpt lat="45.65784" lon="5.68321">
        <ele>242</ele>
        <time>2017-04-23T15:39:59Z</time>
      </trkpt>
      <trkpt lat="45.65791" lon="5.68321">
        <ele>242</ele>
        <time>2017-04-23T15:39:59Z</time>
      </trkpt>
      <trkpt lat="45.65795" lon="5.68319">
        <ele>228</ele>
        <time>2017-04-23T15:39:59Z</time>
      </trkpt>
      <trkpt lat="45.658" lon="5.68318">
        <ele>228</ele>
        <time>2017-04-23T15:39:59Z</time>
      </trkpt>
      <trkpt lat="45.65804" lon="5.6832">
        <ele>228</ele>
        <time>2017-04-23T15:40:15Z</time>
      </trkpt>
      <trkpt lat="45.65809" lon="5.68323">
        <ele>228</ele>
        <time>2017-04-23T15:40:15Z</time>
      </trkpt>
      <trkpt lat="45.65814" lon="5.68324">
        <ele>228</ele>
        <time>2017-04-23T15:40:15Z</time>
      </trkpt>
      <trkpt lat="45.65819" lon="5.68323">
        <ele>228</ele>
        <time>2017-04-23T15:40:15Z</time>
      </trkpt>
      <trkpt lat="45.65824" lon="5.6832">
        <ele>228</ele>
        <time>2017-04-23T15:40:31Z</time>
      </trkpt>
      <trkpt lat="45.6583" lon="5.68318">
        <ele>228</ele>
        <time>2017-04-23T15:40:31Z</time>
      </trkpt>
      <trkpt lat="45.65835" lon="5.68317">
        <ele>228</ele>
        <time>2017-04-23T15:40:31Z</time>
      </trkpt>
      <trkpt lat="45.6584" lon="5.68318">
        <ele>228</ele>
        <time>2017-04-23T15:40:31Z</time>
      </trkpt>
      <trkpt lat="45.65843" lon="5.6832">
        <ele>228</ele>
        <time>2017-04-23T15:40:47Z</time>
      </trkpt>
      <trkpt lat="45.65846" lon="5.68318">
        <ele>228</ele>
        <time>2017-04-23T15:40:47Z</time>
      </trkpt>
      <trkpt lat="45.65851" lon="5.68317">
        <ele>228</ele>
        <time>2017-04-23T15:40:47Z</time>
      </trkpt>
      <trkpt lat="45.65858" lon="5.68313">
        <ele>228</ele>
        <time>2017-04-23T15:40:47Z</time>
      </trkpt>
      <trkpt lat="45.65864" lon="5.68302">
        <ele>228</ele>
        <time>2017-04-23T15:41:03Z</time>
      </trkpt>
      <trkpt lat="45.6587" lon="5.68304">
        <ele>228</ele>
        <time>2017-04-23T15:41:03Z</time>
      </trkpt>
      <trkpt lat="45.65875" lon="5.68308">
        <ele>221</ele>
        <time>2017-04-23T15:41:03Z</time>
      </trkpt>
      <trkpt lat="45.65881" lon="5.6831">
        <ele>221</ele>
        <time>2017-04-23T15:41:03Z</time>
      </trkpt>
      <trkpt lat="45.65888" lon="5.6831">
        <ele>221</ele>
        <time>2017-04-23T15:41:19Z</time>
      </trkpt>
      <trkpt lat="45.65893" lon="5.68307">
        <ele>221</ele>
        <time>2017-04-23T15:41:19Z</time>
      </trkpt>
      <trkpt lat="45.65899" lon="5.6831">
        <ele>221</ele>
        <time>2017-04-23T15:41:19Z</time>
      </trkpt>
      <trkpt lat="45.65903" lon="5.68312">
        <ele>221</ele>
        <time>2017-04-23T15:41:19Z</time>
      </trkpt>
      <trkpt lat="45.65908" lon="5.68308">
        <ele>221</ele>
        <time>2017-04-23T15:41:35Z</time>
      </trkpt>
      <trkpt lat="45.65912" lon="5.68308">
        <ele>221</ele>
        <time>2017-04-23T15:41:35Z</time>
      </trkpt>
      <trkpt lat="45.65917" lon="5.68309">
        <ele>221</ele>
        <time>2017-04-23T15:41:35Z</time>
      </trkpt>
      <trkpt lat="45.65923" lon="5.68304">
        <ele>221</ele>
        <time>2017-04-23T15:41:35Z</time>
      </trkpt>
      <trkpt lat="45.65928" lon="5.68296">
        <ele>221</ele>
        <time>2017-04-23T15:41:51Z</time>
      </trkpt>
      <trkpt lat="45.65933" lon="5.68294">
        <ele>221</ele>
        <time>2017-04-23T15:41:51Z</time>
      </trkpt>
      <trkpt lat="45.65939" lon="5.68297">
        <ele>221</ele>
        <time>2017-04-23T15:41:51Z</time>
      </trkpt>
      <trkpt lat="45.65946" lon="5.68298">
        <ele>221</ele>
        <time>2017-04-23T15:41:51Z</time>
      </trkpt>
      <trkpt lat="45.65955" lon="5.68297">
        <ele>221</ele>
        <time>2017-04-23T15:42:07Z</time>
      </trkpt>
      <trkpt lat="45.65962" lon="5.68295">
        <ele>216</ele>
        <time>2017-04-23T15:42:07Z</time>
      </trkpt>
      <trkpt lat="45.65965" lon="5.68294">
        <ele>216</ele>
        <time>2017-04-23T15:42:07Z</time>
      </trkpt>
      <trkpt lat="45.65972" lon="5.68292">
        <ele>216</ele>
        <time>2017-04-23T15:42:07Z</time>
      </trkpt>
      <trkpt lat="45.65983" lon="5.6829">
        <ele>247</ele>
        <time>2017-04-23T15:42:23Z</time>
      </trkpt>
      <trkpt lat="45.65995" lon="5.68287">
        <ele>247</ele>
        <time>2017-04-23T15:42:23Z</time>
      </trkpt>
      <trkpt lat="45.66004" lon="5.68284">
        <ele>247</ele>
        <time>2017-04-23T15:42:23Z</time>
      </trkpt>
      <trkpt lat="45.6601" lon="5.68282">
        <ele>247</ele>
        <time>2017-04-23T15:42:23Z</time>
      </trkpt>
      <trkpt lat="45.66017" lon="5.68281">
        <ele>247</ele>
        <time>2017-04-23T15:42:39Z</time>
      </trkpt>
      <trkpt lat="45.66023" lon="5.68279">
        <ele>247</ele>
        <time>2017-04-23T15:42:39Z</time>
      </trkpt>
      <trkpt lat="45.66029" lon="5.68279">
        <ele>247</ele>
        <time>2017-04-23T15:42:39Z</time>
      </trkpt>
      <trkpt lat="45.66034" lon="5.68279">
        <ele>247</ele>
        <time>2017-04-23T15:42:39Z</time>
      </trkpt>
      <trkpt lat="45.66041" lon="5.68278">
        <ele>247</ele>
        <time>2017-04-23T15:42:55Z</time>
      </trkpt>
      <trkpt lat="45.66046" lon="5.68276">
        <ele>228</ele>
        <time>2017-04-23T15:42:55Z</time>
      </trkpt>
      <trkpt lat="45.6605" lon="5.68274">
        <ele>228</ele>
        <time>2017-04-23T15:42:55Z</time>
      </trkpt>
      <trkpt lat="45.66054" lon="5.68273">
        <ele>228</ele>
        <time>2017-04-23T15:42:55Z</time>
      </trkpt>
      <trkpt lat="45.66058" lon="5.68272">
        <ele>228</ele>
        <time>2017-04-23T15:43:11Z</time>
      </trkpt>
      <trkpt lat="45.66062" lon="5.68269">
        <ele>228</ele>
        <time>2017-04-23T15:43:11Z</time>
      </trkpt>
      <trkpt lat="45.66067" lon="5.68269">
        <ele>228</ele>
        <time>2017-04-23T15:43:11Z</time>
      </trkpt>
      <trkpt lat="45.66072" lon="5.68268">
        <ele>228</ele>
        <time>2017-04-23T15:43:11Z</time>
      </trkpt>
      <trkpt lat="45.66077" lon="5.68265">
        <ele>228</ele>
        <time>2017-04-23T15:43:27Z</time>
      </trkpt>
      <trkpt lat="45.66081" lon="5.68263">
        <ele>228</ele>
        <time>2017-04-23T15:43:27Z</time>
      </trkpt>
      <trkpt lat="45.66086" lon="5.68261">
        <ele>228</ele>
        <time>2017-04-23T15:43:27Z</time>
      </trkpt>
      <trkpt lat="45.66091" lon="5.68259">
        <ele>228</ele>
        <time>2017-04-23T15:43:27Z</time>
      </trkpt>
      <trkpt lat="45.66096" lon="5.68259">
        <ele>228</ele>
        <time>2017-04-23T15:43:43Z</time>
      </trkpt>
      <trkpt lat="45.66099" lon="5.68255">
        <ele>228</ele>
        <time>2017-04-23T15:43:43Z</time>
      </trkpt>
      <trkpt lat="45.66104" lon="5.68253">
        <ele>228</ele>
        <time>2017-04-23T15:43:43Z</time>
      </trkpt>
      <trkpt lat="45.6611" lon="5.6825">
        <ele>228</ele>
        <time>2017-04-23T15:43:43Z</time>
      </trkpt>
      <trkpt lat="45.66116" lon="5.68249">
        <ele>228</ele>
        <time>2017-04-23T15:43:59Z</time>
      </trkpt>
      <trkpt lat="45.66121" lon="5.68247">
        <ele>228</ele>
        <time>2017-04-23T15:43:59Z</time>
      </trkpt>
      <trkpt lat="45.66125" lon="5.68246">
        <ele>219</ele>
        <time>2017-04-23T15:43:59Z</time>
      </trkpt>
      <trkpt lat="45.66129" lon="5.68247">
        <ele>219</ele>
        <time>2017-04-23T15:43:59Z</time>
      </trkpt>
      <trkpt lat="45.66133" lon="5.68244">
        <ele>219</ele>
        <time>2017-04-23T15:44:15Z</time>
      </trkpt>
      <trkpt lat="45.66138" lon="5.68241">
        <ele>219</ele>
        <time>2017-04-23T15:44:15Z</time>
      </trkpt>
      <trkpt lat="45.66146" lon="5.68237">
        <ele>219</ele>
        <time>2017-04-23T15:44:15Z</time>
      </trkpt>
      <trkpt lat="45.66154" lon="5.68231">
        <ele>219</ele>
        <time>2017-04-23T15:44:15Z</time>
      </trkpt>
      <trkpt lat="45.6616" lon="5.68224">
        <ele>219</ele>
        <time>2017-04-23T15:44:31Z</time>
      </trkpt>
      <trkpt lat="45.66167" lon="5.68222">
        <ele>219</ele>
        <time>2017-04-23T15:44:31Z</time>
      </trkpt>
      <trkpt lat="45.66176" lon="5.68222">
        <ele>219</ele>
        <time>2017-04-23T15:44:31Z</time>
      </trkpt>
      <trkpt lat="45.66182" lon="5.68221">
        <ele>219</ele>
        <time>2017-04-23T15:44:31Z</time>
      </trkpt>
      <trkpt lat="45.66186" lon="5.68223">
        <ele>219</ele>
        <time>2017-04-23T15:44:47Z</time>
      </trkpt>
      <trkpt lat="45.66189" lon="5.68224">
        <ele>219</ele>
        <time>2017-04-23T15:44:47Z</time>
      </trkpt>
      <trkpt lat="45.66195" lon="5.68222">
        <ele>219</ele>
        <time>2017-04-23T15:44:47Z</time>
      </trkpt>
      <trkpt lat="45.66201" lon="5.68224">
        <ele>219</ele>
        <time>2017-04-23T15:44:47Z</time>
      </trkpt>
      <trkpt lat="45.66207" lon="5.68225">
        <ele>219</ele>
        <time>2017-04-23T15:45:03Z</time>
      </trkpt>
      <trkpt lat="45.66215" lon="5.68226">
        <ele>216</ele>
        <time>2017-04-23T15:45:03Z</time>
      </trkpt>
      <trkpt lat="45.66223" lon="5.68226">
        <ele>216</ele>
        <time>2017-04-23T15:45:03Z</time>
      </trkpt>
      <trkpt lat="45.66234" lon="5.68224">
        <ele>216</ele>
        <time>2017-04-23T15:45:03Z</time>
      </trkpt>
      <trkpt lat="45.66248" lon="5.68222">
        <ele>216</ele>
        <time>2017-04-23T15:45:19Z</time>
      </trkpt>
      <trkpt lat="45.6626" lon="5.68222">
        <ele>216</ele>
        <time>2017-04-23T15:45:19Z</time>
      </trkpt>
      <trkpt lat="45.66273" lon="5.68224">
        <ele>216</ele>
        <time>2017-04-23T15:45:19Z</time>
      </trkpt>
      <trkpt lat="45.66287" lon="5.68222">
        <ele>216</ele>
        <time>2017-04-23T15:45:19Z</time>
      </trkpt>
      <trkpt lat="45.66297" lon="5.68219">
        <ele>216</ele>
        <time>2017-04-23T15:45:35Z</time>
      </trkpt>
      <trkpt lat="45.66306" lon="5.68221">
        <ele>216</ele>
        <time>2017-04-23T15:45:35Z</time>
      </trkpt>
      <trkpt lat="45.66324" lon="5.68225">
        <ele>216</ele>
        <time>2017-04-23T15:45:35Z</time>
      </trkpt>
      <trkpt lat="45.66342" lon="5.68227">
        <ele>216</ele>
        <time>2017-04-23T15:45:35Z</time>
      </trkpt>
      <trkpt lat="45.66359" lon="5.6823">
        <ele>216</ele>
        <time>2017-04-23T15:45:51Z</time>
      </trkpt>
      <trkpt lat="45.66377" lon="5.68231">
        <ele>216</ele>
        <time>2017-04-23T15:45:51Z</time>
      </trkpt>
      <trkpt lat="45.66391" lon="5.68233">
        <ele>216</ele>
        <time>2017-04-23T15:45:51Z</time>
      </trkpt>
      <trkpt lat="45.664" lon="5.68236">
        <ele>216</ele>
        <time>2017-04-23T15:45:51Z</time>
      </trkpt>
      <trkpt lat="45.6641" lon="5.68234">
        <ele>216</ele>
        <time>2017-04-23T15:46:07Z</time>
      </trkpt>
      <trkpt lat="45.66416" lon="5.68235">
        <ele>216</ele>
        <time>2017-04-23T15:46:07Z</time>
      </trkpt>
      <trkpt lat="45.66422" lon="5.68235">
        <ele>216</ele>
        <time>2017-04-23T15:46:07Z</time>
      </trkpt>
      <trkpt lat="45.66429" lon="5.68236">
        <ele>216</ele>
        <time>2017-04-23T15:46:07Z</time>
      </trkpt>
      <trkpt lat="45.66436" lon="5.68236">
        <ele>216</ele>
        <time>2017-04-23T15:46:23Z</time>
      </trkpt>
      <trkpt lat="45.66442" lon="5.68235">
        <ele>216</ele>
        <time>2017-04-23T15:46:23Z</time>
      </trkpt>
      <trkpt lat="45.66447" lon="5.68236">
        <ele>216</ele>
        <time>2017-04-23T15:46:23Z</time>
      </trkpt>
      <trkpt lat="45.66455" lon="5.68236">
        <ele>216</ele>
        <time>2017-04-23T15:46:23Z</time>
      </trkpt>
      <trkpt lat="45.66462" lon="5.68235">
        <ele>217</ele>
        <time>2017-04-23T15:46:39Z</time>
      </trkpt>
      <trkpt lat="45.66468" lon="5.68236">
        <ele>217</ele>
        <time>2017-04-23T15:46:39Z</time>
      </trkpt>
      <trkpt lat="45.66473" lon="5.68236">
        <ele>217</ele>
        <time>2017-04-23T15:46:39Z</time>
      </trkpt>
      <trkpt lat="45.66476" lon="5.68236">
        <ele>217</ele>
        <time>2017-04-23T15:46:39Z</time>
      </trkpt>
      <trkpt lat="45.66477" lon="5.68237">
        <ele>217</ele>
        <time>2017-04-23T15:46:55Z</time>
      </trkpt>
      <trkpt lat="45.66482" lon="5.68237">
        <ele>217</ele>
        <time>2017-04-23T15:46:55Z</time>
      </trkpt>
      <trkpt lat="45.66488" lon="5.68237">
        <ele>217</ele>
        <time>2017-04-23T15:46:55Z</time>
      </trkpt>
      <trkpt lat="45.66493" lon="5.68236">
        <ele>217</ele>
        <time>2017-04-23T15:46:55Z</time>
      </trkpt>
      <trkpt lat="45.665" lon="5.68236">
        <ele>217</ele>
        <time>2017-04-23T15:47:11Z</time>
      </trkpt>
      <trkpt lat="45.66505" lon="5.68236">
        <ele>217</ele>
        <time>2017-04-23T15:47:11Z</time>
      </trkpt>
      <trkpt lat="45.66511" lon="5.68234">
        <ele>217</ele>
        <time>2017-04-23T15:47:11Z</time>
      </trkpt>
      <trkpt lat="45.66518" lon="5.68233">
        <ele>217</ele>
        <time>2017-04-23T15:47:11Z</time>
      </trkpt>
      <trkpt lat="45.66525" lon="5.68233">
        <ele>217</ele>
        <time>2017-04-23T15:47:27Z</time>
      </trkpt>
      <trkpt lat="45.66532" lon="5.68232">
        <ele>217</ele>
        <time>2017-04-23T15:47:27Z</time>
      </trkpt>
      <trkpt lat="45.66538" lon="5.68231">
        <ele>217</ele>
        <time>2017-04-23T15:47:27Z</time>
      </trkpt>
      <trkpt lat="45.66545" lon="5.68229">
        <ele>221</ele>
        <time>2017-04-23T15:47:27Z</time>
      </trkpt>
      <trkpt lat="45.66553" lon="5.68227">
        <ele>221</ele>
        <time>2017-04-23T15:47:43Z</time>
      </trkpt>
      <trkpt lat="45.66561" lon="5.68226">
        <ele>221</ele>
        <time>2017-04-23T15:47:43Z</time>
      </trkpt>
      <trkpt lat="45.66566" lon="5.68224">
        <ele>221</ele>
        <time>2017-04-23T15:47:43Z</time>
      </trkpt>
      <trkpt lat="45.66572" lon="5.68223">
        <ele>221</ele>
        <time>2017-04-23T15:47:43Z</time>
      </trkpt>
      <trkpt lat="45.66577" lon="5.68221">
        <ele>221</ele>
        <time>2017-04-23T15:47:59Z</time>
      </trkpt>
      <trkpt lat="45.66583" lon="5.68218">
        <ele>221</ele>
        <time>2017-04-23T15:47:59Z</time>
      </trkpt>
      <trkpt lat="45.66587" lon="5.68216">
        <ele>221</ele>
        <time>2017-04-23T15:47:59Z</time>
      </trkpt>
      <trkpt lat="45.66594" lon="5.68214">
        <ele>221</ele>
        <time>2017-04-23T15:47:59Z</time>
      </trkpt>
      <trkpt lat="45.666" lon="5.68213">
        <ele>221</ele>
        <time>2017-04-23T15:48:15Z</time>
      </trkpt>
      <trkpt lat="45.66606" lon="5.6821">
        <ele>221</ele>
        <time>2017-04-23T15:48:15Z</time>
      </trkpt>
      <trkpt lat="45.66612" lon="5.68208">
        <ele>247</ele>
        <time>2017-04-23T15:48:15Z</time>
      </trkpt>
      <trkpt lat="45.66617" lon="5.68204">
        <ele>247</ele>
        <time>2017-04-23T15:48:15Z</time>
      </trkpt>
      <trkpt lat="45.66623" lon="5.68202">
        <ele>247</ele>
        <time>2017-04-23T15:48:31Z</time>
      </trkpt>
      <trkpt lat="45.66629" lon="5.68199">
        <ele>243</ele>
        <time>2017-04-23T15:48:31Z</time>
      </trkpt>
      <trkpt lat="45.66634" lon="5.68198">
        <ele>243</ele>
        <time>2017-04-23T15:48:31Z</time>
      </trkpt>
      <trkpt lat="45.66639" lon="5.68196">
        <ele>243</ele>
        <time>2017-04-23T15:48:31Z</time>
      </trkpt>
      <trkpt lat="45.66645" lon="5.68194">
        <ele>243</ele>
        <time>2017-04-23T15:48:47Z</time>
      </trkpt>
      <trkpt lat="45.6665" lon="5.68192">
        <ele>243</ele>
        <time>2017-04-23T15:48:47Z</time>
      </trkpt>
      <trkpt lat="45.66657" lon="5.6819">
        <ele>243</ele>
        <time>2017-04-23T15:48:47Z</time>
      </trkpt>
      <trkpt lat="45.66664" lon="5.68185">
        <ele>243</ele>
        <time>2017-04-23T15:48:47Z</time>
      </trkpt>
      <trkpt lat="45.66671" lon="5.6818">
        <ele>243</ele>
        <time>2017-04-23T15:49:03Z</time>
      </trkpt>
      <trkpt lat="45.66678" lon="5.68177">
        <ele>243</ele>
        <time>2017-04-23T15:49:03Z</time>
      </trkpt>
      <trkpt lat="45.66683" lon="5.68174">
        <ele>243</ele>
        <time>2017-04-23T15:49:03Z</time>
      </trkpt>
      <trkpt lat="45.66689" lon="5.68172">
        <ele>243</ele>
        <time>2017-04-23T15:49:03Z</time>
      </trkpt>
      <trkpt lat="45.66695" lon="5.68169">
        <ele>243</ele>
        <time>2017-04-23T15:49:19Z</time>
      </trkpt>
      <trkpt lat="45.66702" lon="5.68166">
        <ele>243</ele>
        <time>2017-04-23T15:49:19Z</time>
      </trkpt>
      <trkpt lat="45.66708" lon="5.68164">
        <ele>243</ele>
        <time>2017-04-23T15:49:19Z</time>
      </trkpt>
      <trkpt lat="45.66714" lon="5.68161">
        <ele>227</ele>
        <time>2017-04-23T15:49:19Z</time>
      </trkpt>
      <trkpt lat="45.6672" lon="5.68159">
        <ele>227</ele>
        <time>2017-04-23T15:49:35Z</time>
      </trkpt>
      <trkpt lat="45.66725" lon="5.68157">
        <ele>227</ele>
        <time>2017-04-23T15:49:35Z</time>
      </trkpt>
      <trkpt lat="45.66731" lon="5.68154">
        <ele>227</ele>
        <time>2017-04-23T15:49:35Z</time>
      </trkpt>
      <trkpt lat="45.66736" lon="5.6815">
        <ele>227</ele>
        <time>2017-04-23T15:49:35Z</time>
      </trkpt>
      <trkpt lat="45.6674" lon="5.68148">
        <ele>227</ele>
        <time>2017-04-23T15:49:51Z</time>
      </trkpt>
      <trkpt lat="45.66744" lon="5.6815">
        <ele>227</ele>
        <time>2017-04-23T15:49:51Z</time>
      </trkpt>
      <trkpt lat="45.66749" lon="5.6815">
        <ele>227</ele>
        <time>2017-04-23T15:49:51Z</time>
      </trkpt>
      <trkpt lat="45.66757" lon="5.68149">
        <ele>227</ele>
        <time>2017-04-23T15:49:51Z</time>
      </trkpt>
      <trkpt lat="45.66763" lon="5.68147">
        <ele>227</ele>
        <time>2017-04-23T15:50:07Z</time>
      </trkpt>
      <trkpt lat="45.66768" lon="5.68146">
        <ele>227</ele>
        <time>2017-04-23T15:50:07Z</time>
      </trkpt>
      <trkpt lat="45.66774" lon="5.68146">
        <ele>227</ele>
        <time>2017-04-23T15:50:07Z</time>
      </trkpt>
      <trkpt lat="45.66778" lon="5.68144">
        <ele>227</ele>
        <time>2017-04-23T15:50:07Z</time>
      </trkpt>
      <trkpt lat="45.66784" lon="5.68144">
        <ele>227</ele>
        <time>2017-04-23T15:50:23Z</time>
      </trkpt>
      <trkpt lat="45.66789" lon="5.68144">
        <ele>227</ele>
        <time>2017-04-23T15:50:23Z</time>
      </trkpt>
      <trkpt lat="45.66794" lon="5.68146">
        <ele>223</ele>
        <time>2017-04-23T15:50:23Z</time>
      </trkpt>
      <trkpt lat="45.66799" lon="5.68153">
        <ele>223</ele>
        <time>2017-04-23T15:50:23Z</time>
      </trkpt>
      <trkpt lat="45.668" lon="5.68161">
        <ele>223</ele>
        <time>2017-04-23T15:50:39Z</time>
      </trkpt>
      <trkpt lat="45.668" lon="5.68169">
        <ele>223</ele>
        <time>2017-04-23T15:50:39Z</time>
      </trkpt>
      <trkpt lat="45.668" lon="5.68176">
        <ele>223</ele>
        <time>2017-04-23T15:50:39Z</time>
      </trkpt>
      <trkpt lat="45.66801" lon="5.68185">
        <ele>223</ele>
        <time>2017-04-23T15:50:39Z</time>
      </trkpt>
      <trkpt lat="45.66804" lon="5.68192">
        <ele>223</ele>
        <time>2017-04-23T15:50:55Z</time>
      </trkpt>
      <trkpt lat="45.66808" lon="5.68198">
        <ele>223</ele>
        <time>2017-04-23T15:50:55Z</time>
      </trkpt>
      <trkpt lat="45.66811" lon="5.68206">
        <ele>223</ele>
        <time>2017-04-23T15:50:55Z</time>
      </trkpt>
      <trkpt lat="45.66813" lon="5.68214">
        <ele>221</ele>
        <time>2017-04-23T15:50:55Z</time>
      </trkpt>
      <trkpt lat="45.66815" lon="5.68223">
        <ele>221</ele>
        <time>2017-04-23T15:51:11Z</time>
      </trkpt>
      <trkpt lat="45.66816" lon="5.68232">
        <ele>221</ele>
        <time>2017-04-23T15:51:11Z</time>
      </trkpt>
      <trkpt lat="45.66816" lon="5.68241">
        <ele>221</ele>
        <time>2017-04-23T15:51:11Z</time>
      </trkpt>
      <trkpt lat="45.66818" lon="5.6825">
        <ele>221</ele>
        <time>2017-04-23T15:51:11Z</time>
      </trkpt>
      <trkpt lat="45.66818" lon="5.68259">
        <ele>221</ele>
        <time>2017-04-23T15:51:27Z</time>
      </trkpt>
      <trkpt lat="45.66818" lon="5.68267">
        <ele>221</ele>
        <time>2017-04-23T15:51:27Z</time>
      </trkpt>
      <trkpt lat="45.66819" lon="5.68276">
        <ele>221</ele>
        <time>2017-04-23T15:51:27Z</time>
      </trkpt>
      <trkpt lat="45.66819" lon="5.68286">
        <ele>221</ele>
        <time>2017-04-23T15:51:27Z</time>
      </trkpt>
      <trkpt lat="45.66818" lon="5.68296">
        <ele>219</ele>
        <time>2017-04-23T15:51:43Z</time>
      </trkpt>
      <trkpt lat="45.66818" lon="5.68305">
        <ele>219</ele>
        <time>2017-04-23T15:51:43Z</time>
      </trkpt>
      <trkpt lat="45.66818" lon="5.68315">
        <ele>219</ele>
        <time>2017-04-23T15:51:43Z</time>
      </trkpt>
      <trkpt lat="45.66817" lon="5.68324">
        <ele>219</ele>
        <time>2017-04-23T15:51:43Z</time>
      </trkpt>
      <trkpt lat="45.66816" lon="5.68332">
        <ele>219</ele>
        <time>2017-04-23T15:51:59Z</time>
      </trkpt>
      <trkpt lat="45.66817" lon="5.6834">
        <ele>219</ele>
        <time>2017-04-23T15:51:59Z</time>
      </trkpt>
      <trkpt lat="45.66817" lon="5.68349">
        <ele>219</ele>
        <time>2017-04-23T15:51:59Z</time>
      </trkpt>
      <trkpt lat="45.66818" lon="5.68356">
        <ele>219</ele>
        <time>2017-04-23T15:51:59Z</time>
      </trkpt>
      <trkpt lat="45.66818" lon="5.68373">
        <ele>219</ele>
        <time>2017-04-23T15:53:15Z</time>
      </trkpt>
      <trkpt lat="45.66818" lon="5.68373">
        <ele>219</ele>
        <time>2017-04-23T15:53:15Z</time>
      </trkpt>
      <trkpt lat="45.66818" lon="5.68375">
        <ele>219</ele>
        <time>2017-04-23T15:53:15Z</time>
      </trkpt>
      <trkpt lat="45.66819" lon="5.68381">
        <ele>218</ele>
        <time>2017-04-23T15:53:15Z</time>
      </trkpt>
      <trkpt lat="45.6682" lon="5.6839">
        <ele>218</ele>
        <time>2017-04-23T15:53:15Z</time>
      </trkpt>
      <trkpt lat="45.66822" lon="5.68399">
        <ele>218</ele>
        <time>2017-04-23T15:53:31Z</time>
      </trkpt>
      <trkpt lat="45.66823" lon="5.68407">
        <ele>218</ele>
        <time>2017-04-23T15:53:31Z</time>
      </trkpt>
      <trkpt lat="45.66824" lon="5.68414">
        <ele>218</ele>
        <time>2017-04-23T15:53:31Z</time>
      </trkpt>
      <trkpt lat="45.66826" lon="5.68422">
        <ele>218</ele>
        <time>2017-04-23T15:53:31Z</time>
      </trkpt>
      <trkpt lat="45.66829" lon="5.68428">
        <ele>218</ele>
        <time>2017-04-23T15:53:47Z</time>
      </trkpt>
      <trkpt lat="45.66833" lon="5.68432">
        <ele>218</ele>
        <time>2017-04-23T15:53:47Z</time>
      </trkpt>
      <trkpt lat="45.66839" lon="5.68431">
        <ele>218</ele>
        <time>2017-04-23T15:53:47Z</time>
      </trkpt>
      <trkpt lat="45.66844" lon="5.68432">
        <ele>218</ele>
        <time>2017-04-23T15:53:47Z</time>
      </trkpt>
      <trkpt lat="45.6685" lon="5.68434">
        <ele>218</ele>
        <time>2017-04-23T15:54:03Z</time>
      </trkpt>
      <trkpt lat="45.66856" lon="5.68435">
        <ele>218</ele>
        <time>2017-04-23T15:54:03Z</time>
      </trkpt>
      <trkpt lat="45.66862" lon="5.68437">
        <ele>218</ele>
        <time>2017-04-23T15:54:03Z</time>
      </trkpt>
      <trkpt lat="45.66867" lon="5.68441">
        <ele>218</ele>
        <time>2017-04-23T15:54:03Z</time>
      </trkpt>
      <trkpt lat="45.66871" lon="5.68446">
        <ele>218</ele>
        <time>2017-04-23T15:54:19Z</time>
      </trkpt>
      <trkpt lat="45.66876" lon="5.68453">
        <ele>215</ele>
        <time>2017-04-23T15:54:19Z</time>
      </trkpt>
      <trkpt lat="45.66879" lon="5.68462">
        <ele>215</ele>
        <time>2017-04-23T15:54:19Z</time>
      </trkpt>
      <trkpt lat="45.66881" lon="5.68471">
        <ele>215</ele>
        <time>2017-04-23T15:54:19Z</time>
      </trkpt>
      <trkpt lat="45.66883" lon="5.6848">
        <ele>215</ele>
        <time>2017-04-23T15:54:35Z</time>
      </trkpt>
      <trkpt lat="45.66885" lon="5.68488">
        <ele>215</ele>
        <time>2017-04-23T15:54:35Z</time>
      </trkpt>
      <trkpt lat="45.66888" lon="5.68497">
        <ele>215</ele>
        <time>2017-04-23T15:54:35Z</time>
      </trkpt>
      <trkpt lat="45.66891" lon="5.68504">
        <ele>215</ele>
        <time>2017-04-23T15:54:35Z</time>
      </trkpt>
      <trkpt lat="45.66894" lon="5.68512">
        <ele>215</ele>
        <time>2017-04-23T15:54:51Z</time>
      </trkpt>
      <trkpt lat="45.66896" lon="5.6852">
        <ele>215</ele>
        <time>2017-04-23T15:54:51Z</time>
      </trkpt>
      <trkpt lat="45.669" lon="5.68526">
        <ele>215</ele>
        <time>2017-04-23T15:54:51Z</time>
      </trkpt>
      <trkpt lat="45.66902" lon="5.68535">
        <ele>215</ele>
        <time>2017-04-23T15:54:51Z</time>
      </trkpt>
      <trkpt lat="45.66905" lon="5.68542">
        <ele>217</ele>
        <time>2017-04-23T15:55:07Z</time>
      </trkpt>
      <trkpt lat="45.66909" lon="5.6855">
        <ele>217</ele>
        <time>2017-04-23T15:55:07Z</time>
      </trkpt>
      <trkpt lat="45.66913" lon="5.68557">
        <ele>217</ele>
        <time>2017-04-23T15:55:07Z</time>
      </trkpt>
      <trkpt lat="45.66916" lon="5.68565">
        <ele>217</ele>
        <time>2017-04-23T15:55:07Z</time>
      </trkpt>
      <trkpt lat="45.66919" lon="5.68572">
        <ele>217</ele>
        <time>2017-04-23T15:55:23Z</time>
      </trkpt>
      <trkpt lat="45.66922" lon="5.68579">
        <ele>217</ele>
        <time>2017-04-23T15:55:23Z</time>
      </trkpt>
      <trkpt lat="45.66925" lon="5.68587">
        <ele>217</ele>
        <time>2017-04-23T15:55:23Z</time>
      </trkpt>
      <trkpt lat="45.66928" lon="5.68594">
        <ele>217</ele>
        <time>2017-04-23T15:55:23Z</time>
      </trkpt>
      <trkpt lat="45.66931" lon="5.68601">
        <ele>217</ele>
        <time>2017-04-23T15:55:39Z</time>
      </trkpt>
      <trkpt lat="45.66935" lon="5.68607">
        <ele>217</ele>
        <time>2017-04-23T15:55:39Z</time>
      </trkpt>
      <trkpt lat="45.66938" lon="5.68614">
        <ele>217</ele>
        <time>2017-04-23T15:55:39Z</time>
      </trkpt>
      <trkpt lat="45.66941" lon="5.6862">
        <ele>217</ele>
        <time>2017-04-23T15:55:39Z</time>
      </trkpt>
      <trkpt lat="45.66945" lon="5.68627">
        <ele>219</ele>
        <time>2017-04-23T15:55:55Z</time>
      </trkpt>
      <trkpt lat="45.66948" lon="5.68634">
        <ele>219</ele>
        <time>2017-04-23T15:55:55Z</time>
      </trkpt>
      <trkpt lat="45.66952" lon="5.68641">
        <ele>219</ele>
        <time>2017-04-23T15:55:55Z</time>
      </trkpt>
      <trkpt lat="45.66956" lon="5.68649">
        <ele>219</ele>
        <time>2017-04-23T15:55:55Z</time>
      </trkpt>
      <trkpt lat="45.66959" lon="5.68656">
        <ele>216</ele>
        <time>2017-04-23T15:56:11Z</time>
      </trkpt>
      <trkpt lat="45.66963" lon="5.68663">
        <ele>216</ele>
        <time>2017-04-23T15:56:11Z</time>
      </trkpt>
      <trkpt lat="45.66967" lon="5.6867">
        <ele>216</ele>
        <time>2017-04-23T15:56:11Z</time>
      </trkpt>
      <trkpt lat="45.66971" lon="5.68678">
        <ele>216</ele>
        <time>2017-04-23T15:56:11Z</time>
      </trkpt>
      <trkpt lat="45.66974" lon="5.68685">
        <ele>216</ele>
        <time>2017-04-23T15:56:27Z</time>
      </trkpt>
      <trkpt lat="45.66978" lon="5.68693">
        <ele>216</ele>
        <time>2017-04-23T15:56:27Z</time>
      </trkpt>
      <trkpt lat="45.66981" lon="5.687">
        <ele>216</ele>
        <time>2017-04-23T15:56:27Z</time>
      </trkpt>
      <trkpt lat="45.66984" lon="5.68707">
        <ele>216</ele>
        <time>2017-04-23T15:56:27Z</time>
      </trkpt>
      <trkpt lat="45.66989" lon="5.68715">
        <ele>217</ele>
        <time>2017-04-23T15:56:43Z</time>
      </trkpt>
      <trkpt lat="45.66994" lon="5.68723">
        <ele>217</ele>
        <time>2017-04-23T15:56:43Z</time>
      </trkpt>
      <trkpt lat="45.66999" lon="5.68731">
        <ele>217</ele>
        <time>2017-04-23T15:56:43Z</time>
      </trkpt>
      <trkpt lat="45.67003" lon="5.68738">
        <ele>217</ele>
        <time>2017-04-23T15:56:43Z</time>
      </trkpt>
      <trkpt lat="45.67007" lon="5.68744">
        <ele>217</ele>
        <time>2017-04-23T15:56:59Z</time>
      </trkpt>
      <trkpt lat="45.67011" lon="5.68751">
        <ele>217</ele>
        <time>2017-04-23T15:56:59Z</time>
      </trkpt>
      <trkpt lat="45.67015" lon="5.68758">
        <ele>217</ele>
        <time>2017-04-23T15:56:59Z</time>
      </trkpt>
      <trkpt lat="45.67018" lon="5.68765">
        <ele>217</ele>
        <time>2017-04-23T15:56:59Z</time>
      </trkpt>
      <trkpt lat="45.67022" lon="5.68772">
        <ele>217</ele>
        <time>2017-04-23T15:57:15Z</time>
      </trkpt>
      <trkpt lat="45.67025" lon="5.68779">
        <ele>217</ele>
        <time>2017-04-23T15:57:15Z</time>
      </trkpt>
      <trkpt lat="45.67029" lon="5.68786">
        <ele>217</ele>
        <time>2017-04-23T15:57:15Z</time>
      </trkpt>
      <trkpt lat="45.67033" lon="5.68793">
        <ele>214</ele>
        <time>2017-04-23T15:57:15Z</time>
      </trkpt>
      <trkpt lat="45.67037" lon="5.688">
        <ele>214</ele>
        <time>2017-04-23T15:57:31Z</time>
      </trkpt>
      <trkpt lat="45.6704" lon="5.68808">
        <ele>214</ele>
        <time>2017-04-23T15:57:31Z</time>
      </trkpt>
      <trkpt lat="45.67044" lon="5.68815">
        <ele>216</ele>
        <time>2017-04-23T15:57:31Z</time>
      </trkpt>
      <trkpt lat="45.67048" lon="5.68823">
        <ele>216</ele>
        <time>2017-04-23T15:57:31Z</time>
      </trkpt>
      <trkpt lat="45.67052" lon="5.68831">
        <ele>216</ele>
        <time>2017-04-23T15:57:47Z</time>
      </trkpt>
      <trkpt lat="45.67056" lon="5.68839">
        <ele>216</ele>
        <time>2017-04-23T15:57:47Z</time>
      </trkpt>
      <trkpt lat="45.6706" lon="5.68846">
        <ele>216</ele>
        <time>2017-04-23T15:57:47Z</time>
      </trkpt>
      <trkpt lat="45.67064" lon="5.68852">
        <ele>216</ele>
        <time>2017-04-23T15:57:47Z</time>
      </trkpt>
      <trkpt lat="45.67068" lon="5.68859">
        <ele>216</ele>
        <time>2017-04-23T15:58:03Z</time>
      </trkpt>
      <trkpt lat="45.67072" lon="5.68866">
        <ele>216</ele>
        <time>2017-04-23T15:58:03Z</time>
      </trkpt>
      <trkpt lat="45.67076" lon="5.68872">
        <ele>216</ele>
        <time>2017-04-23T15:58:03Z</time>
      </trkpt>
      <trkpt lat="45.6708" lon="5.68879">
        <ele>217</ele>
        <time>2017-04-23T15:58:03Z</time>
      </trkpt>
      <trkpt lat="45.67084" lon="5.68886">
        <ele>217</ele>
        <time>2017-04-23T15:58:19Z</time>
      </trkpt>
      <trkpt lat="45.67088" lon="5.68893">
        <ele>217</ele>
        <time>2017-04-23T15:58:19Z</time>
      </trkpt>
      <trkpt lat="45.67091" lon="5.689">
        <ele>217</ele>
        <time>2017-04-23T15:58:19Z</time>
      </trkpt>
      <trkpt lat="45.67095" lon="5.68907">
        <ele>217</ele>
        <time>2017-04-23T15:58:19Z</time>
      </trkpt>
      <trkpt lat="45.67099" lon="5.68914">
        <ele>217</ele>
        <time>2017-04-23T15:58:35Z</time>
      </trkpt>
      <trkpt lat="45.67104" lon="5.68922">
        <ele>217</ele>
        <time>2017-04-23T15:58:35Z</time>
      </trkpt>
      <trkpt lat="45.67108" lon="5.68929">
        <ele>217</ele>
        <time>2017-04-23T15:58:35Z</time>
      </trkpt>
      <trkpt lat="45.67112" lon="5.68936">
        <ele>217</ele>
        <time>2017-04-23T15:58:35Z</time>
      </trkpt>
      <trkpt lat="45.67117" lon="5.68943">
        <ele>217</ele>
        <time>2017-04-23T15:59:11Z</time>
      </trkpt>
      <trkpt lat="45.67117" lon="5.68943">
        <ele>217</ele>
        <time>2017-04-23T15:59:11Z</time>
      </trkpt>
      <trkpt lat="45.67119" lon="5.68948">
        <ele>217</ele>
        <time>2017-04-23T15:59:11Z</time>
      </trkpt>
      <trkpt lat="45.67122" lon="5.68955">
        <ele>217</ele>
        <time>2017-04-23T15:59:11Z</time>
      </trkpt>
      <trkpt lat="45.67126" lon="5.68961">
        <ele>217</ele>
        <time>2017-04-23T15:59:11Z</time>
      </trkpt>
      <trkpt lat="45.6713" lon="5.68969">
        <ele>217</ele>
        <time>2017-04-23T15:59:27Z</time>
      </trkpt>
      <trkpt lat="45.67133" lon="5.68977">
        <ele>217</ele>
        <time>2017-04-23T15:59:27Z</time>
      </trkpt>
      <trkpt lat="45.67137" lon="5.68983">
        <ele>217</ele>
        <time>2017-04-23T15:59:27Z</time>
      </trkpt>
      <trkpt lat="45.67141" lon="5.6899">
        <ele>217</ele>
        <time>2017-04-23T15:59:27Z</time>
      </trkpt>
      <trkpt lat="45.67145" lon="5.68998">
        <ele>217</ele>
        <time>2017-04-23T15:59:43Z</time>
      </trkpt>
      <trkpt lat="45.67148" lon="5.69006">
        <ele>217</ele>
        <time>2017-04-23T15:59:43Z</time>
      </trkpt>
      <trkpt lat="45.67153" lon="5.69012">
        <ele>217</ele>
        <time>2017-04-23T15:59:43Z</time>
      </trkpt>
      <trkpt lat="45.67159" lon="5.69016">
        <ele>217</ele>
        <time>2017-04-23T15:59:43Z</time>
      </trkpt>
      <trkpt lat="45.67164" lon="5.69022">
        <ele>217</ele>
        <time>2017-04-23T15:59:59Z</time>
      </trkpt>
      <trkpt lat="45.67168" lon="5.69029">
        <ele>217</ele>
        <time>2017-04-23T15:59:59Z</time>
      </trkpt>
      <trkpt lat="45.67173" lon="5.69036">
        <ele>217</ele>
        <time>2017-04-23T15:59:59Z</time>
      </trkpt>
      <trkpt lat="45.67177" lon="5.69042">
        <ele>218</ele>
        <time>2017-04-23T15:59:59Z</time>
      </trkpt>
      <trkpt lat="45.67182" lon="5.69048">
        <ele>218</ele>
        <time>2017-04-23T16:00:15Z</time>
      </trkpt>
      <trkpt lat="45.67186" lon="5.69054">
        <ele>218</ele>
        <time>2017-04-23T16:00:15Z</time>
      </trkpt>
      <trkpt lat="45.67191" lon="5.6906">
        <ele>218</ele>
        <time>2017-04-23T16:00:15Z</time>
      </trkpt>
      <trkpt lat="45.67196" lon="5.69065">
        <ele>218</ele>
        <time>2017-04-23T16:00:15Z</time>
      </trkpt>
      <trkpt lat="45.67202" lon="5.69069">
        <ele>218</ele>
        <time>2017-04-23T16:00:31Z</time>
      </trkpt>
      <trkpt lat="45.67207" lon="5.69074">
        <ele>218</ele>
        <time>2017-04-23T16:00:31Z</time>
      </trkpt>
      <trkpt lat="45.67212" lon="5.69079">
        <ele>217</ele>
        <time>2017-04-23T16:00:31Z</time>
      </trkpt>
      <trkpt lat="45.67218" lon="5.69083">
        <ele>217</ele>
        <time>2017-04-23T16:00:31Z</time>
      </trkpt>
      <trkpt lat="45.67224" lon="5.69088">
        <ele>217</ele>
        <time>2017-04-23T16:00:47Z</time>
      </trkpt>
      <trkpt lat="45.67227" lon="5.69091">
        <ele>217</ele>
        <time>2017-04-23T16:00:47Z</time>
      </trkpt>
      <trkpt lat="45.67233" lon="5.69094">
        <ele>217</ele>
        <time>2017-04-23T16:00:47Z</time>
      </trkpt>
      <trkpt lat="45.67238" lon="5.69098">
        <ele>217</ele>
        <time>2017-04-23T16:00:47Z</time>
      </trkpt>
      <trkpt lat="45.67244" lon="5.69103">
        <ele>217</ele>
        <time>2017-04-23T16:01:03Z</time>
      </trkpt>
      <trkpt lat="45.67249" lon="5.69108">
        <ele>217</ele>
        <time>2017-04-23T16:01:03Z</time>
      </trkpt>
      <trkpt lat="45.67255" lon="5.69112">
        <ele>217</ele>
        <time>2017-04-23T16:01:03Z</time>
      </trkpt>
      <trkpt lat="45.6726" lon="5.69114">
        <ele>217</ele>
        <time>2017-04-23T16:01:03Z</time>
      </trkpt>
      <trkpt lat="45.67264" lon="5.69121">
        <ele>217</ele>
        <time>2017-04-23T16:01:19Z</time>
      </trkpt>
      <trkpt lat="45.67269" lon="5.69127">
        <ele>217</ele>
        <time>2017-04-23T16:01:19Z</time>
      </trkpt>
      <trkpt lat="45.67274" lon="5.69132">
        <ele>217</ele>
        <time>2017-04-23T16:01:19Z</time>
      </trkpt>
      <trkpt lat="45.67279" lon="5.69136">
        <ele>217</ele>
        <time>2017-04-23T16:01:19Z</time>
      </trkpt>
      <trkpt lat="45.67285" lon="5.69141">
        <ele>217</ele>
        <time>2017-04-23T16:01:35Z</time>
      </trkpt>
      <trkpt lat="45.67292" lon="5.69144">
        <ele>216</ele>
        <time>2017-04-23T16:01:35Z</time>
      </trkpt>
      <trkpt lat="45.67298" lon="5.69149">
        <ele>216</ele>
        <time>2017-04-23T16:01:35Z</time>
      </trkpt>
      <trkpt lat="45.67303" lon="5.69154">
        <ele>216</ele>
        <time>2017-04-23T16:01:35Z</time>
      </trkpt>
      <trkpt lat="45.67308" lon="5.69159">
        <ele>216</ele>
        <time>2017-04-23T16:01:51Z</time>
      </trkpt>
      <trkpt lat="45.67314" lon="5.69163">
        <ele>216</ele>
        <time>2017-04-23T16:01:51Z</time>
      </trkpt>
      <trkpt lat="45.67319" lon="5.69168">
        <ele>216</ele>
        <time>2017-04-23T16:01:51Z</time>
      </trkpt>
      <trkpt lat="45.67324" lon="5.69172">
        <ele>216</ele>
        <time>2017-04-23T16:01:51Z</time>
      </trkpt>
      <trkpt lat="45.67327" lon="5.69166">
        <ele>216</ele>
        <time>2017-04-23T16:02:07Z</time>
      </trkpt>
      <trkpt lat="45.67329" lon="5.69157">
        <ele>216</ele>
        <time>2017-04-23T16:02:07Z</time>
      </trkpt>
      <trkpt lat="45.67329" lon="5.69148">
        <ele>216</ele>
        <time>2017-04-23T16:02:07Z</time>
      </trkpt>
      <trkpt lat="45.67327" lon="5.6914">
        <ele>216</ele>
        <time>2017-04-23T16:02:07Z</time>
      </trkpt>
      <trkpt lat="45.67327" lon="5.69131">
        <ele>216</ele>
        <time>2017-04-23T16:02:23Z</time>
      </trkpt>
      <trkpt lat="45.67328" lon="5.69121">
        <ele>216</ele>
        <time>2017-04-23T16:02:23Z</time>
      </trkpt>
      <trkpt lat="45.6733" lon="5.69102">
        <ele>216</ele>
        <time>2017-04-23T16:02:23Z</time>
      </trkpt>
      <trkpt lat="45.67331" lon="5.69074">
        <ele>216</ele>
        <time>2017-04-23T16:02:23Z</time>
      </trkpt>
      <trkpt lat="45.67333" lon="5.69056">
        <ele>216</ele>
        <time>2017-04-23T16:02:39Z</time>
      </trkpt>
      <trkpt lat="45.67335" lon="5.69031">
        <ele>216</ele>
        <time>2017-04-23T16:02:39Z</time>
      </trkpt>
      <trkpt lat="45.67337" lon="5.69008">
        <ele>216</ele>
        <time>2017-04-23T16:02:39Z</time>
      </trkpt>
      <trkpt lat="45.67339" lon="5.6899">
        <ele>216</ele>
        <time>2017-04-23T16:02:39Z</time>
      </trkpt>
      <trkpt lat="45.6734" lon="5.6898">
        <ele>216</ele>
        <time>2017-04-23T16:02:55Z</time>
      </trkpt>
      <trkpt lat="45.67339" lon="5.68971">
        <ele>216</ele>
        <time>2017-04-23T16:02:55Z</time>
      </trkpt>
      <trkpt lat="45.6734" lon="5.68965">
        <ele>216</ele>
        <time>2017-04-23T16:02:55Z</time>
      </trkpt>
      <trkpt lat="45.67342" lon="5.6895">
        <ele>215</ele>
        <time>2017-04-23T16:02:55Z</time>
      </trkpt>
      <trkpt lat="45.67344" lon="5.68928">
        <ele>215</ele>
        <time>2017-04-23T16:03:11Z</time>
      </trkpt>
      <trkpt lat="45.67346" lon="5.689">
        <ele>215</ele>
        <time>2017-04-23T16:03:11Z</time>
      </trkpt>
      <trkpt lat="45.67347" lon="5.68874">
        <ele>215</ele>
        <time>2017-04-23T16:03:11Z</time>
      </trkpt>
      <trkpt lat="45.6735" lon="5.68847">
        <ele>215</ele>
        <time>2017-04-23T16:03:11Z</time>
      </trkpt>
      <trkpt lat="45.67353" lon="5.68824">
        <ele>215</ele>
        <time>2017-04-23T16:03:27Z</time>
      </trkpt>
      <trkpt lat="45.67355" lon="5.68803">
        <ele>215</ele>
        <time>2017-04-23T16:03:27Z</time>
      </trkpt>
      <trkpt lat="45.67357" lon="5.68782">
        <ele>215</ele>
        <time>2017-04-23T16:03:27Z</time>
      </trkpt>
      <trkpt lat="45.67359" lon="5.68762">
        <ele>215</ele>
        <time>2017-04-23T16:03:27Z</time>
      </trkpt>
      <trkpt lat="45.67358" lon="5.6874">
        <ele>215</ele>
        <time>2017-04-23T16:03:43Z</time>
      </trkpt>
      <trkpt lat="45.67357" lon="5.68722">
        <ele>215</ele>
        <time>2017-04-23T16:03:43Z</time>
      </trkpt>
      <trkpt lat="45.67356" lon="5.68701">
        <ele>216</ele>
        <time>2017-04-23T16:03:43Z</time>
      </trkpt>
      <trkpt lat="45.67355" lon="5.68677">
        <ele>216</ele>
        <time>2017-04-23T16:03:43Z</time>
      </trkpt>
      <trkpt lat="45.67355" lon="5.6865">
        <ele>216</ele>
        <time>2017-04-23T16:03:59Z</time>
      </trkpt>
      <trkpt lat="45.67355" lon="5.68625">
        <ele>216</ele>
        <time>2017-04-23T16:03:59Z</time>
      </trkpt>
      <trkpt lat="45.67358" lon="5.68599">
        <ele>216</ele>
        <time>2017-04-23T16:03:59Z</time>
      </trkpt>
      <trkpt lat="45.67361" lon="5.68572">
        <ele>216</ele>
        <time>2017-04-23T16:03:59Z</time>
      </trkpt>
      <trkpt lat="45.67363" lon="5.68543">
        <ele>216</ele>
        <time>2017-04-23T16:04:15Z</time>
      </trkpt>
      <trkpt lat="45.67365" lon="5.68514">
        <ele>215</ele>
        <time>2017-04-23T16:04:15Z</time>
      </trkpt>
      <trkpt lat="45.67368" lon="5.68487">
        <ele>215</ele>
        <time>2017-04-23T16:04:15Z</time>
      </trkpt>
      <trkpt lat="45.67371" lon="5.68459">
        <ele>215</ele>
        <time>2017-04-23T16:04:15Z</time>
      </trkpt>
      <trkpt lat="45.67372" lon="5.68427">
        <ele>215</ele>
        <time>2017-04-23T16:04:31Z</time>
      </trkpt>
      <trkpt lat="45.67372" lon="5.68399">
        <ele>215</ele>
        <time>2017-04-23T16:04:31Z</time>
      </trkpt>
      <trkpt lat="45.67374" lon="5.68372">
        <ele>215</ele>
        <time>2017-04-23T16:04:31Z</time>
      </trkpt>
      <trkpt lat="45.67375" lon="5.68354">
        <ele>215</ele>
        <time>2017-04-23T16:04:31Z</time>
      </trkpt>
      <trkpt lat="45.67375" lon="5.68344">
        <ele>215</ele>
        <time>2017-04-23T16:04:47Z</time>
      </trkpt>
      <trkpt lat="45.67374" lon="5.68334">
        <ele>215</ele>
        <time>2017-04-23T16:04:47Z</time>
      </trkpt>
      <trkpt lat="45.67373" lon="5.68323">
        <ele>215</ele>
        <time>2017-04-23T16:04:47Z</time>
      </trkpt>
      <trkpt lat="45.67373" lon="5.68313">
        <ele>215</ele>
        <time>2017-04-23T16:04:47Z</time>
      </trkpt>
      <trkpt lat="45.67372" lon="5.68303">
        <ele>215</ele>
        <time>2017-04-23T16:05:03Z</time>
      </trkpt>
      <trkpt lat="45.67372" lon="5.68294">
        <ele>215</ele>
        <time>2017-04-23T16:05:03Z</time>
      </trkpt>
      <trkpt lat="45.67371" lon="5.68285">
        <ele>217</ele>
        <time>2017-04-23T16:05:03Z</time>
      </trkpt>
      <trkpt lat="45.67371" lon="5.68277">
        <ele>217</ele>
        <time>2017-04-23T16:05:03Z</time>
      </trkpt>
      <trkpt lat="45.67371" lon="5.68267">
        <ele>217</ele>
        <time>2017-04-23T16:05:19Z</time>
      </trkpt>
      <trkpt lat="45.67371" lon="5.68258">
        <ele>217</ele>
        <time>2017-04-23T16:05:19Z</time>
      </trkpt>
      <trkpt lat="45.6737" lon="5.68248">
        <ele>217</ele>
        <time>2017-04-23T16:05:19Z</time>
      </trkpt>
      <trkpt lat="45.67371" lon="5.6824">
        <ele>217</ele>
        <time>2017-04-23T16:05:19Z</time>
      </trkpt>
      <trkpt lat="45.6737" lon="5.68232">
        <ele>217</ele>
        <time>2017-04-23T16:05:35Z</time>
      </trkpt>
      <trkpt lat="45.67369" lon="5.68224">
        <ele>217</ele>
        <time>2017-04-23T16:05:35Z</time>
      </trkpt>
      <trkpt lat="45.67367" lon="5.68216">
        <ele>217</ele>
        <time>2017-04-23T16:05:35Z</time>
      </trkpt>
      <trkpt lat="45.67364" lon="5.68209">
        <ele>217</ele>
        <time>2017-04-23T16:05:35Z</time>
      </trkpt>
      <trkpt lat="45.6736" lon="5.68203">
        <ele>219</ele>
        <time>2017-04-23T16:05:51Z</time>
      </trkpt>
      <trkpt lat="45.67356" lon="5.68197">
        <ele>219</ele>
        <time>2017-04-23T16:05:51Z</time>
      </trkpt>
      <trkpt lat="45.67355" lon="5.6819">
        <ele>219</ele>
        <time>2017-04-23T16:05:51Z</time>
      </trkpt>
      <trkpt lat="45.67353" lon="5.68182">
        <ele>219</ele>
        <time>2017-04-23T16:05:51Z</time>
      </trkpt>
      <trkpt lat="45.67352" lon="5.68175">
        <ele>219</ele>
        <time>2017-04-23T16:06:07Z</time>
      </trkpt>
      <trkpt lat="45.67352" lon="5.68169">
        <ele>219</ele>
        <time>2017-04-23T16:06:07Z</time>
      </trkpt>
      <trkpt lat="45.67354" lon="5.68162">
        <ele>219</ele>
        <time>2017-04-23T16:06:07Z</time>
      </trkpt>
      <trkpt lat="45.67356" lon="5.68154">
        <ele>219</ele>
        <time>2017-04-23T16:06:07Z</time>
      </trkpt>
      <trkpt lat="45.67358" lon="5.68145">
        <ele>219</ele>
        <time>2017-04-23T16:06:23Z</time>
      </trkpt>
      <trkpt lat="45.6736" lon="5.68136">
        <ele>219</ele>
        <time>2017-04-23T16:06:23Z</time>
      </trkpt>
      <trkpt lat="45.67363" lon="5.68128">
        <ele>219</ele>
        <time>2017-04-23T16:06:23Z</time>
      </trkpt>
      <trkpt lat="45.67364" lon="5.68121">
        <ele>220</ele>
        <time>2017-04-23T16:06:23Z</time>
      </trkpt>
      <trkpt lat="45.67366" lon="5.68113">
        <ele>220</ele>
        <time>2017-04-23T16:06:39Z</time>
      </trkpt>
      <trkpt lat="45.67367" lon="5.68104">
        <ele>220</ele>
        <time>2017-04-23T16:06:39Z</time>
      </trkpt>
      <trkpt lat="45.67368" lon="5.68095">
        <ele>220</ele>
        <time>2017-04-23T16:06:39Z</time>
      </trkpt>
      <trkpt lat="45.67368" lon="5.68086">
        <ele>220</ele>
        <time>2017-04-23T16:06:39Z</time>
      </trkpt>
      <trkpt lat="45.67367" lon="5.68076">
        <ele>220</ele>
        <time>2017-04-23T16:06:55Z</time>
      </trkpt>
      <trkpt lat="45.67365" lon="5.68064">
        <ele>220</ele>
        <time>2017-04-23T16:06:55Z</time>
      </trkpt>
      <trkpt lat="45.67362" lon="5.68053">
        <ele>220</ele>
        <time>2017-04-23T16:06:55Z</time>
      </trkpt>
      <trkpt lat="45.67358" lon="5.68044">
        <ele>220</ele>
        <time>2017-04-23T16:06:55Z</time>
      </trkpt>
      <trkpt lat="45.67356" lon="5.68034">
        <ele>224</ele>
        <time>2017-04-23T16:07:11Z</time>
      </trkpt>
      <trkpt lat="45.67354" lon="5.68025">
        <ele>224</ele>
        <time>2017-04-23T16:07:11Z</time>
      </trkpt>
      <trkpt lat="45.67353" lon="5.68016">
        <ele>224</ele>
        <time>2017-04-23T16:07:11Z</time>
      </trkpt>
      <trkpt lat="45.67352" lon="5.68007">
        <ele>224</ele>
        <time>2017-04-23T16:07:11Z</time>
      </trkpt>
      <trkpt lat="45.67351" lon="5.67998">
        <ele>224</ele>
        <time>2017-04-23T16:07:27Z</time>
      </trkpt>
      <trkpt lat="45.67356" lon="5.6799">
        <ele>224</ele>
        <time>2017-04-23T16:07:27Z</time>
      </trkpt>
      <trkpt lat="45.67362" lon="5.67986">
        <ele>224</ele>
        <time>2017-04-23T16:07:27Z</time>
      </trkpt>
      <trkpt lat="45.6737" lon="5.67985">
        <ele>224</ele>
        <time>2017-04-23T16:07:27Z</time>
      </trkpt>
      <trkpt lat="45.67378" lon="5.67984">
        <ele>225</ele>
        <time>2017-04-23T16:07:43Z</time>
      </trkpt>
      <trkpt lat="45.67385" lon="5.67982">
        <ele>225</ele>
        <time>2017-04-23T16:07:43Z</time>
      </trkpt>
      <trkpt lat="45.67391" lon="5.6798">
        <ele>225</ele>
        <time>2017-04-23T16:07:43Z</time>
      </trkpt>
      <trkpt lat="45.67398" lon="5.67979">
        <ele>225</ele>
        <time>2017-04-23T16:07:43Z</time>
      </trkpt>
      <trkpt lat="45.67404" lon="5.67977">
        <ele>225</ele>
        <time>2017-04-23T16:07:59Z</time>
      </trkpt>
      <trkpt lat="45.6741" lon="5.67976">
        <ele>225</ele>
        <time>2017-04-23T16:07:59Z</time>
      </trkpt>
      <trkpt lat="45.67416" lon="5.67974">
        <ele>225</ele>
        <time>2017-04-23T16:07:59Z</time>
      </trkpt>
      <trkpt lat="45.67422" lon="5.67972">
        <ele>225</ele>
        <time>2017-04-23T16:07:59Z</time>
      </trkpt>
      <trkpt lat="45.67428" lon="5.67971">
        <ele>225</ele>
        <time>2017-04-23T16:08:15Z</time>
      </trkpt>
      <trkpt lat="45.67434" lon="5.6797">
        <ele>225</ele>
        <time>2017-04-23T16:08:15Z</time>
      </trkpt>
      <trkpt lat="45.6744" lon="5.67968">
        <ele>225</ele>
        <time>2017-04-23T16:08:15Z</time>
      </trkpt>
      <trkpt lat="45.67446" lon="5.67966">
        <ele>225</ele>
        <time>2017-04-23T16:08:15Z</time>
      </trkpt>
      <trkpt lat="45.67452" lon="5.67965">
        <ele>225</ele>
        <time>2017-04-23T16:08:31Z</time>
      </trkpt>
      <trkpt lat="45.67458" lon="5.67962">
        <ele>225</ele>
        <time>2017-04-23T16:08:31Z</time>
      </trkpt>
      <trkpt lat="45.67464" lon="5.67961">
        <ele>225</ele>
        <time>2017-04-23T16:08:31Z</time>
      </trkpt>
      <trkpt lat="45.6747" lon="5.67959">
        <ele>225</ele>
        <time>2017-04-23T16:08:31Z</time>
      </trkpt>
      <trkpt lat="45.67475" lon="5.67958">
        <ele>228</ele>
        <time>2017-04-23T16:08:47Z</time>
      </trkpt>
      <trkpt lat="45.67481" lon="5.67957">
        <ele>228</ele>
        <time>2017-04-23T16:08:47Z</time>
      </trkpt>
      <trkpt lat="45.67486" lon="5.67955">
        <ele>228</ele>
        <time>2017-04-23T16:08:47Z</time>
      </trkpt>
      <trkpt lat="45.67491" lon="5.67952">
        <ele>228</ele>
        <time>2017-04-23T16:08:47Z</time>
      </trkpt>
      <trkpt lat="45.67497" lon="5.67949">
        <ele>228</ele>
        <time>2017-04-23T16:09:03Z</time>
      </trkpt>
      <trkpt lat="45.67505" lon="5.67947">
        <ele>228</ele>
        <time>2017-04-23T16:09:03Z</time>
      </trkpt>
      <trkpt lat="45.67512" lon="5.67945">
        <ele>228</ele>
        <time>2017-04-23T16:09:03Z</time>
      </trkpt>
      <trkpt lat="45.67518" lon="5.67944">
        <ele>228</ele>
        <time>2017-04-23T16:09:03Z</time>
      </trkpt>
      <trkpt lat="45.67524" lon="5.67941">
        <ele>228</ele>
        <time>2017-04-23T16:09:19Z</time>
      </trkpt>
      <trkpt lat="45.6753" lon="5.6794">
        <ele>228</ele>
        <time>2017-04-23T16:09:19Z</time>
      </trkpt>
      <trkpt lat="45.67535" lon="5.6794">
        <ele>228</ele>
        <time>2017-04-23T16:09:19Z</time>
      </trkpt>
      <trkpt lat="45.67538" lon="5.67941">
        <ele>228</ele>
        <time>2017-04-23T16:09:19Z</time>
      </trkpt>
      <trkpt lat="45.67538" lon="5.6794">
        <ele>228</ele>
        <time>2017-04-23T16:09:35Z</time>
      </trkpt>
      <trkpt lat="45.67542" lon="5.67939">
        <ele>227</ele>
        <time>2017-04-23T16:09:35Z</time>
      </trkpt>
      <trkpt lat="45.67548" lon="5.67938">
        <ele>227</ele>
        <time>2017-04-23T16:09:35Z</time>
      </trkpt>
      <trkpt lat="45.67554" lon="5.67937">
        <ele>227</ele>
        <time>2017-04-23T16:09:35Z</time>
      </trkpt>
      <trkpt lat="45.67559" lon="5.67937">
        <ele>227</ele>
        <time>2017-04-23T16:09:51Z</time>
      </trkpt>
      <trkpt lat="45.67561" lon="5.67936">
        <ele>227</ele>
        <time>2017-04-23T16:09:51Z</time>
      </trkpt>
      <trkpt lat="45.67564" lon="5.67936">
        <ele>227</ele>
        <time>2017-04-23T16:09:51Z</time>
      </trkpt>
      <trkpt lat="45.67569" lon="5.67936">
        <ele>227</ele>
        <time>2017-04-23T16:09:51Z</time>
      </trkpt>
      <trkpt lat="45.67575" lon="5.67937">
        <ele>227</ele>
        <time>2017-04-23T16:10:07Z</time>
      </trkpt>
      <trkpt lat="45.6758" lon="5.67939">
        <ele>227</ele>
        <time>2017-04-23T16:10:07Z</time>
      </trkpt>
      <trkpt lat="45.67586" lon="5.67939">
        <ele>227</ele>
        <time>2017-04-23T16:10:07Z</time>
      </trkpt>
      <trkpt lat="45.67592" lon="5.67937">
        <ele>227</ele>
        <time>2017-04-23T16:10:07Z</time>
      </trkpt>
      <trkpt lat="45.67598" lon="5.67937">
        <ele>227</ele>
        <time>2017-04-23T16:10:23Z</time>
      </trkpt>
      <trkpt lat="45.67604" lon="5.67937">
        <ele>227</ele>
        <time>2017-04-23T16:10:23Z</time>
      </trkpt>
      <trkpt lat="45.6761" lon="5.67935">
        <ele>227</ele>
        <time>2017-04-23T16:10:23Z</time>
      </trkpt>
      <trkpt lat="45.67616" lon="5.67936">
        <ele>227</ele>
        <time>2017-04-23T16:10:23Z</time>
      </trkpt>
      <trkpt lat="45.67621" lon="5.67938">
        <ele>227</ele>
        <time>2017-04-23T16:10:39Z</time>
      </trkpt>
      <trkpt lat="45.67627" lon="5.6794">
        <ele>227</ele>
        <time>2017-04-23T16:10:39Z</time>
      </trkpt>
      <trkpt lat="45.67632" lon="5.67942">
        <ele>227</ele>
        <time>2017-04-23T16:10:39Z</time>
      </trkpt>
      <trkpt lat="45.67637" lon="5.67945">
        <ele>227</ele>
        <time>2017-04-23T16:10:39Z</time>
      </trkpt>
      <trkpt lat="45.67644" lon="5.67945">
        <ele>227</ele>
        <time>2017-04-23T16:10:55Z</time>
      </trkpt>
      <trkpt lat="45.67651" lon="5.67944">
        <ele>227</ele>
        <time>2017-04-23T16:10:55Z</time>
      </trkpt>
      <trkpt lat="45.67659" lon="5.67941">
        <ele>227</ele>
        <time>2017-04-23T16:10:55Z</time>
      </trkpt>
      <trkpt lat="45.67666" lon="5.6794">
        <ele>227</ele>
        <time>2017-04-23T16:10:55Z</time>
      </trkpt>
      <trkpt lat="45.67673" lon="5.67941">
        <ele>227</ele>
        <time>2017-04-23T16:11:11Z</time>
      </trkpt>
      <trkpt lat="45.67678" lon="5.67943">
        <ele>227</ele>
        <time>2017-04-23T16:11:11Z</time>
      </trkpt>
      <trkpt lat="45.67683" lon="5.67948">
        <ele>227</ele>
        <time>2017-04-23T16:11:11Z</time>
      </trkpt>
      <trkpt lat="45.67688" lon="5.6795">
        <ele>227</ele>
        <time>2017-04-23T16:11:11Z</time>
      </trkpt>
      <trkpt lat="45.67694" lon="5.67954">
        <ele>227</ele>
        <time>2017-04-23T16:11:31Z</time>
      </trkpt>
      <trkpt lat="45.67697" lon="5.67954">
        <ele>227</ele>
        <time>2017-04-23T16:11:31Z</time>
      </trkpt>
      <trkpt lat="45.67699" lon="5.67956">
        <ele>227</ele>
        <time>2017-04-23T16:11:31Z</time>
      </trkpt>
      <trkpt lat="45.67702" lon="5.67956">
        <ele>227</ele>
        <time>2017-04-23T16:11:31Z</time>
      </trkpt>
      <trkpt lat="45.67708" lon="5.67955">
        <ele>228</ele>
        <time>2017-04-23T16:11:31Z</time>
      </trkpt>
      <trkpt lat="45.67715" lon="5.67953">
        <ele>228</ele>
        <time>2017-04-23T16:11:47Z</time>
      </trkpt>
      <trkpt lat="45.67718" lon="5.67945">
        <ele>228</ele>
        <time>2017-04-23T16:11:47Z</time>
      </trkpt>
      <trkpt lat="45.67721" lon="5.67937">
        <ele>228</ele>
        <time>2017-04-23T16:11:47Z</time>
      </trkpt>
      <trkpt lat="45.67724" lon="5.67929">
        <ele>228</ele>
        <time>2017-04-23T16:11:47Z</time>
      </trkpt>
      <trkpt lat="45.6773" lon="5.67926">
        <ele>228</ele>
        <time>2017-04-23T16:12:03Z</time>
      </trkpt>
      <trkpt lat="45.67737" lon="5.67929">
        <ele>228</ele>
        <time>2017-04-23T16:12:03Z</time>
      </trkpt>
      <trkpt lat="45.67743" lon="5.67932">
        <ele>228</ele>
        <time>2017-04-23T16:12:03Z</time>
      </trkpt>
      <trkpt lat="45.67749" lon="5.67932">
        <ele>228</ele>
        <time>2017-04-23T16:12:03Z</time>
      </trkpt>
      <trkpt lat="45.67755" lon="5.67931">
        <ele>228</ele>
        <time>2017-04-23T16:12:19Z</time>
      </trkpt>
      <trkpt lat="45.67762" lon="5.67936">
        <ele>228</ele>
        <time>2017-04-23T16:12:19Z</time>
      </trkpt>
      <trkpt lat="45.67774" lon="5.67949">
        <ele>228</ele>
        <time>2017-04-23T16:12:19Z</time>
      </trkpt>
      <trkpt lat="45.67785" lon="5.6796">
        <ele>224</ele>
        <time>2017-04-23T16:12:19Z</time>
      </trkpt>
      <trkpt lat="45.67794" lon="5.67971">
        <ele>227</ele>
        <time>2017-04-23T16:12:35Z</time>
      </trkpt>
      <trkpt lat="45.67805" lon="5.6798">
        <ele>227</ele>
        <time>2017-04-23T16:12:35Z</time>
      </trkpt>
      <trkpt lat="45.67816" lon="5.67991">
        <ele>227</ele>
        <time>2017-04-23T16:12:35Z</time>
      </trkpt>
      <trkpt lat="45.67826" lon="5.68003">
        <ele>227</ele>
        <time>2017-04-23T16:12:35Z</time>
      </trkpt>
      <trkpt lat="45.67835" lon="5.68016">
        <ele>227</ele>
        <time>2017-04-23T16:12:51Z</time>
      </trkpt>
      <trkpt lat="45.67844" lon="5.68025">
        <ele>227</ele>
        <time>2017-04-23T16:12:51Z</time>
      </trkpt>
      <trkpt lat="45.67847" lon="5.68033">
        <ele>227</ele>
        <time>2017-04-23T16:12:51Z</time>
      </trkpt>
      <trkpt lat="45.67847" lon="5.68042">
        <ele>227</ele>
        <time>2017-04-23T16:12:51Z</time>
      </trkpt>
      <trkpt lat="45.67852" lon="5.68048">
        <ele>224</ele>
        <time>2017-04-23T16:13:07Z</time>
      </trkpt>
      <trkpt lat="45.6786" lon="5.68049">
        <ele>224</ele>
        <time>2017-04-23T16:13:07Z</time>
      </trkpt>
      <trkpt lat="45.67866" lon="5.68043">
        <ele>224</ele>
        <time>2017-04-23T16:13:07Z</time>
      </trkpt>
      <trkpt lat="45.67871" lon="5.68037">
        <ele>227</ele>
        <time>2017-04-23T16:13:07Z</time>
      </trkpt>
      <trkpt lat="45.67876" lon="5.68031">
        <ele>230</ele>
        <time>2017-04-23T16:13:23Z</time>
      </trkpt>
      <trkpt lat="45.6788" lon="5.68025">
        <ele>230</ele>
        <time>2017-04-23T16:13:23Z</time>
      </trkpt>
      <trkpt lat="45.67885" lon="5.6802">
        <ele>230</ele>
        <time>2017-04-23T16:13:23Z</time>
      </trkpt>
      <trkpt lat="45.6789" lon="5.68015">
        <ele>230</ele>
        <time>2017-04-23T16:13:23Z</time>
      </trkpt>
      <trkpt lat="45.67895" lon="5.6801">
        <ele>230</ele>
        <time>2017-04-23T16:13:39Z</time>
      </trkpt>
      <trkpt lat="45.67898" lon="5.68007">
        <ele>230</ele>
        <time>2017-04-23T16:13:39Z</time>
      </trkpt>
      <trkpt lat="45.67899" lon="5.68006">
        <ele>230</ele>
        <time>2017-04-23T16:13:39Z</time>
      </trkpt>
      <trkpt lat="45.67904" lon="5.68">
        <ele>230</ele>
        <time>2017-04-23T16:13:39Z</time>
      </trkpt>
      <trkpt lat="45.6791" lon="5.67993">
        <ele>230</ele>
        <time>2017-04-23T16:13:55Z</time>
      </trkpt>
      <trkpt lat="45.67914" lon="5.67987">
        <ele>230</ele>
        <time>2017-04-23T16:13:55Z</time>
      </trkpt>
      <trkpt lat="45.67917" lon="5.67983">
        <ele>230</ele>
        <time>2017-04-23T16:13:55Z</time>
      </trkpt>
      <trkpt lat="45.67917" lon="5.67982">
        <ele>230</ele>
        <time>2017-04-23T16:13:55Z</time>
      </trkpt>
      <trkpt lat="45.67924" lon="5.67976">
        <ele>230</ele>
        <time>2017-04-23T16:14:11Z</time>
      </trkpt>
      <trkpt lat="45.67929" lon="5.67971">
        <ele>230</ele>
        <time>2017-04-23T16:14:11Z</time>
      </trkpt>
      <trkpt lat="45.67934" lon="5.67966">
        <ele>230</ele>
        <time>2017-04-23T16:14:11Z</time>
      </trkpt>
      <trkpt lat="45.67941" lon="5.6796">
        <ele>230</ele>
        <time>2017-04-23T16:14:11Z</time>
      </trkpt>
      <trkpt lat="45.67949" lon="5.67953">
        <ele>231</ele>
        <time>2017-04-23T16:14:27Z</time>
      </trkpt>
      <trkpt lat="45.67954" lon="5.6795">
        <ele>231</ele>
        <time>2017-04-23T16:14:27Z</time>
      </trkpt>
      <trkpt lat="45.67959" lon="5.67946">
        <ele>235</ele>
        <time>2017-04-23T16:14:27Z</time>
      </trkpt>
      <trkpt lat="45.67963" lon="5.67943">
        <ele>235</ele>
        <time>2017-04-23T16:14:27Z</time>
      </trkpt>
      <trkpt lat="45.67967" lon="5.67942">
        <ele>235</ele>
        <time>2017-04-23T16:14:43Z</time>
      </trkpt>
      <trkpt lat="45.67972" lon="5.6794">
        <ele>235</ele>
        <time>2017-04-23T16:14:43Z</time>
      </trkpt>
      <trkpt lat="45.67976" lon="5.67937">
        <ele>235</ele>
        <time>2017-04-23T16:14:43Z</time>
      </trkpt>
      <trkpt lat="45.6798" lon="5.67936">
        <ele>235</ele>
        <time>2017-04-23T16:14:43Z</time>
      </trkpt>
      <trkpt lat="45.67984" lon="5.67934">
        <ele>235</ele>
        <time>2017-04-23T16:14:59Z</time>
      </trkpt>
      <trkpt lat="45.67993" lon="5.67926">
        <ele>235</ele>
        <time>2017-04-23T16:14:59Z</time>
      </trkpt>
      <trkpt lat="45.67998" lon="5.67919">
        <ele>235</ele>
        <time>2017-04-23T16:14:59Z</time>
      </trkpt>
      <trkpt lat="45.68001" lon="5.67913">
        <ele>235</ele>
        <time>2017-04-23T16:14:59Z</time>
      </trkpt>
      <trkpt lat="45.68007" lon="5.6791">
        <ele>235</ele>
        <time>2017-04-23T16:15:15Z</time>
      </trkpt>
      <trkpt lat="45.68014" lon="5.67903">
        <ele>235</ele>
        <time>2017-04-23T16:15:15Z</time>
      </trkpt>
      <trkpt lat="45.68021" lon="5.67898">
        <ele>235</ele>
        <time>2017-04-23T16:15:15Z</time>
      </trkpt>
      <trkpt lat="45.68027" lon="5.67895">
        <ele>235</ele>
        <time>2017-04-23T16:15:15Z</time>
      </trkpt>
      <trkpt lat="45.68031" lon="5.67888">
        <ele>235</ele>
        <time>2017-04-23T16:15:31Z</time>
      </trkpt>
      <trkpt lat="45.68036" lon="5.67885">
        <ele>235</ele>
        <time>2017-04-23T16:15:31Z</time>
      </trkpt>
      <trkpt lat="45.68042" lon="5.67882">
        <ele>240</ele>
        <time>2017-04-23T16:15:31Z</time>
      </trkpt>
      <trkpt lat="45.68048" lon="5.6788">
        <ele>240</ele>
        <time>2017-04-23T16:15:31Z</time>
      </trkpt>
      <trkpt lat="45.68061" lon="5.67868">
        <ele>238</ele>
        <time>2017-04-23T16:22:11Z</time>
      </trkpt>
      <trkpt lat="45.68061" lon="5.67868">
        <ele>238</ele>
        <time>2017-04-23T16:22:11Z</time>
      </trkpt>
      <trkpt lat="45.68061" lon="5.67868">
        <ele>238</ele>
        <time>2017-04-23T16:22:11Z</time>
      </trkpt>
      <trkpt lat="45.68061" lon="5.67868">
        <ele>238</ele>
        <time>2017-04-23T16:22:11Z</time>
      </trkpt>
      <trkpt lat="45.68061" lon="5.67868">
        <ele>238</ele>
        <time>2017-04-23T16:22:11Z</time>
      </trkpt>
      <trkpt lat="45.68062" lon="5.67868">
        <ele>238</ele>
        <time>2017-04-23T16:25:43Z</time>
      </trkpt>
      <trkpt lat="45.68062" lon="5.67867">
        <ele>238</ele>
        <time>2017-04-23T16:25:43Z</time>
      </trkpt>
      <trkpt lat="45.68065" lon="5.67864">
        <ele>238</ele>
        <time>2017-04-23T16:25:43Z</time>
      </trkpt>
      <trkpt lat="45.68069" lon="5.67862">
        <ele>238</ele>
        <time>2017-04-23T16:25:43Z</time>
      </trkpt>
      <trkpt lat="45.68073" lon="5.6786">
        <ele>238</ele>
        <time>2017-04-23T16:25:43Z</time>
      </trkpt>
      <trkpt lat="45.68078" lon="5.67857">
        <ele>238</ele>
        <time>2017-04-23T16:25:59Z</time>
      </trkpt>
      <trkpt lat="45.68083" lon="5.67854">
        <ele>238</ele>
        <time>2017-04-23T16:25:59Z</time>
      </trkpt>
      <trkpt lat="45.68088" lon="5.6785">
        <ele>238</ele>
        <time>2017-04-23T16:25:59Z</time>
      </trkpt>
      <trkpt lat="45.68092" lon="5.67847">
        <ele>238</ele>
        <time>2017-04-23T16:25:59Z</time>
      </trkpt>
      <trkpt lat="45.68097" lon="5.67844">
        <ele>238</ele>
        <time>2017-04-23T16:26:15Z</time>
      </trkpt>
      <trkpt lat="45.68102" lon="5.67842">
        <ele>238</ele>
        <time>2017-04-23T16:26:15Z</time>
      </trkpt>
      <trkpt lat="45.68106" lon="5.6784">
        <ele>238</ele>
        <time>2017-04-23T16:26:15Z</time>
      </trkpt>
      <trkpt lat="45.68111" lon="5.67835">
        <ele>238</ele>
        <time>2017-04-23T16:26:15Z</time>
      </trkpt>
      <trkpt lat="45.68117" lon="5.67834">
        <ele>238</ele>
        <time>2017-04-23T16:26:31Z</time>
      </trkpt>
      <trkpt lat="45.68122" lon="5.6783">
        <ele>238</ele>
        <time>2017-04-23T16:26:31Z</time>
      </trkpt>
      <trkpt lat="45.68127" lon="5.67825">
        <ele>243</ele>
        <time>2017-04-23T16:26:31Z</time>
      </trkpt>
      <trkpt lat="45.68133" lon="5.6782">
        <ele>243</ele>
        <time>2017-04-23T16:26:31Z</time>
      </trkpt>
      <trkpt lat="45.68138" lon="5.67816">
        <ele>243</ele>
        <time>2017-04-23T16:26:47Z</time>
      </trkpt>
      <trkpt lat="45.68143" lon="5.67813">
        <ele>243</ele>
        <time>2017-04-23T16:26:47Z</time>
      </trkpt>
      <trkpt lat="45.68147" lon="5.67808">
        <ele>243</ele>
        <time>2017-04-23T16:26:47Z</time>
      </trkpt>
      <trkpt lat="45.68152" lon="5.67805">
        <ele>243</ele>
        <time>2017-04-23T16:26:47Z</time>
      </trkpt>
      <trkpt lat="45.68157" lon="5.67801">
        <ele>243</ele>
        <time>2017-04-23T16:27:03Z</time>
      </trkpt>
      <trkpt lat="45.68164" lon="5.67799">
        <ele>243</ele>
        <time>2017-04-23T16:27:03Z</time>
      </trkpt>
      <trkpt lat="45.68169" lon="5.67794">
        <ele>243</ele>
        <time>2017-04-23T16:27:03Z</time>
      </trkpt>
      <trkpt lat="45.68175" lon="5.6779">
        <ele>241</ele>
        <time>2017-04-23T16:27:03Z</time>
      </trkpt>
      <trkpt lat="45.68178" lon="5.67783">
        <ele>241</ele>
        <time>2017-04-23T16:27:19Z</time>
      </trkpt>
      <trkpt lat="45.68179" lon="5.67773">
        <ele>241</ele>
        <time>2017-04-23T16:27:19Z</time>
      </trkpt>
      <trkpt lat="45.6818" lon="5.67763">
        <ele>241</ele>
        <time>2017-04-23T16:27:19Z</time>
      </trkpt>
      <trkpt lat="45.68181" lon="5.67754">
        <ele>241</ele>
        <time>2017-04-23T16:27:19Z</time>
      </trkpt>
      <trkpt lat="45.68184" lon="5.67747">
        <ele>241</ele>
        <time>2017-04-23T16:27:35Z</time>
      </trkpt>
      <trkpt lat="45.6819" lon="5.67747">
        <ele>241</ele>
        <time>2017-04-23T16:27:35Z</time>
      </trkpt>
      <trkpt lat="45.68196" lon="5.67747">
        <ele>241</ele>
        <time>2017-04-23T16:27:35Z</time>
      </trkpt>
      <trkpt lat="45.68203" lon="5.67748">
        <ele>241</ele>
        <time>2017-04-23T16:27:35Z</time>
      </trkpt>
      <trkpt lat="45.68208" lon="5.67748">
        <ele>241</ele>
        <time>2017-04-23T16:27:51Z</time>
      </trkpt>
      <trkpt lat="45.68213" lon="5.67748">
        <ele>242</ele>
        <time>2017-04-23T16:27:51Z</time>
      </trkpt>
      <trkpt lat="45.68219" lon="5.67748">
        <ele>242</ele>
        <time>2017-04-23T16:27:51Z</time>
      </trkpt>
      <trkpt lat="45.68226" lon="5.67748">
        <ele>242</ele>
        <time>2017-04-23T16:27:51Z</time>
      </trkpt>
      <trkpt lat="45.68233" lon="5.67748">
        <ele>242</ele>
        <time>2017-04-23T16:28:07Z</time>
      </trkpt>
      <trkpt lat="45.68239" lon="5.67747">
        <ele>242</ele>
        <time>2017-04-23T16:28:07Z</time>
      </trkpt>
      <trkpt lat="45.68245" lon="5.67746">
        <ele>242</ele>
        <time>2017-04-23T16:28:07Z</time>
      </trkpt>
      <trkpt lat="45.68251" lon="5.67746">
        <ele>242</ele>
        <time>2017-04-23T16:28:07Z</time>
      </trkpt>
      <trkpt lat="45.68257" lon="5.67745">
        <ele>242</ele>
        <time>2017-04-23T16:28:23Z</time>
      </trkpt>
      <trkpt lat="45.68262" lon="5.67745">
        <ele>242</ele>
        <time>2017-04-23T16:28:23Z</time>
      </trkpt>
      <trkpt lat="45.68268" lon="5.67743">
        <ele>242</ele>
        <time>2017-04-23T16:28:23Z</time>
      </trkpt>
      <trkpt lat="45.68274" lon="5.67744">
        <ele>242</ele>
        <time>2017-04-23T16:28:23Z</time>
      </trkpt>
      <trkpt lat="45.6828" lon="5.67744">
        <ele>242</ele>
        <time>2017-04-23T16:28:39Z</time>
      </trkpt>
      <trkpt lat="45.68287" lon="5.67743">
        <ele>242</ele>
        <time>2017-04-23T16:28:39Z</time>
      </trkpt>
      <trkpt lat="45.68296" lon="5.67741">
        <ele>243</ele>
        <time>2017-04-23T16:28:39Z</time>
      </trkpt>
      <trkpt lat="45.68304" lon="5.67739">
        <ele>243</ele>
        <time>2017-04-23T16:28:39Z</time>
      </trkpt>
      <trkpt lat="45.68308" lon="5.67738">
        <ele>243</ele>
        <time>2017-04-23T16:28:55Z</time>
      </trkpt>
      <trkpt lat="45.68314" lon="5.67737">
        <ele>243</ele>
        <time>2017-04-23T16:28:55Z</time>
      </trkpt>
      <trkpt lat="45.6832" lon="5.67736">
        <ele>243</ele>
        <time>2017-04-23T16:28:55Z</time>
      </trkpt>
      <trkpt lat="45.68325" lon="5.67733">
        <ele>243</ele>
        <time>2017-04-23T16:28:55Z</time>
      </trkpt>
      <trkpt lat="45.68331" lon="5.67733">
        <ele>243</ele>
        <time>2017-04-23T16:29:11Z</time>
      </trkpt>
      <trkpt lat="45.68338" lon="5.67734">
        <ele>243</ele>
        <time>2017-04-23T16:29:11Z</time>
      </trkpt>
      <trkpt lat="45.68344" lon="5.67733">
        <ele>243</ele>
        <time>2017-04-23T16:29:11Z</time>
      </trkpt>
      <trkpt lat="45.68351" lon="5.67731">
        <ele>243</ele>
        <time>2017-04-23T16:29:11Z</time>
      </trkpt>
      <trkpt lat="45.68357" lon="5.67729">
        <ele>243</ele>
        <time>2017-04-23T16:29:27Z</time>
      </trkpt>
      <trkpt lat="45.68363" lon="5.67729">
        <ele>243</ele>
        <time>2017-04-23T16:29:27Z</time>
      </trkpt>
      <trkpt lat="45.68368" lon="5.67728">
        <ele>243</ele>
        <time>2017-04-23T16:29:27Z</time>
      </trkpt>
      <trkpt lat="45.68373" lon="5.67727">
        <ele>243</ele>
        <time>2017-04-23T16:29:27Z</time>
      </trkpt>
      <trkpt lat="45.6838" lon="5.67726">
        <ele>242</ele>
        <time>2017-04-23T16:29:43Z</time>
      </trkpt>
      <trkpt lat="45.68387" lon="5.67727">
        <ele>242</ele>
        <time>2017-04-23T16:29:43Z</time>
      </trkpt>
      <trkpt lat="45.68393" lon="5.67728">
        <ele>242</ele>
        <time>2017-04-23T16:29:43Z</time>
      </trkpt>
      <trkpt lat="45.684" lon="5.67727">
        <ele>242</ele>
        <time>2017-04-23T16:29:43Z</time>
      </trkpt>
      <trkpt lat="45.68405" lon="5.67727">
        <ele>242</ele>
        <time>2017-04-23T16:29:59Z</time>
      </trkpt>
      <trkpt lat="45.68411" lon="5.67726">
        <ele>242</ele>
        <time>2017-04-23T16:29:59Z</time>
      </trkpt>
      <trkpt lat="45.68416" lon="5.67725">
        <ele>242</ele>
        <time>2017-04-23T16:29:59Z</time>
      </trkpt>
      <trkpt lat="45.68421" lon="5.67724">
        <ele>242</ele>
        <time>2017-04-23T16:29:59Z</time>
      </trkpt>
      <trkpt lat="45.68427" lon="5.67724">
        <ele>242</ele>
        <time>2017-04-23T16:30:15Z</time>
      </trkpt>
      <trkpt lat="45.68433" lon="5.67724">
        <ele>242</ele>
        <time>2017-04-23T16:30:15Z</time>
      </trkpt>
      <trkpt lat="45.6844" lon="5.67724">
        <ele>242</ele>
        <time>2017-04-23T16:30:15Z</time>
      </trkpt>
      <trkpt lat="45.68446" lon="5.67724">
        <ele>242</ele>
        <time>2017-04-23T16:30:15Z</time>
      </trkpt>
      <trkpt lat="45.68452" lon="5.67723">
        <ele>242</ele>
        <time>2017-04-23T16:30:31Z</time>
      </trkpt>
      <trkpt lat="45.68457" lon="5.67722">
        <ele>242</ele>
        <time>2017-04-23T16:30:31Z</time>
      </trkpt>
      <trkpt lat="45.68463" lon="5.67721">
        <ele>242</ele>
        <time>2017-04-23T16:30:31Z</time>
      </trkpt>
      <trkpt lat="45.68468" lon="5.6772">
        <ele>242</ele>
        <time>2017-04-23T16:30:31Z</time>
      </trkpt>
      <trkpt lat="45.68474" lon="5.67718">
        <ele>242</ele>
        <time>2017-04-23T16:30:47Z</time>
      </trkpt>
      <trkpt lat="45.68479" lon="5.67716">
        <ele>242</ele>
        <time>2017-04-23T16:30:47Z</time>
      </trkpt>
      <trkpt lat="45.68485" lon="5.67715">
        <ele>242</ele>
        <time>2017-04-23T16:30:47Z</time>
      </trkpt>
      <trkpt lat="45.68491" lon="5.67714">
        <ele>242</ele>
        <time>2017-04-23T16:30:47Z</time>
      </trkpt>
      <trkpt lat="45.68497" lon="5.67712">
        <ele>242</ele>
        <time>2017-04-23T16:31:03Z</time>
      </trkpt>
      <trkpt lat="45.68502" lon="5.67709">
        <ele>242</ele>
        <time>2017-04-23T16:31:03Z</time>
      </trkpt>
      <trkpt lat="45.68508" lon="5.67708">
        <ele>242</ele>
        <time>2017-04-23T16:31:03Z</time>
      </trkpt>
      <trkpt lat="45.68515" lon="5.67707">
        <ele>243</ele>
        <time>2017-04-23T16:31:03Z</time>
      </trkpt>
      <trkpt lat="45.68521" lon="5.67707">
        <ele>243</ele>
        <time>2017-04-23T16:31:19Z</time>
      </trkpt>
      <trkpt lat="45.68527" lon="5.67706">
        <ele>243</ele>
        <time>2017-04-23T16:31:19Z</time>
      </trkpt>
      <trkpt lat="45.68533" lon="5.67704">
        <ele>243</ele>
        <time>2017-04-23T16:31:19Z</time>
      </trkpt>
      <trkpt lat="45.6854" lon="5.67703">
        <ele>243</ele>
        <time>2017-04-23T16:31:19Z</time>
      </trkpt>
      <trkpt lat="45.68546" lon="5.67702">
        <ele>242</ele>
        <time>2017-04-23T16:31:35Z</time>
      </trkpt>
      <trkpt lat="45.68552" lon="5.677">
        <ele>242</ele>
        <time>2017-04-23T16:31:35Z</time>
      </trkpt>
      <trkpt lat="45.68559" lon="5.67698">
        <ele>242</ele>
        <time>2017-04-23T16:31:35Z</time>
      </trkpt>
      <trkpt lat="45.68565" lon="5.67697">
        <ele>242</ele>
        <time>2017-04-23T16:31:35Z</time>
      </trkpt>
      <trkpt lat="45.68571" lon="5.67696">
        <ele>242</ele>
        <time>2017-04-23T16:31:51Z</time>
      </trkpt>
      <trkpt lat="45.68575" lon="5.67696">
        <ele>242</ele>
        <time>2017-04-23T16:31:51Z</time>
      </trkpt>
      <trkpt lat="45.6858" lon="5.67695">
        <ele>242</ele>
        <time>2017-04-23T16:31:51Z</time>
      </trkpt>
      <trkpt lat="45.68586" lon="5.67693">
        <ele>242</ele>
        <time>2017-04-23T16:31:51Z</time>
      </trkpt>
      <trkpt lat="45.68592" lon="5.67692">
        <ele>242</ele>
        <time>2017-04-23T16:32:07Z</time>
      </trkpt>
      <trkpt lat="45.68598" lon="5.67691">
        <ele>242</ele>
        <time>2017-04-23T16:32:07Z</time>
      </trkpt>
      <trkpt lat="45.68604" lon="5.67691">
        <ele>242</ele>
        <time>2017-04-23T16:32:07Z</time>
      </trkpt>
      <trkpt lat="45.68611" lon="5.6769">
        <ele>242</ele>
        <time>2017-04-23T16:32:07Z</time>
      </trkpt>
      <trkpt lat="45.68617" lon="5.67689">
        <ele>242</ele>
        <time>2017-04-23T16:32:23Z</time>
      </trkpt>
      <trkpt lat="45.68624" lon="5.67688">
        <ele>242</ele>
        <time>2017-04-23T16:32:23Z</time>
      </trkpt>
      <trkpt lat="45.68629" lon="5.67685">
        <ele>241</ele>
        <time>2017-04-23T16:32:23Z</time>
      </trkpt>
      <trkpt lat="45.68635" lon="5.67685">
        <ele>241</ele>
        <time>2017-04-23T16:32:23Z</time>
      </trkpt>
      <trkpt lat="45.6864" lon="5.67685">
        <ele>241</ele>
        <time>2017-04-23T16:32:39Z</time>
      </trkpt>
      <trkpt lat="45.68646" lon="5.67685">
        <ele>241</ele>
        <time>2017-04-23T16:32:39Z</time>
      </trkpt>
      <trkpt lat="45.68651" lon="5.67686">
        <ele>241</ele>
        <time>2017-04-23T16:32:39Z</time>
      </trkpt>
      <trkpt lat="45.68657" lon="5.67687">
        <ele>241</ele>
        <time>2017-04-23T16:32:39Z</time>
      </trkpt>
      <trkpt lat="45.68663" lon="5.67686">
        <ele>241</ele>
        <time>2017-04-23T16:32:55Z</time>
      </trkpt>
      <trkpt lat="45.68669" lon="5.67686">
        <ele>241</ele>
        <time>2017-04-23T16:32:55Z</time>
      </trkpt>
      <trkpt lat="45.68675" lon="5.67687">
        <ele>241</ele>
        <time>2017-04-23T16:32:55Z</time>
      </trkpt>
      <trkpt lat="45.68682" lon="5.67687">
        <ele>241</ele>
        <time>2017-04-23T16:32:55Z</time>
      </trkpt>
      <trkpt lat="45.68689" lon="5.67687">
        <ele>241</ele>
        <time>2017-04-23T16:33:11Z</time>
      </trkpt>
      <trkpt lat="45.68695" lon="5.67687">
        <ele>241</ele>
        <time>2017-04-23T16:33:11Z</time>
      </trkpt>
      <trkpt lat="45.68702" lon="5.67687">
        <ele>241</ele>
        <time>2017-04-23T16:33:11Z</time>
      </trkpt>
      <trkpt lat="45.68708" lon="5.67685">
        <ele>239</ele>
        <time>2017-04-23T16:33:11Z</time>
      </trkpt>
      <trkpt lat="45.68715" lon="5.67684">
        <ele>239</ele>
        <time>2017-04-23T16:33:27Z</time>
      </trkpt>
      <trkpt lat="45.68722" lon="5.67683">
        <ele>239</ele>
        <time>2017-04-23T16:33:27Z</time>
      </trkpt>
      <trkpt lat="45.68728" lon="5.67682">
        <ele>239</ele>
        <time>2017-04-23T16:33:27Z</time>
      </trkpt>
      <trkpt lat="45.68737" lon="5.67681">
        <ele>239</ele>
        <time>2017-04-23T16:33:27Z</time>
      </trkpt>
      <trkpt lat="45.68744" lon="5.6768">
        <ele>239</ele>
        <time>2017-04-23T16:33:43Z</time>
      </trkpt>
      <trkpt lat="45.6875" lon="5.67681">
        <ele>239</ele>
        <time>2017-04-23T16:33:43Z</time>
      </trkpt>
      <trkpt lat="45.68755" lon="5.67681">
        <ele>239</ele>
        <time>2017-04-23T16:33:43Z</time>
      </trkpt>
      <trkpt lat="45.6876" lon="5.67681">
        <ele>239</ele>
        <time>2017-04-23T16:33:43Z</time>
      </trkpt>
      <trkpt lat="45.68765" lon="5.67681">
        <ele>239</ele>
        <time>2017-04-23T16:33:59Z</time>
      </trkpt>
      <trkpt lat="45.68771" lon="5.67682">
        <ele>239</ele>
        <time>2017-04-23T16:33:59Z</time>
      </trkpt>
      <trkpt lat="45.68776" lon="5.67684">
        <ele>239</ele>
        <time>2017-04-23T16:33:59Z</time>
      </trkpt>
      <trkpt lat="45.68781" lon="5.67685">
        <ele>239</ele>
        <time>2017-04-23T16:33:59Z</time>
      </trkpt>
      <trkpt lat="45.68786" lon="5.67686">
        <ele>239</ele>
        <time>2017-04-23T16:34:15Z</time>
      </trkpt>
      <trkpt lat="45.68791" lon="5.67687">
        <ele>239</ele>
        <time>2017-04-23T16:34:15Z</time>
      </trkpt>
      <trkpt lat="45.68795" lon="5.67689">
        <ele>241</ele>
        <time>2017-04-23T16:34:15Z</time>
      </trkpt>
      <trkpt lat="45.68801" lon="5.6769">
        <ele>241</ele>
        <time>2017-04-23T16:34:15Z</time>
      </trkpt>
      <trkpt lat="45.68805" lon="5.67689">
        <ele>241</ele>
        <time>2017-04-23T16:34:31Z</time>
      </trkpt>
      <trkpt lat="45.6881" lon="5.67691">
        <ele>241</ele>
        <time>2017-04-23T16:34:31Z</time>
      </trkpt>
      <trkpt lat="45.68817" lon="5.67694">
        <ele>241</ele>
        <time>2017-04-23T16:34:31Z</time>
      </trkpt>
      <trkpt lat="45.68824" lon="5.67697">
        <ele>241</ele>
        <time>2017-04-23T16:34:31Z</time>
      </trkpt>
      <trkpt lat="45.6883" lon="5.67698">
        <ele>241</ele>
        <time>2017-04-23T16:34:47Z</time>
      </trkpt>
      <trkpt lat="45.68836" lon="5.67698">
        <ele>241</ele>
        <time>2017-04-23T16:34:47Z</time>
      </trkpt>
      <trkpt lat="45.68843" lon="5.67699">
        <ele>241</ele>
        <time>2017-04-23T16:34:47Z</time>
      </trkpt>
      <trkpt lat="45.68845" lon="5.677">
        <ele>241</ele>
        <time>2017-04-23T16:34:47Z</time>
      </trkpt>
      <trkpt lat="45.68848" lon="5.677">
        <ele>241</ele>
        <time>2017-04-23T16:35:03Z</time>
      </trkpt>
      <trkpt lat="45.68855" lon="5.677">
        <ele>241</ele>
        <time>2017-04-23T16:35:03Z</time>
      </trkpt>
      <trkpt lat="45.68861" lon="5.67701">
        <ele>241</ele>
        <time>2017-04-23T16:35:03Z</time>
      </trkpt>
      <trkpt lat="45.68868" lon="5.67701">
        <ele>241</ele>
        <time>2017-04-23T16:35:03Z</time>
      </trkpt>
      <trkpt lat="45.68874" lon="5.67701">
        <ele>241</ele>
        <time>2017-04-23T16:35:19Z</time>
      </trkpt>
      <trkpt lat="45.6888" lon="5.67702">
        <ele>241</ele>
        <time>2017-04-23T16:35:19Z</time>
      </trkpt>
      <trkpt lat="45.68886" lon="5.67702">
        <ele>241</ele>
        <time>2017-04-23T16:35:19Z</time>
      </trkpt>
      <trkpt lat="45.68891" lon="5.67702">
        <ele>241</ele>
        <time>2017-04-23T16:35:19Z</time>
      </trkpt>
      <trkpt lat="45.68896" lon="5.67702">
        <ele>241</ele>
        <time>2017-04-23T16:35:35Z</time>
      </trkpt>
      <trkpt lat="45.68902" lon="5.67701">
        <ele>241</ele>
        <time>2017-04-23T16:35:35Z</time>
      </trkpt>
      <trkpt lat="45.68907" lon="5.67701">
        <ele>241</ele>
        <time>2017-04-23T16:35:35Z</time>
      </trkpt>
      <trkpt lat="45.68912" lon="5.67703">
        <ele>241</ele>
        <time>2017-04-23T16:35:35Z</time>
      </trkpt>
      <trkpt lat="45.68917" lon="5.67703">
        <ele>241</ele>
        <time>2017-04-23T16:35:51Z</time>
      </trkpt>
      <trkpt lat="45.68923" lon="5.67704">
        <ele>241</ele>
        <time>2017-04-23T16:35:51Z</time>
      </trkpt>
      <trkpt lat="45.68928" lon="5.67706">
        <ele>241</ele>
        <time>2017-04-23T16:35:51Z</time>
      </trkpt>
      <trkpt lat="45.68934" lon="5.67705">
        <ele>241</ele>
        <time>2017-04-23T16:35:51Z</time>
      </trkpt>
      <trkpt lat="45.6894" lon="5.67707">
        <ele>241</ele>
        <time>2017-04-23T16:36:07Z</time>
      </trkpt>
      <trkpt lat="45.68945" lon="5.67712">
        <ele>237</ele>
        <time>2017-04-23T16:36:07Z</time>
      </trkpt>
      <trkpt lat="45.68951" lon="5.67715">
        <ele>237</ele>
        <time>2017-04-23T16:36:07Z</time>
      </trkpt>
      <trkpt lat="45.68956" lon="5.67719">
        <ele>237</ele>
        <time>2017-04-23T16:36:07Z</time>
      </trkpt>
      <trkpt lat="45.68961" lon="5.67723">
        <ele>234</ele>
        <time>2017-04-23T16:36:23Z</time>
      </trkpt>
      <trkpt lat="45.68966" lon="5.67727">
        <ele>234</ele>
        <time>2017-04-23T16:36:23Z</time>
      </trkpt>
      <trkpt lat="45.6897" lon="5.67732">
        <ele>234</ele>
        <time>2017-04-23T16:36:23Z</time>
      </trkpt>
      <trkpt lat="45.68973" lon="5.67735">
        <ele>234</ele>
        <time>2017-04-23T16:36:23Z</time>
      </trkpt>
      <trkpt lat="45.68979" lon="5.67738">
        <ele>234</ele>
        <time>2017-04-23T16:36:39Z</time>
      </trkpt>
      <trkpt lat="45.68986" lon="5.67741">
        <ele>234</ele>
        <time>2017-04-23T16:36:39Z</time>
      </trkpt>
      <trkpt lat="45.68991" lon="5.67745">
        <ele>234</ele>
        <time>2017-04-23T16:36:39Z</time>
      </trkpt>
      <trkpt lat="45.68997" lon="5.6775">
        <ele>234</ele>
        <time>2017-04-23T16:36:39Z</time>
      </trkpt>
      <trkpt lat="45.69002" lon="5.67753">
        <ele>234</ele>
        <time>2017-04-23T16:36:55Z</time>
      </trkpt>
      <trkpt lat="45.69007" lon="5.67757">
        <ele>234</ele>
        <time>2017-04-23T16:36:55Z</time>
      </trkpt>
      <trkpt lat="45.69012" lon="5.67761">
        <ele>234</ele>
        <time>2017-04-23T16:36:55Z</time>
      </trkpt>
      <trkpt lat="45.69017" lon="5.67764">
        <ele>234</ele>
        <time>2017-04-23T16:36:55Z</time>
      </trkpt>
      <trkpt lat="45.69022" lon="5.67768">
        <ele>234</ele>
        <time>2017-04-23T16:37:11Z</time>
      </trkpt>
      <trkpt lat="45.69027" lon="5.67773">
        <ele>234</ele>
        <time>2017-04-23T16:37:11Z</time>
      </trkpt>
      <trkpt lat="45.69032" lon="5.67777">
        <ele>234</ele>
        <time>2017-04-23T16:37:11Z</time>
      </trkpt>
      <trkpt lat="45.69037" lon="5.6778">
        <ele>234</ele>
        <time>2017-04-23T16:37:11Z</time>
      </trkpt>
      <trkpt lat="45.69042" lon="5.67784">
        <ele>231</ele>
        <time>2017-04-23T16:37:27Z</time>
      </trkpt>
      <trkpt lat="45.69048" lon="5.67789">
        <ele>231</ele>
        <time>2017-04-23T16:37:27Z</time>
      </trkpt>
      <trkpt lat="45.69054" lon="5.67793">
        <ele>231</ele>
        <time>2017-04-23T16:37:27Z</time>
      </trkpt>
      <trkpt lat="45.69058" lon="5.67798">
        <ele>231</ele>
        <time>2017-04-23T16:37:27Z</time>
      </trkpt>
      <trkpt lat="45.69064" lon="5.67802">
        <ele>231</ele>
        <time>2017-04-23T16:37:43Z</time>
      </trkpt>
      <trkpt lat="45.69068" lon="5.67806">
        <ele>231</ele>
        <time>2017-04-23T16:37:43Z</time>
      </trkpt>
      <trkpt lat="45.69073" lon="5.67807">
        <ele>231</ele>
        <time>2017-04-23T16:37:43Z</time>
      </trkpt>
      <trkpt lat="45.6908" lon="5.67804">
        <ele>231</ele>
        <time>2017-04-23T16:37:43Z</time>
      </trkpt>
      <trkpt lat="45.69087" lon="5.678">
        <ele>231</ele>
        <time>2017-04-23T16:37:59Z</time>
      </trkpt>
      <trkpt lat="45.69093" lon="5.67798">
        <ele>231</ele>
        <time>2017-04-23T16:37:59Z</time>
      </trkpt>
      <trkpt lat="45.691" lon="5.67794">
        <ele>231</ele>
        <time>2017-04-23T16:37:59Z</time>
      </trkpt>
      <trkpt lat="45.69106" lon="5.67791">
        <ele>231</ele>
        <time>2017-04-23T16:37:59Z</time>
      </trkpt>
      <trkpt lat="45.6911" lon="5.67789">
        <ele>231</ele>
        <time>2017-04-23T16:38:15Z</time>
      </trkpt>
      <trkpt lat="45.69117" lon="5.67784">
        <ele>231</ele>
        <time>2017-04-23T16:38:15Z</time>
      </trkpt>
      <trkpt lat="45.69124" lon="5.67778">
        <ele>231</ele>
        <time>2017-04-23T16:38:15Z</time>
      </trkpt>
      <trkpt lat="45.69129" lon="5.67775">
        <ele>229</ele>
        <time>2017-04-23T16:38:15Z</time>
      </trkpt>
      <trkpt lat="45.69135" lon="5.67773">
        <ele>229</ele>
        <time>2017-04-23T16:38:31Z</time>
      </trkpt>
      <trkpt lat="45.69141" lon="5.67769">
        <ele>229</ele>
        <time>2017-04-23T16:38:31Z</time>
      </trkpt>
      <trkpt lat="45.69147" lon="5.67767">
        <ele>229</ele>
        <time>2017-04-23T16:38:31Z</time>
      </trkpt>
      <trkpt lat="45.69153" lon="5.67763">
        <ele>229</ele>
        <time>2017-04-23T16:38:31Z</time>
      </trkpt>
      <trkpt lat="45.69159" lon="5.67761">
        <ele>229</ele>
        <time>2017-04-23T16:38:47Z</time>
      </trkpt>
      <trkpt lat="45.69165" lon="5.67758">
        <ele>229</ele>
        <time>2017-04-23T16:38:47Z</time>
      </trkpt>
      <trkpt lat="45.69172" lon="5.67755">
        <ele>229</ele>
        <time>2017-04-23T16:38:47Z</time>
      </trkpt>
      <trkpt lat="45.69177" lon="5.67752">
        <ele>229</ele>
        <time>2017-04-23T16:38:47Z</time>
      </trkpt>
      <trkpt lat="45.69183" lon="5.6775">
        <ele>229</ele>
        <time>2017-04-23T16:39:03Z</time>
      </trkpt>
      <trkpt lat="45.69189" lon="5.67748">
        <ele>229</ele>
        <time>2017-04-23T16:39:03Z</time>
      </trkpt>
      <trkpt lat="45.69195" lon="5.67747">
        <ele>229</ele>
        <time>2017-04-23T16:39:03Z</time>
      </trkpt>
      <trkpt lat="45.69201" lon="5.67748">
        <ele>229</ele>
        <time>2017-04-23T16:39:03Z</time>
      </trkpt>
      <trkpt lat="45.69208" lon="5.6775">
        <ele>229</ele>
        <time>2017-04-23T16:39:19Z</time>
      </trkpt>
      <trkpt lat="45.69215" lon="5.67753">
        <ele>224</ele>
        <time>2017-04-23T16:39:19Z</time>
      </trkpt>
      <trkpt lat="45.69221" lon="5.67757">
        <ele>224</ele>
        <time>2017-04-23T16:39:19Z</time>
      </trkpt>
      <trkpt lat="45.69228" lon="5.67761">
        <ele>224</ele>
        <time>2017-04-23T16:39:19Z</time>
      </trkpt>
      <trkpt lat="45.69234" lon="5.67765">
        <ele>224</ele>
        <time>2017-04-23T16:39:35Z</time>
      </trkpt>
      <trkpt lat="45.69241" lon="5.67768">
        <ele>224</ele>
        <time>2017-04-23T16:39:35Z</time>
      </trkpt>
      <trkpt lat="45.69248" lon="5.67772">
        <ele>224</ele>
        <time>2017-04-23T16:39:35Z</time>
      </trkpt>
      <trkpt lat="45.69254" lon="5.67777">
        <ele>224</ele>
        <time>2017-04-23T16:39:35Z</time>
      </trkpt>
      <trkpt lat="45.69259" lon="5.67783">
        <ele>224</ele>
        <time>2017-04-23T16:39:51Z</time>
      </trkpt>
      <trkpt lat="45.69263" lon="5.6779">
        <ele>224</ele>
        <time>2017-04-23T16:39:51Z</time>
      </trkpt>
      <trkpt lat="45.69266" lon="5.67798">
        <ele>223</ele>
        <time>2017-04-23T16:39:51Z</time>
      </trkpt>
      <trkpt lat="45.6927" lon="5.67807">
        <ele>223</ele>
        <time>2017-04-23T16:39:51Z</time>
      </trkpt>
      <trkpt lat="45.69272" lon="5.67816">
        <ele>223</ele>
        <time>2017-04-23T16:40:07Z</time>
      </trkpt>
      <trkpt lat="45.69273" lon="5.67825">
        <ele>223</ele>
        <time>2017-04-23T16:40:07Z</time>
      </trkpt>
      <trkpt lat="45.69274" lon="5.67834">
        <ele>223</ele>
        <time>2017-04-23T16:40:07Z</time>
      </trkpt>
      <trkpt lat="45.69276" lon="5.67842">
        <ele>223</ele>
        <time>2017-04-23T16:40:07Z</time>
      </trkpt>
      <trkpt lat="45.69279" lon="5.67851">
        <ele>223</ele>
        <time>2017-04-23T16:40:23Z</time>
      </trkpt>
      <trkpt lat="45.69287" lon="5.67858">
        <ele>223</ele>
        <time>2017-04-23T16:40:23Z</time>
      </trkpt>
      <trkpt lat="45.69295" lon="5.67861">
        <ele>222</ele>
        <time>2017-04-23T16:40:23Z</time>
      </trkpt>
      <trkpt lat="45.69306" lon="5.67863">
        <ele>222</ele>
        <time>2017-04-23T16:40:23Z</time>
      </trkpt>
      <trkpt lat="45.69331" lon="5.67865">
        <ele>222</ele>
        <time>2017-04-23T16:40:39Z</time>
      </trkpt>
      <trkpt lat="45.69351" lon="5.67874">
        <ele>222</ele>
        <time>2017-04-23T16:40:39Z</time>
      </trkpt>
      <trkpt lat="45.69372" lon="5.67873">
        <ele>222</ele>
        <time>2017-04-23T16:40:39Z</time>
      </trkpt>
      <trkpt lat="45.69396" lon="5.67874">
        <ele>221</ele>
        <time>2017-04-23T16:40:39Z</time>
      </trkpt>
      <trkpt lat="45.69414" lon="5.67872">
        <ele>221</ele>
        <time>2017-04-23T16:40:55Z</time>
      </trkpt>
      <trkpt lat="45.69441" lon="5.67868">
        <ele>221</ele>
        <time>2017-04-23T16:40:55Z</time>
      </trkpt>
      <trkpt lat="45.69452" lon="5.67868">
        <ele>221</ele>
        <time>2017-04-23T16:40:55Z</time>
      </trkpt>
      <trkpt lat="45.6947" lon="5.67869">
        <ele>220</ele>
        <time>2017-04-23T16:40:55Z</time>
      </trkpt>
      <trkpt lat="45.69488" lon="5.67869">
        <ele>220</ele>
        <time>2017-04-23T16:41:11Z</time>
      </trkpt>
      <trkpt lat="45.69502" lon="5.67867">
        <ele>220</ele>
        <time>2017-04-23T16:41:11Z</time>
      </trkpt>
      <trkpt lat="45.69524" lon="5.67869">
        <ele>220</ele>
        <time>2017-04-23T16:41:11Z</time>
      </trkpt>
      <trkpt lat="45.69546" lon="5.67867">
        <ele>220</ele>
        <time>2017-04-23T16:41:11Z</time>
      </trkpt>
      <trkpt lat="45.69562" lon="5.67862">
        <ele>220</ele>
        <time>2017-04-23T16:41:27Z</time>
      </trkpt>
      <trkpt lat="45.69571" lon="5.67859">
        <ele>220</ele>
        <time>2017-04-23T16:41:27Z</time>
      </trkpt>
      <trkpt lat="45.69581" lon="5.67859">
        <ele>220</ele>
        <time>2017-04-23T16:41:27Z</time>
      </trkpt>
      <trkpt lat="45.69587" lon="5.6786">
        <ele>220</ele>
        <time>2017-04-23T16:41:27Z</time>
      </trkpt>
      <trkpt lat="45.69592" lon="5.6786">
        <ele>220</ele>
        <time>2017-04-23T16:41:43Z</time>
      </trkpt>
      <trkpt lat="45.69598" lon="5.6786">
        <ele>220</ele>
        <time>2017-04-23T16:41:43Z</time>
      </trkpt>
      <trkpt lat="45.69606" lon="5.67856">
        <ele>220</ele>
        <time>2017-04-23T16:41:43Z</time>
      </trkpt>
      <trkpt lat="45.69613" lon="5.67854">
        <ele>220</ele>
        <time>2017-04-23T16:41:43Z</time>
      </trkpt>
      <trkpt lat="45.6962" lon="5.67852">
        <ele>220</ele>
        <time>2017-04-23T16:41:59Z</time>
      </trkpt>
      <trkpt lat="45.69627" lon="5.67853">
        <ele>223</ele>
        <time>2017-04-23T16:41:59Z</time>
      </trkpt>
      <trkpt lat="45.69633" lon="5.67853">
        <ele>223</ele>
        <time>2017-04-23T16:41:59Z</time>
      </trkpt>
      <trkpt lat="45.6964" lon="5.67851">
        <ele>223</ele>
        <time>2017-04-23T16:41:59Z</time>
      </trkpt>
      <trkpt lat="45.69646" lon="5.67849">
        <ele>223</ele>
        <time>2017-04-23T16:42:15Z</time>
      </trkpt>
      <trkpt lat="45.69655" lon="5.67848">
        <ele>223</ele>
        <time>2017-04-23T16:42:15Z</time>
      </trkpt>
      <trkpt lat="45.69662" lon="5.67848">
        <ele>223</ele>
        <time>2017-04-23T16:42:15Z</time>
      </trkpt>
      <trkpt lat="45.69666" lon="5.67848">
        <ele>223</ele>
        <time>2017-04-23T16:42:15Z</time>
      </trkpt>
      <trkpt lat="45.69673" lon="5.67848">
        <ele>223</ele>
        <time>2017-04-23T16:42:31Z</time>
      </trkpt>
      <trkpt lat="45.69678" lon="5.67847">
        <ele>223</ele>
        <time>2017-04-23T16:42:31Z</time>
      </trkpt>
      <trkpt lat="45.69682" lon="5.67844">
        <ele>223</ele>
        <time>2017-04-23T16:42:31Z</time>
      </trkpt>
      <trkpt lat="45.69684" lon="5.67839">
        <ele>223</ele>
        <time>2017-04-23T16:42:31Z</time>
      </trkpt>
      <trkpt lat="45.69684" lon="5.67832">
        <ele>223</ele>
        <time>2017-04-23T16:42:47Z</time>
      </trkpt>
      <trkpt lat="45.69682" lon="5.67826">
        <ele>223</ele>
        <time>2017-04-23T16:42:47Z</time>
      </trkpt>
      <trkpt lat="45.69679" lon="5.67822">
        <ele>223</ele>
        <time>2017-04-23T16:42:47Z</time>
      </trkpt>
      <trkpt lat="45.69677" lon="5.67813">
        <ele>223</ele>
        <time>2017-04-23T16:42:47Z</time>
      </trkpt>
      <trkpt lat="45.69678" lon="5.67804">
        <ele>223</ele>
        <time>2017-04-23T16:43:03Z</time>
      </trkpt>
      <trkpt lat="45.69675" lon="5.67794">
        <ele>223</ele>
        <time>2017-04-23T16:43:03Z</time>
      </trkpt>
      <trkpt lat="45.69675" lon="5.67787">
        <ele>222</ele>
        <time>2017-04-23T16:43:03Z</time>
      </trkpt>
      <trkpt lat="45.69673" lon="5.6778">
        <ele>222</ele>
        <time>2017-04-23T16:43:03Z</time>
      </trkpt>
      <trkpt lat="45.69672" lon="5.67772">
        <ele>222</ele>
        <time>2017-04-23T16:43:19Z</time>
      </trkpt>
      <trkpt lat="45.6967" lon="5.6776">
        <ele>222</ele>
        <time>2017-04-23T16:43:19Z</time>
      </trkpt>
      <trkpt lat="45.69667" lon="5.67746">
        <ele>222</ele>
        <time>2017-04-23T16:43:19Z</time>
      </trkpt>
      <trkpt lat="45.69666" lon="5.67738">
        <ele>222</ele>
        <time>2017-04-23T16:43:19Z</time>
      </trkpt>
      <trkpt lat="45.69666" lon="5.67733">
        <ele>222</ele>
        <time>2017-04-23T16:43:35Z</time>
      </trkpt>
      <trkpt lat="45.69665" lon="5.67726">
        <ele>222</ele>
        <time>2017-04-23T16:43:35Z</time>
      </trkpt>
      <trkpt lat="45.69666" lon="5.67716">
        <ele>222</ele>
        <time>2017-04-23T16:43:35Z</time>
      </trkpt>
      <trkpt lat="45.69666" lon="5.67707">
        <ele>222</ele>
        <time>2017-04-23T16:43:35Z</time>
      </trkpt>
      <trkpt lat="45.69666" lon="5.67698">
        <ele>222</ele>
        <time>2017-04-23T16:43:51Z</time>
      </trkpt>
      <trkpt lat="45.69665" lon="5.67688">
        <ele>222</ele>
        <time>2017-04-23T16:43:51Z</time>
      </trkpt>
      <trkpt lat="45.69664" lon="5.6768">
        <ele>222</ele>
        <time>2017-04-23T16:43:51Z</time>
      </trkpt>
      <trkpt lat="45.69662" lon="5.67671">
        <ele>222</ele>
        <time>2017-04-23T16:43:51Z</time>
      </trkpt>
      <trkpt lat="45.6966" lon="5.67664">
        <ele>222</ele>
        <time>2017-04-23T16:44:07Z</time>
      </trkpt>
      <trkpt lat="45.69659" lon="5.67653">
        <ele>222</ele>
        <time>2017-04-23T16:44:07Z</time>
      </trkpt>
      <trkpt lat="45.69659" lon="5.67648">
        <ele>222</ele>
        <time>2017-04-23T16:44:07Z</time>
      </trkpt>
      <trkpt lat="45.69659" lon="5.67647">
        <ele>222</ele>
        <time>2017-04-23T16:44:07Z</time>
      </trkpt>
      <trkpt lat="45.69659" lon="5.67647">
        <ele>222</ele>
        <time>2017-04-23T16:44:23Z</time>
      </trkpt>
      <trkpt lat="45.69659" lon="5.67642">
        <ele>222</ele>
        <time>2017-04-23T16:44:23Z</time>
      </trkpt>
      <trkpt lat="45.69655" lon="5.67636">
        <ele>222</ele>
        <time>2017-04-23T16:44:23Z</time>
      </trkpt>
      <trkpt lat="45.69652" lon="5.67631">
        <ele>222</ele>
        <time>2017-04-23T16:44:23Z</time>
      </trkpt>
      <trkpt lat="45.69647" lon="5.67628">
        <ele>222</ele>
        <time>2017-04-23T16:44:39Z</time>
      </trkpt>
      <trkpt lat="45.69642" lon="5.67623">
        <ele>222</ele>
        <time>2017-04-23T16:44:39Z</time>
      </trkpt>
      <trkpt lat="45.69639" lon="5.67616">
        <ele>222</ele>
        <time>2017-04-23T16:44:39Z</time>
      </trkpt>
      <trkpt lat="45.69637" lon="5.67608">
        <ele>222</ele>
        <time>2017-04-23T16:44:39Z</time>
      </trkpt>
      <trkpt lat="45.69634" lon="5.676">
        <ele>222</ele>
        <time>2017-04-23T16:44:55Z</time>
      </trkpt>
      <trkpt lat="45.69632" lon="5.67593">
        <ele>222</ele>
        <time>2017-04-23T16:44:55Z</time>
      </trkpt>
      <trkpt lat="45.69629" lon="5.67581">
        <ele>222</ele>
        <time>2017-04-23T16:44:55Z</time>
      </trkpt>
      <trkpt lat="45.69626" lon="5.67568">
        <ele>222</ele>
        <time>2017-04-23T16:44:55Z</time>
      </trkpt>
      <trkpt lat="45.69625" lon="5.67557">
        <ele>222</ele>
        <time>2017-04-23T16:45:11Z</time>
      </trkpt>
      <trkpt lat="45.69623" lon="5.67549">
        <ele>221</ele>
        <time>2017-04-23T16:45:11Z</time>
      </trkpt>
      <trkpt lat="45.69622" lon="5.67543">
        <ele>221</ele>
        <time>2017-04-23T16:45:11Z</time>
      </trkpt>
      <trkpt lat="45.69621" lon="5.67532">
        <ele>222</ele>
        <time>2017-04-23T16:45:11Z</time>
      </trkpt>
      <trkpt lat="45.6962" lon="5.67526">
        <ele>222</ele>
        <time>2017-04-23T16:45:27Z</time>
      </trkpt>
      <trkpt lat="45.6962" lon="5.67515">
        <ele>222</ele>
        <time>2017-04-23T16:45:27Z</time>
      </trkpt>
      <trkpt lat="45.6962" lon="5.67506">
        <ele>222</ele>
        <time>2017-04-23T16:45:27Z</time>
      </trkpt>
      <trkpt lat="45.6962" lon="5.67498">
        <ele>222</ele>
        <time>2017-04-23T16:45:27Z</time>
      </trkpt>
      <trkpt lat="45.69621" lon="5.67488">
        <ele>222</ele>
        <time>2017-04-23T16:45:43Z</time>
      </trkpt>
      <trkpt lat="45.69621" lon="5.67477">
        <ele>222</ele>
        <time>2017-04-23T16:45:43Z</time>
      </trkpt>
      <trkpt lat="45.69621" lon="5.67469">
        <ele>222</ele>
        <time>2017-04-23T16:45:43Z</time>
      </trkpt>
      <trkpt lat="45.69622" lon="5.67454">
        <ele>220</ele>
        <time>2017-04-23T16:45:43Z</time>
      </trkpt>
      <trkpt lat="45.69621" lon="5.67445">
        <ele>220</ele>
        <time>2017-04-23T16:45:59Z</time>
      </trkpt>
      <trkpt lat="45.6962" lon="5.67436">
        <ele>220</ele>
        <time>2017-04-23T16:45:59Z</time>
      </trkpt>
      <trkpt lat="45.6962" lon="5.67428">
        <ele>220</ele>
        <time>2017-04-23T16:45:59Z</time>
      </trkpt>
      <trkpt lat="45.69618" lon="5.6742">
        <ele>220</ele>
        <time>2017-04-23T16:45:59Z</time>
      </trkpt>
      <trkpt lat="45.69618" lon="5.67411">
        <ele>220</ele>
        <time>2017-04-23T16:46:15Z</time>
      </trkpt>
      <trkpt lat="45.69618" lon="5.67403">
        <ele>220</ele>
        <time>2017-04-23T16:46:15Z</time>
      </trkpt>
      <trkpt lat="45.69618" lon="5.67391">
        <ele>220</ele>
        <time>2017-04-23T16:46:15Z</time>
      </trkpt>
      <trkpt lat="45.69619" lon="5.67385">
        <ele>220</ele>
        <time>2017-04-23T16:46:15Z</time>
      </trkpt>
      <trkpt lat="45.69621" lon="5.67375">
        <ele>221</ele>
        <time>2017-04-23T16:46:31Z</time>
      </trkpt>
      <trkpt lat="45.69622" lon="5.67369">
        <ele>221</ele>
        <time>2017-04-23T16:46:31Z</time>
      </trkpt>
      <trkpt lat="45.69622" lon="5.67361">
        <ele>221</ele>
        <time>2017-04-23T16:46:31Z</time>
      </trkpt>
      <trkpt lat="45.69623" lon="5.67353">
        <ele>221</ele>
        <time>2017-04-23T16:46:31Z</time>
      </trkpt>
      <trkpt lat="45.69622" lon="5.67346">
        <ele>221</ele>
        <time>2017-04-23T16:46:47Z</time>
      </trkpt>
      <trkpt lat="45.69622" lon="5.67339">
        <ele>221</ele>
        <time>2017-04-23T16:46:47Z</time>
      </trkpt>
      <trkpt lat="45.69623" lon="5.6733">
        <ele>221</ele>
        <time>2017-04-23T16:46:47Z</time>
      </trkpt>
      <trkpt lat="45.69622" lon="5.67321">
        <ele>221</ele>
        <time>2017-04-23T16:46:47Z</time>
      </trkpt>
      <trkpt lat="45.69623" lon="5.67311">
        <ele>221</ele>
        <time>2017-04-23T16:47:03Z</time>
      </trkpt>
      <trkpt lat="45.69622" lon="5.67302">
        <ele>221</ele>
        <time>2017-04-23T16:47:03Z</time>
      </trkpt>
      <trkpt lat="45.69624" lon="5.67294">
        <ele>221</ele>
        <time>2017-04-23T16:47:03Z</time>
      </trkpt>
      <trkpt lat="45.69624" lon="5.67285">
        <ele>223</ele>
        <time>2017-04-23T16:47:03Z</time>
      </trkpt>
      <trkpt lat="45.69624" lon="5.67277">
        <ele>223</ele>
        <time>2017-04-23T16:47:19Z</time>
      </trkpt>
      <trkpt lat="45.69625" lon="5.67268">
        <ele>224</ele>
        <time>2017-04-23T16:47:19Z</time>
      </trkpt>
      <trkpt lat="45.69626" lon="5.6726">
        <ele>224</ele>
        <time>2017-04-23T16:47:19Z</time>
      </trkpt>
      <trkpt lat="45.69626" lon="5.67253">
        <ele>224</ele>
        <time>2017-04-23T16:47:19Z</time>
      </trkpt>
      <trkpt lat="45.69626" lon="5.67244">
        <ele>224</ele>
        <time>2017-04-23T16:47:35Z</time>
      </trkpt>
      <trkpt lat="45.69627" lon="5.67236">
        <ele>224</ele>
        <time>2017-04-23T16:47:35Z</time>
      </trkpt>
      <trkpt lat="45.69627" lon="5.67229">
        <ele>224</ele>
        <time>2017-04-23T16:47:35Z</time>
      </trkpt>
      <trkpt lat="45.69627" lon="5.67217">
        <ele>224</ele>
        <time>2017-04-23T16:47:35Z</time>
      </trkpt>
      <trkpt lat="45.69627" lon="5.67208">
        <ele>225</ele>
        <time>2017-04-23T16:47:51Z</time>
      </trkpt>
      <trkpt lat="45.69629" lon="5.67199">
        <ele>225</ele>
        <time>2017-04-23T16:47:51Z</time>
      </trkpt>
      <trkpt lat="45.6963" lon="5.67191">
        <ele>225</ele>
        <time>2017-04-23T16:47:51Z</time>
      </trkpt>
      <trkpt lat="45.69632" lon="5.67183">
        <ele>225</ele>
        <time>2017-04-23T16:47:51Z</time>
      </trkpt>
      <trkpt lat="45.69633" lon="5.67174">
        <ele>225</ele>
        <time>2017-04-23T16:48:07Z</time>
      </trkpt>
      <trkpt lat="45.69635" lon="5.67165">
        <ele>225</ele>
        <time>2017-04-23T16:48:07Z</time>
      </trkpt>
      <trkpt lat="45.69637" lon="5.67156">
        <ele>225</ele>
        <time>2017-04-23T16:48:07Z</time>
      </trkpt>
      <trkpt lat="45.69638" lon="5.6715">
        <ele>225</ele>
        <time>2017-04-23T16:48:07Z</time>
      </trkpt>
      <trkpt lat="45.6964" lon="5.67139">
        <ele>225</ele>
        <time>2017-04-23T16:48:23Z</time>
      </trkpt>
      <trkpt lat="45.69641" lon="5.67131">
        <ele>225</ele>
        <time>2017-04-23T16:48:23Z</time>
      </trkpt>
      <trkpt lat="45.69643" lon="5.67124">
        <ele>224</ele>
        <time>2017-04-23T16:48:23Z</time>
      </trkpt>
      <trkpt lat="45.69646" lon="5.67116">
        <ele>224</ele>
        <time>2017-04-23T16:48:23Z</time>
      </trkpt>
      <trkpt lat="45.69648" lon="5.6711">
        <ele>224</ele>
        <time>2017-04-23T16:48:39Z</time>
      </trkpt>
      <trkpt lat="45.6965" lon="5.67102">
        <ele>224</ele>
        <time>2017-04-23T16:48:39Z</time>
      </trkpt>
      <trkpt lat="45.69652" lon="5.67093">
        <ele>224</ele>
        <time>2017-04-23T16:48:39Z</time>
      </trkpt>
      <trkpt lat="45.69654" lon="5.67086">
        <ele>224</ele>
        <time>2017-04-23T16:48:39Z</time>
      </trkpt>
      <trkpt lat="45.69655" lon="5.67073">
        <ele>224</ele>
        <time>2017-04-23T16:48:55Z</time>
      </trkpt>
      <trkpt lat="45.69656" lon="5.67065">
        <ele>224</ele>
        <time>2017-04-23T16:48:55Z</time>
      </trkpt>
      <trkpt lat="45.69658" lon="5.67056">
        <ele>224</ele>
        <time>2017-04-23T16:48:55Z</time>
      </trkpt>
      <trkpt lat="45.6966" lon="5.67047">
        <ele>224</ele>
        <time>2017-04-23T16:48:55Z</time>
      </trkpt>
      <trkpt lat="45.69662" lon="5.67037">
        <ele>224</ele>
        <time>2017-04-23T16:49:11Z</time>
      </trkpt>
      <trkpt lat="45.69664" lon="5.67028">
        <ele>224</ele>
        <time>2017-04-23T16:49:11Z</time>
      </trkpt>
      <trkpt lat="45.69666" lon="5.67019">
        <ele>224</ele>
        <time>2017-04-23T16:49:11Z</time>
      </trkpt>
      <trkpt lat="45.69667" lon="5.67013">
        <ele>224</ele>
        <time>2017-04-23T16:49:11Z</time>
      </trkpt>
      <trkpt lat="45.6967" lon="5.67004">
        <ele>224</ele>
        <time>2017-04-23T16:49:27Z</time>
      </trkpt>
      <trkpt lat="45.69672" lon="5.66997">
        <ele>224</ele>
        <time>2017-04-23T16:49:27Z</time>
      </trkpt>
      <trkpt lat="45.69674" lon="5.66988">
        <ele>224</ele>
        <time>2017-04-23T16:49:27Z</time>
      </trkpt>
      <trkpt lat="45.69676" lon="5.6698">
        <ele>224</ele>
        <time>2017-04-23T16:49:27Z</time>
      </trkpt>
      <trkpt lat="45.69678" lon="5.66972">
        <ele>224</ele>
        <time>2017-04-23T16:49:43Z</time>
      </trkpt>
      <trkpt lat="45.6968" lon="5.66963">
        <ele>224</ele>
        <time>2017-04-23T16:49:43Z</time>
      </trkpt>
      <trkpt lat="45.69684" lon="5.66956">
        <ele>222</ele>
        <time>2017-04-23T16:49:43Z</time>
      </trkpt>
      <trkpt lat="45.69688" lon="5.66949">
        <ele>222</ele>
        <time>2017-04-23T16:49:43Z</time>
      </trkpt>
      <trkpt lat="45.69693" lon="5.66943">
        <ele>222</ele>
        <time>2017-04-23T16:49:59Z</time>
      </trkpt>
      <trkpt lat="45.697" lon="5.66941">
        <ele>222</ele>
        <time>2017-04-23T16:49:59Z</time>
      </trkpt>
      <trkpt lat="45.69706" lon="5.66943">
        <ele>222</ele>
        <time>2017-04-23T16:49:59Z</time>
      </trkpt>
      <trkpt lat="45.69713" lon="5.66948">
        <ele>223</ele>
        <time>2017-04-23T16:49:59Z</time>
      </trkpt>
      <trkpt lat="45.69718" lon="5.66949">
        <ele>223</ele>
        <time>2017-04-23T16:50:15Z</time>
      </trkpt>
      <trkpt lat="45.69726" lon="5.66953">
        <ele>223</ele>
        <time>2017-04-23T16:50:15Z</time>
      </trkpt>
      <trkpt lat="45.69734" lon="5.66957">
        <ele>223</ele>
        <time>2017-04-23T16:50:15Z</time>
      </trkpt>
      <trkpt lat="45.69742" lon="5.66961">
        <ele>224</ele>
        <time>2017-04-23T16:50:15Z</time>
      </trkpt>
      <trkpt lat="45.69748" lon="5.66963">
        <ele>224</ele>
        <time>2017-04-23T16:50:31Z</time>
      </trkpt>
      <trkpt lat="45.69753" lon="5.66964">
        <ele>224</ele>
        <time>2017-04-23T16:50:31Z</time>
      </trkpt>
      <trkpt lat="45.69759" lon="5.66966">
        <ele>224</ele>
        <time>2017-04-23T16:50:31Z</time>
      </trkpt>
      <trkpt lat="45.69766" lon="5.66967">
        <ele>224</ele>
        <time>2017-04-23T16:50:31Z</time>
      </trkpt>
      <trkpt lat="45.69772" lon="5.66969">
        <ele>224</ele>
        <time>2017-04-23T16:50:47Z</time>
      </trkpt>
      <trkpt lat="45.69776" lon="5.6697">
        <ele>224</ele>
        <time>2017-04-23T16:50:47Z</time>
      </trkpt>
      <trkpt lat="45.69783" lon="5.66972">
        <ele>224</ele>
        <time>2017-04-23T16:50:47Z</time>
      </trkpt>
      <trkpt lat="45.69789" lon="5.66974">
        <ele>224</ele>
        <time>2017-04-23T16:50:47Z</time>
      </trkpt>
      <trkpt lat="45.69795" lon="5.66977">
        <ele>226</ele>
        <time>2017-04-23T16:51:03Z</time>
      </trkpt>
      <trkpt lat="45.698" lon="5.66978">
        <ele>226</ele>
        <time>2017-04-23T16:51:03Z</time>
      </trkpt>
      <trkpt lat="45.69806" lon="5.66979">
        <ele>226</ele>
        <time>2017-04-23T16:51:03Z</time>
      </trkpt>
      <trkpt lat="45.69812" lon="5.6698">
        <ele>226</ele>
        <time>2017-04-23T16:51:03Z</time>
      </trkpt>
      <trkpt lat="45.69818" lon="5.66981">
        <ele>226</ele>
        <time>2017-04-23T16:51:19Z</time>
      </trkpt>
      <trkpt lat="45.69822" lon="5.66982">
        <ele>226</ele>
        <time>2017-04-23T16:51:19Z</time>
      </trkpt>
      <trkpt lat="45.69828" lon="5.66983">
        <ele>226</ele>
        <time>2017-04-23T16:51:19Z</time>
      </trkpt>
      <trkpt lat="45.69835" lon="5.66983">
        <ele>226</ele>
        <time>2017-04-23T16:51:19Z</time>
      </trkpt>
      <trkpt lat="45.69841" lon="5.66984">
        <ele>226</ele>
        <time>2017-04-23T16:51:35Z</time>
      </trkpt>
      <trkpt lat="45.69847" lon="5.66985">
        <ele>226</ele>
        <time>2017-04-23T16:51:35Z</time>
      </trkpt>
      <trkpt lat="45.69852" lon="5.66986">
        <ele>226</ele>
        <time>2017-04-23T16:51:35Z</time>
      </trkpt>
      <trkpt lat="45.6986" lon="5.66985">
        <ele>226</ele>
        <time>2017-04-23T16:51:35Z</time>
      </trkpt>
      <trkpt lat="45.69865" lon="5.66983">
        <ele>226</ele>
        <time>2017-04-23T16:51:51Z</time>
      </trkpt>
      <trkpt lat="45.6987" lon="5.66979">
        <ele>226</ele>
        <time>2017-04-23T16:51:51Z</time>
      </trkpt>
      <trkpt lat="45.69876" lon="5.66974">
        <ele>226</ele>
        <time>2017-04-23T16:51:51Z</time>
      </trkpt>
      <trkpt lat="45.6988" lon="5.66972">
        <ele>226</ele>
        <time>2017-04-23T16:51:51Z</time>
      </trkpt>
      <trkpt lat="45.69886" lon="5.66967">
        <ele>226</ele>
        <time>2017-04-23T16:52:07Z</time>
      </trkpt>
      <trkpt lat="45.69891" lon="5.66962">
        <ele>226</ele>
        <time>2017-04-23T16:52:07Z</time>
      </trkpt>
      <trkpt lat="45.69898" lon="5.66958">
        <ele>227</ele>
        <time>2017-04-23T16:52:07Z</time>
      </trkpt>
      <trkpt lat="45.69904" lon="5.66952">
        <ele>227</ele>
        <time>2017-04-23T16:52:07Z</time>
      </trkpt>
      <trkpt lat="45.69909" lon="5.66947">
        <ele>227</ele>
        <time>2017-04-23T16:52:23Z</time>
      </trkpt>
      <trkpt lat="45.69914" lon="5.66943">
        <ele>227</ele>
        <time>2017-04-23T16:52:23Z</time>
      </trkpt>
      <trkpt lat="45.69919" lon="5.66939">
        <ele>227</ele>
        <time>2017-04-23T16:52:23Z</time>
      </trkpt>
      <trkpt lat="45.69923" lon="5.66935">
        <ele>227</ele>
        <time>2017-04-23T16:52:23Z</time>
      </trkpt>
      <trkpt lat="45.69927" lon="5.66928">
        <ele>227</ele>
        <time>2017-04-23T16:52:39Z</time>
      </trkpt>
      <trkpt lat="45.69931" lon="5.66921">
        <ele>227</ele>
        <time>2017-04-23T16:52:39Z</time>
      </trkpt>
      <trkpt lat="45.69935" lon="5.66915">
        <ele>227</ele>
        <time>2017-04-23T16:52:39Z</time>
      </trkpt>
      <trkpt lat="45.69938" lon="5.66911">
        <ele>227</ele>
        <time>2017-04-23T16:52:39Z</time>
      </trkpt>
      <trkpt lat="45.69943" lon="5.66902">
        <ele>227</ele>
        <time>2017-04-23T16:52:55Z</time>
      </trkpt>
      <trkpt lat="45.69948" lon="5.66895">
        <ele>227</ele>
        <time>2017-04-23T16:52:55Z</time>
      </trkpt>
      <trkpt lat="45.69949" lon="5.66892">
        <ele>227</ele>
        <time>2017-04-23T16:52:55Z</time>
      </trkpt>
      <trkpt lat="45.69952" lon="5.66889">
        <ele>227</ele>
        <time>2017-04-23T16:52:55Z</time>
      </trkpt>
      <trkpt lat="45.69959" lon="5.6688">
        <ele>226</ele>
        <time>2017-04-23T16:53:11Z</time>
      </trkpt>
      <trkpt lat="45.69964" lon="5.66874">
        <ele>229</ele>
        <time>2017-04-23T16:53:11Z</time>
      </trkpt>
      <trkpt lat="45.69972" lon="5.66866">
        <ele>229</ele>
        <time>2017-04-23T16:53:11Z</time>
      </trkpt>
      <trkpt lat="45.69975" lon="5.66862">
        <ele>229</ele>
        <time>2017-04-23T16:53:11Z</time>
      </trkpt>
      <trkpt lat="45.69981" lon="5.66857">
        <ele>229</ele>
        <time>2017-04-23T16:53:27Z</time>
      </trkpt>
      <trkpt lat="45.69985" lon="5.66852">
        <ele>229</ele>
        <time>2017-04-23T16:53:27Z</time>
      </trkpt>
      <trkpt lat="45.6999" lon="5.66847">
        <ele>229</ele>
        <time>2017-04-23T16:53:27Z</time>
      </trkpt>
      <trkpt lat="45.69993" lon="5.66844">
        <ele>229</ele>
        <time>2017-04-23T16:53:27Z</time>
      </trkpt>
      <trkpt lat="45.69999" lon="5.66838">
        <ele>229</ele>
        <time>2017-04-23T16:53:43Z</time>
      </trkpt>
      <trkpt lat="45.70002" lon="5.66834">
        <ele>229</ele>
        <time>2017-04-23T16:53:43Z</time>
      </trkpt>
      <trkpt lat="45.70006" lon="5.66827">
        <ele>229</ele>
        <time>2017-04-23T16:53:43Z</time>
      </trkpt>
      <trkpt lat="45.70009" lon="5.66822">
        <ele>229</ele>
        <time>2017-04-23T16:53:43Z</time>
      </trkpt>
      <trkpt lat="45.70016" lon="5.66813">
        <ele>229</ele>
        <time>2017-04-23T16:53:59Z</time>
      </trkpt>
      <trkpt lat="45.7002" lon="5.66807">
        <ele>229</ele>
        <time>2017-04-23T16:53:59Z</time>
      </trkpt>
      <trkpt lat="45.70027" lon="5.668">
        <ele>229</ele>
        <time>2017-04-23T16:53:59Z</time>
      </trkpt>
      <trkpt lat="45.70031" lon="5.66794">
        <ele>229</ele>
        <time>2017-04-23T16:53:59Z</time>
      </trkpt>
      <trkpt lat="45.70036" lon="5.66788">
        <ele>228</ele>
        <time>2017-04-23T16:54:15Z</time>
      </trkpt>
      <trkpt lat="45.70039" lon="5.66783">
        <ele>228</ele>
        <time>2017-04-23T16:54:15Z</time>
      </trkpt>
      <trkpt lat="45.70045" lon="5.66776">
        <ele>230</ele>
        <time>2017-04-23T16:54:15Z</time>
      </trkpt>
      <trkpt lat="45.7005" lon="5.6677">
        <ele>230</ele>
        <time>2017-04-23T16:54:15Z</time>
      </trkpt>
      <trkpt lat="45.70055" lon="5.66764">
        <ele>230</ele>
        <time>2017-04-23T16:54:31Z</time>
      </trkpt>
      <trkpt lat="45.7006" lon="5.66758">
        <ele>230</ele>
        <time>2017-04-23T16:54:31Z</time>
      </trkpt>
      <trkpt lat="45.70064" lon="5.66751">
        <ele>230</ele>
        <time>2017-04-23T16:54:31Z</time>
      </trkpt>
      <trkpt lat="45.70069" lon="5.66746">
        <ele>230</ele>
        <time>2017-04-23T16:54:31Z</time>
      </trkpt>
      <trkpt lat="45.70073" lon="5.6674">
        <ele>230</ele>
        <time>2017-04-23T16:54:47Z</time>
      </trkpt>
      <trkpt lat="45.70078" lon="5.66735">
        <ele>230</ele>
        <time>2017-04-23T16:54:47Z</time>
      </trkpt>
      <trkpt lat="45.70083" lon="5.66731">
        <ele>230</ele>
        <time>2017-04-23T16:54:47Z</time>
      </trkpt>
      <trkpt lat="45.70088" lon="5.66726">
        <ele>230</ele>
        <time>2017-04-23T16:54:47Z</time>
      </trkpt>
      <trkpt lat="45.70093" lon="5.66723">
        <ele>230</ele>
        <time>2017-04-23T16:55:03Z</time>
      </trkpt>
      <trkpt lat="45.70098" lon="5.66719">
        <ele>230</ele>
        <time>2017-04-23T16:55:03Z</time>
      </trkpt>
      <trkpt lat="45.70103" lon="5.66715">
        <ele>230</ele>
        <time>2017-04-23T16:55:03Z</time>
      </trkpt>
      <trkpt lat="45.70106" lon="5.66711">
        <ele>230</ele>
        <time>2017-04-23T16:55:03Z</time>
      </trkpt>
      <trkpt lat="45.70103" lon="5.667">
        <ele>229</ele>
        <time>2017-04-23T16:55:19Z</time>
      </trkpt>
      <trkpt lat="45.701" lon="5.66694">
        <ele>229</ele>
        <time>2017-04-23T16:55:19Z</time>
      </trkpt>
      <trkpt lat="45.70095" lon="5.66683">
        <ele>229</ele>
        <time>2017-04-23T16:55:19Z</time>
      </trkpt>
      <trkpt lat="45.70092" lon="5.66675">
        <ele>229</ele>
        <time>2017-04-23T16:55:19Z</time>
      </trkpt>
      <trkpt lat="45.70087" lon="5.66666">
        <ele>229</ele>
        <time>2017-04-23T16:55:35Z</time>
      </trkpt>
      <trkpt lat="45.70082" lon="5.66657">
        <ele>229</ele>
        <time>2017-04-23T16:55:35Z</time>
      </trkpt>
      <trkpt lat="45.70077" lon="5.66648">
        <ele>229</ele>
        <time>2017-04-23T16:55:35Z</time>
      </trkpt>
      <trkpt lat="45.70071" lon="5.6664">
        <ele>229</ele>
        <time>2017-04-23T16:55:35Z</time>
      </trkpt>
      <trkpt lat="45.70068" lon="5.66632">
        <ele>229</ele>
        <time>2017-04-23T16:55:51Z</time>
      </trkpt>
      <trkpt lat="45.70064" lon="5.66624">
        <ele>229</ele>
        <time>2017-04-23T16:55:51Z</time>
      </trkpt>
      <trkpt lat="45.70061" lon="5.66617">
        <ele>229</ele>
        <time>2017-04-23T16:55:51Z</time>
      </trkpt>
      <trkpt lat="45.70061" lon="5.66612">
        <ele>229</ele>
        <time>2017-04-23T16:55:51Z</time>
      </trkpt>
      <trkpt lat="45.70059" lon="5.66607">
        <ele>229</ele>
        <time>2017-04-23T16:56:07Z</time>
      </trkpt>
      <trkpt lat="45.70056" lon="5.666">
        <ele>229</ele>
        <time>2017-04-23T16:56:07Z</time>
      </trkpt>
      <trkpt lat="45.70053" lon="5.66593">
        <ele>229</ele>
        <time>2017-04-23T16:56:07Z</time>
      </trkpt>
      <trkpt lat="45.70049" lon="5.66585">
        <ele>229</ele>
        <time>2017-04-23T16:56:07Z</time>
      </trkpt>
      <trkpt lat="45.70046" lon="5.66578">
        <ele>229</ele>
        <time>2017-04-23T16:56:23Z</time>
      </trkpt>
      <trkpt lat="45.70043" lon="5.66571">
        <ele>229</ele>
        <time>2017-04-23T16:56:23Z</time>
      </trkpt>
      <trkpt lat="45.70041" lon="5.66564">
        <ele>225</ele>
        <time>2017-04-23T16:56:23Z</time>
      </trkpt>
      <trkpt lat="45.70038" lon="5.66558">
        <ele>225</ele>
        <time>2017-04-23T16:56:23Z</time>
      </trkpt>
      <trkpt lat="45.70034" lon="5.66549">
        <ele>225</ele>
        <time>2017-04-23T16:56:39Z</time>
      </trkpt>
      <trkpt lat="45.7003" lon="5.66542">
        <ele>225</ele>
        <time>2017-04-23T16:56:39Z</time>
      </trkpt>
      <trkpt lat="45.70026" lon="5.66535">
        <ele>224</ele>
        <time>2017-04-23T16:56:39Z</time>
      </trkpt>
      <trkpt lat="45.70022" lon="5.66529">
        <ele>224</ele>
        <time>2017-04-23T16:56:39Z</time>
      </trkpt>
      <trkpt lat="45.70016" lon="5.6652">
        <ele>224</ele>
        <time>2017-04-23T16:56:55Z</time>
      </trkpt>
      <trkpt lat="45.70011" lon="5.66512">
        <ele>224</ele>
        <time>2017-04-23T16:56:55Z</time>
      </trkpt>
      <trkpt lat="45.70005" lon="5.66504">
        <ele>224</ele>
        <time>2017-04-23T16:56:55Z</time>
      </trkpt>
      <trkpt lat="45.7" lon="5.66496">
        <ele>224</ele>
        <time>2017-04-23T16:56:55Z</time>
      </trkpt>
      <trkpt lat="45.69997" lon="5.66487">
        <ele>224</ele>
        <time>2017-04-23T16:57:11Z</time>
      </trkpt>
      <trkpt lat="45.69993" lon="5.66479">
        <ele>224</ele>
        <time>2017-04-23T16:57:11Z</time>
      </trkpt>
      <trkpt lat="45.69989" lon="5.66472">
        <ele>224</ele>
        <time>2017-04-23T16:57:11Z</time>
      </trkpt>
      <trkpt lat="45.69986" lon="5.66465">
        <ele>224</ele>
        <time>2017-04-23T16:57:11Z</time>
      </trkpt>
      <trkpt lat="45.69982" lon="5.66458">
        <ele>223</ele>
        <time>2017-04-23T16:57:27Z</time>
      </trkpt>
      <trkpt lat="45.69979" lon="5.66451">
        <ele>223</ele>
        <time>2017-04-23T16:57:27Z</time>
      </trkpt>
      <trkpt lat="45.69975" lon="5.66444">
        <ele>223</ele>
        <time>2017-04-23T16:57:27Z</time>
      </trkpt>
      <trkpt lat="45.69973" lon="5.66439">
        <ele>223</ele>
        <time>2017-04-23T16:57:27Z</time>
      </trkpt>
      <trkpt lat="45.6997" lon="5.66424">
        <ele>223</ele>
        <time>2017-04-23T16:58:27Z</time>
      </trkpt>
      <trkpt lat="45.69969" lon="5.66423">
        <ele>223</ele>
        <time>2017-04-23T16:58:27Z</time>
      </trkpt>
      <trkpt lat="45.69967" lon="5.66417">
        <ele>223</ele>
        <time>2017-04-23T16:58:27Z</time>
      </trkpt>
      <trkpt lat="45.69964" lon="5.66413">
        <ele>223</ele>
        <time>2017-04-23T16:58:27Z</time>
      </trkpt>
      <trkpt lat="45.6996" lon="5.66407">
        <ele>223</ele>
        <time>2017-04-23T16:58:27Z</time>
      </trkpt>
      <trkpt lat="45.69961" lon="5.66398">
        <ele>223</ele>
        <time>2017-04-23T16:58:43Z</time>
      </trkpt>
      <trkpt lat="45.69967" lon="5.66389">
        <ele>223</ele>
        <time>2017-04-23T16:58:43Z</time>
      </trkpt>
      <trkpt lat="45.69971" lon="5.66382">
        <ele>223</ele>
        <time>2017-04-23T16:58:43Z</time>
      </trkpt>
      <trkpt lat="45.69974" lon="5.66378">
        <ele>223</ele>
        <time>2017-04-23T16:58:43Z</time>
      </trkpt>
      <trkpt lat="45.69979" lon="5.66371">
        <ele>226</ele>
        <time>2017-04-23T16:58:59Z</time>
      </trkpt>
      <trkpt lat="45.69982" lon="5.66366">
        <ele>226</ele>
        <time>2017-04-23T16:58:59Z</time>
      </trkpt>
      <trkpt lat="45.69985" lon="5.66361">
        <ele>226</ele>
        <time>2017-04-23T16:58:59Z</time>
      </trkpt>
      <trkpt lat="45.69989" lon="5.66352">
        <ele>226</ele>
        <time>2017-04-23T16:58:59Z</time>
      </trkpt>
      <trkpt lat="45.69992" lon="5.66346">
        <ele>226</ele>
        <time>2017-04-23T16:59:15Z</time>
      </trkpt>
      <trkpt lat="45.69998" lon="5.66337">
        <ele>226</ele>
        <time>2017-04-23T16:59:15Z</time>
      </trkpt>
      <trkpt lat="45.70002" lon="5.6633">
        <ele>226</ele>
        <time>2017-04-23T16:59:15Z</time>
      </trkpt>
      <trkpt lat="45.70007" lon="5.66324">
        <ele>226</ele>
        <time>2017-04-23T16:59:15Z</time>
      </trkpt>
      <trkpt lat="45.70013" lon="5.66317">
        <ele>226</ele>
        <time>2017-04-23T16:59:31Z</time>
      </trkpt>
      <trkpt lat="45.70016" lon="5.66311">
        <ele>226</ele>
        <time>2017-04-23T16:59:31Z</time>
      </trkpt>
      <trkpt lat="45.70019" lon="5.66308">
        <ele>226</ele>
        <time>2017-04-23T16:59:31Z</time>
      </trkpt>
      <trkpt lat="45.70021" lon="5.66305">
        <ele>226</ele>
        <time>2017-04-23T16:59:31Z</time>
      </trkpt>
      <trkpt lat="45.70025" lon="5.663">
        <ele>226</ele>
        <time>2017-04-23T16:59:47Z</time>
      </trkpt>
      <trkpt lat="45.7003" lon="5.66294">
        <ele>226</ele>
        <time>2017-04-23T16:59:47Z</time>
      </trkpt>
      <trkpt lat="45.70032" lon="5.6629">
        <ele>231</ele>
        <time>2017-04-23T16:59:47Z</time>
      </trkpt>
      <trkpt lat="45.70038" lon="5.66281">
        <ele>231</ele>
        <time>2017-04-23T16:59:47Z</time>
      </trkpt>
      <trkpt lat="45.70044" lon="5.66275">
        <ele>225</ele>
        <time>2017-04-23T17:00:03Z</time>
      </trkpt>
      <trkpt lat="45.7005" lon="5.66268">
        <ele>225</ele>
        <time>2017-04-23T17:00:03Z</time>
      </trkpt>
      <trkpt lat="45.70056" lon="5.66262">
        <ele>225</ele>
        <time>2017-04-23T17:00:03Z</time>
      </trkpt>
      <trkpt lat="45.70062" lon="5.66255">
        <ele>225</ele>
        <time>2017-04-23T17:00:03Z</time>
      </trkpt>
      <trkpt lat="45.70068" lon="5.66251">
        <ele>225</ele>
        <time>2017-04-23T17:00:19Z</time>
      </trkpt>
      <trkpt lat="45.70069" lon="5.66248">
        <ele>225</ele>
        <time>2017-04-23T17:00:19Z</time>
      </trkpt>
      <trkpt lat="45.70072" lon="5.66245">
        <ele>225</ele>
        <time>2017-04-23T17:00:19Z</time>
      </trkpt>
      <trkpt lat="45.70077" lon="5.66241">
        <ele>225</ele>
        <time>2017-04-23T17:00:19Z</time>
      </trkpt>
      <trkpt lat="45.70082" lon="5.66236">
        <ele>225</ele>
        <time>2017-04-23T17:00:35Z</time>
      </trkpt>
      <trkpt lat="45.70087" lon="5.66231">
        <ele>225</ele>
        <time>2017-04-23T17:00:35Z</time>
      </trkpt>
      <trkpt lat="45.70092" lon="5.66225">
        <ele>225</ele>
        <time>2017-04-23T17:00:35Z</time>
      </trkpt>
      <trkpt lat="45.70097" lon="5.66219">
        <ele>225</ele>
        <time>2017-04-23T17:00:35Z</time>
      </trkpt>
      <trkpt lat="45.70099" lon="5.66216">
        <ele>225</ele>
        <time>2017-04-23T17:00:51Z</time>
      </trkpt>
      <trkpt lat="45.70106" lon="5.66208">
        <ele>227</ele>
        <time>2017-04-23T17:00:51Z</time>
      </trkpt>
      <trkpt lat="45.70111" lon="5.66202">
        <ele>227</ele>
        <time>2017-04-23T17:00:51Z</time>
      </trkpt>
      <trkpt lat="45.70118" lon="5.66195">
        <ele>227</ele>
        <time>2017-04-23T17:00:51Z</time>
      </trkpt>
      <trkpt lat="45.70121" lon="5.6619">
        <ele>227</ele>
        <time>2017-04-23T17:01:07Z</time>
      </trkpt>
      <trkpt lat="45.70127" lon="5.66187">
        <ele>226</ele>
        <time>2017-04-23T17:01:07Z</time>
      </trkpt>
      <trkpt lat="45.70133" lon="5.66181">
        <ele>226</ele>
        <time>2017-04-23T17:01:07Z</time>
      </trkpt>
      <trkpt lat="45.70135" lon="5.66177">
        <ele>226</ele>
        <time>2017-04-23T17:01:07Z</time>
      </trkpt>
      <trkpt lat="45.70138" lon="5.66172">
        <ele>226</ele>
        <time>2017-04-23T17:01:23Z</time>
      </trkpt>
      <trkpt lat="45.70144" lon="5.66166">
        <ele>226</ele>
        <time>2017-04-23T17:01:23Z</time>
      </trkpt>
      <trkpt lat="45.70148" lon="5.66162">
        <ele>226</ele>
        <time>2017-04-23T17:01:23Z</time>
      </trkpt>
      <trkpt lat="45.70162" lon="5.66151">
        <ele>226</ele>
        <time>2017-04-23T17:01:23Z</time>
      </trkpt>
      <trkpt lat="45.70174" lon="5.66138">
        <ele>226</ele>
        <time>2017-04-23T17:01:39Z</time>
      </trkpt>
      <trkpt lat="45.70186" lon="5.66126">
        <ele>226</ele>
        <time>2017-04-23T17:01:39Z</time>
      </trkpt>
      <trkpt lat="45.70202" lon="5.66113">
        <ele>225</ele>
        <time>2017-04-23T17:01:39Z</time>
      </trkpt>
      <trkpt lat="45.7022" lon="5.66091">
        <ele>226</ele>
        <time>2017-04-23T17:01:39Z</time>
      </trkpt>
      <trkpt lat="45.70236" lon="5.66072">
        <ele>226</ele>
        <time>2017-04-23T17:01:55Z</time>
      </trkpt>
      <trkpt lat="45.70254" lon="5.66054">
        <ele>226</ele>
        <time>2017-04-23T17:01:55Z</time>
      </trkpt>
      <trkpt lat="45.70267" lon="5.66042">
        <ele>226</ele>
        <time>2017-04-23T17:01:55Z</time>
      </trkpt>
      <trkpt lat="45.70281" lon="5.66027">
        <ele>228</ele>
        <time>2017-04-23T17:01:55Z</time>
      </trkpt>
      <trkpt lat="45.70301" lon="5.66009">
        <ele>226</ele>
        <time>2017-04-23T17:02:11Z</time>
      </trkpt>
      <trkpt lat="45.70316" lon="5.65989">
        <ele>226</ele>
        <time>2017-04-23T17:02:11Z</time>
      </trkpt>
      <trkpt lat="45.70326" lon="5.65973">
        <ele>226</ele>
        <time>2017-04-23T17:02:11Z</time>
      </trkpt>
      <trkpt lat="45.7034" lon="5.65944">
        <ele>228</ele>
        <time>2017-04-23T17:02:11Z</time>
      </trkpt>
      <trkpt lat="45.70351" lon="5.65925">
        <ele>228</ele>
        <time>2017-04-23T17:02:27Z</time>
      </trkpt>
      <trkpt lat="45.7036" lon="5.65912">
        <ele>228</ele>
        <time>2017-04-23T17:02:27Z</time>
      </trkpt>
      <trkpt lat="45.70381" lon="5.65887">
        <ele>224</ele>
        <time>2017-04-23T17:02:27Z</time>
      </trkpt>
      <trkpt lat="45.70395" lon="5.65866">
        <ele>231</ele>
        <time>2017-04-23T17:02:27Z</time>
      </trkpt>
      <trkpt lat="45.70411" lon="5.65865">
        <ele>231</ele>
        <time>2017-04-23T17:02:43Z</time>
      </trkpt>
      <trkpt lat="45.70435" lon="5.65864">
        <ele>231</ele>
        <time>2017-04-23T17:02:43Z</time>
      </trkpt>
      <trkpt lat="45.70453" lon="5.6586">
        <ele>231</ele>
        <time>2017-04-23T17:02:43Z</time>
      </trkpt>
      <trkpt lat="45.70468" lon="5.65857">
        <ele>229</ele>
        <time>2017-04-23T17:02:43Z</time>
      </trkpt>
      <trkpt lat="45.7048" lon="5.65854">
        <ele>229</ele>
        <time>2017-04-23T17:02:59Z</time>
      </trkpt>
      <trkpt lat="45.70492" lon="5.6585">
        <ele>229</ele>
        <time>2017-04-23T17:02:59Z</time>
      </trkpt>
      <trkpt lat="45.70529" lon="5.65839">
        <ele>229</ele>
        <time>2017-04-23T17:02:59Z</time>
      </trkpt>
      <trkpt lat="45.70534" lon="5.65834">
        <ele>229</ele>
        <time>2017-04-23T17:02:59Z</time>
      </trkpt>
      <trkpt lat="45.70539" lon="5.65829">
        <ele>229</ele>
        <time>2017-04-23T17:03:15Z</time>
      </trkpt>
      <trkpt lat="45.70543" lon="5.65823">
        <ele>225</ele>
        <time>2017-04-23T17:03:15Z</time>
      </trkpt>
      <trkpt lat="45.70546" lon="5.65817">
        <ele>225</ele>
        <time>2017-04-23T17:03:15Z</time>
      </trkpt>
      <trkpt lat="45.70549" lon="5.65811">
        <ele>225</ele>
        <time>2017-04-23T17:03:15Z</time>
      </trkpt>
      <trkpt lat="45.7055" lon="5.65804">
        <ele>225</ele>
        <time>2017-04-23T17:03:31Z</time>
      </trkpt>
      <trkpt lat="45.70553" lon="5.65798">
        <ele>225</ele>
        <time>2017-04-23T17:03:31Z</time>
      </trkpt>
      <trkpt lat="45.70555" lon="5.65792">
        <ele>225</ele>
        <time>2017-04-23T17:03:31Z</time>
      </trkpt>
      <trkpt lat="45.70557" lon="5.65788">
        <ele>226</ele>
        <time>2017-04-23T17:03:31Z</time>
      </trkpt>
      <trkpt lat="45.70561" lon="5.65781">
        <ele>226</ele>
        <time>2017-04-23T17:03:47Z</time>
      </trkpt>
      <trkpt lat="45.70563" lon="5.65776">
        <ele>226</ele>
        <time>2017-04-23T17:03:47Z</time>
      </trkpt>
      <trkpt lat="45.70565" lon="5.65767">
        <ele>226</ele>
        <time>2017-04-23T17:03:47Z</time>
      </trkpt>
      <trkpt lat="45.70568" lon="5.65758">
        <ele>226</ele>
        <time>2017-04-23T17:03:47Z</time>
      </trkpt>
      <trkpt lat="45.70571" lon="5.65747">
        <ele>226</ele>
        <time>2017-04-23T17:04:03Z</time>
      </trkpt>
      <trkpt lat="45.70574" lon="5.65737">
        <ele>226</ele>
        <time>2017-04-23T17:04:03Z</time>
      </trkpt>
      <trkpt lat="45.70576" lon="5.65728">
        <ele>226</ele>
        <time>2017-04-23T17:04:03Z</time>
      </trkpt>
      <trkpt lat="45.70578" lon="5.65719">
        <ele>226</ele>
        <time>2017-04-23T17:04:03Z</time>
      </trkpt>
      <trkpt lat="45.70581" lon="5.65711">
        <ele>226</ele>
        <time>2017-04-23T17:04:19Z</time>
      </trkpt>
      <trkpt lat="45.70584" lon="5.65705">
        <ele>231</ele>
        <time>2017-04-23T17:04:19Z</time>
      </trkpt>
      <trkpt lat="45.70588" lon="5.65698">
        <ele>231</ele>
        <time>2017-04-23T17:04:19Z</time>
      </trkpt>
      <trkpt lat="45.70592" lon="5.65693">
        <ele>231</ele>
        <time>2017-04-23T17:04:19Z</time>
      </trkpt>
      <trkpt lat="45.70597" lon="5.65688">
        <ele>231</ele>
        <time>2017-04-23T17:04:35Z</time>
      </trkpt>
      <trkpt lat="45.70602" lon="5.65683">
        <ele>231</ele>
        <time>2017-04-23T17:04:35Z</time>
      </trkpt>
      <trkpt lat="45.70607" lon="5.65678">
        <ele>231</ele>
        <time>2017-04-23T17:04:35Z</time>
      </trkpt>
      <trkpt lat="45.70611" lon="5.65673">
        <ele>231</ele>
        <time>2017-04-23T17:04:35Z</time>
      </trkpt>
      <trkpt lat="45.70616" lon="5.65668">
        <ele>231</ele>
        <time>2017-04-23T17:04:51Z</time>
      </trkpt>
      <trkpt lat="45.70619" lon="5.65666">
        <ele>231</ele>
        <time>2017-04-23T17:04:51Z</time>
      </trkpt>
      <trkpt lat="45.70625" lon="5.65661">
        <ele>229</ele>
        <time>2017-04-23T17:04:51Z</time>
      </trkpt>
      <trkpt lat="45.7063" lon="5.65657">
        <ele>229</ele>
        <time>2017-04-23T17:04:51Z</time>
      </trkpt>
      <trkpt lat="45.70635" lon="5.65654">
        <ele>229</ele>
        <time>2017-04-23T17:05:07Z</time>
      </trkpt>
      <trkpt lat="45.7064" lon="5.6565">
        <ele>229</ele>
        <time>2017-04-23T17:05:07Z</time>
      </trkpt>
      <trkpt lat="45.70645" lon="5.65647">
        <ele>229</ele>
        <time>2017-04-23T17:05:07Z</time>
      </trkpt>
      <trkpt lat="45.70648" lon="5.65645">
        <ele>229</ele>
        <time>2017-04-23T17:05:07Z</time>
      </trkpt>
      <trkpt lat="45.70651" lon="5.65643">
        <ele>229</ele>
        <time>2017-04-23T17:05:27Z</time>
      </trkpt>
      <trkpt lat="45.70653" lon="5.65642">
        <ele>229</ele>
        <time>2017-04-23T17:05:27Z</time>
      </trkpt>
      <trkpt lat="45.70654" lon="5.65641">
        <ele>229</ele>
        <time>2017-04-23T17:05:27Z</time>
      </trkpt>
      <trkpt lat="45.70657" lon="5.65641">
        <ele>229</ele>
        <time>2017-04-23T17:05:27Z</time>
      </trkpt>
      <trkpt lat="45.70662" lon="5.65638">
        <ele>229</ele>
        <time>2017-04-23T17:05:27Z</time>
      </trkpt>
      <trkpt lat="45.70668" lon="5.65634">
        <ele>229</ele>
        <time>2017-04-23T17:05:43Z</time>
      </trkpt>
      <trkpt lat="45.70675" lon="5.65629">
        <ele>229</ele>
        <time>2017-04-23T17:05:43Z</time>
      </trkpt>
      <trkpt lat="45.70683" lon="5.65622">
        <ele>236</ele>
        <time>2017-04-23T17:05:43Z</time>
      </trkpt>
      <trkpt lat="45.70688" lon="5.65617">
        <ele>236</ele>
        <time>2017-04-23T17:05:43Z</time>
      </trkpt>
      <trkpt lat="45.70691" lon="5.65613">
        <ele>236</ele>
        <time>2017-04-23T17:05:59Z</time>
      </trkpt>
      <trkpt lat="45.70696" lon="5.65607">
        <ele>236</ele>
        <time>2017-04-23T17:05:59Z</time>
      </trkpt>
      <trkpt lat="45.70699" lon="5.65603">
        <ele>236</ele>
        <time>2017-04-23T17:05:59Z</time>
      </trkpt>
      <trkpt lat="45.70703" lon="5.65596">
        <ele>236</ele>
        <time>2017-04-23T17:05:59Z</time>
      </trkpt>
      <trkpt lat="45.70705" lon="5.6559">
        <ele>236</ele>
        <time>2017-04-23T17:06:15Z</time>
      </trkpt>
      <trkpt lat="45.70708" lon="5.65585">
        <ele>236</ele>
        <time>2017-04-23T17:06:15Z</time>
      </trkpt>
      <trkpt lat="45.70713" lon="5.65578">
        <ele>235</ele>
        <time>2017-04-23T17:06:15Z</time>
      </trkpt>
      <trkpt lat="45.70718" lon="5.65571">
        <ele>235</ele>
        <time>2017-04-23T17:06:15Z</time>
      </trkpt>
      <trkpt lat="45.70722" lon="5.65566">
        <ele>235</ele>
        <time>2017-04-23T17:06:31Z</time>
      </trkpt>
      <trkpt lat="45.70726" lon="5.65561">
        <ele>235</ele>
        <time>2017-04-23T17:06:31Z</time>
      </trkpt>
      <trkpt lat="45.7073" lon="5.65556">
        <ele>235</ele>
        <time>2017-04-23T17:06:31Z</time>
      </trkpt>
      <trkpt lat="45.70733" lon="5.6555">
        <ele>235</ele>
        <time>2017-04-23T17:06:31Z</time>
      </trkpt>
      <trkpt lat="45.70738" lon="5.65545">
        <ele>235</ele>
        <time>2017-04-23T17:06:47Z</time>
      </trkpt>
      <trkpt lat="45.70742" lon="5.6554">
        <ele>238</ele>
        <time>2017-04-23T17:06:47Z</time>
      </trkpt>
      <trkpt lat="45.70746" lon="5.65535">
        <ele>238</ele>
        <time>2017-04-23T17:06:47Z</time>
      </trkpt>
      <trkpt lat="45.70751" lon="5.65528">
        <ele>238</ele>
        <time>2017-04-23T17:06:47Z</time>
      </trkpt>
      <trkpt lat="45.70757" lon="5.65525">
        <ele>238</ele>
        <time>2017-04-23T17:07:03Z</time>
      </trkpt>
      <trkpt lat="45.70763" lon="5.65522">
        <ele>238</ele>
        <time>2017-04-23T17:07:03Z</time>
      </trkpt>
      <trkpt lat="45.70767" lon="5.6552">
        <ele>238</ele>
        <time>2017-04-23T17:07:03Z</time>
      </trkpt>
      <trkpt lat="45.70771" lon="5.65517">
        <ele>238</ele>
        <time>2017-04-23T17:07:03Z</time>
      </trkpt>
      <trkpt lat="45.70773" lon="5.65515">
        <ele>238</ele>
        <time>2017-04-23T17:07:19Z</time>
      </trkpt>
      <trkpt lat="45.70778" lon="5.65507">
        <ele>238</ele>
        <time>2017-04-23T17:07:19Z</time>
      </trkpt>
      <trkpt lat="45.70782" lon="5.65502">
        <ele>238</ele>
        <time>2017-04-23T17:07:19Z</time>
      </trkpt>
      <trkpt lat="45.70785" lon="5.65497">
        <ele>238</ele>
        <time>2017-04-23T17:07:19Z</time>
      </trkpt>
      <trkpt lat="45.70788" lon="5.65493">
        <ele>238</ele>
        <time>2017-04-23T17:07:35Z</time>
      </trkpt>
      <trkpt lat="45.70794" lon="5.65487">
        <ele>236</ele>
        <time>2017-04-23T17:07:35Z</time>
      </trkpt>
      <trkpt lat="45.70798" lon="5.65481">
        <ele>236</ele>
        <time>2017-04-23T17:07:35Z</time>
      </trkpt>
      <trkpt lat="45.70802" lon="5.65475">
        <ele>236</ele>
        <time>2017-04-23T17:07:35Z</time>
      </trkpt>
      <trkpt lat="45.70806" lon="5.65469">
        <ele>236</ele>
        <time>2017-04-23T17:07:51Z</time>
      </trkpt>
      <trkpt lat="45.70805" lon="5.65463">
        <ele>236</ele>
        <time>2017-04-23T17:07:51Z</time>
      </trkpt>
      <trkpt lat="45.70801" lon="5.65459">
        <ele>236</ele>
        <time>2017-04-23T17:07:51Z</time>
      </trkpt>
      <trkpt lat="45.70798" lon="5.65455">
        <ele>240</ele>
        <time>2017-04-23T17:07:51Z</time>
      </trkpt>
      <trkpt lat="45.70796" lon="5.6545">
        <ele>240</ele>
        <time>2017-04-23T17:08:07Z</time>
      </trkpt>
      <trkpt lat="45.7079" lon="5.65444">
        <ele>240</ele>
        <time>2017-04-23T17:08:07Z</time>
      </trkpt>
      <trkpt lat="45.70786" lon="5.65437">
        <ele>240</ele>
        <time>2017-04-23T17:08:07Z</time>
      </trkpt>
      <trkpt lat="45.70782" lon="5.6543">
        <ele>240</ele>
        <time>2017-04-23T17:08:07Z</time>
      </trkpt>
      <trkpt lat="45.70777" lon="5.65426">
        <ele>240</ele>
        <time>2017-04-23T17:08:23Z</time>
      </trkpt>
      <trkpt lat="45.70774" lon="5.65421">
        <ele>240</ele>
        <time>2017-04-23T17:08:23Z</time>
      </trkpt>
      <trkpt lat="45.70779" lon="5.65415">
        <ele>240</ele>
        <time>2017-04-23T17:08:23Z</time>
      </trkpt>
      <trkpt lat="45.70784" lon="5.6541">
        <ele>240</ele>
        <time>2017-04-23T17:08:23Z</time>
      </trkpt>
      <trkpt lat="45.70787" lon="5.65402">
        <ele>240</ele>
        <time>2017-04-23T17:08:39Z</time>
      </trkpt>
      <trkpt lat="45.70794" lon="5.65392">
        <ele>240</ele>
        <time>2017-04-23T17:08:39Z</time>
      </trkpt>
      <trkpt lat="45.70798" lon="5.65385">
        <ele>240</ele>
        <time>2017-04-23T17:08:39Z</time>
      </trkpt>
      <trkpt lat="45.70802" lon="5.65378">
        <ele>240</ele>
        <time>2017-04-23T17:08:39Z</time>
      </trkpt>
      <trkpt lat="45.7081" lon="5.65366">
        <ele>245</ele>
        <time>2017-04-23T17:08:55Z</time>
      </trkpt>
      <trkpt lat="45.70827" lon="5.65341">
        <ele>245</ele>
        <time>2017-04-23T17:08:55Z</time>
      </trkpt>
      <trkpt lat="45.70848" lon="5.6532">
        <ele>245</ele>
        <time>2017-04-23T17:08:55Z</time>
      </trkpt>
      <trkpt lat="45.70851" lon="5.65315">
        <ele>245</ele>
        <time>2017-04-23T17:08:55Z</time>
      </trkpt>
      <trkpt lat="45.70855" lon="5.6531">
        <ele>245</ele>
        <time>2017-04-23T17:09:11Z</time>
      </trkpt>
      <trkpt lat="45.70858" lon="5.65307">
        <ele>245</ele>
        <time>2017-04-23T17:09:11Z</time>
      </trkpt>
      <trkpt lat="45.70862" lon="5.65304">
        <ele>245</ele>
        <time>2017-04-23T17:09:11Z</time>
      </trkpt>
      <trkpt lat="45.70866" lon="5.653">
        <ele>245</ele>
        <time>2017-04-23T17:09:11Z</time>
      </trkpt>
      <trkpt lat="45.70869" lon="5.65299">
        <ele>245</ele>
        <time>2017-04-23T17:09:27Z</time>
      </trkpt>
      <trkpt lat="45.70876" lon="5.65296">
        <ele>262</ele>
        <time>2017-04-23T17:09:27Z</time>
      </trkpt>
      <trkpt lat="45.70882" lon="5.65295">
        <ele>262</ele>
        <time>2017-04-23T17:09:27Z</time>
      </trkpt>
      <trkpt lat="45.70889" lon="5.65296">
        <ele>262</ele>
        <time>2017-04-23T17:09:27Z</time>
      </trkpt>
      <trkpt lat="45.70893" lon="5.65297">
        <ele>262</ele>
        <time>2017-04-23T17:09:43Z</time>
      </trkpt>
      <trkpt lat="45.70898" lon="5.65299">
        <ele>262</ele>
        <time>2017-04-23T17:09:43Z</time>
      </trkpt>
      <trkpt lat="45.70903" lon="5.65301">
        <ele>262</ele>
        <time>2017-04-23T17:09:43Z</time>
      </trkpt>
      <trkpt lat="45.70907" lon="5.65304">
        <ele>262</ele>
        <time>2017-04-23T17:09:43Z</time>
      </trkpt>
      <trkpt lat="45.70913" lon="5.65307">
        <ele>262</ele>
        <time>2017-04-23T17:09:59Z</time>
      </trkpt>
      <trkpt lat="45.70918" lon="5.6531">
        <ele>262</ele>
        <time>2017-04-23T17:09:59Z</time>
      </trkpt>
      <trkpt lat="45.70923" lon="5.65318">
        <ele>262</ele>
        <time>2017-04-23T17:09:59Z</time>
      </trkpt>
      <trkpt lat="45.70929" lon="5.65321">
        <ele>262</ele>
        <time>2017-04-23T17:09:59Z</time>
      </trkpt>
      <trkpt lat="45.70947" lon="5.65326">
        <ele>262</ele>
        <time>2017-04-23T17:10:15Z</time>
      </trkpt>
      <trkpt lat="45.70976" lon="5.65343">
        <ele>265</ele>
        <time>2017-04-23T17:10:15Z</time>
      </trkpt>
      <trkpt lat="45.70992" lon="5.65361">
        <ele>265</ele>
        <time>2017-04-23T17:10:15Z</time>
      </trkpt>
      <trkpt lat="45.71009" lon="5.65391">
        <ele>268</ele>
        <time>2017-04-23T17:10:15Z</time>
      </trkpt>
      <trkpt lat="45.71023" lon="5.65402">
        <ele>268</ele>
        <time>2017-04-23T17:10:31Z</time>
      </trkpt>
      <trkpt lat="45.71039" lon="5.65416">
        <ele>268</ele>
        <time>2017-04-23T17:10:31Z</time>
      </trkpt>
      <trkpt lat="45.71046" lon="5.65422">
        <ele>270</ele>
        <time>2017-04-23T17:10:31Z</time>
      </trkpt>
      <trkpt lat="45.71052" lon="5.65424">
        <ele>270</ele>
        <time>2017-04-23T17:10:31Z</time>
      </trkpt>
      <trkpt lat="45.71057" lon="5.65425">
        <ele>270</ele>
        <time>2017-04-23T17:10:47Z</time>
      </trkpt>
      <trkpt lat="45.71069" lon="5.65429">
        <ele>270</ele>
        <time>2017-04-23T17:10:47Z</time>
      </trkpt>
      <trkpt lat="45.71084" lon="5.65439">
        <ele>270</ele>
        <time>2017-04-23T17:10:47Z</time>
      </trkpt>
      <trkpt lat="45.711" lon="5.65457">
        <ele>270</ele>
        <time>2017-04-23T17:10:47Z</time>
      </trkpt>
      <trkpt lat="45.71119" lon="5.65465">
        <ele>266</ele>
        <time>2017-04-23T17:11:03Z</time>
      </trkpt>
      <trkpt lat="45.7114" lon="5.65476">
        <ele>275</ele>
        <time>2017-04-23T17:11:03Z</time>
      </trkpt>
      <trkpt lat="45.71161" lon="5.65489">
        <ele>275</ele>
        <time>2017-04-23T17:11:03Z</time>
      </trkpt>
      <trkpt lat="45.71185" lon="5.655">
        <ele>275</ele>
        <time>2017-04-23T17:11:03Z</time>
      </trkpt>
      <trkpt lat="45.71202" lon="5.655">
        <ele>275</ele>
        <time>2017-04-23T17:11:19Z</time>
      </trkpt>
      <trkpt lat="45.71207" lon="5.65496">
        <ele>275</ele>
        <time>2017-04-23T17:11:19Z</time>
      </trkpt>
      <trkpt lat="45.71213" lon="5.65489">
        <ele>281</ele>
        <time>2017-04-23T17:11:19Z</time>
      </trkpt>
      <trkpt lat="45.7122" lon="5.65485">
        <ele>281</ele>
        <time>2017-04-23T17:11:19Z</time>
      </trkpt>
      <trkpt lat="45.71226" lon="5.65481">
        <ele>281</ele>
        <time>2017-04-23T17:11:35Z</time>
      </trkpt>
      <trkpt lat="45.7123" lon="5.6548">
        <ele>281</ele>
        <time>2017-04-23T17:11:35Z</time>
      </trkpt>
      <trkpt lat="45.71235" lon="5.65477">
        <ele>281</ele>
        <time>2017-04-23T17:11:35Z</time>
      </trkpt>
      <trkpt lat="45.71241" lon="5.65474">
        <ele>281</ele>
        <time>2017-04-23T17:11:35Z</time>
      </trkpt>
      <trkpt lat="45.71244" lon="5.65467">
        <ele>281</ele>
        <time>2017-04-23T17:11:51Z</time>
      </trkpt>
      <trkpt lat="45.71246" lon="5.65459">
        <ele>281</ele>
        <time>2017-04-23T17:11:51Z</time>
      </trkpt>
      <trkpt lat="45.71245" lon="5.65454">
        <ele>272</ele>
        <time>2017-04-23T17:11:51Z</time>
      </trkpt>
      <trkpt lat="45.71244" lon="5.65446">
        <ele>272</ele>
        <time>2017-04-23T17:11:51Z</time>
      </trkpt>
      <trkpt lat="45.71247" lon="5.65441">
        <ele>272</ele>
        <time>2017-04-23T17:12:07Z</time>
      </trkpt>
      <trkpt lat="45.71247" lon="5.65437">
        <ele>272</ele>
        <time>2017-04-23T17:12:07Z</time>
      </trkpt>
      <trkpt lat="45.71248" lon="5.65431">
        <ele>272</ele>
        <time>2017-04-23T17:12:07Z</time>
      </trkpt>
      <trkpt lat="45.71248" lon="5.65425">
        <ele>272</ele>
        <time>2017-04-23T17:12:07Z</time>
      </trkpt>
      <trkpt lat="45.71249" lon="5.6542">
        <ele>272</ele>
        <time>2017-04-23T17:12:23Z</time>
      </trkpt>
      <trkpt lat="45.71249" lon="5.65412">
        <ele>272</ele>
        <time>2017-04-23T17:12:23Z</time>
      </trkpt>
      <trkpt lat="45.71249" lon="5.65405">
        <ele>272</ele>
        <time>2017-04-23T17:12:23Z</time>
      </trkpt>
      <trkpt lat="45.71249" lon="5.65395">
        <ele>272</ele>
        <time>2017-04-23T17:12:23Z</time>
      </trkpt>
      <trkpt lat="45.7125" lon="5.65387">
        <ele>272</ele>
        <time>2017-04-23T17:12:39Z</time>
      </trkpt>
      <trkpt lat="45.7125" lon="5.65379">
        <ele>272</ele>
        <time>2017-04-23T17:12:39Z</time>
      </trkpt>
      <trkpt lat="45.71251" lon="5.65372">
        <ele>269</ele>
        <time>2017-04-23T17:12:39Z</time>
      </trkpt>
      <trkpt lat="45.7125" lon="5.65362">
        <ele>269</ele>
        <time>2017-04-23T17:12:39Z</time>
      </trkpt>
      <trkpt lat="45.71251" lon="5.65352">
        <ele>269</ele>
        <time>2017-04-23T17:12:55Z</time>
      </trkpt>
      <trkpt lat="45.71253" lon="5.65345">
        <ele>269</ele>
        <time>2017-04-23T17:12:55Z</time>
      </trkpt>
      <trkpt lat="45.71254" lon="5.65335">
        <ele>269</ele>
        <time>2017-04-23T17:12:55Z</time>
      </trkpt>
      <trkpt lat="45.71255" lon="5.65324">
        <ele>269</ele>
        <time>2017-04-23T17:12:55Z</time>
      </trkpt>
      <trkpt lat="45.71255" lon="5.65316">
        <ele>269</ele>
        <time>2017-04-23T17:13:11Z</time>
      </trkpt>
      <trkpt lat="45.71254" lon="5.65309">
        <ele>269</ele>
        <time>2017-04-23T17:13:11Z</time>
      </trkpt>
      <trkpt lat="45.71252" lon="5.653">
        <ele>269</ele>
        <time>2017-04-23T17:13:11Z</time>
      </trkpt>
      <trkpt lat="45.71248" lon="5.65291">
        <ele>269</ele>
        <time>2017-04-23T17:13:11Z</time>
      </trkpt>
      <trkpt lat="45.71248" lon="5.65285">
        <ele>269</ele>
        <time>2017-04-23T17:13:27Z</time>
      </trkpt>
      <trkpt lat="45.71248" lon="5.65278">
        <ele>269</ele>
        <time>2017-04-23T17:13:27Z</time>
      </trkpt>
      <trkpt lat="45.71246" lon="5.65272">
        <ele>269</ele>
        <time>2017-04-23T17:13:27Z</time>
      </trkpt>
      <trkpt lat="45.71247" lon="5.6527">
        <ele>269</ele>
        <time>2017-04-23T17:13:27Z</time>
      </trkpt>
      <trkpt lat="45.71252" lon="5.65264">
        <ele>269</ele>
        <time>2017-04-23T17:13:43Z</time>
      </trkpt>
      <trkpt lat="45.7126" lon="5.65261">
        <ele>269</ele>
        <time>2017-04-23T17:13:43Z</time>
      </trkpt>
      <trkpt lat="45.71269" lon="5.65259">
        <ele>269</ele>
        <time>2017-04-23T17:13:43Z</time>
      </trkpt>
      <trkpt lat="45.71277" lon="5.65259">
        <ele>269</ele>
        <time>2017-04-23T17:13:43Z</time>
      </trkpt>
      <trkpt lat="45.71284" lon="5.6526">
        <ele>269</ele>
        <time>2017-04-23T17:13:59Z</time>
      </trkpt>
      <trkpt lat="45.7129" lon="5.65258">
        <ele>269</ele>
        <time>2017-04-23T17:13:59Z</time>
      </trkpt>
      <trkpt lat="45.71298" lon="5.65256">
        <ele>271</ele>
        <time>2017-04-23T17:13:59Z</time>
      </trkpt>
      <trkpt lat="45.71304" lon="5.65255">
        <ele>271</ele>
        <time>2017-04-23T17:13:59Z</time>
      </trkpt>
      <trkpt lat="45.71313" lon="5.65256">
        <ele>271</ele>
        <time>2017-04-23T17:14:15Z</time>
      </trkpt>
      <trkpt lat="45.7132" lon="5.65257">
        <ele>271</ele>
        <time>2017-04-23T17:14:15Z</time>
      </trkpt>
      <trkpt lat="45.71326" lon="5.65256">
        <ele>271</ele>
        <time>2017-04-23T17:14:15Z</time>
      </trkpt>
      <trkpt lat="45.71333" lon="5.65257">
        <ele>271</ele>
        <time>2017-04-23T17:14:15Z</time>
      </trkpt>
      <trkpt lat="45.7134" lon="5.6526">
        <ele>271</ele>
        <time>2017-04-23T17:14:31Z</time>
      </trkpt>
      <trkpt lat="45.71345" lon="5.65262">
        <ele>271</ele>
        <time>2017-04-23T17:14:31Z</time>
      </trkpt>
      <trkpt lat="45.71351" lon="5.65264">
        <ele>271</ele>
        <time>2017-04-23T17:14:31Z</time>
      </trkpt>
      <trkpt lat="45.71358" lon="5.65269">
        <ele>271</ele>
        <time>2017-04-23T17:14:31Z</time>
      </trkpt>
      <trkpt lat="45.71363" lon="5.65271">
        <ele>271</ele>
        <time>2017-04-23T17:14:47Z</time>
      </trkpt>
      <trkpt lat="45.7137" lon="5.65275">
        <ele>271</ele>
        <time>2017-04-23T17:14:47Z</time>
      </trkpt>
      <trkpt lat="45.71374" lon="5.65277">
        <ele>271</ele>
        <time>2017-04-23T17:14:47Z</time>
      </trkpt>
      <trkpt lat="45.71382" lon="5.65281">
        <ele>272</ele>
        <time>2017-04-23T17:14:47Z</time>
      </trkpt>
      <trkpt lat="45.71389" lon="5.65284">
        <ele>272</ele>
        <time>2017-04-23T17:15:03Z</time>
      </trkpt>
      <trkpt lat="45.71393" lon="5.65287">
        <ele>272</ele>
        <time>2017-04-23T17:15:03Z</time>
      </trkpt>
      <trkpt lat="45.71399" lon="5.65291">
        <ele>272</ele>
        <time>2017-04-23T17:15:03Z</time>
      </trkpt>
      <trkpt lat="45.71407" lon="5.65296">
        <ele>275</ele>
        <time>2017-04-23T17:15:03Z</time>
      </trkpt>
      <trkpt lat="45.71413" lon="5.653">
        <ele>275</ele>
        <time>2017-04-23T17:15:19Z</time>
      </trkpt>
      <trkpt lat="45.71418" lon="5.65304">
        <ele>275</ele>
        <time>2017-04-23T17:15:19Z</time>
      </trkpt>
      <trkpt lat="45.71423" lon="5.65308">
        <ele>275</ele>
        <time>2017-04-23T17:15:19Z</time>
      </trkpt>
      <trkpt lat="45.71428" lon="5.65311">
        <ele>275</ele>
        <time>2017-04-23T17:15:19Z</time>
      </trkpt>
      <trkpt lat="45.71434" lon="5.65316">
        <ele>275</ele>
        <time>2017-04-23T17:15:35Z</time>
      </trkpt>
      <trkpt lat="45.71438" lon="5.65319">
        <ele>275</ele>
        <time>2017-04-23T17:15:35Z</time>
      </trkpt>
      <trkpt lat="45.71443" lon="5.65324">
        <ele>275</ele>
        <time>2017-04-23T17:15:35Z</time>
      </trkpt>
      <trkpt lat="45.71448" lon="5.65328">
        <ele>275</ele>
        <time>2017-04-23T17:15:35Z</time>
      </trkpt>
      <trkpt lat="45.71454" lon="5.65332">
        <ele>275</ele>
        <time>2017-04-23T17:15:51Z</time>
      </trkpt>
      <trkpt lat="45.71459" lon="5.65336">
        <ele>276</ele>
        <time>2017-04-23T17:15:51Z</time>
      </trkpt>
      <trkpt lat="45.71464" lon="5.65339">
        <ele>276</ele>
        <time>2017-04-23T17:15:51Z</time>
      </trkpt>
      <trkpt lat="45.7147" lon="5.65346">
        <ele>276</ele>
        <time>2017-04-23T17:15:51Z</time>
      </trkpt>
      <trkpt lat="45.71474" lon="5.65348">
        <ele>276</ele>
        <time>2017-04-23T17:16:07Z</time>
      </trkpt>
      <trkpt lat="45.71479" lon="5.65353">
        <ele>276</ele>
        <time>2017-04-23T17:16:07Z</time>
      </trkpt>
      <trkpt lat="45.71484" lon="5.65356">
        <ele>276</ele>
        <time>2017-04-23T17:16:07Z</time>
      </trkpt>
      <trkpt lat="45.7149" lon="5.65361">
        <ele>276</ele>
        <time>2017-04-23T17:16:07Z</time>
      </trkpt>
      <trkpt lat="45.71494" lon="5.65364">
        <ele>276</ele>
        <time>2017-04-23T17:16:23Z</time>
      </trkpt>
      <trkpt lat="45.715" lon="5.65367">
        <ele>276</ele>
        <time>2017-04-23T17:16:23Z</time>
      </trkpt>
      <trkpt lat="45.71506" lon="5.65371">
        <ele>276</ele>
        <time>2017-04-23T17:16:23Z</time>
      </trkpt>
      <trkpt lat="45.71514" lon="5.65376">
        <ele>276</ele>
        <time>2017-04-23T17:16:23Z</time>
      </trkpt>
      <trkpt lat="45.7152" lon="5.65381">
        <ele>276</ele>
        <time>2017-04-23T17:16:39Z</time>
      </trkpt>
      <trkpt lat="45.71524" lon="5.65384">
        <ele>276</ele>
        <time>2017-04-23T17:16:39Z</time>
      </trkpt>
      <trkpt lat="45.71531" lon="5.65389">
        <ele>276</ele>
        <time>2017-04-23T17:16:39Z</time>
      </trkpt>
      <trkpt lat="45.71537" lon="5.65393">
        <ele>276</ele>
        <time>2017-04-23T17:16:39Z</time>
      </trkpt>
      <trkpt lat="45.71542" lon="5.65397">
        <ele>281</ele>
        <time>2017-04-23T17:16:55Z</time>
      </trkpt>
      <trkpt lat="45.71547" lon="5.65401">
        <ele>281</ele>
        <time>2017-04-23T17:16:55Z</time>
      </trkpt>
      <trkpt lat="45.71552" lon="5.65402">
        <ele>281</ele>
        <time>2017-04-23T17:16:55Z</time>
      </trkpt>
      <trkpt lat="45.7156" lon="5.65399">
        <ele>281</ele>
        <time>2017-04-23T17:16:55Z</time>
      </trkpt>
      <trkpt lat="45.71563" lon="5.65393">
        <ele>281</ele>
        <time>2017-04-23T17:17:11Z</time>
      </trkpt>
      <trkpt lat="45.71568" lon="5.65386">
        <ele>281</ele>
        <time>2017-04-23T17:17:11Z</time>
      </trkpt>
      <trkpt lat="45.71571" lon="5.65382">
        <ele>281</ele>
        <time>2017-04-23T17:17:11Z</time>
      </trkpt>
      <trkpt lat="45.71577" lon="5.65375">
        <ele>279</ele>
        <time>2017-04-23T17:17:11Z</time>
      </trkpt>
      <trkpt lat="45.71583" lon="5.65374">
        <ele>279</ele>
        <time>2017-04-23T17:17:27Z</time>
      </trkpt>
      <trkpt lat="45.71587" lon="5.65376">
        <ele>281</ele>
        <time>2017-04-23T17:17:27Z</time>
      </trkpt>
      <trkpt lat="45.71594" lon="5.6538">
        <ele>281</ele>
        <time>2017-04-23T17:17:27Z</time>
      </trkpt>
      <trkpt lat="45.716" lon="5.65384">
        <ele>281</ele>
        <time>2017-04-23T17:17:27Z</time>
      </trkpt>
      <trkpt lat="45.71606" lon="5.65388">
        <ele>281</ele>
        <time>2017-04-23T17:17:43Z</time>
      </trkpt>
      <trkpt lat="45.71611" lon="5.65391">
        <ele>281</ele>
        <time>2017-04-23T17:17:43Z</time>
      </trkpt>
      <trkpt lat="45.71616" lon="5.65395">
        <ele>281</ele>
        <time>2017-04-23T17:17:43Z</time>
      </trkpt>
      <trkpt lat="45.71622" lon="5.65398">
        <ele>281</ele>
        <time>2017-04-23T17:17:43Z</time>
      </trkpt>
      <trkpt lat="45.71627" lon="5.65402">
        <ele>285</ele>
        <time>2017-04-23T17:17:59Z</time>
      </trkpt>
      <trkpt lat="45.71633" lon="5.65405">
        <ele>285</ele>
        <time>2017-04-23T17:17:59Z</time>
      </trkpt>
      <trkpt lat="45.71638" lon="5.65408">
        <ele>285</ele>
        <time>2017-04-23T17:17:59Z</time>
      </trkpt>
      <trkpt lat="45.71643" lon="5.65412">
        <ele>285</ele>
        <time>2017-04-23T17:17:59Z</time>
      </trkpt>
      <trkpt lat="45.71649" lon="5.65416">
        <ele>285</ele>
        <time>2017-04-23T17:18:15Z</time>
      </trkpt>
      <trkpt lat="45.71655" lon="5.65421">
        <ele>285</ele>
        <time>2017-04-23T17:18:15Z</time>
      </trkpt>
      <trkpt lat="45.7166" lon="5.65425">
        <ele>285</ele>
        <time>2017-04-23T17:18:15Z</time>
      </trkpt>
      <trkpt lat="45.71665" lon="5.65428">
        <ele>285</ele>
        <time>2017-04-23T17:18:15Z</time>
      </trkpt>
      <trkpt lat="45.71671" lon="5.65433">
        <ele>285</ele>
        <time>2017-04-23T17:18:31Z</time>
      </trkpt>
      <trkpt lat="45.71676" lon="5.65437">
        <ele>285</ele>
        <time>2017-04-23T17:18:31Z</time>
      </trkpt>
      <trkpt lat="45.7168" lon="5.65439">
        <ele>285</ele>
        <time>2017-04-23T17:18:31Z</time>
      </trkpt>
      <trkpt lat="45.71687" lon="5.65444">
        <ele>285</ele>
        <time>2017-04-23T17:18:31Z</time>
      </trkpt>
      <trkpt lat="45.71691" lon="5.65448">
        <ele>285</ele>
        <time>2017-04-23T17:18:47Z</time>
      </trkpt>
      <trkpt lat="45.71695" lon="5.65452">
        <ele>285</ele>
        <time>2017-04-23T17:18:47Z</time>
      </trkpt>
      <trkpt lat="45.71699" lon="5.65454">
        <ele>285</ele>
        <time>2017-04-23T17:18:47Z</time>
      </trkpt>
      <trkpt lat="45.71706" lon="5.65458">
        <ele>284</ele>
        <time>2017-04-23T17:18:47Z</time>
      </trkpt>
      <trkpt lat="45.71712" lon="5.6546">
        <ele>286</ele>
        <time>2017-04-23T17:19:03Z</time>
      </trkpt>
      <trkpt lat="45.71718" lon="5.65464">
        <ele>286</ele>
        <time>2017-04-23T17:19:03Z</time>
      </trkpt>
      <trkpt lat="45.71722" lon="5.65467">
        <ele>286</ele>
        <time>2017-04-23T17:19:03Z</time>
      </trkpt>
      <trkpt lat="45.71729" lon="5.65472">
        <ele>286</ele>
        <time>2017-04-23T17:19:03Z</time>
      </trkpt>
      <trkpt lat="45.71735" lon="5.65476">
        <ele>286</ele>
        <time>2017-04-23T17:19:19Z</time>
      </trkpt>
      <trkpt lat="45.7174" lon="5.65479">
        <ele>286</ele>
        <time>2017-04-23T17:19:19Z</time>
      </trkpt>
      <trkpt lat="45.71745" lon="5.65482">
        <ele>286</ele>
        <time>2017-04-23T17:19:19Z</time>
      </trkpt>
      <trkpt lat="45.71751" lon="5.65487">
        <ele>286</ele>
        <time>2017-04-23T17:19:19Z</time>
      </trkpt>
      <trkpt lat="45.71756" lon="5.65491">
        <ele>286</ele>
        <time>2017-04-23T17:19:35Z</time>
      </trkpt>
      <trkpt lat="45.7176" lon="5.65493">
        <ele>286</ele>
        <time>2017-04-23T17:19:35Z</time>
      </trkpt>
      <trkpt lat="45.71766" lon="5.65496">
        <ele>286</ele>
        <time>2017-04-23T17:19:35Z</time>
      </trkpt>
      <trkpt lat="45.71773" lon="5.655">
        <ele>286</ele>
        <time>2017-04-23T17:19:35Z</time>
      </trkpt>
      <trkpt lat="45.71779" lon="5.65503">
        <ele>286</ele>
        <time>2017-04-23T17:19:51Z</time>
      </trkpt>
      <trkpt lat="45.71785" lon="5.65506">
        <ele>286</ele>
        <time>2017-04-23T17:19:51Z</time>
      </trkpt>
      <trkpt lat="45.71791" lon="5.65508">
        <ele>286</ele>
        <time>2017-04-23T17:19:51Z</time>
      </trkpt>
      <trkpt lat="45.71797" lon="5.65507">
        <ele>285</ele>
        <time>2017-04-23T17:19:51Z</time>
      </trkpt>
      <trkpt lat="45.71801" lon="5.65508">
        <ele>285</ele>
        <time>2017-04-23T17:20:07Z</time>
      </trkpt>
      <trkpt lat="45.71802" lon="5.65507">
        <ele>285</ele>
        <time>2017-04-23T17:20:07Z</time>
      </trkpt>
      <trkpt lat="45.71809" lon="5.65507">
        <ele>285</ele>
        <time>2017-04-23T17:20:07Z</time>
      </trkpt>
      <trkpt lat="45.71816" lon="5.65507">
        <ele>285</ele>
        <time>2017-04-23T17:20:07Z</time>
      </trkpt>
      <trkpt lat="45.71823" lon="5.65508">
        <ele>285</ele>
        <time>2017-04-23T17:20:23Z</time>
      </trkpt>
      <trkpt lat="45.71829" lon="5.65509">
        <ele>285</ele>
        <time>2017-04-23T17:20:23Z</time>
      </trkpt>
      <trkpt lat="45.71833" lon="5.65511">
        <ele>285</ele>
        <time>2017-04-23T17:20:23Z</time>
      </trkpt>
      <trkpt lat="45.7184" lon="5.65513">
        <ele>285</ele>
        <time>2017-04-23T17:20:23Z</time>
      </trkpt>
      <trkpt lat="45.71846" lon="5.65515">
        <ele>285</ele>
        <time>2017-04-23T17:20:39Z</time>
      </trkpt>
      <trkpt lat="45.71852" lon="5.65518">
        <ele>285</ele>
        <time>2017-04-23T17:20:39Z</time>
      </trkpt>
      <trkpt lat="45.71858" lon="5.65521">
        <ele>285</ele>
        <time>2017-04-23T17:20:39Z</time>
      </trkpt>
      <trkpt lat="45.71864" lon="5.65523">
        <ele>285</ele>
        <time>2017-04-23T17:20:39Z</time>
      </trkpt>
      <trkpt lat="45.7187" lon="5.65526">
        <ele>285</ele>
        <time>2017-04-23T17:20:55Z</time>
      </trkpt>
      <trkpt lat="45.71876" lon="5.65529">
        <ele>281</ele>
        <time>2017-04-23T17:20:55Z</time>
      </trkpt>
      <trkpt lat="45.71881" lon="5.65531">
        <ele>281</ele>
        <time>2017-04-23T17:20:55Z</time>
      </trkpt>
      <trkpt lat="45.71888" lon="5.65535">
        <ele>281</ele>
        <time>2017-04-23T17:20:55Z</time>
      </trkpt>
      <trkpt lat="45.71894" lon="5.65538">
        <ele>281</ele>
        <time>2017-04-23T17:21:11Z</time>
      </trkpt>
      <trkpt lat="45.71899" lon="5.6554">
        <ele>281</ele>
        <time>2017-04-23T17:21:11Z</time>
      </trkpt>
      <trkpt lat="45.71906" lon="5.65542">
        <ele>285</ele>
        <time>2017-04-23T17:21:11Z</time>
      </trkpt>
      <trkpt lat="45.71913" lon="5.65544">
        <ele>285</ele>
        <time>2017-04-23T17:21:11Z</time>
      </trkpt>
      <trkpt lat="45.7192" lon="5.65545">
        <ele>285</ele>
        <time>2017-04-23T17:21:27Z</time>
      </trkpt>
      <trkpt lat="45.71926" lon="5.65548">
        <ele>285</ele>
        <time>2017-04-23T17:21:27Z</time>
      </trkpt>
      <trkpt lat="45.71932" lon="5.65549">
        <ele>285</ele>
        <time>2017-04-23T17:21:27Z</time>
      </trkpt>
      <trkpt lat="45.71938" lon="5.65549">
        <ele>285</ele>
        <time>2017-04-23T17:21:27Z</time>
      </trkpt>
      <trkpt lat="45.71945" lon="5.65549">
        <ele>285</ele>
        <time>2017-04-23T17:21:43Z</time>
      </trkpt>
      <trkpt lat="45.71951" lon="5.6555">
        <ele>285</ele>
        <time>2017-04-23T17:21:43Z</time>
      </trkpt>
      <trkpt lat="45.71957" lon="5.65552">
        <ele>285</ele>
        <time>2017-04-23T17:21:43Z</time>
      </trkpt>
      <trkpt lat="45.71963" lon="5.65554">
        <ele>285</ele>
        <time>2017-04-23T17:21:43Z</time>
      </trkpt>
      <trkpt lat="45.7197" lon="5.65555">
        <ele>285</ele>
        <time>2017-04-23T17:21:59Z</time>
      </trkpt>
      <trkpt lat="45.71975" lon="5.65555">
        <ele>285</ele>
        <time>2017-04-23T17:21:59Z</time>
      </trkpt>
      <trkpt lat="45.71981" lon="5.65557">
        <ele>285</ele>
        <time>2017-04-23T17:21:59Z</time>
      </trkpt>
      <trkpt lat="45.71989" lon="5.65559">
        <ele>285</ele>
        <time>2017-04-23T17:21:59Z</time>
      </trkpt>
      <trkpt lat="45.71995" lon="5.65562">
        <ele>285</ele>
        <time>2017-04-23T17:22:15Z</time>
      </trkpt>
      <trkpt lat="45.72001" lon="5.65565">
        <ele>285</ele>
        <time>2017-04-23T17:22:15Z</time>
      </trkpt>
      <trkpt lat="45.72009" lon="5.65567">
        <ele>285</ele>
        <time>2017-04-23T17:22:15Z</time>
      </trkpt>
      <trkpt lat="45.72015" lon="5.6557">
        <ele>285</ele>
        <time>2017-04-23T17:22:15Z</time>
      </trkpt>
      <trkpt lat="45.72021" lon="5.65574">
        <ele>285</ele>
        <time>2017-04-23T17:22:31Z</time>
      </trkpt>
      <trkpt lat="45.72027" lon="5.65577">
        <ele>285</ele>
        <time>2017-04-23T17:22:31Z</time>
      </trkpt>
      <trkpt lat="45.72033" lon="5.6558">
        <ele>285</ele>
        <time>2017-04-23T17:22:31Z</time>
      </trkpt>
      <trkpt lat="45.72038" lon="5.65583">
        <ele>285</ele>
        <time>2017-04-23T17:22:31Z</time>
      </trkpt>
      <trkpt lat="45.72043" lon="5.65585">
        <ele>281</ele>
        <time>2017-04-23T17:22:47Z</time>
      </trkpt>
      <trkpt lat="45.72051" lon="5.65587">
        <ele>281</ele>
        <time>2017-04-23T17:22:47Z</time>
      </trkpt>
      <trkpt lat="45.72057" lon="5.65589">
        <ele>281</ele>
        <time>2017-04-23T17:22:47Z</time>
      </trkpt>
      <trkpt lat="45.72063" lon="5.65593">
        <ele>281</ele>
        <time>2017-04-23T17:22:47Z</time>
      </trkpt>
      <trkpt lat="45.72069" lon="5.65595">
        <ele>281</ele>
        <time>2017-04-23T17:23:03Z</time>
      </trkpt>
      <trkpt lat="45.72076" lon="5.65596">
        <ele>281</ele>
        <time>2017-04-23T17:23:03Z</time>
      </trkpt>
      <trkpt lat="45.72083" lon="5.65597">
        <ele>281</ele>
        <time>2017-04-23T17:23:03Z</time>
      </trkpt>
      <trkpt lat="45.7209" lon="5.65598">
        <ele>281</ele>
        <time>2017-04-23T17:23:03Z</time>
      </trkpt>
      <trkpt lat="45.72097" lon="5.65599">
        <ele>281</ele>
        <time>2017-04-23T17:23:19Z</time>
      </trkpt>
      <trkpt lat="45.72102" lon="5.656">
        <ele>281</ele>
        <time>2017-04-23T17:23:19Z</time>
      </trkpt>
      <trkpt lat="45.7211" lon="5.65602">
        <ele>281</ele>
        <time>2017-04-23T17:23:19Z</time>
      </trkpt>
      <trkpt lat="45.72116" lon="5.65603">
        <ele>281</ele>
        <time>2017-04-23T17:23:19Z</time>
      </trkpt>
      <trkpt lat="45.7212" lon="5.65604">
        <ele>281</ele>
        <time>2017-04-23T17:23:35Z</time>
      </trkpt>
      <trkpt lat="45.72128" lon="5.65606">
        <ele>283</ele>
        <time>2017-04-23T17:23:35Z</time>
      </trkpt>
      <trkpt lat="45.72132" lon="5.65607">
        <ele>283</ele>
        <time>2017-04-23T17:23:35Z</time>
      </trkpt>
      <trkpt lat="45.7214" lon="5.65608">
        <ele>283</ele>
        <time>2017-04-23T17:23:35Z</time>
      </trkpt>
      <trkpt lat="45.72145" lon="5.65611">
        <ele>283</ele>
        <time>2017-04-23T17:23:51Z</time>
      </trkpt>
      <trkpt lat="45.72149" lon="5.65612">
        <ele>283</ele>
        <time>2017-04-23T17:23:51Z</time>
      </trkpt>
      <trkpt lat="45.72158" lon="5.65612">
        <ele>283</ele>
        <time>2017-04-23T17:23:51Z</time>
      </trkpt>
      <trkpt lat="45.72164" lon="5.65611">
        <ele>283</ele>
        <time>2017-04-23T17:23:51Z</time>
      </trkpt>
      <trkpt lat="45.72168" lon="5.65611">
        <ele>283</ele>
        <time>2017-04-23T17:24:07Z</time>
      </trkpt>
      <trkpt lat="45.72175" lon="5.65611">
        <ele>283</ele>
        <time>2017-04-23T17:24:07Z</time>
      </trkpt>
      <trkpt lat="45.7218" lon="5.65609">
        <ele>283</ele>
        <time>2017-04-23T17:24:07Z</time>
      </trkpt>
      <trkpt lat="45.72184" lon="5.65607">
        <ele>283</ele>
        <time>2017-04-23T17:24:07Z</time>
      </trkpt>
      <trkpt lat="45.7219" lon="5.65606">
        <ele>283</ele>
        <time>2017-04-23T17:24:23Z</time>
      </trkpt>
      <trkpt lat="45.72196" lon="5.65606">
        <ele>283</ele>
        <time>2017-04-23T17:24:23Z</time>
      </trkpt>
      <trkpt lat="45.72201" lon="5.65604">
        <ele>283</ele>
        <time>2017-04-23T17:24:23Z</time>
      </trkpt>
      <trkpt lat="45.72204" lon="5.65603">
        <ele>283</ele>
        <time>2017-04-23T17:24:23Z</time>
      </trkpt>
      <trkpt lat="45.72207" lon="5.65604">
        <ele>283</ele>
        <time>2017-04-23T17:24:39Z</time>
      </trkpt>
      <trkpt lat="45.72212" lon="5.65601">
        <ele>284</ele>
        <time>2017-04-23T17:24:39Z</time>
      </trkpt>
      <trkpt lat="45.72218" lon="5.656">
        <ele>284</ele>
        <time>2017-04-23T17:24:39Z</time>
      </trkpt>
      <trkpt lat="45.72223" lon="5.65601">
        <ele>284</ele>
        <time>2017-04-23T17:24:39Z</time>
      </trkpt>
      <trkpt lat="45.72228" lon="5.656">
        <ele>284</ele>
        <time>2017-04-23T17:24:55Z</time>
      </trkpt>
      <trkpt lat="45.72233" lon="5.656">
        <ele>284</ele>
        <time>2017-04-23T17:24:55Z</time>
      </trkpt>
      <trkpt lat="45.72236" lon="5.656">
        <ele>284</ele>
        <time>2017-04-23T17:24:55Z</time>
      </trkpt>
      <trkpt lat="45.72243" lon="5.65601">
        <ele>284</ele>
        <time>2017-04-23T17:24:55Z</time>
      </trkpt>
      <trkpt lat="45.7225" lon="5.65601">
        <ele>284</ele>
        <time>2017-04-23T17:25:11Z</time>
      </trkpt>
      <trkpt lat="45.72258" lon="5.65601">
        <ele>284</ele>
        <time>2017-04-23T17:25:11Z</time>
      </trkpt>
      <trkpt lat="45.72269" lon="5.65601">
        <ele>284</ele>
        <time>2017-04-23T17:25:11Z</time>
      </trkpt>
      <trkpt lat="45.72278" lon="5.65602">
        <ele>284</ele>
        <time>2017-04-23T17:25:11Z</time>
      </trkpt>
      <trkpt lat="45.72283" lon="5.65602">
        <ele>284</ele>
        <time>2017-04-23T17:25:27Z</time>
      </trkpt>
      <trkpt lat="45.72293" lon="5.65602">
        <ele>283</ele>
        <time>2017-04-23T17:25:27Z</time>
      </trkpt>
      <trkpt lat="45.723" lon="5.65603">
        <ele>283</ele>
        <time>2017-04-23T17:25:27Z</time>
      </trkpt>
      <trkpt lat="45.72306" lon="5.65603">
        <ele>283</ele>
        <time>2017-04-23T17:25:27Z</time>
      </trkpt>
      <trkpt lat="45.72313" lon="5.65603">
        <ele>283</ele>
        <time>2017-04-23T17:25:43Z</time>
      </trkpt>
      <trkpt lat="45.72318" lon="5.65603">
        <ele>283</ele>
        <time>2017-04-23T17:25:43Z</time>
      </trkpt>
      <trkpt lat="45.72324" lon="5.65604">
        <ele>283</ele>
        <time>2017-04-23T17:25:43Z</time>
      </trkpt>
      <trkpt lat="45.72331" lon="5.65604">
        <ele>283</ele>
        <time>2017-04-23T17:25:43Z</time>
      </trkpt>
      <trkpt lat="45.72337" lon="5.65603">
        <ele>283</ele>
        <time>2017-04-23T17:25:59Z</time>
      </trkpt>
      <trkpt lat="45.72343" lon="5.65603">
        <ele>283</ele>
        <time>2017-04-23T17:25:59Z</time>
      </trkpt>
      <trkpt lat="45.7235" lon="5.65602">
        <ele>283</ele>
        <time>2017-04-23T17:25:59Z</time>
      </trkpt>
      <trkpt lat="45.72356" lon="5.65601">
        <ele>283</ele>
        <time>2017-04-23T17:25:59Z</time>
      </trkpt>
      <trkpt lat="45.72362" lon="5.65601">
        <ele>283</ele>
        <time>2017-04-23T17:26:15Z</time>
      </trkpt>
      <trkpt lat="45.72368" lon="5.656">
        <ele>283</ele>
        <time>2017-04-23T17:26:15Z</time>
      </trkpt>
      <trkpt lat="45.72373" lon="5.65599">
        <ele>283</ele>
        <time>2017-04-23T17:26:15Z</time>
      </trkpt>
      <trkpt lat="45.72381" lon="5.65598">
        <ele>282</ele>
        <time>2017-04-23T17:26:15Z</time>
      </trkpt>
      <trkpt lat="45.72387" lon="5.65596">
        <ele>282</ele>
        <time>2017-04-23T17:26:31Z</time>
      </trkpt>
      <trkpt lat="45.72392" lon="5.65595">
        <ele>282</ele>
        <time>2017-04-23T17:26:31Z</time>
      </trkpt>
      <trkpt lat="45.72397" lon="5.65593">
        <ele>282</ele>
        <time>2017-04-23T17:26:31Z</time>
      </trkpt>
      <trkpt lat="45.72402" lon="5.65589">
        <ele>282</ele>
        <time>2017-04-23T17:26:31Z</time>
      </trkpt>
      <trkpt lat="45.72409" lon="5.65583">
        <ele>282</ele>
        <time>2017-04-23T17:26:47Z</time>
      </trkpt>
      <trkpt lat="45.72412" lon="5.65579">
        <ele>282</ele>
        <time>2017-04-23T17:26:47Z</time>
      </trkpt>
      <trkpt lat="45.72418" lon="5.65573">
        <ele>282</ele>
        <time>2017-04-23T17:26:47Z</time>
      </trkpt>
      <trkpt lat="45.72424" lon="5.65566">
        <ele>282</ele>
        <time>2017-04-23T17:26:47Z</time>
      </trkpt>
      <trkpt lat="45.7243" lon="5.65562">
        <ele>282</ele>
        <time>2017-04-23T17:27:03Z</time>
      </trkpt>
      <trkpt lat="45.72435" lon="5.65556">
        <ele>282</ele>
        <time>2017-04-23T17:27:03Z</time>
      </trkpt>
      <trkpt lat="45.7244" lon="5.65551">
        <ele>282</ele>
        <time>2017-04-23T17:27:03Z</time>
      </trkpt>
      <trkpt lat="45.72446" lon="5.65542">
        <ele>282</ele>
        <time>2017-04-23T17:27:03Z</time>
      </trkpt>
      <trkpt lat="45.72451" lon="5.65535">
        <ele>282</ele>
        <time>2017-04-23T17:27:19Z</time>
      </trkpt>
      <trkpt lat="45.72456" lon="5.65531">
        <ele>282</ele>
        <time>2017-04-23T17:27:19Z</time>
      </trkpt>
      <trkpt lat="45.72461" lon="5.65525">
        <ele>278</ele>
        <time>2017-04-23T17:27:19Z</time>
      </trkpt>
      <trkpt lat="45.72468" lon="5.65518">
        <ele>278</ele>
        <time>2017-04-23T17:27:19Z</time>
      </trkpt>
      <trkpt lat="45.72473" lon="5.65514">
        <ele>278</ele>
        <time>2017-04-23T17:27:35Z</time>
      </trkpt>
      <trkpt lat="45.72479" lon="5.65509">
        <ele>278</ele>
        <time>2017-04-23T17:27:35Z</time>
      </trkpt>
      <trkpt lat="45.72484" lon="5.65505">
        <ele>278</ele>
        <time>2017-04-23T17:27:35Z</time>
      </trkpt>
      <trkpt lat="45.72489" lon="5.655">
        <ele>278</ele>
        <time>2017-04-23T17:27:35Z</time>
      </trkpt>
      <trkpt lat="45.72493" lon="5.65497">
        <ele>278</ele>
        <time>2017-04-23T17:27:51Z</time>
      </trkpt>
      <trkpt lat="45.72499" lon="5.65492">
        <ele>278</ele>
        <time>2017-04-23T17:27:51Z</time>
      </trkpt>
      <trkpt lat="45.72505" lon="5.65484">
        <ele>278</ele>
        <time>2017-04-23T17:27:51Z</time>
      </trkpt>
      <trkpt lat="45.7251" lon="5.65479">
        <ele>278</ele>
        <time>2017-04-23T17:27:51Z</time>
      </trkpt>
      <trkpt lat="45.72515" lon="5.65475">
        <ele>278</ele>
        <time>2017-04-23T17:28:07Z</time>
      </trkpt>
      <trkpt lat="45.72519" lon="5.6547">
        <ele>278</ele>
        <time>2017-04-23T17:28:07Z</time>
      </trkpt>
      <trkpt lat="45.7252" lon="5.65466">
        <ele>278</ele>
        <time>2017-04-23T17:28:07Z</time>
      </trkpt>
      <trkpt lat="45.72525" lon="5.65461">
        <ele>278</ele>
        <time>2017-04-23T17:28:07Z</time>
      </trkpt>
      <trkpt lat="45.72529" lon="5.65458">
        <ele>278</ele>
        <time>2017-04-23T17:28:23Z</time>
      </trkpt>
      <trkpt lat="45.72535" lon="5.65455">
        <ele>288</ele>
        <time>2017-04-23T17:28:23Z</time>
      </trkpt>
      <trkpt lat="45.72543" lon="5.65449">
        <ele>279</ele>
        <time>2017-04-23T17:28:23Z</time>
      </trkpt>
      <trkpt lat="45.72547" lon="5.65443">
        <ele>279</ele>
        <time>2017-04-23T17:28:23Z</time>
      </trkpt>
      <trkpt lat="45.7255" lon="5.6544">
        <ele>279</ele>
        <time>2017-04-23T17:28:39Z</time>
      </trkpt>
      <trkpt lat="45.72555" lon="5.65434">
        <ele>279</ele>
        <time>2017-04-23T17:28:39Z</time>
      </trkpt>
      <trkpt lat="45.72559" lon="5.65431">
        <ele>279</ele>
        <time>2017-04-23T17:28:39Z</time>
      </trkpt>
      <trkpt lat="45.72568" lon="5.65428">
        <ele>279</ele>
        <time>2017-04-23T17:28:39Z</time>
      </trkpt>
      <trkpt lat="45.72572" lon="5.65424">
        <ele>279</ele>
        <time>2017-04-23T17:28:55Z</time>
      </trkpt>
      <trkpt lat="45.72577" lon="5.65419">
        <ele>279</ele>
        <time>2017-04-23T17:28:55Z</time>
      </trkpt>
      <trkpt lat="45.72585" lon="5.65414">
        <ele>279</ele>
        <time>2017-04-23T17:28:55Z</time>
      </trkpt>
      <trkpt lat="45.72591" lon="5.65407">
        <ele>279</ele>
        <time>2017-04-23T17:28:55Z</time>
      </trkpt>
      <trkpt lat="45.72595" lon="5.654">
        <ele>279</ele>
        <time>2017-04-23T17:29:11Z</time>
      </trkpt>
      <trkpt lat="45.726" lon="5.65395">
        <ele>279</ele>
        <time>2017-04-23T17:29:11Z</time>
      </trkpt>
      <trkpt lat="45.72602" lon="5.6539">
        <ele>279</ele>
        <time>2017-04-23T17:29:11Z</time>
      </trkpt>
      <trkpt lat="45.72608" lon="5.65383">
        <ele>279</ele>
        <time>2017-04-23T17:29:11Z</time>
      </trkpt>
      <trkpt lat="45.7261" lon="5.65379">
        <ele>279</ele>
        <time>2017-04-23T17:29:27Z</time>
      </trkpt>
      <trkpt lat="45.72613" lon="5.65371">
        <ele>287</ele>
        <time>2017-04-23T17:29:27Z</time>
      </trkpt>
      <trkpt lat="45.72616" lon="5.65364">
        <ele>287</ele>
        <time>2017-04-23T17:29:27Z</time>
      </trkpt>
      <trkpt lat="45.72621" lon="5.65356">
        <ele>287</ele>
        <time>2017-04-23T17:29:27Z</time>
      </trkpt>
      <trkpt lat="45.72624" lon="5.65351">
        <ele>287</ele>
        <time>2017-04-23T17:29:43Z</time>
      </trkpt>
      <trkpt lat="45.72629" lon="5.65342">
        <ele>278</ele>
        <time>2017-04-23T17:29:43Z</time>
      </trkpt>
      <trkpt lat="45.72631" lon="5.65337">
        <ele>278</ele>
        <time>2017-04-23T17:29:43Z</time>
      </trkpt>
      <trkpt lat="45.72635" lon="5.65328">
        <ele>278</ele>
        <time>2017-04-23T17:29:43Z</time>
      </trkpt>
      <trkpt lat="45.72638" lon="5.65321">
        <ele>278</ele>
        <time>2017-04-23T17:29:59Z</time>
      </trkpt>
      <trkpt lat="45.72639" lon="5.65316">
        <ele>278</ele>
        <time>2017-04-23T17:29:59Z</time>
      </trkpt>
      <trkpt lat="45.72642" lon="5.65311">
        <ele>278</ele>
        <time>2017-04-23T17:29:59Z</time>
      </trkpt>
      <trkpt lat="45.72645" lon="5.65304">
        <ele>278</ele>
        <time>2017-04-23T17:29:59Z</time>
      </trkpt>
      <trkpt lat="45.7265" lon="5.65298">
        <ele>278</ele>
        <time>2017-04-23T17:30:15Z</time>
      </trkpt>
      <trkpt lat="45.72655" lon="5.65291">
        <ele>284</ele>
        <time>2017-04-23T17:30:15Z</time>
      </trkpt>
      <trkpt lat="45.72655" lon="5.65279">
        <ele>284</ele>
        <time>2017-04-23T17:30:15Z</time>
      </trkpt>
      <trkpt lat="45.72655" lon="5.65271">
        <ele>284</ele>
        <time>2017-04-23T17:30:15Z</time>
      </trkpt>
      <trkpt lat="45.72656" lon="5.65265">
        <ele>284</ele>
        <time>2017-04-23T17:30:31Z</time>
      </trkpt>
      <trkpt lat="45.72653" lon="5.65254">
        <ele>284</ele>
        <time>2017-04-23T17:30:31Z</time>
      </trkpt>
      <trkpt lat="45.72651" lon="5.65246">
        <ele>284</ele>
        <time>2017-04-23T17:30:31Z</time>
      </trkpt>
      <trkpt lat="45.7265" lon="5.65237">
        <ele>284</ele>
        <time>2017-04-23T17:30:31Z</time>
      </trkpt>
      <trkpt lat="45.72649" lon="5.65229">
        <ele>284</ele>
        <time>2017-04-23T17:30:47Z</time>
      </trkpt>
      <trkpt lat="45.72649" lon="5.65222">
        <ele>284</ele>
        <time>2017-04-23T17:30:47Z</time>
      </trkpt>
      <trkpt lat="45.7265" lon="5.65216">
        <ele>284</ele>
        <time>2017-04-23T17:30:47Z</time>
      </trkpt>
      <trkpt lat="45.72653" lon="5.65208">
        <ele>283</ele>
        <time>2017-04-23T17:30:47Z</time>
      </trkpt>
      <trkpt lat="45.72654" lon="5.65201">
        <ele>283</ele>
        <time>2017-04-23T17:31:03Z</time>
      </trkpt>
      <trkpt lat="45.72655" lon="5.65195">
        <ele>283</ele>
        <time>2017-04-23T17:31:03Z</time>
      </trkpt>
      <trkpt lat="45.72657" lon="5.65188">
        <ele>283</ele>
        <time>2017-04-23T17:31:03Z</time>
      </trkpt>
      <trkpt lat="45.72659" lon="5.65187">
        <ele>283</ele>
        <time>2017-04-23T17:31:03Z</time>
      </trkpt>
      <trkpt lat="45.72661" lon="5.65186">
        <ele>283</ele>
        <time>2017-04-23T17:31:19Z</time>
      </trkpt>
      <trkpt lat="45.72667" lon="5.65183">
        <ele>283</ele>
        <time>2017-04-23T17:31:19Z</time>
      </trkpt>
      <trkpt lat="45.72671" lon="5.65181">
        <ele>283</ele>
        <time>2017-04-23T17:31:19Z</time>
      </trkpt>
      <trkpt lat="45.72678" lon="5.65176">
        <ele>283</ele>
        <time>2017-04-23T17:31:19Z</time>
      </trkpt>
      <trkpt lat="45.72683" lon="5.65171">
        <ele>283</ele>
        <time>2017-04-23T17:31:35Z</time>
      </trkpt>
      <trkpt lat="45.72686" lon="5.65167">
        <ele>283</ele>
        <time>2017-04-23T17:31:35Z</time>
      </trkpt>
      <trkpt lat="45.72692" lon="5.65162">
        <ele>283</ele>
        <time>2017-04-23T17:31:35Z</time>
      </trkpt>
      <trkpt lat="45.72701" lon="5.65159">
        <ele>283</ele>
        <time>2017-04-23T17:31:35Z</time>
      </trkpt>
      <trkpt lat="45.72707" lon="5.65157">
        <ele>283</ele>
        <time>2017-04-23T17:31:51Z</time>
      </trkpt>
      <trkpt lat="45.72711" lon="5.65154">
        <ele>279</ele>
        <time>2017-04-23T17:31:51Z</time>
      </trkpt>
      <trkpt lat="45.72718" lon="5.6515">
        <ele>279</ele>
        <time>2017-04-23T17:31:51Z</time>
      </trkpt>
      <trkpt lat="45.72722" lon="5.65145">
        <ele>279</ele>
        <time>2017-04-23T17:31:51Z</time>
      </trkpt>
      <trkpt lat="45.72728" lon="5.65142">
        <ele>279</ele>
        <time>2017-04-23T17:32:07Z</time>
      </trkpt>
      <trkpt lat="45.72734" lon="5.65138">
        <ele>279</ele>
        <time>2017-04-23T17:32:07Z</time>
      </trkpt>
      <trkpt lat="45.72741" lon="5.65134">
        <ele>279</ele>
        <time>2017-04-23T17:32:07Z</time>
      </trkpt>
      <trkpt lat="45.72749" lon="5.6513">
        <ele>279</ele>
        <time>2017-04-23T17:32:07Z</time>
      </trkpt>
      <trkpt lat="45.72753" lon="5.65128">
        <ele>279</ele>
        <time>2017-04-23T17:32:23Z</time>
      </trkpt>
      <trkpt lat="45.72756" lon="5.65125">
        <ele>277</ele>
        <time>2017-04-23T17:32:23Z</time>
      </trkpt>
      <trkpt lat="45.72761" lon="5.65118">
        <ele>277</ele>
        <time>2017-04-23T17:32:23Z</time>
      </trkpt>
      <trkpt lat="45.72768" lon="5.65113">
        <ele>277</ele>
        <time>2017-04-23T17:32:23Z</time>
      </trkpt>
      <trkpt lat="45.72776" lon="5.6511">
        <ele>277</ele>
        <time>2017-04-23T17:32:39Z</time>
      </trkpt>
      <trkpt lat="45.72784" lon="5.65108">
        <ele>277</ele>
        <time>2017-04-23T17:32:39Z</time>
      </trkpt>
      <trkpt lat="45.72791" lon="5.65105">
        <ele>277</ele>
        <time>2017-04-23T17:32:39Z</time>
      </trkpt>
      <trkpt lat="45.72797" lon="5.65102">
        <ele>276</ele>
        <time>2017-04-23T17:32:39Z</time>
      </trkpt>
      <trkpt lat="45.72801" lon="5.65097">
        <ele>276</ele>
        <time>2017-04-23T17:32:55Z</time>
      </trkpt>
      <trkpt lat="45.72807" lon="5.65093">
        <ele>276</ele>
        <time>2017-04-23T17:32:55Z</time>
      </trkpt>
      <trkpt lat="45.72813" lon="5.65088">
        <ele>276</ele>
        <time>2017-04-23T17:32:55Z</time>
      </trkpt>
      <trkpt lat="45.72821" lon="5.65084">
        <ele>276</ele>
        <time>2017-04-23T17:32:55Z</time>
      </trkpt>
      <trkpt lat="45.72827" lon="5.65083">
        <ele>276</ele>
        <time>2017-04-23T17:33:11Z</time>
      </trkpt>
      <trkpt lat="45.72831" lon="5.65081">
        <ele>276</ele>
        <time>2017-04-23T17:33:11Z</time>
      </trkpt>
      <trkpt lat="45.72835" lon="5.65078">
        <ele>276</ele>
        <time>2017-04-23T17:33:11Z</time>
      </trkpt>
      <trkpt lat="45.72836" lon="5.65082">
        <ele>276</ele>
        <time>2017-04-23T17:33:11Z</time>
      </trkpt>
      <trkpt lat="45.7284" lon="5.65082">
        <ele>276</ele>
        <time>2017-04-23T17:33:43Z</time>
      </trkpt>
      <trkpt lat="45.7284" lon="5.65081">
        <ele>276</ele>
        <time>2017-04-23T17:33:43Z</time>
      </trkpt>
      <trkpt lat="45.7284" lon="5.6508">
        <ele>276</ele>
        <time>2017-04-23T17:33:43Z</time>
      </trkpt>
      <trkpt lat="45.72842" lon="5.65077">
        <ele>276</ele>
        <time>2017-04-23T17:33:43Z</time>
      </trkpt>
      <trkpt lat="45.72846" lon="5.65068">
        <ele>276</ele>
        <time>2017-04-23T17:33:43Z</time>
      </trkpt>
      <trkpt lat="45.72851" lon="5.65065">
        <ele>276</ele>
        <time>2017-04-23T17:33:59Z</time>
      </trkpt>
      <trkpt lat="45.72859" lon="5.65064">
        <ele>276</ele>
        <time>2017-04-23T17:33:59Z</time>
      </trkpt>
      <trkpt lat="45.7286" lon="5.65065">
        <ele>276</ele>
        <time>2017-04-23T17:33:59Z</time>
      </trkpt>
      <trkpt lat="45.72864" lon="5.65068">
        <ele>276</ele>
        <time>2017-04-23T17:33:59Z</time>
      </trkpt>
      <trkpt lat="45.72871" lon="5.65072">
        <ele>276</ele>
        <time>2017-04-23T17:34:15Z</time>
      </trkpt>
      <trkpt lat="45.72877" lon="5.65073">
        <ele>275</ele>
        <time>2017-04-23T17:34:15Z</time>
      </trkpt>
      <trkpt lat="45.72885" lon="5.65076">
        <ele>275</ele>
        <time>2017-04-23T17:34:15Z</time>
      </trkpt>
      <trkpt lat="45.72892" lon="5.65076">
        <ele>275</ele>
        <time>2017-04-23T17:34:15Z</time>
      </trkpt>
      <trkpt lat="45.72899" lon="5.65077">
        <ele>275</ele>
        <time>2017-04-23T17:34:31Z</time>
      </trkpt>
      <trkpt lat="45.72906" lon="5.65076">
        <ele>275</ele>
        <time>2017-04-23T17:34:31Z</time>
      </trkpt>
      <trkpt lat="45.72911" lon="5.65075">
        <ele>275</ele>
        <time>2017-04-23T17:34:31Z</time>
      </trkpt>
      <trkpt lat="45.72914" lon="5.65072">
        <ele>275</ele>
        <time>2017-04-23T17:34:31Z</time>
      </trkpt>
      <trkpt lat="45.72917" lon="5.6507">
        <ele>275</ele>
        <time>2017-04-23T17:34:47Z</time>
      </trkpt>
      <trkpt lat="45.7292" lon="5.65065">
        <ele>275</ele>
        <time>2017-04-23T17:34:47Z</time>
      </trkpt>
      <trkpt lat="45.72921" lon="5.65056">
        <ele>275</ele>
        <time>2017-04-23T17:34:47Z</time>
      </trkpt>
      <trkpt lat="45.72925" lon="5.65048">
        <ele>275</ele>
        <time>2017-04-23T17:34:47Z</time>
      </trkpt>
      <trkpt lat="45.72928" lon="5.65045">
        <ele>275</ele>
        <time>2017-04-23T17:35:03Z</time>
      </trkpt>
      <trkpt lat="45.72933" lon="5.65041">
        <ele>280</ele>
        <time>2017-04-23T17:35:03Z</time>
      </trkpt>
      <trkpt lat="45.72937" lon="5.65037">
        <ele>280</ele>
        <time>2017-04-23T17:35:03Z</time>
      </trkpt>
      <trkpt lat="45.72941" lon="5.65032">
        <ele>280</ele>
        <time>2017-04-23T17:35:03Z</time>
      </trkpt>
      <trkpt lat="45.72945" lon="5.65026">
        <ele>280</ele>
        <time>2017-04-23T17:35:19Z</time>
      </trkpt>
      <trkpt lat="45.72949" lon="5.65019">
        <ele>280</ele>
        <time>2017-04-23T17:35:19Z</time>
      </trkpt>
      <trkpt lat="45.72955" lon="5.65007">
        <ele>280</ele>
        <time>2017-04-23T17:35:19Z</time>
      </trkpt>
      <trkpt lat="45.72958" lon="5.65">
        <ele>282</ele>
        <time>2017-04-23T17:35:19Z</time>
      </trkpt>
      <trkpt lat="45.72961" lon="5.64994">
        <ele>282</ele>
        <time>2017-04-23T17:35:35Z</time>
      </trkpt>
      <trkpt lat="45.72964" lon="5.64989">
        <ele>282</ele>
        <time>2017-04-23T17:35:35Z</time>
      </trkpt>
      <trkpt lat="45.72972" lon="5.64984">
        <ele>282</ele>
        <time>2017-04-23T17:35:35Z</time>
      </trkpt>
      <trkpt lat="45.7298" lon="5.64984">
        <ele>282</ele>
        <time>2017-04-23T17:35:35Z</time>
      </trkpt>
      <trkpt lat="45.72986" lon="5.64984">
        <ele>282</ele>
        <time>2017-04-23T17:35:51Z</time>
      </trkpt>
      <trkpt lat="45.72994" lon="5.64982">
        <ele>282</ele>
        <time>2017-04-23T17:35:51Z</time>
      </trkpt>
      <trkpt lat="45.72998" lon="5.64981">
        <ele>282</ele>
        <time>2017-04-23T17:35:51Z</time>
      </trkpt>
      <trkpt lat="45.73004" lon="5.6498">
        <ele>282</ele>
        <time>2017-04-23T17:35:51Z</time>
      </trkpt>
      <trkpt lat="45.73008" lon="5.64979">
        <ele>282</ele>
        <time>2017-04-23T17:36:07Z</time>
      </trkpt>
      <trkpt lat="45.73012" lon="5.64977">
        <ele>282</ele>
        <time>2017-04-23T17:36:07Z</time>
      </trkpt>
      <trkpt lat="45.73017" lon="5.64975">
        <ele>282</ele>
        <time>2017-04-23T17:36:07Z</time>
      </trkpt>
      <trkpt lat="45.73022" lon="5.64972">
        <ele>282</ele>
        <time>2017-04-23T17:36:07Z</time>
      </trkpt>
      <trkpt lat="45.73022" lon="5.64967">
        <ele>282</ele>
        <time>2017-04-23T17:36:23Z</time>
      </trkpt>
      <trkpt lat="45.73026" lon="5.64963">
        <ele>282</ele>
        <time>2017-04-23T17:36:23Z</time>
      </trkpt>
      <trkpt lat="45.73032" lon="5.64958">
        <ele>289</ele>
        <time>2017-04-23T17:36:23Z</time>
      </trkpt>
      <trkpt lat="45.73036" lon="5.64952">
        <ele>289</ele>
        <time>2017-04-23T17:36:23Z</time>
      </trkpt>
      <trkpt lat="45.73038" lon="5.64947">
        <ele>289</ele>
        <time>2017-04-23T17:36:39Z</time>
      </trkpt>
      <trkpt lat="45.73042" lon="5.6494">
        <ele>289</ele>
        <time>2017-04-23T17:36:39Z</time>
      </trkpt>
      <trkpt lat="45.73047" lon="5.64937">
        <ele>289</ele>
        <time>2017-04-23T17:36:39Z</time>
      </trkpt>
      <trkpt lat="45.73053" lon="5.64935">
        <ele>289</ele>
        <time>2017-04-23T17:36:39Z</time>
      </trkpt>
      <trkpt lat="45.73059" lon="5.64932">
        <ele>289</ele>
        <time>2017-04-23T17:36:55Z</time>
      </trkpt>
      <trkpt lat="45.73063" lon="5.64928">
        <ele>289</ele>
        <time>2017-04-23T17:36:55Z</time>
      </trkpt>
      <trkpt lat="45.73068" lon="5.64925">
        <ele>289</ele>
        <time>2017-04-23T17:36:55Z</time>
      </trkpt>
      <trkpt lat="45.73069" lon="5.64924">
        <ele>289</ele>
        <time>2017-04-23T17:36:55Z</time>
      </trkpt>
      <trkpt lat="45.7307" lon="5.64911">
        <ele>289</ele>
        <time>2017-04-23T17:37:51Z</time>
      </trkpt>
      <trkpt lat="45.7307" lon="5.64909">
        <ele>289</ele>
        <time>2017-04-23T17:37:51Z</time>
      </trkpt>
      <trkpt lat="45.73069" lon="5.64907">
        <ele>289</ele>
        <time>2017-04-23T17:37:51Z</time>
      </trkpt>
      <trkpt lat="45.73069" lon="5.64907">
        <ele>289</ele>
        <time>2017-04-23T17:37:51Z</time>
      </trkpt>
      <trkpt lat="45.73069" lon="5.64907">
        <ele>289</ele>
        <time>2017-04-23T17:37:51Z</time>
      </trkpt>
      <trkpt lat="45.73069" lon="5.64906">
        <ele>289</ele>
        <time>2017-04-23T17:38:27Z</time>
      </trkpt>
      <trkpt lat="45.7307" lon="5.64906">
        <ele>289</ele>
        <time>2017-04-23T17:38:27Z</time>
      </trkpt>
      <trkpt lat="45.73072" lon="5.64906">
        <ele>289</ele>
        <time>2017-04-23T17:38:27Z</time>
      </trkpt>
      <trkpt lat="45.73076" lon="5.64903">
        <ele>289</ele>
        <time>2017-04-23T17:38:27Z</time>
      </trkpt>
      <trkpt lat="45.73079" lon="5.64901">
        <ele>289</ele>
        <time>2017-04-23T17:38:27Z</time>
      </trkpt>
      <trkpt lat="45.73083" lon="5.64901">
        <ele>289</ele>
        <time>2017-04-23T17:38:43Z</time>
      </trkpt>
      <trkpt lat="45.73086" lon="5.64901">
        <ele>289</ele>
        <time>2017-04-23T17:38:43Z</time>
      </trkpt>
      <trkpt lat="45.7309" lon="5.64901">
        <ele>289</ele>
        <time>2017-04-23T17:38:43Z</time>
      </trkpt>
      <trkpt lat="45.73094" lon="5.64901">
        <ele>289</ele>
        <time>2017-04-23T17:38:43Z</time>
      </trkpt>
      <trkpt lat="45.73101" lon="5.64904">
        <ele>289</ele>
        <time>2017-04-23T17:38:59Z</time>
      </trkpt>
      <trkpt lat="45.73105" lon="5.64907">
        <ele>289</ele>
        <time>2017-04-23T17:38:59Z</time>
      </trkpt>
      <trkpt lat="45.73109" lon="5.64908">
        <ele>289</ele>
        <time>2017-04-23T17:38:59Z</time>
      </trkpt>
      <trkpt lat="45.73115" lon="5.64909">
        <ele>289</ele>
        <time>2017-04-23T17:38:59Z</time>
      </trkpt>
      <trkpt lat="45.73122" lon="5.6491">
        <ele>289</ele>
        <time>2017-04-23T17:39:15Z</time>
      </trkpt>
      <trkpt lat="45.73129" lon="5.64912">
        <ele>289</ele>
        <time>2017-04-23T17:39:15Z</time>
      </trkpt>
      <trkpt lat="45.73136" lon="5.64912">
        <ele>289</ele>
        <time>2017-04-23T17:39:15Z</time>
      </trkpt>
      <trkpt lat="45.73142" lon="5.64913">
        <ele>289</ele>
        <time>2017-04-23T17:39:15Z</time>
      </trkpt>
      <trkpt lat="45.73148" lon="5.64914">
        <ele>289</ele>
        <time>2017-04-23T17:39:31Z</time>
      </trkpt>
      <trkpt lat="45.73154" lon="5.64911">
        <ele>289</ele>
        <time>2017-04-23T17:39:31Z</time>
      </trkpt>
      <trkpt lat="45.7316" lon="5.6491">
        <ele>289</ele>
        <time>2017-04-23T17:39:31Z</time>
      </trkpt>
      <trkpt lat="45.73167" lon="5.6491">
        <ele>289</ele>
        <time>2017-04-23T17:39:31Z</time>
      </trkpt>
      <trkpt lat="45.73173" lon="5.64909">
        <ele>289</ele>
        <time>2017-04-23T17:39:47Z</time>
      </trkpt>
      <trkpt lat="45.73179" lon="5.64908">
        <ele>289</ele>
        <time>2017-04-23T17:39:47Z</time>
      </trkpt>
      <trkpt lat="45.73185" lon="5.64907">
        <ele>289</ele>
        <time>2017-04-23T17:39:47Z</time>
      </trkpt>
      <trkpt lat="45.73191" lon="5.64907">
        <ele>289</ele>
        <time>2017-04-23T17:39:47Z</time>
      </trkpt>
      <trkpt lat="45.73197" lon="5.64906">
        <ele>289</ele>
        <time>2017-04-23T17:40:03Z</time>
      </trkpt>
      <trkpt lat="45.73203" lon="5.64905">
        <ele>289</ele>
        <time>2017-04-23T17:40:03Z</time>
      </trkpt>
      <trkpt lat="45.73208" lon="5.64905">
        <ele>289</ele>
        <time>2017-04-23T17:40:03Z</time>
      </trkpt>
      <trkpt lat="45.73213" lon="5.64904">
        <ele>286</ele>
        <time>2017-04-23T17:40:03Z</time>
      </trkpt>
    </trkseg>
  </trk>
</gpx>